<?xml version="1.0" encoding="UTF-8" standalone="no" ?>
<gpx xmlns="http://www.topografix.com/GPX/1/1" xmlns:xsi="http://www.w3.org/2001/XMLSchema-instance" xsi:schemaLocation="http://www.topografix.com/GPX/1/1 http://www.topografix.com/GPX/1/1/gpx.xsd" version="1.1" creator="VisuGPX - https://www.visugpx.com">
  <metadata>
    <name>Trail des Alpes Maritimes 45 km</name>
    <desc><![CDATA[Belle boucle au départ de Sospel en passant par l'Italie et le petit village d'Olivetta (variante canal d'irrigation) puis retour par le fort Agaisen]]></desc>
  </metadata>
  <trk>
    <name><![CDATA[Move]]></name>
    <trkseg>
      <trkpt lat="43.87701" lon="7.45044">
        <ele>353.3</ele>
        <time>2018-09-16T05:48:05.05Z</time>
      </trkpt>
      <trkpt lat="43.87695" lon="7.45048">
        <ele>358</ele>
        <time>2018-09-16T05:48:11.05Z</time>
      </trkpt>
      <trkpt lat="43.87687" lon="7.45052">
        <ele>358</ele>
        <time>2018-09-16T05:48:14.05Z</time>
      </trkpt>
      <trkpt lat="43.87681" lon="7.45059">
        <ele>358</ele>
        <time>2018-09-16T05:48:17.05Z</time>
      </trkpt>
      <trkpt lat="43.87679" lon="7.45075">
        <ele>358</ele>
        <time>2018-09-16T05:48:22.05Z</time>
      </trkpt>
      <trkpt lat="43.87684" lon="7.45089">
        <ele>358</ele>
        <time>2018-09-16T05:48:26.05Z</time>
      </trkpt>
      <trkpt lat="43.87688" lon="7.45104">
        <ele>358</ele>
        <time>2018-09-16T05:48:30.05Z</time>
      </trkpt>
      <trkpt lat="43.87693" lon="7.45118">
        <ele>358</ele>
        <time>2018-09-16T05:48:34.05Z</time>
      </trkpt>
      <trkpt lat="43.87688" lon="7.45131">
        <ele>358</ele>
        <time>2018-09-16T05:48:38.05Z</time>
      </trkpt>
      <trkpt lat="43.87687" lon="7.45146">
        <ele>358</ele>
        <time>2018-09-16T05:48:43.05Z</time>
      </trkpt>
      <trkpt lat="43.87691" lon="7.45161">
        <ele>358</ele>
        <time>2018-09-16T05:48:47.05Z</time>
      </trkpt>
      <trkpt lat="43.87695" lon="7.45175">
        <ele>358</ele>
        <time>2018-09-16T05:48:51.05Z</time>
      </trkpt>
      <trkpt lat="43.87701" lon="7.45188">
        <ele>358</ele>
        <time>2018-09-16T05:48:55.05Z</time>
      </trkpt>
      <trkpt lat="43.87706" lon="7.45202">
        <ele>358</ele>
        <time>2018-09-16T05:48:59.05Z</time>
      </trkpt>
      <trkpt lat="43.8771" lon="7.45216">
        <ele>356</ele>
        <time>2018-09-16T05:49:03.05Z</time>
      </trkpt>
      <trkpt lat="43.87714" lon="7.4523">
        <ele>356</ele>
        <time>2018-09-16T05:49:07.05Z</time>
      </trkpt>
      <trkpt lat="43.87719" lon="7.45243">
        <ele>356</ele>
        <time>2018-09-16T05:49:11.05Z</time>
      </trkpt>
      <trkpt lat="43.87724" lon="7.45253">
        <ele>356</ele>
        <time>2018-09-16T05:49:14.05Z</time>
      </trkpt>
      <trkpt lat="43.87725" lon="7.4527">
        <ele>356</ele>
        <time>2018-09-16T05:49:18.05Z</time>
      </trkpt>
      <trkpt lat="43.87723" lon="7.45287">
        <ele>355</ele>
        <time>2018-09-16T05:49:22.05Z</time>
      </trkpt>
      <trkpt lat="43.87721" lon="7.45299">
        <ele>355</ele>
        <time>2018-09-16T05:49:25.05Z</time>
      </trkpt>
      <trkpt lat="43.87721" lon="7.45315">
        <ele>355</ele>
        <time>2018-09-16T05:49:29.05Z</time>
      </trkpt>
      <trkpt lat="43.87724" lon="7.4533">
        <ele>354</ele>
        <time>2018-09-16T05:49:33.05Z</time>
      </trkpt>
      <trkpt lat="43.87727" lon="7.45344">
        <ele>354</ele>
        <time>2018-09-16T05:49:37.05Z</time>
      </trkpt>
      <trkpt lat="43.87726" lon="7.4536">
        <ele>354</ele>
        <time>2018-09-16T05:49:41.05Z</time>
      </trkpt>
      <trkpt lat="43.8772" lon="7.45373">
        <ele>354</ele>
        <time>2018-09-16T05:49:45.05Z</time>
      </trkpt>
      <trkpt lat="43.87715" lon="7.45388">
        <ele>354</ele>
        <time>2018-09-16T05:49:49.05Z</time>
      </trkpt>
      <trkpt lat="43.87715" lon="7.45404">
        <ele>352</ele>
        <time>2018-09-16T05:49:53.05Z</time>
      </trkpt>
      <trkpt lat="43.87717" lon="7.45418">
        <ele>352</ele>
        <time>2018-09-16T05:49:57.05Z</time>
      </trkpt>
      <trkpt lat="43.87718" lon="7.45433">
        <ele>351.74</ele>
        <time>2018-09-16T05:50:01.05Z</time>
      </trkpt>
      <trkpt lat="43.87718" lon="7.45448">
        <ele>351</ele>
        <time>2018-09-16T05:50:05.05Z</time>
      </trkpt>
      <trkpt lat="43.87717" lon="7.45463">
        <ele>351</ele>
        <time>2018-09-16T05:50:09.05Z</time>
      </trkpt>
      <trkpt lat="43.87717" lon="7.45478">
        <ele>352</ele>
        <time>2018-09-16T05:50:13.05Z</time>
      </trkpt>
      <trkpt lat="43.87717" lon="7.45493">
        <ele>352</ele>
        <time>2018-09-16T05:50:17.05Z</time>
      </trkpt>
      <trkpt lat="43.87717" lon="7.45507">
        <ele>352.52</ele>
        <time>2018-09-16T05:50:21.05Z</time>
      </trkpt>
      <trkpt lat="43.87718" lon="7.45522">
        <ele>354</ele>
        <time>2018-09-16T05:50:25.05Z</time>
      </trkpt>
      <trkpt lat="43.87717" lon="7.45538">
        <ele>354</ele>
        <time>2018-09-16T05:50:29.05Z</time>
      </trkpt>
      <trkpt lat="43.87717" lon="7.45553">
        <ele>354</ele>
        <time>2018-09-16T05:50:33.05Z</time>
      </trkpt>
      <trkpt lat="43.87717" lon="7.45568">
        <ele>354</ele>
        <time>2018-09-16T05:50:37.05Z</time>
      </trkpt>
      <trkpt lat="43.87718" lon="7.45583">
        <ele>354</ele>
        <time>2018-09-16T05:50:41.05Z</time>
      </trkpt>
      <trkpt lat="43.87723" lon="7.45597">
        <ele>354</ele>
        <time>2018-09-16T05:50:45.05Z</time>
      </trkpt>
      <trkpt lat="43.8773" lon="7.45611">
        <ele>354</ele>
        <time>2018-09-16T05:50:49.05Z</time>
      </trkpt>
      <trkpt lat="43.87736" lon="7.45624">
        <ele>354</ele>
        <time>2018-09-16T05:50:53.05Z</time>
      </trkpt>
      <trkpt lat="43.8774" lon="7.45638">
        <ele>354</ele>
        <time>2018-09-16T05:50:57.05Z</time>
      </trkpt>
      <trkpt lat="43.87742" lon="7.45652">
        <ele>354</ele>
        <time>2018-09-16T05:51:01.05Z</time>
      </trkpt>
      <trkpt lat="43.87744" lon="7.45668">
        <ele>354</ele>
        <time>2018-09-16T05:51:06.05Z</time>
      </trkpt>
      <trkpt lat="43.87746" lon="7.45684">
        <ele>354</ele>
        <time>2018-09-16T05:51:10.05Z</time>
      </trkpt>
      <trkpt lat="43.87749" lon="7.45697">
        <ele>354</ele>
        <time>2018-09-16T05:51:14.05Z</time>
      </trkpt>
      <trkpt lat="43.87752" lon="7.45712">
        <ele>354</ele>
        <time>2018-09-16T05:51:18.05Z</time>
      </trkpt>
      <trkpt lat="43.87754" lon="7.45727">
        <ele>353</ele>
        <time>2018-09-16T05:51:22.05Z</time>
      </trkpt>
      <trkpt lat="43.87755" lon="7.45742">
        <ele>353</ele>
        <time>2018-09-16T05:51:26.05Z</time>
      </trkpt>
      <trkpt lat="43.87754" lon="7.45757">
        <ele>353.52</ele>
        <time>2018-09-16T05:51:31.05Z</time>
      </trkpt>
      <trkpt lat="43.87754" lon="7.45772">
        <ele>355</ele>
        <time>2018-09-16T05:51:36.05Z</time>
      </trkpt>
      <trkpt lat="43.87754" lon="7.45787">
        <ele>355</ele>
        <time>2018-09-16T05:51:40.05Z</time>
      </trkpt>
      <trkpt lat="43.87752" lon="7.45803">
        <ele>357</ele>
        <time>2018-09-16T05:51:44.05Z</time>
      </trkpt>
      <trkpt lat="43.8775" lon="7.45818">
        <ele>357</ele>
        <time>2018-09-16T05:51:48.05Z</time>
      </trkpt>
      <trkpt lat="43.87748" lon="7.45832">
        <ele>357</ele>
        <time>2018-09-16T05:51:52.05Z</time>
      </trkpt>
      <trkpt lat="43.87746" lon="7.45846">
        <ele>357</ele>
        <time>2018-09-16T05:51:56.05Z</time>
      </trkpt>
      <trkpt lat="43.87744" lon="7.45862">
        <ele>357</ele>
        <time>2018-09-16T05:52:00.05Z</time>
      </trkpt>
      <trkpt lat="43.87741" lon="7.45876">
        <ele>357</ele>
        <time>2018-09-16T05:52:04.05Z</time>
      </trkpt>
      <trkpt lat="43.87737" lon="7.4589">
        <ele>357</ele>
        <time>2018-09-16T05:52:08.05Z</time>
      </trkpt>
      <trkpt lat="43.87732" lon="7.45904">
        <ele>357</ele>
        <time>2018-09-16T05:52:12.05Z</time>
      </trkpt>
      <trkpt lat="43.87726" lon="7.45918">
        <ele>357</ele>
        <time>2018-09-16T05:52:16.05Z</time>
      </trkpt>
      <trkpt lat="43.87721" lon="7.4593">
        <ele>357</ele>
        <time>2018-09-16T05:52:20.05Z</time>
      </trkpt>
      <trkpt lat="43.87716" lon="7.45942">
        <ele>358</ele>
        <time>2018-09-16T05:52:24.05Z</time>
      </trkpt>
      <trkpt lat="43.87712" lon="7.45957">
        <ele>358</ele>
        <time>2018-09-16T05:52:28.05Z</time>
      </trkpt>
      <trkpt lat="43.87708" lon="7.45973">
        <ele>359</ele>
        <time>2018-09-16T05:52:33.05Z</time>
      </trkpt>
      <trkpt lat="43.87706" lon="7.45984">
        <ele>359</ele>
        <time>2018-09-16T05:52:37.05Z</time>
      </trkpt>
      <trkpt lat="43.87702" lon="7.45999">
        <ele>361</ele>
        <time>2018-09-16T05:52:42.05Z</time>
      </trkpt>
      <trkpt lat="43.87699" lon="7.46012">
        <ele>361</ele>
        <time>2018-09-16T05:52:46.05Z</time>
      </trkpt>
      <trkpt lat="43.87698" lon="7.46029">
        <ele>361.52</ele>
        <time>2018-09-16T05:52:51.05Z</time>
      </trkpt>
      <trkpt lat="43.87698" lon="7.46043">
        <ele>363</ele>
        <time>2018-09-16T05:52:55.05Z</time>
      </trkpt>
      <trkpt lat="43.87695" lon="7.46058">
        <ele>363</ele>
        <time>2018-09-16T05:53:00.05Z</time>
      </trkpt>
      <trkpt lat="43.87686" lon="7.46062">
        <ele>364</ele>
        <time>2018-09-16T05:53:04.05Z</time>
      </trkpt>
      <trkpt lat="43.87678" lon="7.46062">
        <ele>364</ele>
        <time>2018-09-16T05:53:07.05Z</time>
      </trkpt>
      <trkpt lat="43.87668" lon="7.46062">
        <ele>364.52</ele>
        <time>2018-09-16T05:53:11.05Z</time>
      </trkpt>
      <trkpt lat="43.87658" lon="7.46065">
        <ele>366</ele>
        <time>2018-09-16T05:53:17.05Z</time>
      </trkpt>
      <trkpt lat="43.87657" lon="7.46079">
        <ele>368</ele>
        <time>2018-09-16T05:53:23.05Z</time>
      </trkpt>
      <trkpt lat="43.87663" lon="7.46092">
        <ele>368</ele>
        <time>2018-09-16T05:53:28.05Z</time>
      </trkpt>
      <trkpt lat="43.87664" lon="7.46106">
        <ele>370</ele>
        <time>2018-09-16T05:53:33.05Z</time>
      </trkpt>
      <trkpt lat="43.87663" lon="7.46123">
        <ele>372</ele>
        <time>2018-09-16T05:53:38.05Z</time>
      </trkpt>
      <trkpt lat="43.87661" lon="7.46138">
        <ele>373</ele>
        <time>2018-09-16T05:53:43.05Z</time>
      </trkpt>
      <trkpt lat="43.87659" lon="7.46153">
        <ele>374</ele>
        <time>2018-09-16T05:53:48.05Z</time>
      </trkpt>
      <trkpt lat="43.87656" lon="7.46166">
        <ele>374</ele>
        <time>2018-09-16T05:53:52.05Z</time>
      </trkpt>
      <trkpt lat="43.8765" lon="7.4618">
        <ele>374</ele>
        <time>2018-09-16T05:53:57.05Z</time>
      </trkpt>
      <trkpt lat="43.87646" lon="7.46197">
        <ele>376</ele>
        <time>2018-09-16T05:54:02.05Z</time>
      </trkpt>
      <trkpt lat="43.87644" lon="7.46211">
        <ele>376</ele>
        <time>2018-09-16T05:54:06.05Z</time>
      </trkpt>
      <trkpt lat="43.87642" lon="7.46226">
        <ele>376</ele>
        <time>2018-09-16T05:54:10.05Z</time>
      </trkpt>
      <trkpt lat="43.87641" lon="7.46241">
        <ele>377</ele>
        <time>2018-09-16T05:54:14.05Z</time>
      </trkpt>
      <trkpt lat="43.8764" lon="7.46255">
        <ele>377</ele>
        <time>2018-09-16T05:54:18.05Z</time>
      </trkpt>
      <trkpt lat="43.87639" lon="7.46269">
        <ele>377</ele>
        <time>2018-09-16T05:54:22.05Z</time>
      </trkpt>
      <trkpt lat="43.87639" lon="7.46284">
        <ele>377</ele>
        <time>2018-09-16T05:54:26.05Z</time>
      </trkpt>
      <trkpt lat="43.87639" lon="7.463">
        <ele>377.26</ele>
        <time>2018-09-16T05:54:31.05Z</time>
      </trkpt>
      <trkpt lat="43.87639" lon="7.46316">
        <ele>378</ele>
        <time>2018-09-16T05:54:36.05Z</time>
      </trkpt>
      <trkpt lat="43.87637" lon="7.46332">
        <ele>378.26</ele>
        <time>2018-09-16T05:54:41.05Z</time>
      </trkpt>
      <trkpt lat="43.87634" lon="7.46347">
        <ele>379</ele>
        <time>2018-09-16T05:54:46.05Z</time>
      </trkpt>
      <trkpt lat="43.87632" lon="7.4636">
        <ele>379</ele>
        <time>2018-09-16T05:54:50.05Z</time>
      </trkpt>
      <trkpt lat="43.87637" lon="7.46374">
        <ele>381</ele>
        <time>2018-09-16T05:54:55.05Z</time>
      </trkpt>
      <trkpt lat="43.87644" lon="7.46388">
        <ele>381</ele>
        <time>2018-09-16T05:55:00.05Z</time>
      </trkpt>
      <trkpt lat="43.87646" lon="7.46401">
        <ele>383</ele>
        <time>2018-09-16T05:55:04.05Z</time>
      </trkpt>
      <trkpt lat="43.87644" lon="7.46418">
        <ele>383</ele>
        <time>2018-09-16T05:55:09.05Z</time>
      </trkpt>
      <trkpt lat="43.87643" lon="7.46435">
        <ele>384</ele>
        <time>2018-09-16T05:55:14.05Z</time>
      </trkpt>
      <trkpt lat="43.87643" lon="7.46449">
        <ele>384</ele>
        <time>2018-09-16T05:55:18.05Z</time>
      </trkpt>
      <trkpt lat="43.87645" lon="7.46464">
        <ele>385</ele>
        <time>2018-09-16T05:55:22.05Z</time>
      </trkpt>
      <trkpt lat="43.87649" lon="7.46477">
        <ele>385</ele>
        <time>2018-09-16T05:55:26.05Z</time>
      </trkpt>
      <trkpt lat="43.87654" lon="7.4649">
        <ele>385</ele>
        <time>2018-09-16T05:55:30.05Z</time>
      </trkpt>
      <trkpt lat="43.8766" lon="7.46505">
        <ele>386</ele>
        <time>2018-09-16T05:55:35.05Z</time>
      </trkpt>
      <trkpt lat="43.87666" lon="7.46518">
        <ele>386</ele>
        <time>2018-09-16T05:55:40.05Z</time>
      </trkpt>
      <trkpt lat="43.8767" lon="7.46533">
        <ele>387</ele>
        <time>2018-09-16T05:55:45.05Z</time>
      </trkpt>
      <trkpt lat="43.87672" lon="7.46549">
        <ele>387</ele>
        <time>2018-09-16T05:55:50.05Z</time>
      </trkpt>
      <trkpt lat="43.87668" lon="7.46565">
        <ele>389</ele>
        <time>2018-09-16T05:55:55.05Z</time>
      </trkpt>
      <trkpt lat="43.87663" lon="7.4658">
        <ele>389</ele>
        <time>2018-09-16T05:56:00.05Z</time>
      </trkpt>
      <trkpt lat="43.87657" lon="7.4659">
        <ele>390</ele>
        <time>2018-09-16T05:56:04.05Z</time>
      </trkpt>
      <trkpt lat="43.87649" lon="7.46602">
        <ele>390</ele>
        <time>2018-09-16T05:56:09.05Z</time>
      </trkpt>
      <trkpt lat="43.87641" lon="7.46608">
        <ele>391</ele>
        <time>2018-09-16T05:56:13.05Z</time>
      </trkpt>
      <trkpt lat="43.87631" lon="7.46615">
        <ele>391</ele>
        <time>2018-09-16T05:56:18.05Z</time>
      </trkpt>
      <trkpt lat="43.87628" lon="7.4663">
        <ele>393</ele>
        <time>2018-09-16T05:56:23.05Z</time>
      </trkpt>
      <trkpt lat="43.87633" lon="7.46642">
        <ele>393</ele>
        <time>2018-09-16T05:56:28.05Z</time>
      </trkpt>
      <trkpt lat="43.87642" lon="7.46648">
        <ele>395</ele>
        <time>2018-09-16T05:56:32.05Z</time>
      </trkpt>
      <trkpt lat="43.87649" lon="7.46657">
        <ele>395</ele>
        <time>2018-09-16T05:56:36.05Z</time>
      </trkpt>
      <trkpt lat="43.87656" lon="7.46665">
        <ele>395</ele>
        <time>2018-09-16T05:56:40.05Z</time>
      </trkpt>
      <trkpt lat="43.87661" lon="7.46675">
        <ele>396</ele>
        <time>2018-09-16T05:56:44.05Z</time>
      </trkpt>
      <trkpt lat="43.87666" lon="7.46684">
        <ele>396</ele>
        <time>2018-09-16T05:56:48.05Z</time>
      </trkpt>
      <trkpt lat="43.8767" lon="7.46695">
        <ele>398</ele>
        <time>2018-09-16T05:56:52.05Z</time>
      </trkpt>
      <trkpt lat="43.87675" lon="7.46707">
        <ele>398</ele>
        <time>2018-09-16T05:56:57.05Z</time>
      </trkpt>
      <trkpt lat="43.87682" lon="7.4672">
        <ele>400</ele>
        <time>2018-09-16T05:57:02.05Z</time>
      </trkpt>
      <trkpt lat="43.87688" lon="7.46729">
        <ele>400</ele>
        <time>2018-09-16T05:57:06.05Z</time>
      </trkpt>
      <trkpt lat="43.87693" lon="7.46742">
        <ele>400.26</ele>
        <time>2018-09-16T05:57:11.05Z</time>
      </trkpt>
      <trkpt lat="43.87698" lon="7.46755">
        <ele>401</ele>
        <time>2018-09-16T05:57:16.05Z</time>
      </trkpt>
      <trkpt lat="43.87703" lon="7.46767">
        <ele>401.26</ele>
        <time>2018-09-16T05:57:21.05Z</time>
      </trkpt>
      <trkpt lat="43.87707" lon="7.46777">
        <ele>402</ele>
        <time>2018-09-16T05:57:25.05Z</time>
      </trkpt>
      <trkpt lat="43.87708" lon="7.46789">
        <ele>402</ele>
        <time>2018-09-16T05:57:30.05Z</time>
      </trkpt>
      <trkpt lat="43.87703" lon="7.46803">
        <ele>406</ele>
        <time>2018-09-16T05:57:37.05Z</time>
      </trkpt>
      <trkpt lat="43.87695" lon="7.46811">
        <ele>407</ele>
        <time>2018-09-16T05:57:42.05Z</time>
      </trkpt>
      <trkpt lat="43.87693" lon="7.46826">
        <ele>407</ele>
        <time>2018-09-16T05:57:47.05Z</time>
      </trkpt>
      <trkpt lat="43.87693" lon="7.46842">
        <ele>408</ele>
        <time>2018-09-16T05:57:52.05Z</time>
      </trkpt>
      <trkpt lat="43.87694" lon="7.46856">
        <ele>408</ele>
        <time>2018-09-16T05:57:58.05Z</time>
      </trkpt>
      <trkpt lat="43.87699" lon="7.46869">
        <ele>412</ele>
        <time>2018-09-16T05:58:04.05Z</time>
      </trkpt>
      <trkpt lat="43.87701" lon="7.46883">
        <ele>412</ele>
        <time>2018-09-16T05:58:10.05Z</time>
      </trkpt>
      <trkpt lat="43.87703" lon="7.46896">
        <ele>413</ele>
        <time>2018-09-16T05:58:15.05Z</time>
      </trkpt>
      <trkpt lat="43.87702" lon="7.46913">
        <ele>413</ele>
        <time>2018-09-16T05:58:20.05Z</time>
      </trkpt>
      <trkpt lat="43.87702" lon="7.46928">
        <ele>414</ele>
        <time>2018-09-16T05:58:25.05Z</time>
      </trkpt>
      <trkpt lat="43.87701" lon="7.46943">
        <ele>414</ele>
        <time>2018-09-16T05:58:29.05Z</time>
      </trkpt>
      <trkpt lat="43.87699" lon="7.46959">
        <ele>416</ele>
        <time>2018-09-16T05:58:34.05Z</time>
      </trkpt>
      <trkpt lat="43.87695" lon="7.46973">
        <ele>416</ele>
        <time>2018-09-16T05:58:38.05Z</time>
      </trkpt>
      <trkpt lat="43.87689" lon="7.46987">
        <ele>417</ele>
        <time>2018-09-16T05:58:43.05Z</time>
      </trkpt>
      <trkpt lat="43.87683" lon="7.47">
        <ele>417</ele>
        <time>2018-09-16T05:58:47.05Z</time>
      </trkpt>
      <trkpt lat="43.87679" lon="7.47015">
        <ele>419</ele>
        <time>2018-09-16T05:58:52.05Z</time>
      </trkpt>
      <trkpt lat="43.87677" lon="7.4703">
        <ele>419</ele>
        <time>2018-09-16T05:58:58.05Z</time>
      </trkpt>
      <trkpt lat="43.87676" lon="7.47046">
        <ele>420</ele>
        <time>2018-09-16T05:59:05.05Z</time>
      </trkpt>
      <trkpt lat="43.87676" lon="7.4706">
        <ele>422</ele>
        <time>2018-09-16T05:59:15.05Z</time>
      </trkpt>
      <trkpt lat="43.8767" lon="7.47073">
        <ele>426</ele>
        <time>2018-09-16T05:59:27.05Z</time>
      </trkpt>
      <trkpt lat="43.87663" lon="7.47086">
        <ele>426</ele>
        <time>2018-09-16T05:59:33.05Z</time>
      </trkpt>
      <trkpt lat="43.87657" lon="7.47098">
        <ele>426</ele>
        <time>2018-09-16T05:59:38.05Z</time>
      </trkpt>
      <trkpt lat="43.87652" lon="7.47112">
        <ele>428</ele>
        <time>2018-09-16T05:59:43.05Z</time>
      </trkpt>
      <trkpt lat="43.87644" lon="7.47121">
        <ele>431</ele>
        <time>2018-09-16T05:59:54.05Z</time>
      </trkpt>
      <trkpt lat="43.87637" lon="7.47131">
        <ele>432</ele>
        <time>2018-09-16T06:00:01.05Z</time>
      </trkpt>
      <trkpt lat="43.87632" lon="7.47144">
        <ele>432</ele>
        <time>2018-09-16T06:00:08.05Z</time>
      </trkpt>
      <trkpt lat="43.87629" lon="7.47159">
        <ele>434</ele>
        <time>2018-09-16T06:00:15.05Z</time>
      </trkpt>
      <trkpt lat="43.87627" lon="7.47173">
        <ele>436</ele>
        <time>2018-09-16T06:00:22.05Z</time>
      </trkpt>
      <trkpt lat="43.87622" lon="7.47185">
        <ele>436</ele>
        <time>2018-09-16T06:00:29.05Z</time>
      </trkpt>
      <trkpt lat="43.87617" lon="7.47198">
        <ele>437</ele>
        <time>2018-09-16T06:00:36.05Z</time>
      </trkpt>
      <trkpt lat="43.87607" lon="7.47197">
        <ele>437.78</ele>
        <time>2018-09-16T06:00:41.05Z</time>
      </trkpt>
      <trkpt lat="43.87597" lon="7.47194">
        <ele>440.51</ele>
        <time>2018-09-16T06:00:46.05Z</time>
      </trkpt>
      <trkpt lat="43.87587" lon="7.47191">
        <ele>442</ele>
        <time>2018-09-16T06:00:51.05Z</time>
      </trkpt>
      <trkpt lat="43.87578" lon="7.47193">
        <ele>442.26</ele>
        <time>2018-09-16T06:00:56.05Z</time>
      </trkpt>
      <trkpt lat="43.87571" lon="7.47199">
        <ele>443</ele>
        <time>2018-09-16T06:01:00.05Z</time>
      </trkpt>
      <trkpt lat="43.8756" lon="7.47202">
        <ele>444</ele>
        <time>2018-09-16T06:01:05.05Z</time>
      </trkpt>
      <trkpt lat="43.8755" lon="7.47201">
        <ele>444</ele>
        <time>2018-09-16T06:01:09.05Z</time>
      </trkpt>
      <trkpt lat="43.8754" lon="7.47202">
        <ele>444</ele>
        <time>2018-09-16T06:01:13.05Z</time>
      </trkpt>
      <trkpt lat="43.87531" lon="7.47201">
        <ele>444</ele>
        <time>2018-09-16T06:01:17.05Z</time>
      </trkpt>
      <trkpt lat="43.8752" lon="7.47197">
        <ele>443</ele>
        <time>2018-09-16T06:01:22.05Z</time>
      </trkpt>
      <trkpt lat="43.8751" lon="7.47193">
        <ele>443</ele>
        <time>2018-09-16T06:01:27.05Z</time>
      </trkpt>
      <trkpt lat="43.87501" lon="7.47186">
        <ele>445</ele>
        <time>2018-09-16T06:01:35.05Z</time>
      </trkpt>
      <trkpt lat="43.87492" lon="7.47179">
        <ele>447</ele>
        <time>2018-09-16T06:01:46.05Z</time>
      </trkpt>
      <trkpt lat="43.87488" lon="7.47192">
        <ele>451</ele>
        <time>2018-09-16T06:02:00.05Z</time>
      </trkpt>
      <trkpt lat="43.87492" lon="7.47208">
        <ele>453</ele>
        <time>2018-09-16T06:02:07.05Z</time>
      </trkpt>
      <trkpt lat="43.87497" lon="7.4722">
        <ele>454</ele>
        <time>2018-09-16T06:02:13.05Z</time>
      </trkpt>
      <trkpt lat="43.87502" lon="7.47233">
        <ele>454.26</ele>
        <time>2018-09-16T06:02:21.05Z</time>
      </trkpt>
      <trkpt lat="43.87501" lon="7.47248">
        <ele>456.04</ele>
        <time>2018-09-16T06:02:31.05Z</time>
      </trkpt>
      <trkpt lat="43.87498" lon="7.47262">
        <ele>460</ele>
        <time>2018-09-16T06:02:37.05Z</time>
      </trkpt>
      <trkpt lat="43.87499" lon="7.47278">
        <ele>459</ele>
        <time>2018-09-16T06:02:42.05Z</time>
      </trkpt>
      <trkpt lat="43.87503" lon="7.47292">
        <ele>459</ele>
        <time>2018-09-16T06:02:46.05Z</time>
      </trkpt>
      <trkpt lat="43.87507" lon="7.47307">
        <ele>458.74</ele>
        <time>2018-09-16T06:02:51.05Z</time>
      </trkpt>
      <trkpt lat="43.87506" lon="7.47322">
        <ele>458</ele>
        <time>2018-09-16T06:02:56.05Z</time>
      </trkpt>
      <trkpt lat="43.87504" lon="7.47336">
        <ele>458</ele>
        <time>2018-09-16T06:03:00.05Z</time>
      </trkpt>
      <trkpt lat="43.875" lon="7.47351">
        <ele>457</ele>
        <time>2018-09-16T06:03:04.05Z</time>
      </trkpt>
      <trkpt lat="43.87498" lon="7.47365">
        <ele>457</ele>
        <time>2018-09-16T06:03:08.05Z</time>
      </trkpt>
      <trkpt lat="43.87495" lon="7.47382">
        <ele>457</ele>
        <time>2018-09-16T06:03:13.05Z</time>
      </trkpt>
      <trkpt lat="43.8749" lon="7.47396">
        <ele>457</ele>
        <time>2018-09-16T06:03:18.05Z</time>
      </trkpt>
      <trkpt lat="43.87487" lon="7.47409">
        <ele>458</ele>
        <time>2018-09-16T06:03:24.05Z</time>
      </trkpt>
      <trkpt lat="43.87489" lon="7.47424">
        <ele>458</ele>
        <time>2018-09-16T06:03:30.05Z</time>
      </trkpt>
      <trkpt lat="43.87487" lon="7.47439">
        <ele>462</ele>
        <time>2018-09-16T06:03:39.05Z</time>
      </trkpt>
      <trkpt lat="43.87486" lon="7.47453">
        <ele>463</ele>
        <time>2018-09-16T06:03:44.05Z</time>
      </trkpt>
      <trkpt lat="43.87483" lon="7.47465">
        <ele>461</ele>
        <time>2018-09-16T06:03:49.05Z</time>
      </trkpt>
      <trkpt lat="43.87474" lon="7.47474">
        <ele>460</ele>
        <time>2018-09-16T06:03:55.05Z</time>
      </trkpt>
      <trkpt lat="43.87464" lon="7.47482">
        <ele>458</ele>
        <time>2018-09-16T06:04:00.05Z</time>
      </trkpt>
      <trkpt lat="43.87456" lon="7.47492">
        <ele>458</ele>
        <time>2018-09-16T06:04:05.05Z</time>
      </trkpt>
      <trkpt lat="43.87448" lon="7.47505">
        <ele>457</ele>
        <time>2018-09-16T06:04:10.05Z</time>
      </trkpt>
      <trkpt lat="43.8744" lon="7.47515">
        <ele>456</ele>
        <time>2018-09-16T06:04:14.05Z</time>
      </trkpt>
      <trkpt lat="43.87431" lon="7.47523">
        <ele>456</ele>
        <time>2018-09-16T06:04:18.05Z</time>
      </trkpt>
      <trkpt lat="43.87422" lon="7.47534">
        <ele>454</ele>
        <time>2018-09-16T06:04:23.05Z</time>
      </trkpt>
      <trkpt lat="43.87413" lon="7.47542">
        <ele>453</ele>
        <time>2018-09-16T06:04:27.05Z</time>
      </trkpt>
      <trkpt lat="43.87406" lon="7.47552">
        <ele>453</ele>
        <time>2018-09-16T06:04:31.05Z</time>
      </trkpt>
      <trkpt lat="43.874" lon="7.47567">
        <ele>453</ele>
        <time>2018-09-16T06:04:36.05Z</time>
      </trkpt>
      <trkpt lat="43.87396" lon="7.47581">
        <ele>453</ele>
        <time>2018-09-16T06:04:40.05Z</time>
      </trkpt>
      <trkpt lat="43.87392" lon="7.47593">
        <ele>450</ele>
        <time>2018-09-16T06:04:44.05Z</time>
      </trkpt>
      <trkpt lat="43.87387" lon="7.47609">
        <ele>449</ele>
        <time>2018-09-16T06:04:49.05Z</time>
      </trkpt>
      <trkpt lat="43.87382" lon="7.4762">
        <ele>448</ele>
        <time>2018-09-16T06:04:53.05Z</time>
      </trkpt>
      <trkpt lat="43.87377" lon="7.47634">
        <ele>448</ele>
        <time>2018-09-16T06:04:57.05Z</time>
      </trkpt>
      <trkpt lat="43.87374" lon="7.4765">
        <ele>451</ele>
        <time>2018-09-16T06:05:02.05Z</time>
      </trkpt>
      <trkpt lat="43.87366" lon="7.47663">
        <ele>451</ele>
        <time>2018-09-16T06:05:07.05Z</time>
      </trkpt>
      <trkpt lat="43.87356" lon="7.47672">
        <ele>451</ele>
        <time>2018-09-16T06:05:11.05Z</time>
      </trkpt>
      <trkpt lat="43.87347" lon="7.47679">
        <ele>451</ele>
        <time>2018-09-16T06:05:15.05Z</time>
      </trkpt>
      <trkpt lat="43.87336" lon="7.47684">
        <ele>451</ele>
        <time>2018-09-16T06:05:20.05Z</time>
      </trkpt>
      <trkpt lat="43.87327" lon="7.47689">
        <ele>451</ele>
        <time>2018-09-16T06:05:25.05Z</time>
      </trkpt>
      <trkpt lat="43.87323" lon="7.47705">
        <ele>452</ele>
        <time>2018-09-16T06:05:32.05Z</time>
      </trkpt>
      <trkpt lat="43.87322" lon="7.47722">
        <ele>452</ele>
        <time>2018-09-16T06:05:37.05Z</time>
      </trkpt>
      <trkpt lat="43.87316" lon="7.47735">
        <ele>452</ele>
        <time>2018-09-16T06:05:42.05Z</time>
      </trkpt>
      <trkpt lat="43.87309" lon="7.47742">
        <ele>452</ele>
        <time>2018-09-16T06:05:46.05Z</time>
      </trkpt>
      <trkpt lat="43.87303" lon="7.47754">
        <ele>452</ele>
        <time>2018-09-16T06:05:50.05Z</time>
      </trkpt>
      <trkpt lat="43.87298" lon="7.47767">
        <ele>450</ele>
        <time>2018-09-16T06:05:54.05Z</time>
      </trkpt>
      <trkpt lat="43.87293" lon="7.47779">
        <ele>450</ele>
        <time>2018-09-16T06:05:58.05Z</time>
      </trkpt>
      <trkpt lat="43.87285" lon="7.47789">
        <ele>448</ele>
        <time>2018-09-16T06:06:03.05Z</time>
      </trkpt>
      <trkpt lat="43.8728" lon="7.47801">
        <ele>448</ele>
        <time>2018-09-16T06:06:07.05Z</time>
      </trkpt>
      <trkpt lat="43.87274" lon="7.47812">
        <ele>448</ele>
        <time>2018-09-16T06:06:11.05Z</time>
      </trkpt>
      <trkpt lat="43.87266" lon="7.47823">
        <ele>448</ele>
        <time>2018-09-16T06:06:15.05Z</time>
      </trkpt>
      <trkpt lat="43.87258" lon="7.47835">
        <ele>448</ele>
        <time>2018-09-16T06:06:19.05Z</time>
      </trkpt>
      <trkpt lat="43.87249" lon="7.47847">
        <ele>447</ele>
        <time>2018-09-16T06:06:23.05Z</time>
      </trkpt>
      <trkpt lat="43.87241" lon="7.47857">
        <ele>447</ele>
        <time>2018-09-16T06:06:27.05Z</time>
      </trkpt>
      <trkpt lat="43.87233" lon="7.47869">
        <ele>444</ele>
        <time>2018-09-16T06:06:32.05Z</time>
      </trkpt>
      <trkpt lat="43.87224" lon="7.47879">
        <ele>443.22</ele>
        <time>2018-09-16T06:06:36.05Z</time>
      </trkpt>
      <trkpt lat="43.87214" lon="7.4789">
        <ele>441</ele>
        <time>2018-09-16T06:06:40.05Z</time>
      </trkpt>
      <trkpt lat="43.87205" lon="7.479">
        <ele>439.26</ele>
        <time>2018-09-16T06:06:44.05Z</time>
      </trkpt>
      <trkpt lat="43.87194" lon="7.47908">
        <ele>439</ele>
        <time>2018-09-16T06:06:48.05Z</time>
      </trkpt>
      <trkpt lat="43.87185" lon="7.47918">
        <ele>439</ele>
        <time>2018-09-16T06:06:53.05Z</time>
      </trkpt>
      <trkpt lat="43.8718" lon="7.47933">
        <ele>439</ele>
        <time>2018-09-16T06:06:57.05Z</time>
      </trkpt>
      <trkpt lat="43.8717" lon="7.47943">
        <ele>437.7</ele>
        <time>2018-09-16T06:07:01.05Z</time>
      </trkpt>
      <trkpt lat="43.87159" lon="7.47945">
        <ele>433.74</ele>
        <time>2018-09-16T06:07:05.05Z</time>
      </trkpt>
      <trkpt lat="43.87148" lon="7.47945">
        <ele>432</ele>
        <time>2018-09-16T06:07:11.05Z</time>
      </trkpt>
      <trkpt lat="43.87147" lon="7.47961">
        <ele>432</ele>
        <time>2018-09-16T06:07:16.05Z</time>
      </trkpt>
      <trkpt lat="43.87148" lon="7.47976">
        <ele>432</ele>
        <time>2018-09-16T06:07:20.05Z</time>
      </trkpt>
      <trkpt lat="43.87151" lon="7.47992">
        <ele>430</ele>
        <time>2018-09-16T06:07:24.05Z</time>
      </trkpt>
      <trkpt lat="43.87154" lon="7.48005">
        <ele>430</ele>
        <time>2018-09-16T06:07:28.05Z</time>
      </trkpt>
      <trkpt lat="43.87156" lon="7.4802">
        <ele>428</ele>
        <time>2018-09-16T06:07:32.05Z</time>
      </trkpt>
      <trkpt lat="43.87153" lon="7.48035">
        <ele>427.74</ele>
        <time>2018-09-16T06:07:36.05Z</time>
      </trkpt>
      <trkpt lat="43.87147" lon="7.48047">
        <ele>427</ele>
        <time>2018-09-16T06:07:40.05Z</time>
      </trkpt>
      <trkpt lat="43.8714" lon="7.4806">
        <ele>424</ele>
        <time>2018-09-16T06:07:44.05Z</time>
      </trkpt>
      <trkpt lat="43.87135" lon="7.48075">
        <ele>423</ele>
        <time>2018-09-16T06:07:50.05Z</time>
      </trkpt>
      <trkpt lat="43.87136" lon="7.48088">
        <ele>423</ele>
        <time>2018-09-16T06:07:58.05Z</time>
      </trkpt>
      <trkpt lat="43.87138" lon="7.48102">
        <ele>423.52</ele>
        <time>2018-09-16T06:08:11.05Z</time>
      </trkpt>
      <trkpt lat="43.87133" lon="7.48114">
        <ele>427</ele>
        <time>2018-09-16T06:08:20.05Z</time>
      </trkpt>
      <trkpt lat="43.87126" lon="7.48124">
        <ele>429</ele>
        <time>2018-09-16T06:08:29.05Z</time>
      </trkpt>
      <trkpt lat="43.87118" lon="7.48134">
        <ele>430</ele>
        <time>2018-09-16T06:08:37.05Z</time>
      </trkpt>
      <trkpt lat="43.87112" lon="7.48142">
        <ele>432</ele>
        <time>2018-09-16T06:08:45.05Z</time>
      </trkpt>
      <trkpt lat="43.87108" lon="7.48155">
        <ele>435</ele>
        <time>2018-09-16T06:08:53.05Z</time>
      </trkpt>
      <trkpt lat="43.87107" lon="7.4817">
        <ele>436</ele>
        <time>2018-09-16T06:09:01.05Z</time>
      </trkpt>
      <trkpt lat="43.87107" lon="7.48185">
        <ele>436</ele>
        <time>2018-09-16T06:09:09.05Z</time>
      </trkpt>
      <trkpt lat="43.87107" lon="7.482">
        <ele>438</ele>
        <time>2018-09-16T06:09:18.05Z</time>
      </trkpt>
      <trkpt lat="43.87102" lon="7.48212">
        <ele>441.26</ele>
        <time>2018-09-16T06:09:26.05Z</time>
      </trkpt>
      <trkpt lat="43.87097" lon="7.48226">
        <ele>442</ele>
        <time>2018-09-16T06:09:38.05Z</time>
      </trkpt>
      <trkpt lat="43.87088" lon="7.48234">
        <ele>446</ele>
        <time>2018-09-16T06:09:47.05Z</time>
      </trkpt>
      <trkpt lat="43.8708" lon="7.48245">
        <ele>446</ele>
        <time>2018-09-16T06:09:53.05Z</time>
      </trkpt>
      <trkpt lat="43.8707" lon="7.48254">
        <ele>446</ele>
        <time>2018-09-16T06:09:58.05Z</time>
      </trkpt>
      <trkpt lat="43.87062" lon="7.48264">
        <ele>448</ele>
        <time>2018-09-16T06:10:03.05Z</time>
      </trkpt>
      <trkpt lat="43.87052" lon="7.48272">
        <ele>449</ele>
        <time>2018-09-16T06:10:10.05Z</time>
      </trkpt>
      <trkpt lat="43.87043" lon="7.48277">
        <ele>454</ele>
        <time>2018-09-16T06:10:19.05Z</time>
      </trkpt>
      <trkpt lat="43.87034" lon="7.48287">
        <ele>455</ele>
        <time>2018-09-16T06:10:33.05Z</time>
      </trkpt>
      <trkpt lat="43.87026" lon="7.48294">
        <ele>455.52</ele>
        <time>2018-09-16T06:10:41.05Z</time>
      </trkpt>
      <trkpt lat="43.87019" lon="7.48305">
        <ele>457</ele>
        <time>2018-09-16T06:10:49.05Z</time>
      </trkpt>
      <trkpt lat="43.87011" lon="7.48314">
        <ele>461</ele>
        <time>2018-09-16T06:10:58.05Z</time>
      </trkpt>
      <trkpt lat="43.87004" lon="7.48323">
        <ele>461</ele>
        <time>2018-09-16T06:11:06.05Z</time>
      </trkpt>
      <trkpt lat="43.86998" lon="7.48334">
        <ele>463</ele>
        <time>2018-09-16T06:11:14.05Z</time>
      </trkpt>
      <trkpt lat="43.86994" lon="7.48342">
        <ele>463</ele>
        <time>2018-09-16T06:11:18.05Z</time>
      </trkpt>
      <trkpt lat="43.8699" lon="7.48354">
        <ele>465</ele>
        <time>2018-09-16T06:11:24.05Z</time>
      </trkpt>
      <trkpt lat="43.86986" lon="7.48365">
        <ele>466</ele>
        <time>2018-09-16T06:11:33.05Z</time>
      </trkpt>
      <trkpt lat="43.86982" lon="7.48378">
        <ele>466.78</ele>
        <time>2018-09-16T06:11:41.05Z</time>
      </trkpt>
      <trkpt lat="43.8698" lon="7.48387">
        <ele>471</ele>
        <time>2018-09-16T06:11:47.05Z</time>
      </trkpt>
      <trkpt lat="43.86977" lon="7.48391">
        <ele>471.26</ele>
        <time>2018-09-16T06:11:51.05Z</time>
      </trkpt>
      <trkpt lat="43.86969" lon="7.48401">
        <ele>473</ele>
        <time>2018-09-16T06:12:05.05Z</time>
      </trkpt>
      <trkpt lat="43.86963" lon="7.48415">
        <ele>475</ele>
        <time>2018-09-16T06:12:13.05Z</time>
      </trkpt>
      <trkpt lat="43.86956" lon="7.48427">
        <ele>475</ele>
        <time>2018-09-16T06:12:18.05Z</time>
      </trkpt>
      <trkpt lat="43.86945" lon="7.48434">
        <ele>475</ele>
        <time>2018-09-16T06:12:23.05Z</time>
      </trkpt>
      <trkpt lat="43.86936" lon="7.48441">
        <ele>475</ele>
        <time>2018-09-16T06:12:31.05Z</time>
      </trkpt>
      <trkpt lat="43.86926" lon="7.48447">
        <ele>475</ele>
        <time>2018-09-16T06:12:39.05Z</time>
      </trkpt>
      <trkpt lat="43.86916" lon="7.48451">
        <ele>476</ele>
        <time>2018-09-16T06:12:45.05Z</time>
      </trkpt>
      <trkpt lat="43.86905" lon="7.4845">
        <ele>476</ele>
        <time>2018-09-16T06:12:51.05Z</time>
      </trkpt>
      <trkpt lat="43.86894" lon="7.48448">
        <ele>476</ele>
        <time>2018-09-16T06:12:56.05Z</time>
      </trkpt>
      <trkpt lat="43.86884" lon="7.48449">
        <ele>476</ele>
        <time>2018-09-16T06:13:01.05Z</time>
      </trkpt>
      <trkpt lat="43.86874" lon="7.4845">
        <ele>476</ele>
        <time>2018-09-16T06:13:06.05Z</time>
      </trkpt>
      <trkpt lat="43.86864" lon="7.48447">
        <ele>476.26</ele>
        <time>2018-09-16T06:13:11.05Z</time>
      </trkpt>
      <trkpt lat="43.86852" lon="7.48448">
        <ele>477</ele>
        <time>2018-09-16T06:13:16.05Z</time>
      </trkpt>
      <trkpt lat="43.86841" lon="7.48449">
        <ele>477.26</ele>
        <time>2018-09-16T06:13:21.05Z</time>
      </trkpt>
      <trkpt lat="43.86831" lon="7.4845">
        <ele>478</ele>
        <time>2018-09-16T06:13:26.05Z</time>
      </trkpt>
      <trkpt lat="43.8682" lon="7.48448">
        <ele>480</ele>
        <time>2018-09-16T06:13:32.05Z</time>
      </trkpt>
      <trkpt lat="43.8681" lon="7.48443">
        <ele>480</ele>
        <time>2018-09-16T06:13:37.05Z</time>
      </trkpt>
      <trkpt lat="43.86799" lon="7.48446">
        <ele>482</ele>
        <time>2018-09-16T06:13:44.05Z</time>
      </trkpt>
      <trkpt lat="43.86792" lon="7.48457">
        <ele>482.78</ele>
        <time>2018-09-16T06:13:51.05Z</time>
      </trkpt>
      <trkpt lat="43.86786" lon="7.48469">
        <ele>486</ele>
        <time>2018-09-16T06:14:05.05Z</time>
      </trkpt>
      <trkpt lat="43.86783" lon="7.48483">
        <ele>491</ele>
        <time>2018-09-16T06:14:19.05Z</time>
      </trkpt>
      <trkpt lat="43.86778" lon="7.48495">
        <ele>496</ele>
        <time>2018-09-16T06:14:32.05Z</time>
      </trkpt>
      <trkpt lat="43.86767" lon="7.48496">
        <ele>499</ele>
        <time>2018-09-16T06:14:49.05Z</time>
      </trkpt>
      <trkpt lat="43.8676" lon="7.48486">
        <ele>503</ele>
        <time>2018-09-16T06:15:01.05Z</time>
      </trkpt>
      <trkpt lat="43.86751" lon="7.4848">
        <ele>504</ele>
        <time>2018-09-16T06:15:10.05Z</time>
      </trkpt>
      <trkpt lat="43.86743" lon="7.48472">
        <ele>505</ele>
        <time>2018-09-16T06:15:17.05Z</time>
      </trkpt>
      <trkpt lat="43.86733" lon="7.48466">
        <ele>506</ele>
        <time>2018-09-16T06:15:26.05Z</time>
      </trkpt>
      <trkpt lat="43.86736" lon="7.4848">
        <ele>510</ele>
        <time>2018-09-16T06:15:44.05Z</time>
      </trkpt>
      <trkpt lat="43.86735" lon="7.48493">
        <ele>517</ele>
        <time>2018-09-16T06:16:09.05Z</time>
      </trkpt>
      <trkpt lat="43.8674" lon="7.48505">
        <ele>520</ele>
        <time>2018-09-16T06:16:19.05Z</time>
      </trkpt>
      <trkpt lat="43.8673" lon="7.48507">
        <ele>527</ele>
        <time>2018-09-16T06:16:39.05Z</time>
      </trkpt>
      <trkpt lat="43.86722" lon="7.48499">
        <ele>528</ele>
        <time>2018-09-16T06:16:49.05Z</time>
      </trkpt>
      <trkpt lat="43.86722" lon="7.48514">
        <ele>533</ele>
        <time>2018-09-16T06:17:15.05Z</time>
      </trkpt>
      <trkpt lat="43.86726" lon="7.48528">
        <ele>535.52</ele>
        <time>2018-09-16T06:17:26.05Z</time>
      </trkpt>
      <trkpt lat="43.86716" lon="7.48529">
        <ele>540</ele>
        <time>2018-09-16T06:17:50.05Z</time>
      </trkpt>
      <trkpt lat="43.86707" lon="7.48524">
        <ele>547.78</ele>
        <time>2018-09-16T06:18:21.05Z</time>
      </trkpt>
      <trkpt lat="43.867" lon="7.48514">
        <ele>552</ele>
        <time>2018-09-16T06:18:30.05Z</time>
      </trkpt>
      <trkpt lat="43.86691" lon="7.48505">
        <ele>554</ele>
        <time>2018-09-16T06:18:39.05Z</time>
      </trkpt>
      <trkpt lat="43.86684" lon="7.48494">
        <ele>556</ele>
        <time>2018-09-16T06:18:47.05Z</time>
      </trkpt>
      <trkpt lat="43.86677" lon="7.48483">
        <ele>556</ele>
        <time>2018-09-16T06:18:56.05Z</time>
      </trkpt>
      <trkpt lat="43.86674" lon="7.48497">
        <ele>560</ele>
        <time>2018-09-16T06:19:12.05Z</time>
      </trkpt>
      <trkpt lat="43.86681" lon="7.48508">
        <ele>563</ele>
        <time>2018-09-16T06:19:20.05Z</time>
      </trkpt>
      <trkpt lat="43.86682" lon="7.48523">
        <ele>564</ele>
        <time>2018-09-16T06:19:28.05Z</time>
      </trkpt>
      <trkpt lat="43.86673" lon="7.48532">
        <ele>563</ele>
        <time>2018-09-16T06:19:33.05Z</time>
      </trkpt>
      <trkpt lat="43.86664" lon="7.48541">
        <ele>563</ele>
        <time>2018-09-16T06:19:38.05Z</time>
      </trkpt>
      <trkpt lat="43.86656" lon="7.48549">
        <ele>564</ele>
        <time>2018-09-16T06:19:43.05Z</time>
      </trkpt>
      <trkpt lat="43.86646" lon="7.48553">
        <ele>564</ele>
        <time>2018-09-16T06:19:48.05Z</time>
      </trkpt>
      <trkpt lat="43.86634" lon="7.48553">
        <ele>565</ele>
        <time>2018-09-16T06:19:54.05Z</time>
      </trkpt>
      <trkpt lat="43.86624" lon="7.48554">
        <ele>565</ele>
        <time>2018-09-16T06:20:00.05Z</time>
      </trkpt>
      <trkpt lat="43.86612" lon="7.48555">
        <ele>569</ele>
        <time>2018-09-16T06:20:07.05Z</time>
      </trkpt>
      <trkpt lat="43.86602" lon="7.48553">
        <ele>570</ele>
        <time>2018-09-16T06:20:13.05Z</time>
      </trkpt>
      <trkpt lat="43.86593" lon="7.48548">
        <ele>570</ele>
        <time>2018-09-16T06:20:18.05Z</time>
      </trkpt>
      <trkpt lat="43.86582" lon="7.48543">
        <ele>572</ele>
        <time>2018-09-16T06:20:24.05Z</time>
      </trkpt>
      <trkpt lat="43.86571" lon="7.48538">
        <ele>572</ele>
        <time>2018-09-16T06:20:30.05Z</time>
      </trkpt>
      <trkpt lat="43.86562" lon="7.48533">
        <ele>574</ele>
        <time>2018-09-16T06:20:35.05Z</time>
      </trkpt>
      <trkpt lat="43.86552" lon="7.48529">
        <ele>574</ele>
        <time>2018-09-16T06:20:40.05Z</time>
      </trkpt>
      <trkpt lat="43.86542" lon="7.48528">
        <ele>574</ele>
        <time>2018-09-16T06:20:46.05Z</time>
      </trkpt>
      <trkpt lat="43.86531" lon="7.48531">
        <ele>575</ele>
        <time>2018-09-16T06:20:52.05Z</time>
      </trkpt>
      <trkpt lat="43.86519" lon="7.48531">
        <ele>575</ele>
        <time>2018-09-16T06:20:58.05Z</time>
      </trkpt>
      <trkpt lat="43.86509" lon="7.48534">
        <ele>576</ele>
        <time>2018-09-16T06:21:03.05Z</time>
      </trkpt>
      <trkpt lat="43.86499" lon="7.4854">
        <ele>576</ele>
        <time>2018-09-16T06:21:10.05Z</time>
      </trkpt>
      <trkpt lat="43.86487" lon="7.48542">
        <ele>577</ele>
        <time>2018-09-16T06:21:15.05Z</time>
      </trkpt>
      <trkpt lat="43.86475" lon="7.48546">
        <ele>577</ele>
        <time>2018-09-16T06:21:20.05Z</time>
      </trkpt>
      <trkpt lat="43.86468" lon="7.48557">
        <ele>577</ele>
        <time>2018-09-16T06:21:25.05Z</time>
      </trkpt>
      <trkpt lat="43.86463" lon="7.4857">
        <ele>577</ele>
        <time>2018-09-16T06:21:31.05Z</time>
      </trkpt>
      <trkpt lat="43.86461" lon="7.48584">
        <ele>580</ele>
        <time>2018-09-16T06:21:43.05Z</time>
      </trkpt>
      <trkpt lat="43.86453" lon="7.48596">
        <ele>584</ele>
        <time>2018-09-16T06:21:53.05Z</time>
      </trkpt>
      <trkpt lat="43.86444" lon="7.48604">
        <ele>585</ele>
        <time>2018-09-16T06:22:00.05Z</time>
      </trkpt>
      <trkpt lat="43.86434" lon="7.48608">
        <ele>583</ele>
        <time>2018-09-16T06:22:06.05Z</time>
      </trkpt>
      <trkpt lat="43.86426" lon="7.486">
        <ele>583</ele>
        <time>2018-09-16T06:22:13.05Z</time>
      </trkpt>
      <trkpt lat="43.86424" lon="7.48587">
        <ele>583.51</ele>
        <time>2018-09-16T06:22:21.05Z</time>
      </trkpt>
      <trkpt lat="43.86417" lon="7.48577">
        <ele>585</ele>
        <time>2018-09-16T06:22:26.05Z</time>
      </trkpt>
      <trkpt lat="43.86407" lon="7.48569">
        <ele>587</ele>
        <time>2018-09-16T06:22:33.05Z</time>
      </trkpt>
      <trkpt lat="43.86398" lon="7.48559">
        <ele>587</ele>
        <time>2018-09-16T06:22:39.05Z</time>
      </trkpt>
      <trkpt lat="43.8639" lon="7.48547">
        <ele>587</ele>
        <time>2018-09-16T06:22:44.05Z</time>
      </trkpt>
      <trkpt lat="43.86383" lon="7.48538">
        <ele>587</ele>
        <time>2018-09-16T06:22:49.05Z</time>
      </trkpt>
      <trkpt lat="43.86374" lon="7.48526">
        <ele>588</ele>
        <time>2018-09-16T06:22:54.05Z</time>
      </trkpt>
      <trkpt lat="43.86366" lon="7.48517">
        <ele>590</ele>
        <time>2018-09-16T06:23:04.05Z</time>
      </trkpt>
      <trkpt lat="43.86357" lon="7.4851">
        <ele>592</ele>
        <time>2018-09-16T06:23:13.05Z</time>
      </trkpt>
      <trkpt lat="43.86348" lon="7.48503">
        <ele>594</ele>
        <time>2018-09-16T06:23:22.05Z</time>
      </trkpt>
      <trkpt lat="43.86341" lon="7.48491">
        <ele>595</ele>
        <time>2018-09-16T06:23:30.05Z</time>
      </trkpt>
      <trkpt lat="43.86333" lon="7.48482">
        <ele>596</ele>
        <time>2018-09-16T06:23:38.05Z</time>
      </trkpt>
      <trkpt lat="43.86323" lon="7.48479">
        <ele>600</ele>
        <time>2018-09-16T06:23:47.05Z</time>
      </trkpt>
      <trkpt lat="43.86313" lon="7.48479">
        <ele>601</ele>
        <time>2018-09-16T06:23:55.05Z</time>
      </trkpt>
      <trkpt lat="43.86303" lon="7.48472">
        <ele>604</ele>
        <time>2018-09-16T06:24:05.05Z</time>
      </trkpt>
      <trkpt lat="43.86294" lon="7.48466">
        <ele>605</ele>
        <time>2018-09-16T06:24:12.05Z</time>
      </trkpt>
      <trkpt lat="43.86284" lon="7.48462">
        <ele>605</ele>
        <time>2018-09-16T06:24:20.05Z</time>
      </trkpt>
      <trkpt lat="43.86274" lon="7.48459">
        <ele>607</ele>
        <time>2018-09-16T06:24:30.05Z</time>
      </trkpt>
      <trkpt lat="43.86264" lon="7.4846">
        <ele>609</ele>
        <time>2018-09-16T06:24:40.05Z</time>
      </trkpt>
      <trkpt lat="43.86253" lon="7.48458">
        <ele>614</ele>
        <time>2018-09-16T06:24:50.05Z</time>
      </trkpt>
      <trkpt lat="43.86243" lon="7.48456">
        <ele>617</ele>
        <time>2018-09-16T06:24:59.05Z</time>
      </trkpt>
      <trkpt lat="43.86232" lon="7.48454">
        <ele>619</ele>
        <time>2018-09-16T06:25:08.05Z</time>
      </trkpt>
      <trkpt lat="43.86222" lon="7.48451">
        <ele>619</ele>
        <time>2018-09-16T06:25:16.05Z</time>
      </trkpt>
      <trkpt lat="43.86212" lon="7.48446">
        <ele>621</ele>
        <time>2018-09-16T06:25:23.05Z</time>
      </trkpt>
      <trkpt lat="43.86201" lon="7.48444">
        <ele>621</ele>
        <time>2018-09-16T06:25:30.05Z</time>
      </trkpt>
      <trkpt lat="43.86191" lon="7.48446">
        <ele>623</ele>
        <time>2018-09-16T06:25:40.05Z</time>
      </trkpt>
      <trkpt lat="43.86182" lon="7.48451">
        <ele>625</ele>
        <time>2018-09-16T06:25:49.05Z</time>
      </trkpt>
      <trkpt lat="43.86172" lon="7.48456">
        <ele>630</ele>
        <time>2018-09-16T06:25:58.05Z</time>
      </trkpt>
      <trkpt lat="43.86164" lon="7.48465">
        <ele>631</ele>
        <time>2018-09-16T06:26:07.05Z</time>
      </trkpt>
      <trkpt lat="43.86157" lon="7.48476">
        <ele>633</ele>
        <time>2018-09-16T06:26:17.05Z</time>
      </trkpt>
      <trkpt lat="43.86154" lon="7.4849">
        <ele>635.52</ele>
        <time>2018-09-16T06:26:31.05Z</time>
      </trkpt>
      <trkpt lat="43.86144" lon="7.48487">
        <ele>641</ele>
        <time>2018-09-16T06:26:42.05Z</time>
      </trkpt>
      <trkpt lat="43.86134" lon="7.48482">
        <ele>644</ele>
        <time>2018-09-16T06:26:54.05Z</time>
      </trkpt>
      <trkpt lat="43.86124" lon="7.48485">
        <ele>646</ele>
        <time>2018-09-16T06:27:04.05Z</time>
      </trkpt>
      <trkpt lat="43.86114" lon="7.4849">
        <ele>646.26</ele>
        <time>2018-09-16T06:27:11.05Z</time>
      </trkpt>
      <trkpt lat="43.86104" lon="7.48496">
        <ele>647</ele>
        <time>2018-09-16T06:27:18.05Z</time>
      </trkpt>
      <trkpt lat="43.86095" lon="7.48502">
        <ele>652</ele>
        <time>2018-09-16T06:27:27.05Z</time>
      </trkpt>
      <trkpt lat="43.86087" lon="7.48512">
        <ele>653.26</ele>
        <time>2018-09-16T06:27:36.05Z</time>
      </trkpt>
      <trkpt lat="43.86076" lon="7.48517">
        <ele>655</ele>
        <time>2018-09-16T06:27:45.05Z</time>
      </trkpt>
      <trkpt lat="43.86067" lon="7.48523">
        <ele>656</ele>
        <time>2018-09-16T06:27:53.05Z</time>
      </trkpt>
      <trkpt lat="43.86058" lon="7.48515">
        <ele>658</ele>
        <time>2018-09-16T06:28:02.05Z</time>
      </trkpt>
      <trkpt lat="43.8605" lon="7.48503">
        <ele>658</ele>
        <time>2018-09-16T06:28:06.05Z</time>
      </trkpt>
      <trkpt lat="43.86042" lon="7.48494">
        <ele>659</ele>
        <time>2018-09-16T06:28:12.05Z</time>
      </trkpt>
      <trkpt lat="43.86033" lon="7.48487">
        <ele>659</ele>
        <time>2018-09-16T06:28:17.05Z</time>
      </trkpt>
      <trkpt lat="43.86024" lon="7.48478">
        <ele>660</ele>
        <time>2018-09-16T06:28:23.05Z</time>
      </trkpt>
      <trkpt lat="43.86014" lon="7.48471">
        <ele>660</ele>
        <time>2018-09-16T06:28:28.05Z</time>
      </trkpt>
      <trkpt lat="43.86004" lon="7.48467">
        <ele>660</ele>
        <time>2018-09-16T06:28:32.05Z</time>
      </trkpt>
      <trkpt lat="43.85994" lon="7.48465">
        <ele>660</ele>
        <time>2018-09-16T06:28:39.05Z</time>
      </trkpt>
      <trkpt lat="43.85985" lon="7.48459">
        <ele>662</ele>
        <time>2018-09-16T06:28:49.05Z</time>
      </trkpt>
      <trkpt lat="43.85976" lon="7.48451">
        <ele>666</ele>
        <time>2018-09-16T06:28:58.05Z</time>
      </trkpt>
      <trkpt lat="43.85969" lon="7.4844">
        <ele>666</ele>
        <time>2018-09-16T06:29:08.05Z</time>
      </trkpt>
      <trkpt lat="43.8596" lon="7.48431">
        <ele>671</ele>
        <time>2018-09-16T06:29:18.05Z</time>
      </trkpt>
      <trkpt lat="43.85955" lon="7.48419">
        <ele>673</ele>
        <time>2018-09-16T06:29:25.05Z</time>
      </trkpt>
      <trkpt lat="43.85951" lon="7.4841">
        <ele>673.26</ele>
        <time>2018-09-16T06:29:31.05Z</time>
      </trkpt>
      <trkpt lat="43.85944" lon="7.484">
        <ele>674</ele>
        <time>2018-09-16T06:29:39.05Z</time>
      </trkpt>
      <trkpt lat="43.85938" lon="7.48388">
        <ele>676</ele>
        <time>2018-09-16T06:29:47.05Z</time>
      </trkpt>
      <trkpt lat="43.85929" lon="7.48379">
        <ele>678</ele>
        <time>2018-09-16T06:29:54.05Z</time>
      </trkpt>
      <trkpt lat="43.85919" lon="7.48375">
        <ele>678</ele>
        <time>2018-09-16T06:29:58.05Z</time>
      </trkpt>
      <trkpt lat="43.85909" lon="7.48368">
        <ele>676</ele>
        <time>2018-09-16T06:30:03.05Z</time>
      </trkpt>
      <trkpt lat="43.85898" lon="7.4836">
        <ele>676</ele>
        <time>2018-09-16T06:30:08.05Z</time>
      </trkpt>
      <trkpt lat="43.85889" lon="7.48351">
        <ele>676.26</ele>
        <time>2018-09-16T06:30:12.05Z</time>
      </trkpt>
      <trkpt lat="43.8588" lon="7.48343">
        <ele>677</ele>
        <time>2018-09-16T06:30:16.05Z</time>
      </trkpt>
      <trkpt lat="43.85871" lon="7.48338">
        <ele>676.74</ele>
        <time>2018-09-16T06:30:21.05Z</time>
      </trkpt>
      <trkpt lat="43.8586" lon="7.48341">
        <ele>676</ele>
        <time>2018-09-16T06:30:27.05Z</time>
      </trkpt>
      <trkpt lat="43.8585" lon="7.48339">
        <ele>677</ele>
        <time>2018-09-16T06:30:36.05Z</time>
      </trkpt>
      <trkpt lat="43.85857" lon="7.48329">
        <ele>678</ele>
        <time>2018-09-16T06:30:44.05Z</time>
      </trkpt>
      <trkpt lat="43.85866" lon="7.48322">
        <ele>677.74</ele>
        <time>2018-09-16T06:30:51.05Z</time>
      </trkpt>
      <trkpt lat="43.85876" lon="7.48317">
        <ele>677</ele>
        <time>2018-09-16T06:30:56.05Z</time>
      </trkpt>
      <trkpt lat="43.85887" lon="7.48311">
        <ele>676.48</ele>
        <time>2018-09-16T06:31:01.05Z</time>
      </trkpt>
      <trkpt lat="43.85899" lon="7.48306">
        <ele>675</ele>
        <time>2018-09-16T06:31:05.05Z</time>
      </trkpt>
      <trkpt lat="43.85909" lon="7.48301">
        <ele>675</ele>
        <time>2018-09-16T06:31:10.05Z</time>
      </trkpt>
      <trkpt lat="43.85922" lon="7.48303">
        <ele>677</ele>
        <time>2018-09-16T06:31:15.05Z</time>
      </trkpt>
      <trkpt lat="43.85932" lon="7.4831">
        <ele>677</ele>
        <time>2018-09-16T06:31:19.05Z</time>
      </trkpt>
      <trkpt lat="43.85941" lon="7.48318">
        <ele>677</ele>
        <time>2018-09-16T06:31:24.05Z</time>
      </trkpt>
      <trkpt lat="43.85952" lon="7.48318">
        <ele>677</ele>
        <time>2018-09-16T06:31:30.05Z</time>
      </trkpt>
      <trkpt lat="43.85964" lon="7.48317">
        <ele>674</ele>
        <time>2018-09-16T06:31:35.05Z</time>
      </trkpt>
      <trkpt lat="43.85973" lon="7.48323">
        <ele>672</ele>
        <time>2018-09-16T06:31:40.05Z</time>
      </trkpt>
      <trkpt lat="43.85985" lon="7.48327">
        <ele>671</ele>
        <time>2018-09-16T06:31:45.05Z</time>
      </trkpt>
      <trkpt lat="43.85995" lon="7.48334">
        <ele>670</ele>
        <time>2018-09-16T06:31:49.05Z</time>
      </trkpt>
      <trkpt lat="43.86004" lon="7.48346">
        <ele>668</ele>
        <time>2018-09-16T06:31:53.05Z</time>
      </trkpt>
      <trkpt lat="43.86012" lon="7.48356">
        <ele>667</ele>
        <time>2018-09-16T06:31:57.05Z</time>
      </trkpt>
      <trkpt lat="43.86021" lon="7.48365">
        <ele>665</ele>
        <time>2018-09-16T06:32:02.05Z</time>
      </trkpt>
      <trkpt lat="43.86031" lon="7.48365">
        <ele>664</ele>
        <time>2018-09-16T06:32:07.05Z</time>
      </trkpt>
      <trkpt lat="43.86041" lon="7.48362">
        <ele>662</ele>
        <time>2018-09-16T06:32:12.05Z</time>
      </trkpt>
      <trkpt lat="43.86052" lon="7.48358">
        <ele>661.48</ele>
        <time>2018-09-16T06:32:16.05Z</time>
      </trkpt>
      <trkpt lat="43.86063" lon="7.48352">
        <ele>660</ele>
        <time>2018-09-16T06:32:20.05Z</time>
      </trkpt>
      <trkpt lat="43.86073" lon="7.48342">
        <ele>658</ele>
        <time>2018-09-16T06:32:24.05Z</time>
      </trkpt>
      <trkpt lat="43.86082" lon="7.48334">
        <ele>657</ele>
        <time>2018-09-16T06:32:28.05Z</time>
      </trkpt>
      <trkpt lat="43.86091" lon="7.48322">
        <ele>658</ele>
        <time>2018-09-16T06:32:33.05Z</time>
      </trkpt>
      <trkpt lat="43.86099" lon="7.48313">
        <ele>658</ele>
        <time>2018-09-16T06:32:37.05Z</time>
      </trkpt>
      <trkpt lat="43.86109" lon="7.48304">
        <ele>657.48</ele>
        <time>2018-09-16T06:32:41.05Z</time>
      </trkpt>
      <trkpt lat="43.86117" lon="7.48293">
        <ele>656</ele>
        <time>2018-09-16T06:32:45.05Z</time>
      </trkpt>
      <trkpt lat="43.86125" lon="7.48281">
        <ele>656</ele>
        <time>2018-09-16T06:32:49.05Z</time>
      </trkpt>
      <trkpt lat="43.86134" lon="7.48269">
        <ele>656</ele>
        <time>2018-09-16T06:32:53.05Z</time>
      </trkpt>
      <trkpt lat="43.86139" lon="7.48254">
        <ele>656</ele>
        <time>2018-09-16T06:32:58.05Z</time>
      </trkpt>
      <trkpt lat="43.86144" lon="7.48241">
        <ele>657</ele>
        <time>2018-09-16T06:33:03.05Z</time>
      </trkpt>
      <trkpt lat="43.86141" lon="7.48225">
        <ele>657</ele>
        <time>2018-09-16T06:33:07.05Z</time>
      </trkpt>
      <trkpt lat="43.86138" lon="7.48212">
        <ele>657</ele>
        <time>2018-09-16T06:33:11.05Z</time>
      </trkpt>
      <trkpt lat="43.86133" lon="7.48199">
        <ele>657</ele>
        <time>2018-09-16T06:33:16.05Z</time>
      </trkpt>
      <trkpt lat="43.8613" lon="7.48185">
        <ele>657.25</ele>
        <time>2018-09-16T06:33:21.05Z</time>
      </trkpt>
      <trkpt lat="43.86124" lon="7.48172">
        <ele>658</ele>
        <time>2018-09-16T06:33:25.05Z</time>
      </trkpt>
      <trkpt lat="43.86116" lon="7.48157">
        <ele>658</ele>
        <time>2018-09-16T06:33:29.05Z</time>
      </trkpt>
      <trkpt lat="43.86109" lon="7.48147">
        <ele>657</ele>
        <time>2018-09-16T06:33:33.05Z</time>
      </trkpt>
      <trkpt lat="43.86104" lon="7.48135">
        <ele>657</ele>
        <time>2018-09-16T06:33:37.05Z</time>
      </trkpt>
      <trkpt lat="43.86098" lon="7.4812">
        <ele>657</ele>
        <time>2018-09-16T06:33:42.05Z</time>
      </trkpt>
      <trkpt lat="43.86091" lon="7.48108">
        <ele>657</ele>
        <time>2018-09-16T06:33:47.05Z</time>
      </trkpt>
      <trkpt lat="43.86086" lon="7.48094">
        <ele>658</ele>
        <time>2018-09-16T06:33:52.05Z</time>
      </trkpt>
      <trkpt lat="43.86078" lon="7.48083">
        <ele>658</ele>
        <time>2018-09-16T06:33:57.05Z</time>
      </trkpt>
      <trkpt lat="43.86069" lon="7.48074">
        <ele>658.26</ele>
        <time>2018-09-16T06:34:01.05Z</time>
      </trkpt>
      <trkpt lat="43.86063" lon="7.48061">
        <ele>659</ele>
        <time>2018-09-16T06:34:06.05Z</time>
      </trkpt>
      <trkpt lat="43.86056" lon="7.48051">
        <ele>660.04</ele>
        <time>2018-09-16T06:34:11.05Z</time>
      </trkpt>
      <trkpt lat="43.86048" lon="7.48039">
        <ele>664</ele>
        <time>2018-09-16T06:34:17.05Z</time>
      </trkpt>
      <trkpt lat="43.86043" lon="7.48025">
        <ele>664</ele>
        <time>2018-09-16T06:34:22.05Z</time>
      </trkpt>
      <trkpt lat="43.86039" lon="7.4801">
        <ele>664</ele>
        <time>2018-09-16T06:34:27.05Z</time>
      </trkpt>
      <trkpt lat="43.86033" lon="7.47996">
        <ele>663</ele>
        <time>2018-09-16T06:34:32.05Z</time>
      </trkpt>
      <trkpt lat="43.86027" lon="7.47985">
        <ele>663</ele>
        <time>2018-09-16T06:34:36.05Z</time>
      </trkpt>
      <trkpt lat="43.86023" lon="7.47972">
        <ele>662</ele>
        <time>2018-09-16T06:34:43.05Z</time>
      </trkpt>
      <trkpt lat="43.8603" lon="7.4796">
        <ele>662</ele>
        <time>2018-09-16T06:34:49.05Z</time>
      </trkpt>
      <trkpt lat="43.86039" lon="7.47951">
        <ele>661</ele>
        <time>2018-09-16T06:34:54.05Z</time>
      </trkpt>
      <trkpt lat="43.86048" lon="7.47942">
        <ele>662</ele>
        <time>2018-09-16T06:34:58.05Z</time>
      </trkpt>
      <trkpt lat="43.86056" lon="7.47934">
        <ele>662</ele>
        <time>2018-09-16T06:35:02.05Z</time>
      </trkpt>
      <trkpt lat="43.86067" lon="7.47933">
        <ele>662</ele>
        <time>2018-09-16T06:35:08.05Z</time>
      </trkpt>
      <trkpt lat="43.86075" lon="7.47941">
        <ele>664</ele>
        <time>2018-09-16T06:35:13.05Z</time>
      </trkpt>
      <trkpt lat="43.86084" lon="7.47948">
        <ele>664</ele>
        <time>2018-09-16T06:35:17.05Z</time>
      </trkpt>
      <trkpt lat="43.86094" lon="7.47954">
        <ele>665</ele>
        <time>2018-09-16T06:35:22.05Z</time>
      </trkpt>
      <trkpt lat="43.86103" lon="7.47964">
        <ele>665</ele>
        <time>2018-09-16T06:35:28.05Z</time>
      </trkpt>
      <trkpt lat="43.86113" lon="7.47973">
        <ele>664</ele>
        <time>2018-09-16T06:35:33.05Z</time>
      </trkpt>
      <trkpt lat="43.86122" lon="7.47981">
        <ele>664</ele>
        <time>2018-09-16T06:35:38.05Z</time>
      </trkpt>
      <trkpt lat="43.86132" lon="7.47988">
        <ele>663</ele>
        <time>2018-09-16T06:35:43.05Z</time>
      </trkpt>
      <trkpt lat="43.86141" lon="7.47996">
        <ele>663</ele>
        <time>2018-09-16T06:35:48.05Z</time>
      </trkpt>
      <trkpt lat="43.86152" lon="7.48002">
        <ele>662</ele>
        <time>2018-09-16T06:35:53.05Z</time>
      </trkpt>
      <trkpt lat="43.86161" lon="7.48011">
        <ele>663</ele>
        <time>2018-09-16T06:35:58.05Z</time>
      </trkpt>
      <trkpt lat="43.8617" lon="7.48017">
        <ele>660</ele>
        <time>2018-09-16T06:36:02.05Z</time>
      </trkpt>
      <trkpt lat="43.86178" lon="7.48022">
        <ele>660</ele>
        <time>2018-09-16T06:36:05.05Z</time>
      </trkpt>
      <trkpt lat="43.86185" lon="7.48027">
        <ele>661</ele>
        <time>2018-09-16T06:36:08.05Z</time>
      </trkpt>
      <trkpt lat="43.86195" lon="7.48033">
        <ele>661</ele>
        <time>2018-09-16T06:36:12.05Z</time>
      </trkpt>
      <trkpt lat="43.86201" lon="7.48037">
        <ele>661</ele>
        <time>2018-09-16T06:36:15.05Z</time>
      </trkpt>
      <trkpt lat="43.86212" lon="7.48043">
        <ele>661</ele>
        <time>2018-09-16T06:36:20.05Z</time>
      </trkpt>
      <trkpt lat="43.86219" lon="7.48047">
        <ele>661</ele>
        <time>2018-09-16T06:36:23.05Z</time>
      </trkpt>
      <trkpt lat="43.86225" lon="7.48051">
        <ele>661</ele>
        <time>2018-09-16T06:36:26.05Z</time>
      </trkpt>
      <trkpt lat="43.86232" lon="7.48055">
        <ele>661</ele>
        <time>2018-09-16T06:36:29.05Z</time>
      </trkpt>
      <trkpt lat="43.86238" lon="7.48059">
        <ele>661</ele>
        <time>2018-09-16T06:36:32.05Z</time>
      </trkpt>
      <trkpt lat="43.86243" lon="7.48063">
        <ele>661</ele>
        <time>2018-09-16T06:36:35.05Z</time>
      </trkpt>
      <trkpt lat="43.86251" lon="7.48066">
        <ele>662</ele>
        <time>2018-09-16T06:36:39.05Z</time>
      </trkpt>
      <trkpt lat="43.86258" lon="7.48069">
        <ele>662</ele>
        <time>2018-09-16T06:36:43.05Z</time>
      </trkpt>
      <trkpt lat="43.86266" lon="7.48074">
        <ele>662</ele>
        <time>2018-09-16T06:36:47.05Z</time>
      </trkpt>
      <trkpt lat="43.86275" lon="7.48078">
        <ele>662.78</ele>
        <time>2018-09-16T06:36:51.05Z</time>
      </trkpt>
      <trkpt lat="43.86284" lon="7.4808">
        <ele>665</ele>
        <time>2018-09-16T06:36:55.05Z</time>
      </trkpt>
      <trkpt lat="43.86291" lon="7.48085">
        <ele>665</ele>
        <time>2018-09-16T06:36:59.05Z</time>
      </trkpt>
      <trkpt lat="43.86299" lon="7.48089">
        <ele>665.26</ele>
        <time>2018-09-16T06:37:03.05Z</time>
      </trkpt>
      <trkpt lat="43.86306" lon="7.48094">
        <ele>666</ele>
        <time>2018-09-16T06:37:07.05Z</time>
      </trkpt>
      <trkpt lat="43.86313" lon="7.48097">
        <ele>666</ele>
        <time>2018-09-16T06:37:11.05Z</time>
      </trkpt>
      <trkpt lat="43.86322" lon="7.48104">
        <ele>666</ele>
        <time>2018-09-16T06:37:16.05Z</time>
      </trkpt>
      <trkpt lat="43.86333" lon="7.4811">
        <ele>666</ele>
        <time>2018-09-16T06:37:22.05Z</time>
      </trkpt>
      <trkpt lat="43.8634" lon="7.48113">
        <ele>666</ele>
        <time>2018-09-16T06:37:26.05Z</time>
      </trkpt>
      <trkpt lat="43.86349" lon="7.48117">
        <ele>666</ele>
        <time>2018-09-16T06:37:30.05Z</time>
      </trkpt>
      <trkpt lat="43.86359" lon="7.48122">
        <ele>667</ele>
        <time>2018-09-16T06:37:35.05Z</time>
      </trkpt>
      <trkpt lat="43.86366" lon="7.48126">
        <ele>667</ele>
        <time>2018-09-16T06:37:39.05Z</time>
      </trkpt>
      <trkpt lat="43.86375" lon="7.48131">
        <ele>667</ele>
        <time>2018-09-16T06:37:43.05Z</time>
      </trkpt>
      <trkpt lat="43.86382" lon="7.48135">
        <ele>667</ele>
        <time>2018-09-16T06:37:47.05Z</time>
      </trkpt>
      <trkpt lat="43.86388" lon="7.48138">
        <ele>667</ele>
        <time>2018-09-16T06:37:50.05Z</time>
      </trkpt>
      <trkpt lat="43.86396" lon="7.48143">
        <ele>669</ele>
        <time>2018-09-16T06:37:54.05Z</time>
      </trkpt>
      <trkpt lat="43.86403" lon="7.48147">
        <ele>669</ele>
        <time>2018-09-16T06:37:57.05Z</time>
      </trkpt>
      <trkpt lat="43.86412" lon="7.48152">
        <ele>668.74</ele>
        <time>2018-09-16T06:38:01.05Z</time>
      </trkpt>
      <trkpt lat="43.8642" lon="7.48158">
        <ele>668</ele>
        <time>2018-09-16T06:38:05.05Z</time>
      </trkpt>
      <trkpt lat="43.86427" lon="7.48161">
        <ele>668</ele>
        <time>2018-09-16T06:38:08.05Z</time>
      </trkpt>
      <trkpt lat="43.86433" lon="7.48163">
        <ele>668.78</ele>
        <time>2018-09-16T06:38:11.05Z</time>
      </trkpt>
      <trkpt lat="43.86443" lon="7.48165">
        <ele>671</ele>
        <time>2018-09-16T06:38:15.05Z</time>
      </trkpt>
      <trkpt lat="43.86452" lon="7.4817">
        <ele>670</ele>
        <time>2018-09-16T06:38:19.05Z</time>
      </trkpt>
      <trkpt lat="43.8646" lon="7.48175">
        <ele>670</ele>
        <time>2018-09-16T06:38:23.05Z</time>
      </trkpt>
      <trkpt lat="43.86471" lon="7.48179">
        <ele>670</ele>
        <time>2018-09-16T06:38:28.05Z</time>
      </trkpt>
      <trkpt lat="43.86478" lon="7.48181">
        <ele>670</ele>
        <time>2018-09-16T06:38:32.05Z</time>
      </trkpt>
      <trkpt lat="43.86487" lon="7.48186">
        <ele>670</ele>
        <time>2018-09-16T06:38:37.05Z</time>
      </trkpt>
      <trkpt lat="43.86496" lon="7.48193">
        <ele>669</ele>
        <time>2018-09-16T06:38:42.05Z</time>
      </trkpt>
      <trkpt lat="43.86502" lon="7.48194">
        <ele>669</ele>
        <time>2018-09-16T06:38:45.05Z</time>
      </trkpt>
      <trkpt lat="43.86509" lon="7.48196">
        <ele>669</ele>
        <time>2018-09-16T06:38:49.05Z</time>
      </trkpt>
      <trkpt lat="43.86518" lon="7.482">
        <ele>669</ele>
        <time>2018-09-16T06:38:54.05Z</time>
      </trkpt>
      <trkpt lat="43.86527" lon="7.48202">
        <ele>669</ele>
        <time>2018-09-16T06:38:58.05Z</time>
      </trkpt>
      <trkpt lat="43.86534" lon="7.48203">
        <ele>669</ele>
        <time>2018-09-16T06:39:01.05Z</time>
      </trkpt>
      <trkpt lat="43.86541" lon="7.48203">
        <ele>669</ele>
        <time>2018-09-16T06:39:04.05Z</time>
      </trkpt>
      <trkpt lat="43.86548" lon="7.48202">
        <ele>669</ele>
        <time>2018-09-16T06:39:07.05Z</time>
      </trkpt>
      <trkpt lat="43.86557" lon="7.48202">
        <ele>669.52</ele>
        <time>2018-09-16T06:39:11.05Z</time>
      </trkpt>
      <trkpt lat="43.86563" lon="7.48202">
        <ele>671</ele>
        <time>2018-09-16T06:39:14.05Z</time>
      </trkpt>
      <trkpt lat="43.86569" lon="7.48204">
        <ele>671</ele>
        <time>2018-09-16T06:39:17.05Z</time>
      </trkpt>
      <trkpt lat="43.86575" lon="7.48205">
        <ele>671</ele>
        <time>2018-09-16T06:39:20.05Z</time>
      </trkpt>
      <trkpt lat="43.86581" lon="7.48206">
        <ele>670</ele>
        <time>2018-09-16T06:39:23.05Z</time>
      </trkpt>
      <trkpt lat="43.86586" lon="7.48208">
        <ele>670</ele>
        <time>2018-09-16T06:39:26.05Z</time>
      </trkpt>
      <trkpt lat="43.86592" lon="7.48208">
        <ele>670</ele>
        <time>2018-09-16T06:39:29.05Z</time>
      </trkpt>
      <trkpt lat="43.86598" lon="7.48207">
        <ele>670</ele>
        <time>2018-09-16T06:39:32.05Z</time>
      </trkpt>
      <trkpt lat="43.86603" lon="7.48207">
        <ele>670</ele>
        <time>2018-09-16T06:39:35.05Z</time>
      </trkpt>
      <trkpt lat="43.8661" lon="7.48205">
        <ele>670</ele>
        <time>2018-09-16T06:39:39.05Z</time>
      </trkpt>
      <trkpt lat="43.86619" lon="7.48201">
        <ele>671</ele>
        <time>2018-09-16T06:39:43.05Z</time>
      </trkpt>
      <trkpt lat="43.86628" lon="7.48199">
        <ele>671</ele>
        <time>2018-09-16T06:39:48.05Z</time>
      </trkpt>
      <trkpt lat="43.86637" lon="7.48201">
        <ele>671</ele>
        <time>2018-09-16T06:39:53.05Z</time>
      </trkpt>
      <trkpt lat="43.86645" lon="7.48202">
        <ele>671</ele>
        <time>2018-09-16T06:39:57.05Z</time>
      </trkpt>
      <trkpt lat="43.86654" lon="7.48201">
        <ele>671</ele>
        <time>2018-09-16T06:40:00.05Z</time>
      </trkpt>
      <trkpt lat="43.86663" lon="7.48201">
        <ele>672</ele>
        <time>2018-09-16T06:40:04.05Z</time>
      </trkpt>
      <trkpt lat="43.8667" lon="7.48201">
        <ele>672</ele>
        <time>2018-09-16T06:40:07.05Z</time>
      </trkpt>
      <trkpt lat="43.86676" lon="7.482">
        <ele>672</ele>
        <time>2018-09-16T06:40:10.05Z</time>
      </trkpt>
      <trkpt lat="43.86682" lon="7.48199">
        <ele>674</ele>
        <time>2018-09-16T06:40:13.05Z</time>
      </trkpt>
      <trkpt lat="43.86689" lon="7.48194">
        <ele>674</ele>
        <time>2018-09-16T06:40:16.05Z</time>
      </trkpt>
      <trkpt lat="43.86695" lon="7.48189">
        <ele>674</ele>
        <time>2018-09-16T06:40:19.05Z</time>
      </trkpt>
      <trkpt lat="43.86705" lon="7.48181">
        <ele>671</ele>
        <time>2018-09-16T06:40:24.05Z</time>
      </trkpt>
      <trkpt lat="43.86712" lon="7.48169">
        <ele>669</ele>
        <time>2018-09-16T06:40:28.05Z</time>
      </trkpt>
      <trkpt lat="43.8672" lon="7.48157">
        <ele>664</ele>
        <time>2018-09-16T06:40:33.05Z</time>
      </trkpt>
      <trkpt lat="43.86729" lon="7.48147">
        <ele>664</ele>
        <time>2018-09-16T06:40:38.05Z</time>
      </trkpt>
      <trkpt lat="43.86737" lon="7.48137">
        <ele>665</ele>
        <time>2018-09-16T06:40:43.05Z</time>
      </trkpt>
      <trkpt lat="43.86743" lon="7.48125">
        <ele>665</ele>
        <time>2018-09-16T06:40:48.05Z</time>
      </trkpt>
      <trkpt lat="43.8675" lon="7.48114">
        <ele>666</ele>
        <time>2018-09-16T06:40:52.05Z</time>
      </trkpt>
      <trkpt lat="43.86757" lon="7.48102">
        <ele>666</ele>
        <time>2018-09-16T06:40:56.05Z</time>
      </trkpt>
      <trkpt lat="43.86766" lon="7.48093">
        <ele>666</ele>
        <time>2018-09-16T06:41:00.05Z</time>
      </trkpt>
      <trkpt lat="43.86778" lon="7.48086">
        <ele>667</ele>
        <time>2018-09-16T06:41:05.05Z</time>
      </trkpt>
      <trkpt lat="43.86787" lon="7.48077">
        <ele>667</ele>
        <time>2018-09-16T06:41:10.05Z</time>
      </trkpt>
      <trkpt lat="43.86795" lon="7.48066">
        <ele>667</ele>
        <time>2018-09-16T06:41:16.05Z</time>
      </trkpt>
      <trkpt lat="43.86802" lon="7.48055">
        <ele>666.48</ele>
        <time>2018-09-16T06:41:21.05Z</time>
      </trkpt>
      <trkpt lat="43.86809" lon="7.48042">
        <ele>665</ele>
        <time>2018-09-16T06:41:25.05Z</time>
      </trkpt>
      <trkpt lat="43.86815" lon="7.48029">
        <ele>665</ele>
        <time>2018-09-16T06:41:30.05Z</time>
      </trkpt>
      <trkpt lat="43.86814" lon="7.48014">
        <ele>664</ele>
        <time>2018-09-16T06:41:35.05Z</time>
      </trkpt>
      <trkpt lat="43.86813" lon="7.47996">
        <ele>664</ele>
        <time>2018-09-16T06:41:40.05Z</time>
      </trkpt>
      <trkpt lat="43.86815" lon="7.47981">
        <ele>665</ele>
        <time>2018-09-16T06:41:44.05Z</time>
      </trkpt>
      <trkpt lat="43.86818" lon="7.47967">
        <ele>665</ele>
        <time>2018-09-16T06:41:48.05Z</time>
      </trkpt>
      <trkpt lat="43.86817" lon="7.4795">
        <ele>665</ele>
        <time>2018-09-16T06:41:53.05Z</time>
      </trkpt>
      <trkpt lat="43.86815" lon="7.47933">
        <ele>665</ele>
        <time>2018-09-16T06:41:58.05Z</time>
      </trkpt>
      <trkpt lat="43.86812" lon="7.47917">
        <ele>666</ele>
        <time>2018-09-16T06:42:02.05Z</time>
      </trkpt>
      <trkpt lat="43.86809" lon="7.479">
        <ele>666</ele>
        <time>2018-09-16T06:42:07.05Z</time>
      </trkpt>
      <trkpt lat="43.868" lon="7.47888">
        <ele>664.96</ele>
        <time>2018-09-16T06:42:11.05Z</time>
      </trkpt>
      <trkpt lat="43.86796" lon="7.47872">
        <ele>661.74</ele>
        <time>2018-09-16T06:42:16.05Z</time>
      </trkpt>
      <trkpt lat="43.8679" lon="7.47858">
        <ele>661</ele>
        <time>2018-09-16T06:42:20.05Z</time>
      </trkpt>
      <trkpt lat="43.86782" lon="7.47846">
        <ele>660</ele>
        <time>2018-09-16T06:42:24.05Z</time>
      </trkpt>
      <trkpt lat="43.86774" lon="7.47833">
        <ele>659</ele>
        <time>2018-09-16T06:42:28.05Z</time>
      </trkpt>
      <trkpt lat="43.86768" lon="7.4782">
        <ele>657</ele>
        <time>2018-09-16T06:42:32.05Z</time>
      </trkpt>
      <trkpt lat="43.86761" lon="7.47808">
        <ele>656.74</ele>
        <time>2018-09-16T06:42:36.05Z</time>
      </trkpt>
      <trkpt lat="43.86755" lon="7.47798">
        <ele>656</ele>
        <time>2018-09-16T06:42:39.05Z</time>
      </trkpt>
      <trkpt lat="43.86748" lon="7.4779">
        <ele>655</ele>
        <time>2018-09-16T06:42:42.05Z</time>
      </trkpt>
      <trkpt lat="43.86741" lon="7.47782">
        <ele>655</ele>
        <time>2018-09-16T06:42:45.05Z</time>
      </trkpt>
      <trkpt lat="43.86734" lon="7.47773">
        <ele>653</ele>
        <time>2018-09-16T06:42:48.05Z</time>
      </trkpt>
      <trkpt lat="43.86725" lon="7.4776">
        <ele>648.74</ele>
        <time>2018-09-16T06:42:52.05Z</time>
      </trkpt>
      <trkpt lat="43.86719" lon="7.4775">
        <ele>646.74</ele>
        <time>2018-09-16T06:42:55.05Z</time>
      </trkpt>
      <trkpt lat="43.86711" lon="7.47741">
        <ele>642.74</ele>
        <time>2018-09-16T06:42:59.05Z</time>
      </trkpt>
      <trkpt lat="43.86713" lon="7.47727">
        <ele>642</ele>
        <time>2018-09-16T06:43:03.05Z</time>
      </trkpt>
      <trkpt lat="43.86722" lon="7.47719">
        <ele>641</ele>
        <time>2018-09-16T06:43:08.05Z</time>
      </trkpt>
      <trkpt lat="43.86728" lon="7.47707">
        <ele>640</ele>
        <time>2018-09-16T06:43:12.05Z</time>
      </trkpt>
      <trkpt lat="43.86734" lon="7.47695">
        <ele>639.74</ele>
        <time>2018-09-16T06:43:16.05Z</time>
      </trkpt>
      <trkpt lat="43.86742" lon="7.47685">
        <ele>639</ele>
        <time>2018-09-16T06:43:20.05Z</time>
      </trkpt>
      <trkpt lat="43.86752" lon="7.47676">
        <ele>637</ele>
        <time>2018-09-16T06:43:24.05Z</time>
      </trkpt>
      <trkpt lat="43.8676" lon="7.47666">
        <ele>636</ele>
        <time>2018-09-16T06:43:28.05Z</time>
      </trkpt>
      <trkpt lat="43.86769" lon="7.47656">
        <ele>635</ele>
        <time>2018-09-16T06:43:32.05Z</time>
      </trkpt>
      <trkpt lat="43.86779" lon="7.47645">
        <ele>635</ele>
        <time>2018-09-16T06:43:36.05Z</time>
      </trkpt>
      <trkpt lat="43.86787" lon="7.47633">
        <ele>635</ele>
        <time>2018-09-16T06:43:40.05Z</time>
      </trkpt>
      <trkpt lat="43.86796" lon="7.47622">
        <ele>632</ele>
        <time>2018-09-16T06:43:44.05Z</time>
      </trkpt>
      <trkpt lat="43.86806" lon="7.47612">
        <ele>630</ele>
        <time>2018-09-16T06:43:48.05Z</time>
      </trkpt>
      <trkpt lat="43.86815" lon="7.47602">
        <ele>628</ele>
        <time>2018-09-16T06:43:52.05Z</time>
      </trkpt>
      <trkpt lat="43.86824" lon="7.47593">
        <ele>627.74</ele>
        <time>2018-09-16T06:43:56.05Z</time>
      </trkpt>
      <trkpt lat="43.86832" lon="7.4758">
        <ele>627</ele>
        <time>2018-09-16T06:44:00.05Z</time>
      </trkpt>
      <trkpt lat="43.8684" lon="7.47569">
        <ele>625</ele>
        <time>2018-09-16T06:44:04.05Z</time>
      </trkpt>
      <trkpt lat="43.86849" lon="7.47558">
        <ele>625</ele>
        <time>2018-09-16T06:44:08.05Z</time>
      </trkpt>
      <trkpt lat="43.86857" lon="7.47549">
        <ele>624</ele>
        <time>2018-09-16T06:44:12.05Z</time>
      </trkpt>
      <trkpt lat="43.86867" lon="7.47539">
        <ele>624</ele>
        <time>2018-09-16T06:44:17.05Z</time>
      </trkpt>
      <trkpt lat="43.86877" lon="7.47531">
        <ele>625</ele>
        <time>2018-09-16T06:44:22.05Z</time>
      </trkpt>
      <trkpt lat="43.86888" lon="7.47529">
        <ele>625</ele>
        <time>2018-09-16T06:44:26.05Z</time>
      </trkpt>
      <trkpt lat="43.86899" lon="7.47525">
        <ele>623</ele>
        <time>2018-09-16T06:44:32.05Z</time>
      </trkpt>
      <trkpt lat="43.86909" lon="7.47525">
        <ele>623</ele>
        <time>2018-09-16T06:44:36.05Z</time>
      </trkpt>
      <trkpt lat="43.86922" lon="7.47525">
        <ele>622.22</ele>
        <time>2018-09-16T06:44:41.05Z</time>
      </trkpt>
      <trkpt lat="43.86932" lon="7.47531">
        <ele>620</ele>
        <time>2018-09-16T06:44:45.05Z</time>
      </trkpt>
      <trkpt lat="43.86942" lon="7.47535">
        <ele>621</ele>
        <time>2018-09-16T06:44:49.05Z</time>
      </trkpt>
      <trkpt lat="43.86952" lon="7.47542">
        <ele>621</ele>
        <time>2018-09-16T06:44:53.05Z</time>
      </trkpt>
      <trkpt lat="43.86959" lon="7.47546">
        <ele>621</ele>
        <time>2018-09-16T06:44:56.05Z</time>
      </trkpt>
      <trkpt lat="43.86967" lon="7.47548">
        <ele>621</ele>
        <time>2018-09-16T06:44:59.05Z</time>
      </trkpt>
      <trkpt lat="43.86978" lon="7.47549">
        <ele>619</ele>
        <time>2018-09-16T06:45:03.05Z</time>
      </trkpt>
      <trkpt lat="43.86985" lon="7.47547">
        <ele>619</ele>
        <time>2018-09-16T06:45:06.05Z</time>
      </trkpt>
      <trkpt lat="43.86993" lon="7.47544">
        <ele>619</ele>
        <time>2018-09-16T06:45:09.05Z</time>
      </trkpt>
      <trkpt lat="43.87004" lon="7.47543">
        <ele>619</ele>
        <time>2018-09-16T06:45:13.05Z</time>
      </trkpt>
      <trkpt lat="43.87013" lon="7.47539">
        <ele>619</ele>
        <time>2018-09-16T06:45:16.05Z</time>
      </trkpt>
      <trkpt lat="43.87021" lon="7.47534">
        <ele>619</ele>
        <time>2018-09-16T06:45:20.05Z</time>
      </trkpt>
      <trkpt lat="43.87029" lon="7.47522">
        <ele>617</ele>
        <time>2018-09-16T06:45:24.05Z</time>
      </trkpt>
      <trkpt lat="43.8703" lon="7.47507">
        <ele>617</ele>
        <time>2018-09-16T06:45:28.05Z</time>
      </trkpt>
      <trkpt lat="43.87032" lon="7.47496">
        <ele>616.74</ele>
        <time>2018-09-16T06:45:31.05Z</time>
      </trkpt>
      <trkpt lat="43.87032" lon="7.47484">
        <ele>616</ele>
        <time>2018-09-16T06:45:34.05Z</time>
      </trkpt>
      <trkpt lat="43.87031" lon="7.47471">
        <ele>616</ele>
        <time>2018-09-16T06:45:37.05Z</time>
      </trkpt>
      <trkpt lat="43.87031" lon="7.47459">
        <ele>616</ele>
        <time>2018-09-16T06:45:40.05Z</time>
      </trkpt>
      <trkpt lat="43.87033" lon="7.47447">
        <ele>615</ele>
        <time>2018-09-16T06:45:43.05Z</time>
      </trkpt>
      <trkpt lat="43.87035" lon="7.47435">
        <ele>615</ele>
        <time>2018-09-16T06:45:46.05Z</time>
      </trkpt>
      <trkpt lat="43.87037" lon="7.47425">
        <ele>615</ele>
        <time>2018-09-16T06:45:49.05Z</time>
      </trkpt>
      <trkpt lat="43.87042" lon="7.47414">
        <ele>613.26</ele>
        <time>2018-09-16T06:45:52.05Z</time>
      </trkpt>
      <trkpt lat="43.8705" lon="7.47401">
        <ele>614</ele>
        <time>2018-09-16T06:45:56.05Z</time>
      </trkpt>
      <trkpt lat="43.87058" lon="7.47391">
        <ele>614</ele>
        <time>2018-09-16T06:45:59.05Z</time>
      </trkpt>
      <trkpt lat="43.87065" lon="7.47382">
        <ele>605</ele>
        <time>2018-09-16T06:46:02.05Z</time>
      </trkpt>
      <trkpt lat="43.87071" lon="7.4737">
        <ele>604</ele>
        <time>2018-09-16T06:46:06.05Z</time>
      </trkpt>
      <trkpt lat="43.8708" lon="7.47364">
        <ele>600.74</ele>
        <time>2018-09-16T06:46:10.05Z</time>
      </trkpt>
      <trkpt lat="43.87091" lon="7.47357">
        <ele>598.74</ele>
        <time>2018-09-16T06:46:14.05Z</time>
      </trkpt>
      <trkpt lat="43.87098" lon="7.4735">
        <ele>596.74</ele>
        <time>2018-09-16T06:46:17.05Z</time>
      </trkpt>
      <trkpt lat="43.87106" lon="7.47341">
        <ele>597</ele>
        <time>2018-09-16T06:46:21.05Z</time>
      </trkpt>
      <trkpt lat="43.87113" lon="7.47334">
        <ele>597</ele>
        <time>2018-09-16T06:46:24.05Z</time>
      </trkpt>
      <trkpt lat="43.87119" lon="7.47327">
        <ele>594</ele>
        <time>2018-09-16T06:46:27.05Z</time>
      </trkpt>
      <trkpt lat="43.87125" lon="7.47318">
        <ele>594</ele>
        <time>2018-09-16T06:46:30.05Z</time>
      </trkpt>
      <trkpt lat="43.87129" lon="7.47309">
        <ele>593</ele>
        <time>2018-09-16T06:46:33.05Z</time>
      </trkpt>
      <trkpt lat="43.87132" lon="7.47299">
        <ele>592.79</ele>
        <time>2018-09-16T06:46:36.05Z</time>
      </trkpt>
      <trkpt lat="43.87134" lon="7.47286">
        <ele>592</ele>
        <time>2018-09-16T06:46:39.05Z</time>
      </trkpt>
      <trkpt lat="43.87135" lon="7.47277">
        <ele>592</ele>
        <time>2018-09-16T06:46:41.05Z</time>
      </trkpt>
      <trkpt lat="43.87135" lon="7.47269">
        <ele>592</ele>
        <time>2018-09-16T06:46:43.05Z</time>
      </trkpt>
      <trkpt lat="43.87136" lon="7.47261">
        <ele>592</ele>
        <time>2018-09-16T06:46:45.05Z</time>
      </trkpt>
      <trkpt lat="43.87137" lon="7.47252">
        <ele>592</ele>
        <time>2018-09-16T06:46:47.05Z</time>
      </trkpt>
      <trkpt lat="43.87138" lon="7.47244">
        <ele>592</ele>
        <time>2018-09-16T06:46:49.05Z</time>
      </trkpt>
      <trkpt lat="43.87138" lon="7.47236">
        <ele>592</ele>
        <time>2018-09-16T06:46:51.05Z</time>
      </trkpt>
      <trkpt lat="43.87138" lon="7.47227">
        <ele>587</ele>
        <time>2018-09-16T06:46:53.05Z</time>
      </trkpt>
      <trkpt lat="43.87138" lon="7.47219">
        <ele>587</ele>
        <time>2018-09-16T06:46:55.05Z</time>
      </trkpt>
      <trkpt lat="43.87138" lon="7.47211">
        <ele>586.59</ele>
        <time>2018-09-16T06:46:57.05Z</time>
      </trkpt>
      <trkpt lat="43.87138" lon="7.47203">
        <ele>585</ele>
        <time>2018-09-16T06:46:59.05Z</time>
      </trkpt>
      <trkpt lat="43.87137" lon="7.47191">
        <ele>584.79</ele>
        <time>2018-09-16T06:47:02.05Z</time>
      </trkpt>
      <trkpt lat="43.87136" lon="7.47177">
        <ele>584</ele>
        <time>2018-09-16T06:47:05.05Z</time>
      </trkpt>
      <trkpt lat="43.87135" lon="7.47168">
        <ele>584</ele>
        <time>2018-09-16T06:47:07.05Z</time>
      </trkpt>
      <trkpt lat="43.87136" lon="7.47156">
        <ele>582</ele>
        <time>2018-09-16T06:47:10.05Z</time>
      </trkpt>
      <trkpt lat="43.87135" lon="7.47147">
        <ele>582</ele>
        <time>2018-09-16T06:47:12.05Z</time>
      </trkpt>
      <trkpt lat="43.87134" lon="7.47136">
        <ele>580</ele>
        <time>2018-09-16T06:47:15.05Z</time>
      </trkpt>
      <trkpt lat="43.87131" lon="7.47125">
        <ele>579.75</ele>
        <time>2018-09-16T06:47:18.05Z</time>
      </trkpt>
      <trkpt lat="43.8713" lon="7.47113">
        <ele>579</ele>
        <time>2018-09-16T06:47:21.05Z</time>
      </trkpt>
      <trkpt lat="43.87129" lon="7.47101">
        <ele>577</ele>
        <time>2018-09-16T06:47:24.05Z</time>
      </trkpt>
      <trkpt lat="43.87129" lon="7.47088">
        <ele>576.74</ele>
        <time>2018-09-16T06:47:27.05Z</time>
      </trkpt>
      <trkpt lat="43.87129" lon="7.47071">
        <ele>576</ele>
        <time>2018-09-16T06:47:31.05Z</time>
      </trkpt>
      <trkpt lat="43.87129" lon="7.47055">
        <ele>574</ele>
        <time>2018-09-16T06:47:35.05Z</time>
      </trkpt>
      <trkpt lat="43.8713" lon="7.47042">
        <ele>573</ele>
        <time>2018-09-16T06:47:38.05Z</time>
      </trkpt>
      <trkpt lat="43.87133" lon="7.47027">
        <ele>573</ele>
        <time>2018-09-16T06:47:41.05Z</time>
      </trkpt>
      <trkpt lat="43.87134" lon="7.47014">
        <ele>572</ele>
        <time>2018-09-16T06:47:44.05Z</time>
      </trkpt>
      <trkpt lat="43.87132" lon="7.46999">
        <ele>571</ele>
        <time>2018-09-16T06:47:49.05Z</time>
      </trkpt>
      <trkpt lat="43.87129" lon="7.46985">
        <ele>571</ele>
        <time>2018-09-16T06:47:53.05Z</time>
      </trkpt>
      <trkpt lat="43.87134" lon="7.46968">
        <ele>570.22</ele>
        <time>2018-09-16T06:47:57.05Z</time>
      </trkpt>
      <trkpt lat="43.87139" lon="7.46955">
        <ele>568</ele>
        <time>2018-09-16T06:48:00.05Z</time>
      </trkpt>
      <trkpt lat="43.87144" lon="7.46944">
        <ele>565</ele>
        <time>2018-09-16T06:48:03.05Z</time>
      </trkpt>
      <trkpt lat="43.87151" lon="7.46934">
        <ele>564.74</ele>
        <time>2018-09-16T06:48:06.05Z</time>
      </trkpt>
      <trkpt lat="43.87161" lon="7.46928">
        <ele>564</ele>
        <time>2018-09-16T06:48:10.05Z</time>
      </trkpt>
      <trkpt lat="43.87172" lon="7.46927">
        <ele>559.26</ele>
        <time>2018-09-16T06:48:13.05Z</time>
      </trkpt>
      <trkpt lat="43.87183" lon="7.46924">
        <ele>560.48</ele>
        <time>2018-09-16T06:48:16.05Z</time>
      </trkpt>
      <trkpt lat="43.87195" lon="7.46922">
        <ele>558</ele>
        <time>2018-09-16T06:48:20.05Z</time>
      </trkpt>
      <trkpt lat="43.87207" lon="7.46919">
        <ele>555.74</ele>
        <time>2018-09-16T06:48:24.05Z</time>
      </trkpt>
      <trkpt lat="43.87219" lon="7.46915">
        <ele>554.74</ele>
        <time>2018-09-16T06:48:28.05Z</time>
      </trkpt>
      <trkpt lat="43.87231" lon="7.46914">
        <ele>553</ele>
        <time>2018-09-16T06:48:32.05Z</time>
      </trkpt>
      <trkpt lat="43.87244" lon="7.46913">
        <ele>552.74</ele>
        <time>2018-09-16T06:48:36.05Z</time>
      </trkpt>
      <trkpt lat="43.87256" lon="7.46911">
        <ele>552</ele>
        <time>2018-09-16T06:48:40.05Z</time>
      </trkpt>
      <trkpt lat="43.87267" lon="7.46906">
        <ele>549</ele>
        <time>2018-09-16T06:48:43.05Z</time>
      </trkpt>
      <trkpt lat="43.87278" lon="7.46899">
        <ele>547</ele>
        <time>2018-09-16T06:48:47.05Z</time>
      </trkpt>
      <trkpt lat="43.87289" lon="7.46889">
        <ele>546.74</ele>
        <time>2018-09-16T06:48:51.05Z</time>
      </trkpt>
      <trkpt lat="43.87299" lon="7.4688">
        <ele>546</ele>
        <time>2018-09-16T06:48:55.05Z</time>
      </trkpt>
      <trkpt lat="43.8731" lon="7.46871">
        <ele>545</ele>
        <time>2018-09-16T06:48:59.05Z</time>
      </trkpt>
      <trkpt lat="43.87319" lon="7.46859">
        <ele>546</ele>
        <time>2018-09-16T06:49:03.05Z</time>
      </trkpt>
      <trkpt lat="43.87325" lon="7.46845">
        <ele>546</ele>
        <time>2018-09-16T06:49:07.05Z</time>
      </trkpt>
      <trkpt lat="43.87333" lon="7.46834">
        <ele>546</ele>
        <time>2018-09-16T06:49:11.05Z</time>
      </trkpt>
      <trkpt lat="43.8734" lon="7.46823">
        <ele>546</ele>
        <time>2018-09-16T06:49:15.05Z</time>
      </trkpt>
      <trkpt lat="43.87346" lon="7.46812">
        <ele>546</ele>
        <time>2018-09-16T06:49:19.05Z</time>
      </trkpt>
      <trkpt lat="43.87351" lon="7.46798">
        <ele>545</ele>
        <time>2018-09-16T06:49:24.05Z</time>
      </trkpt>
      <trkpt lat="43.87353" lon="7.46785">
        <ele>545</ele>
        <time>2018-09-16T06:49:29.05Z</time>
      </trkpt>
      <trkpt lat="43.87356" lon="7.4677">
        <ele>544</ele>
        <time>2018-09-16T06:49:33.05Z</time>
      </trkpt>
      <trkpt lat="43.87351" lon="7.46757">
        <ele>544</ele>
        <time>2018-09-16T06:49:38.05Z</time>
      </trkpt>
      <trkpt lat="43.87344" lon="7.46745">
        <ele>544</ele>
        <time>2018-09-16T06:49:46.05Z</time>
      </trkpt>
      <trkpt lat="43.87344" lon="7.46731">
        <ele>546</ele>
        <time>2018-09-16T06:49:54.05Z</time>
      </trkpt>
      <trkpt lat="43.87348" lon="7.46719">
        <ele>550</ele>
        <time>2018-09-16T06:50:03.05Z</time>
      </trkpt>
      <trkpt lat="43.87354" lon="7.46705">
        <ele>550</ele>
        <time>2018-09-16T06:50:08.05Z</time>
      </trkpt>
      <trkpt lat="43.87359" lon="7.46691">
        <ele>551</ele>
        <time>2018-09-16T06:50:14.05Z</time>
      </trkpt>
      <trkpt lat="43.87363" lon="7.46679">
        <ele>552</ele>
        <time>2018-09-16T06:50:23.05Z</time>
      </trkpt>
      <trkpt lat="43.87365" lon="7.46665">
        <ele>555</ele>
        <time>2018-09-16T06:50:32.05Z</time>
      </trkpt>
      <trkpt lat="43.87364" lon="7.4665">
        <ele>556.52</ele>
        <time>2018-09-16T06:50:41.05Z</time>
      </trkpt>
      <trkpt lat="43.87362" lon="7.46636">
        <ele>558</ele>
        <time>2018-09-16T06:50:47.05Z</time>
      </trkpt>
      <trkpt lat="43.87361" lon="7.46621">
        <ele>558</ele>
        <time>2018-09-16T06:50:52.05Z</time>
      </trkpt>
      <trkpt lat="43.8736" lon="7.46606">
        <ele>558</ele>
        <time>2018-09-16T06:50:57.05Z</time>
      </trkpt>
      <trkpt lat="43.87354" lon="7.46591">
        <ele>558</ele>
        <time>2018-09-16T06:51:02.05Z</time>
      </trkpt>
      <trkpt lat="43.87348" lon="7.4658">
        <ele>558</ele>
        <time>2018-09-16T06:51:08.05Z</time>
      </trkpt>
      <trkpt lat="43.87342" lon="7.46568">
        <ele>560</ele>
        <time>2018-09-16T06:51:15.05Z</time>
      </trkpt>
      <trkpt lat="43.87333" lon="7.4656">
        <ele>563</ele>
        <time>2018-09-16T06:51:24.05Z</time>
      </trkpt>
      <trkpt lat="43.87329" lon="7.46549">
        <ele>564</ele>
        <time>2018-09-16T06:51:34.05Z</time>
      </trkpt>
      <trkpt lat="43.87322" lon="7.46539">
        <ele>566</ele>
        <time>2018-09-16T06:51:44.05Z</time>
      </trkpt>
      <trkpt lat="43.87312" lon="7.46531">
        <ele>569</ele>
        <time>2018-09-16T06:51:52.05Z</time>
      </trkpt>
      <trkpt lat="43.87303" lon="7.46523">
        <ele>570</ele>
        <time>2018-09-16T06:51:58.05Z</time>
      </trkpt>
      <trkpt lat="43.87295" lon="7.46511">
        <ele>569</ele>
        <time>2018-09-16T06:52:05.05Z</time>
      </trkpt>
      <trkpt lat="43.87288" lon="7.465">
        <ele>569</ele>
        <time>2018-09-16T06:52:15.05Z</time>
      </trkpt>
      <trkpt lat="43.87285" lon="7.46485">
        <ele>569.26</ele>
        <time>2018-09-16T06:52:21.05Z</time>
      </trkpt>
      <trkpt lat="43.87289" lon="7.46472">
        <ele>570</ele>
        <time>2018-09-16T06:52:27.05Z</time>
      </trkpt>
      <trkpt lat="43.87285" lon="7.46458">
        <ele>570</ele>
        <time>2018-09-16T06:52:37.05Z</time>
      </trkpt>
      <trkpt lat="43.87283" lon="7.46443">
        <ele>571</ele>
        <time>2018-09-16T06:52:44.05Z</time>
      </trkpt>
      <trkpt lat="43.87285" lon="7.46429">
        <ele>571</ele>
        <time>2018-09-16T06:52:48.05Z</time>
      </trkpt>
      <trkpt lat="43.87286" lon="7.46415">
        <ele>571</ele>
        <time>2018-09-16T06:52:53.05Z</time>
      </trkpt>
      <trkpt lat="43.87287" lon="7.46402">
        <ele>571</ele>
        <time>2018-09-16T06:52:58.05Z</time>
      </trkpt>
      <trkpt lat="43.87284" lon="7.46386">
        <ele>571</ele>
        <time>2018-09-16T06:53:03.05Z</time>
      </trkpt>
      <trkpt lat="43.87282" lon="7.46371">
        <ele>571</ele>
        <time>2018-09-16T06:53:08.05Z</time>
      </trkpt>
      <trkpt lat="43.87274" lon="7.46361">
        <ele>574</ele>
        <time>2018-09-16T06:53:13.05Z</time>
      </trkpt>
      <trkpt lat="43.87267" lon="7.46349">
        <ele>577</ele>
        <time>2018-09-16T06:53:18.05Z</time>
      </trkpt>
      <trkpt lat="43.8726" lon="7.46337">
        <ele>577</ele>
        <time>2018-09-16T06:53:23.05Z</time>
      </trkpt>
      <trkpt lat="43.87253" lon="7.46327">
        <ele>577</ele>
        <time>2018-09-16T06:53:30.05Z</time>
      </trkpt>
      <trkpt lat="43.87244" lon="7.46315">
        <ele>578</ele>
        <time>2018-09-16T06:53:40.05Z</time>
      </trkpt>
      <trkpt lat="43.87236" lon="7.46307">
        <ele>581</ele>
        <time>2018-09-16T06:53:45.05Z</time>
      </trkpt>
      <trkpt lat="43.87228" lon="7.46299">
        <ele>585</ele>
        <time>2018-09-16T06:53:57.05Z</time>
      </trkpt>
      <trkpt lat="43.87219" lon="7.46294">
        <ele>587.52</ele>
        <time>2018-09-16T06:54:11.05Z</time>
      </trkpt>
      <trkpt lat="43.87211" lon="7.46283">
        <ele>592</ele>
        <time>2018-09-16T06:54:20.05Z</time>
      </trkpt>
      <trkpt lat="43.87201" lon="7.46275">
        <ele>594</ele>
        <time>2018-09-16T06:54:25.05Z</time>
      </trkpt>
      <trkpt lat="43.87192" lon="7.46271">
        <ele>595</ele>
        <time>2018-09-16T06:54:32.05Z</time>
      </trkpt>
      <trkpt lat="43.87181" lon="7.46267">
        <ele>595.51</ele>
        <time>2018-09-16T06:54:41.05Z</time>
      </trkpt>
      <trkpt lat="43.87171" lon="7.46263">
        <ele>597</ele>
        <time>2018-09-16T06:54:49.05Z</time>
      </trkpt>
      <trkpt lat="43.87161" lon="7.46261">
        <ele>601</ele>
        <time>2018-09-16T06:54:58.05Z</time>
      </trkpt>
      <trkpt lat="43.8715" lon="7.46259">
        <ele>604</ele>
        <time>2018-09-16T06:55:10.05Z</time>
      </trkpt>
      <trkpt lat="43.87145" lon="7.46249">
        <ele>606</ele>
        <time>2018-09-16T06:55:17.05Z</time>
      </trkpt>
      <trkpt lat="43.87137" lon="7.4624">
        <ele>606</ele>
        <time>2018-09-16T06:55:22.05Z</time>
      </trkpt>
      <trkpt lat="43.87127" lon="7.46235">
        <ele>606</ele>
        <time>2018-09-16T06:55:26.05Z</time>
      </trkpt>
      <trkpt lat="43.87118" lon="7.46231">
        <ele>606</ele>
        <time>2018-09-16T06:55:30.05Z</time>
      </trkpt>
      <trkpt lat="43.87106" lon="7.46228">
        <ele>604</ele>
        <time>2018-09-16T06:55:35.05Z</time>
      </trkpt>
      <trkpt lat="43.87094" lon="7.46225">
        <ele>604</ele>
        <time>2018-09-16T06:55:40.05Z</time>
      </trkpt>
      <trkpt lat="43.87084" lon="7.46225">
        <ele>601</ele>
        <time>2018-09-16T06:55:46.05Z</time>
      </trkpt>
      <trkpt lat="43.87074" lon="7.46227">
        <ele>603</ele>
        <time>2018-09-16T06:55:52.05Z</time>
      </trkpt>
      <trkpt lat="43.87064" lon="7.46232">
        <ele>603</ele>
        <time>2018-09-16T06:56:00.05Z</time>
      </trkpt>
      <trkpt lat="43.87055" lon="7.4624">
        <ele>606</ele>
        <time>2018-09-16T06:56:14.05Z</time>
      </trkpt>
      <trkpt lat="43.87045" lon="7.46241">
        <ele>609</ele>
        <time>2018-09-16T06:56:24.05Z</time>
      </trkpt>
      <trkpt lat="43.87053" lon="7.46252">
        <ele>616</ele>
        <time>2018-09-16T06:56:44.05Z</time>
      </trkpt>
      <trkpt lat="43.87064" lon="7.46257">
        <ele>617</ele>
        <time>2018-09-16T06:56:51.05Z</time>
      </trkpt>
      <trkpt lat="43.87072" lon="7.46265">
        <ele>617</ele>
        <time>2018-09-16T06:57:00.05Z</time>
      </trkpt>
      <trkpt lat="43.87081" lon="7.46272">
        <ele>623</ele>
        <time>2018-09-16T06:57:15.05Z</time>
      </trkpt>
      <trkpt lat="43.87079" lon="7.46286">
        <ele>631</ele>
        <time>2018-09-16T06:57:39.05Z</time>
      </trkpt>
      <trkpt lat="43.87074" lon="7.46295">
        <ele>632</ele>
        <time>2018-09-16T06:57:56.05Z</time>
      </trkpt>
      <trkpt lat="43.87066" lon="7.46303">
        <ele>640</ele>
        <time>2018-09-16T06:58:12.05Z</time>
      </trkpt>
      <trkpt lat="43.87059" lon="7.46312">
        <ele>643</ele>
        <time>2018-09-16T06:58:27.05Z</time>
      </trkpt>
      <trkpt lat="43.87049" lon="7.46318">
        <ele>648</ele>
        <time>2018-09-16T06:58:42.05Z</time>
      </trkpt>
      <trkpt lat="43.87046" lon="7.4633">
        <ele>651</ele>
        <time>2018-09-16T06:58:52.05Z</time>
      </trkpt>
      <trkpt lat="43.87049" lon="7.46341">
        <ele>652.25</ele>
        <time>2018-09-16T06:59:01.05Z</time>
      </trkpt>
      <trkpt lat="43.87045" lon="7.46354">
        <ele>655</ele>
        <time>2018-09-16T06:59:10.05Z</time>
      </trkpt>
      <trkpt lat="43.87038" lon="7.46361">
        <ele>654</ele>
        <time>2018-09-16T06:59:15.05Z</time>
      </trkpt>
      <trkpt lat="43.87028" lon="7.46366">
        <ele>653</ele>
        <time>2018-09-16T06:59:25.05Z</time>
      </trkpt>
      <trkpt lat="43.87018" lon="7.46365">
        <ele>654</ele>
        <time>2018-09-16T06:59:32.05Z</time>
      </trkpt>
      <trkpt lat="43.87009" lon="7.4636">
        <ele>654</ele>
        <time>2018-09-16T06:59:37.05Z</time>
      </trkpt>
      <trkpt lat="43.86998" lon="7.46356">
        <ele>652</ele>
        <time>2018-09-16T06:59:42.05Z</time>
      </trkpt>
      <trkpt lat="43.86987" lon="7.46356">
        <ele>652</ele>
        <time>2018-09-16T06:59:48.05Z</time>
      </trkpt>
      <trkpt lat="43.86977" lon="7.46355">
        <ele>651</ele>
        <time>2018-09-16T06:59:52.05Z</time>
      </trkpt>
      <trkpt lat="43.86966" lon="7.46352">
        <ele>651</ele>
        <time>2018-09-16T06:59:57.05Z</time>
      </trkpt>
      <trkpt lat="43.86957" lon="7.46345">
        <ele>653</ele>
        <time>2018-09-16T07:00:03.05Z</time>
      </trkpt>
      <trkpt lat="43.86946" lon="7.4634">
        <ele>654.52</ele>
        <time>2018-09-16T07:00:11.05Z</time>
      </trkpt>
      <trkpt lat="43.86936" lon="7.46337">
        <ele>659</ele>
        <time>2018-09-16T07:00:22.05Z</time>
      </trkpt>
      <trkpt lat="43.8693" lon="7.46326">
        <ele>659</ele>
        <time>2018-09-16T07:00:30.05Z</time>
      </trkpt>
      <trkpt lat="43.86923" lon="7.46317">
        <ele>659</ele>
        <time>2018-09-16T07:00:35.05Z</time>
      </trkpt>
      <trkpt lat="43.86915" lon="7.46312">
        <ele>659.52</ele>
        <time>2018-09-16T07:00:41.05Z</time>
      </trkpt>
      <trkpt lat="43.86905" lon="7.46305">
        <ele>661</ele>
        <time>2018-09-16T07:00:50.05Z</time>
      </trkpt>
      <trkpt lat="43.86897" lon="7.46307">
        <ele>665</ele>
        <time>2018-09-16T07:00:59.05Z</time>
      </trkpt>
      <trkpt lat="43.86886" lon="7.46306">
        <ele>668</ele>
        <time>2018-09-16T07:01:09.05Z</time>
      </trkpt>
      <trkpt lat="43.86878" lon="7.46298">
        <ele>670</ele>
        <time>2018-09-16T07:01:19.05Z</time>
      </trkpt>
      <trkpt lat="43.86868" lon="7.46292">
        <ele>671</ele>
        <time>2018-09-16T07:01:25.05Z</time>
      </trkpt>
      <trkpt lat="43.86859" lon="7.46287">
        <ele>673</ele>
        <time>2018-09-16T07:01:34.05Z</time>
      </trkpt>
      <trkpt lat="43.8685" lon="7.46284">
        <ele>677</ele>
        <time>2018-09-16T07:01:42.05Z</time>
      </trkpt>
      <trkpt lat="43.86839" lon="7.46281">
        <ele>678</ele>
        <time>2018-09-16T07:01:49.05Z</time>
      </trkpt>
      <trkpt lat="43.8683" lon="7.46277">
        <ele>680</ele>
        <time>2018-09-16T07:01:54.05Z</time>
      </trkpt>
      <trkpt lat="43.86819" lon="7.46275">
        <ele>679</ele>
        <time>2018-09-16T07:02:00.05Z</time>
      </trkpt>
      <trkpt lat="43.86809" lon="7.46278">
        <ele>678</ele>
        <time>2018-09-16T07:02:09.05Z</time>
      </trkpt>
      <trkpt lat="43.86799" lon="7.46274">
        <ele>681.26</ele>
        <time>2018-09-16T07:02:16.05Z</time>
      </trkpt>
      <trkpt lat="43.86788" lon="7.4627">
        <ele>685</ele>
        <time>2018-09-16T07:02:25.05Z</time>
      </trkpt>
      <trkpt lat="43.86781" lon="7.46259">
        <ele>686</ele>
        <time>2018-09-16T07:02:33.05Z</time>
      </trkpt>
      <trkpt lat="43.86774" lon="7.46249">
        <ele>686</ele>
        <time>2018-09-16T07:02:39.05Z</time>
      </trkpt>
      <trkpt lat="43.86764" lon="7.46243">
        <ele>686</ele>
        <time>2018-09-16T07:02:48.05Z</time>
      </trkpt>
      <trkpt lat="43.86755" lon="7.46235">
        <ele>691</ele>
        <time>2018-09-16T07:03:03.05Z</time>
      </trkpt>
      <trkpt lat="43.86745" lon="7.46237">
        <ele>694</ele>
        <time>2018-09-16T07:03:15.05Z</time>
      </trkpt>
      <trkpt lat="43.86735" lon="7.46241">
        <ele>699</ele>
        <time>2018-09-16T07:03:29.05Z</time>
      </trkpt>
      <trkpt lat="43.86725" lon="7.46244">
        <ele>700</ele>
        <time>2018-09-16T07:03:40.05Z</time>
      </trkpt>
      <trkpt lat="43.86714" lon="7.46244">
        <ele>702</ele>
        <time>2018-09-16T07:03:49.05Z</time>
      </trkpt>
      <trkpt lat="43.86703" lon="7.46244">
        <ele>705</ele>
        <time>2018-09-16T07:03:55.05Z</time>
      </trkpt>
      <trkpt lat="43.86693" lon="7.46243">
        <ele>706</ele>
        <time>2018-09-16T07:04:02.05Z</time>
      </trkpt>
      <trkpt lat="43.86685" lon="7.46245">
        <ele>709</ele>
        <time>2018-09-16T07:04:12.05Z</time>
      </trkpt>
      <trkpt lat="43.86676" lon="7.46246">
        <ele>713</ele>
        <time>2018-09-16T07:04:22.05Z</time>
      </trkpt>
      <trkpt lat="43.86666" lon="7.46248">
        <ele>714</ele>
        <time>2018-09-16T07:04:32.05Z</time>
      </trkpt>
      <trkpt lat="43.86656" lon="7.46249">
        <ele>714</ele>
        <time>2018-09-16T07:04:40.05Z</time>
      </trkpt>
      <trkpt lat="43.86646" lon="7.46248">
        <ele>715</ele>
        <time>2018-09-16T07:04:48.05Z</time>
      </trkpt>
      <trkpt lat="43.86635" lon="7.46248">
        <ele>722</ele>
        <time>2018-09-16T07:04:57.05Z</time>
      </trkpt>
      <trkpt lat="43.86624" lon="7.46252">
        <ele>723</ele>
        <time>2018-09-16T07:05:04.05Z</time>
      </trkpt>
      <trkpt lat="43.86613" lon="7.46254">
        <ele>721</ele>
        <time>2018-09-16T07:05:11.05Z</time>
      </trkpt>
      <trkpt lat="43.86615" lon="7.46239">
        <ele>721</ele>
        <time>2018-09-16T07:05:21.05Z</time>
      </trkpt>
      <trkpt lat="43.86624" lon="7.4623">
        <ele>721</ele>
        <time>2018-09-16T07:05:26.05Z</time>
      </trkpt>
      <trkpt lat="43.8663" lon="7.4622">
        <ele>721.26</ele>
        <time>2018-09-16T07:05:31.05Z</time>
      </trkpt>
      <trkpt lat="43.86639" lon="7.46209">
        <ele>722</ele>
        <time>2018-09-16T07:05:37.05Z</time>
      </trkpt>
      <trkpt lat="43.86647" lon="7.46197">
        <ele>719</ele>
        <time>2018-09-16T07:05:42.05Z</time>
      </trkpt>
      <trkpt lat="43.86654" lon="7.46187">
        <ele>718.24</ele>
        <time>2018-09-16T07:05:46.05Z</time>
      </trkpt>
      <trkpt lat="43.86663" lon="7.46178">
        <ele>716</ele>
        <time>2018-09-16T07:05:50.05Z</time>
      </trkpt>
      <trkpt lat="43.86673" lon="7.46172">
        <ele>715</ele>
        <time>2018-09-16T07:05:54.05Z</time>
      </trkpt>
      <trkpt lat="43.86681" lon="7.46162">
        <ele>714</ele>
        <time>2018-09-16T07:05:59.05Z</time>
      </trkpt>
      <trkpt lat="43.86688" lon="7.4615">
        <ele>715</ele>
        <time>2018-09-16T07:06:06.05Z</time>
      </trkpt>
      <trkpt lat="43.86694" lon="7.46138">
        <ele>718</ele>
        <time>2018-09-16T07:06:13.05Z</time>
      </trkpt>
      <trkpt lat="43.86698" lon="7.46126">
        <ele>719</ele>
        <time>2018-09-16T07:06:20.05Z</time>
      </trkpt>
      <trkpt lat="43.86704" lon="7.46113">
        <ele>720</ele>
        <time>2018-09-16T07:06:29.05Z</time>
      </trkpt>
      <trkpt lat="43.8671" lon="7.46102">
        <ele>725</ele>
        <time>2018-09-16T07:06:45.05Z</time>
      </trkpt>
      <trkpt lat="43.86718" lon="7.46093">
        <ele>729.52</ele>
        <time>2018-09-16T07:06:56.05Z</time>
      </trkpt>
      <trkpt lat="43.86725" lon="7.46092">
        <ele>731</ele>
        <time>2018-09-16T07:06:59.05Z</time>
      </trkpt>
      <trkpt lat="43.86721" lon="7.46088">
        <ele>731</ele>
        <time>2018-09-16T07:07:06.05Z</time>
      </trkpt>
      <trkpt lat="43.86717" lon="7.4609">
        <ele>731</ele>
        <time>2018-09-16T07:07:11.05Z</time>
      </trkpt>
      <trkpt lat="43.86711" lon="7.46089">
        <ele>731</ele>
        <time>2018-09-16T07:07:16.05Z</time>
      </trkpt>
      <trkpt lat="43.86706" lon="7.46089">
        <ele>731.26</ele>
        <time>2018-09-16T07:07:21.05Z</time>
      </trkpt>
      <trkpt lat="43.86701" lon="7.4609">
        <ele>732</ele>
        <time>2018-09-16T07:07:27.05Z</time>
      </trkpt>
      <trkpt lat="43.86696" lon="7.46087">
        <ele>735</ele>
        <time>2018-09-16T07:07:33.05Z</time>
      </trkpt>
      <trkpt lat="43.8669" lon="7.46088">
        <ele>737.26</ele>
        <time>2018-09-16T07:07:41.05Z</time>
      </trkpt>
      <trkpt lat="43.86686" lon="7.46093">
        <ele>740</ele>
        <time>2018-09-16T07:07:47.05Z</time>
      </trkpt>
      <trkpt lat="43.8668" lon="7.46093">
        <ele>741</ele>
        <time>2018-09-16T07:07:53.05Z</time>
      </trkpt>
      <trkpt lat="43.86673" lon="7.46096">
        <ele>743</ele>
        <time>2018-09-16T07:08:02.05Z</time>
      </trkpt>
      <trkpt lat="43.86669" lon="7.46101">
        <ele>743</ele>
        <time>2018-09-16T07:08:09.05Z</time>
      </trkpt>
      <trkpt lat="43.86662" lon="7.46104">
        <ele>745</ele>
        <time>2018-09-16T07:08:18.05Z</time>
      </trkpt>
      <trkpt lat="43.86654" lon="7.46109">
        <ele>750.52</ele>
        <time>2018-09-16T07:08:31.05Z</time>
      </trkpt>
      <trkpt lat="43.86648" lon="7.46105">
        <ele>752</ele>
        <time>2018-09-16T07:08:39.05Z</time>
      </trkpt>
      <trkpt lat="43.86642" lon="7.46101">
        <ele>754</ele>
        <time>2018-09-16T07:08:48.05Z</time>
      </trkpt>
      <trkpt lat="43.86634" lon="7.46097">
        <ele>758</ele>
        <time>2018-09-16T07:08:58.05Z</time>
      </trkpt>
      <trkpt lat="43.86626" lon="7.46092">
        <ele>762</ele>
        <time>2018-09-16T07:09:08.05Z</time>
      </trkpt>
      <trkpt lat="43.86619" lon="7.46094">
        <ele>764</ele>
        <time>2018-09-16T07:09:18.05Z</time>
      </trkpt>
      <trkpt lat="43.86615" lon="7.46103">
        <ele>764</ele>
        <time>2018-09-16T07:09:25.05Z</time>
      </trkpt>
      <trkpt lat="43.86614" lon="7.46111">
        <ele>764</ele>
        <time>2018-09-16T07:09:29.05Z</time>
      </trkpt>
      <trkpt lat="43.8661" lon="7.46121">
        <ele>766</ele>
        <time>2018-09-16T07:09:36.05Z</time>
      </trkpt>
      <trkpt lat="43.866" lon="7.46127">
        <ele>770</ele>
        <time>2018-09-16T07:09:50.05Z</time>
      </trkpt>
      <trkpt lat="43.86591" lon="7.46133">
        <ele>775</ele>
        <time>2018-09-16T07:10:02.05Z</time>
      </trkpt>
      <trkpt lat="43.86583" lon="7.46143">
        <ele>775</ele>
        <time>2018-09-16T07:10:10.05Z</time>
      </trkpt>
      <trkpt lat="43.86574" lon="7.46148">
        <ele>779</ele>
        <time>2018-09-16T07:10:22.05Z</time>
      </trkpt>
      <trkpt lat="43.86564" lon="7.46154">
        <ele>779.78</ele>
        <time>2018-09-16T07:10:31.05Z</time>
      </trkpt>
      <trkpt lat="43.86555" lon="7.46162">
        <ele>783</ele>
        <time>2018-09-16T07:10:40.05Z</time>
      </trkpt>
      <trkpt lat="43.86547" lon="7.46171">
        <ele>785</ele>
        <time>2018-09-16T07:10:46.05Z</time>
      </trkpt>
      <trkpt lat="43.86539" lon="7.46179">
        <ele>787</ele>
        <time>2018-09-16T07:10:52.05Z</time>
      </trkpt>
      <trkpt lat="43.8653" lon="7.46186">
        <ele>787</ele>
        <time>2018-09-16T07:10:58.05Z</time>
      </trkpt>
      <trkpt lat="43.8652" lon="7.46186">
        <ele>788</ele>
        <time>2018-09-16T07:11:04.05Z</time>
      </trkpt>
      <trkpt lat="43.86514" lon="7.46197">
        <ele>788</ele>
        <time>2018-09-16T07:11:09.05Z</time>
      </trkpt>
      <trkpt lat="43.86504" lon="7.46202">
        <ele>790</ele>
        <time>2018-09-16T07:11:15.05Z</time>
      </trkpt>
      <trkpt lat="43.86494" lon="7.46204">
        <ele>791</ele>
        <time>2018-09-16T07:11:24.05Z</time>
      </trkpt>
      <trkpt lat="43.86485" lon="7.46212">
        <ele>793</ele>
        <time>2018-09-16T07:11:32.05Z</time>
      </trkpt>
      <trkpt lat="43.86476" lon="7.46218">
        <ele>793</ele>
        <time>2018-09-16T07:11:40.05Z</time>
      </trkpt>
      <trkpt lat="43.86468" lon="7.46224">
        <ele>795</ele>
        <time>2018-09-16T07:11:50.05Z</time>
      </trkpt>
      <trkpt lat="43.86459" lon="7.46231">
        <ele>800</ele>
        <time>2018-09-16T07:11:59.05Z</time>
      </trkpt>
      <trkpt lat="43.8645" lon="7.46226">
        <ele>807</ele>
        <time>2018-09-16T07:12:19.05Z</time>
      </trkpt>
      <trkpt lat="43.86447" lon="7.46215">
        <ele>807</ele>
        <time>2018-09-16T07:12:28.05Z</time>
      </trkpt>
      <trkpt lat="43.86437" lon="7.46218">
        <ele>812</ele>
        <time>2018-09-16T07:12:43.05Z</time>
      </trkpt>
      <trkpt lat="43.86429" lon="7.46211">
        <ele>817</ele>
        <time>2018-09-16T07:12:52.05Z</time>
      </trkpt>
      <trkpt lat="43.86419" lon="7.46207">
        <ele>818</ele>
        <time>2018-09-16T07:12:58.05Z</time>
      </trkpt>
      <trkpt lat="43.86411" lon="7.46212">
        <ele>818</ele>
        <time>2018-09-16T07:13:08.05Z</time>
      </trkpt>
      <trkpt lat="43.86402" lon="7.46219">
        <ele>822</ele>
        <time>2018-09-16T07:13:23.05Z</time>
      </trkpt>
      <trkpt lat="43.86391" lon="7.4622">
        <ele>825.26</ele>
        <time>2018-09-16T07:13:31.05Z</time>
      </trkpt>
      <trkpt lat="43.86381" lon="7.46218">
        <ele>828.52</ele>
        <time>2018-09-16T07:13:41.05Z</time>
      </trkpt>
      <trkpt lat="43.86371" lon="7.46217">
        <ele>832</ele>
        <time>2018-09-16T07:13:52.05Z</time>
      </trkpt>
      <trkpt lat="43.8636" lon="7.46218">
        <ele>835</ele>
        <time>2018-09-16T07:14:05.05Z</time>
      </trkpt>
      <trkpt lat="43.8635" lon="7.46213">
        <ele>839</ele>
        <time>2018-09-16T07:14:17.05Z</time>
      </trkpt>
      <trkpt lat="43.86342" lon="7.46222">
        <ele>844</ele>
        <time>2018-09-16T07:14:33.05Z</time>
      </trkpt>
      <trkpt lat="43.86337" lon="7.46234">
        <ele>848</ele>
        <time>2018-09-16T07:14:45.05Z</time>
      </trkpt>
      <trkpt lat="43.86332" lon="7.46246">
        <ele>853.52</ele>
        <time>2018-09-16T07:15:06.05Z</time>
      </trkpt>
      <trkpt lat="43.86325" lon="7.46258">
        <ele>855</ele>
        <time>2018-09-16T07:15:16.05Z</time>
      </trkpt>
      <trkpt lat="43.86323" lon="7.46272">
        <ele>858</ele>
        <time>2018-09-16T07:15:24.05Z</time>
      </trkpt>
      <trkpt lat="43.86322" lon="7.46287">
        <ele>860</ele>
        <time>2018-09-16T07:15:31.05Z</time>
      </trkpt>
      <trkpt lat="43.86316" lon="7.463">
        <ele>860.78</ele>
        <time>2018-09-16T07:15:41.05Z</time>
      </trkpt>
      <trkpt lat="43.86313" lon="7.46315">
        <ele>863</ele>
        <time>2018-09-16T07:15:49.05Z</time>
      </trkpt>
      <trkpt lat="43.86312" lon="7.46329">
        <ele>867</ele>
        <time>2018-09-16T07:16:00.05Z</time>
      </trkpt>
      <trkpt lat="43.86309" lon="7.46342">
        <ele>868.52</ele>
        <time>2018-09-16T07:16:06.05Z</time>
      </trkpt>
      <trkpt lat="43.86305" lon="7.46356">
        <ele>869</ele>
        <time>2018-09-16T07:16:12.05Z</time>
      </trkpt>
      <trkpt lat="43.86298" lon="7.46366">
        <ele>870</ele>
        <time>2018-09-16T07:16:28.05Z</time>
      </trkpt>
      <trkpt lat="43.8629" lon="7.46375">
        <ele>875</ele>
        <time>2018-09-16T07:16:37.05Z</time>
      </trkpt>
      <trkpt lat="43.86281" lon="7.46384">
        <ele>878</ele>
        <time>2018-09-16T07:16:49.05Z</time>
      </trkpt>
      <trkpt lat="43.86275" lon="7.46396">
        <ele>881</ele>
        <time>2018-09-16T07:16:58.05Z</time>
      </trkpt>
      <trkpt lat="43.86269" lon="7.46407">
        <ele>887</ele>
        <time>2018-09-16T07:17:17.05Z</time>
      </trkpt>
      <trkpt lat="43.86266" lon="7.4642">
        <ele>892</ele>
        <time>2018-09-16T07:17:32.05Z</time>
      </trkpt>
      <trkpt lat="43.86257" lon="7.46429">
        <ele>894.26</ele>
        <time>2018-09-16T07:17:41.05Z</time>
      </trkpt>
      <trkpt lat="43.86254" lon="7.46442">
        <ele>897</ele>
        <time>2018-09-16T07:17:53.05Z</time>
      </trkpt>
      <trkpt lat="43.86247" lon="7.46455">
        <ele>900</ele>
        <time>2018-09-16T07:18:05.05Z</time>
      </trkpt>
      <trkpt lat="43.8624" lon="7.46465">
        <ele>902</ele>
        <time>2018-09-16T07:18:14.05Z</time>
      </trkpt>
      <trkpt lat="43.86239" lon="7.46479">
        <ele>905.26</ele>
        <time>2018-09-16T07:18:26.05Z</time>
      </trkpt>
      <trkpt lat="43.86235" lon="7.46493">
        <ele>909</ele>
        <time>2018-09-16T07:18:39.05Z</time>
      </trkpt>
      <trkpt lat="43.86234" lon="7.46507">
        <ele>911.52</ele>
        <time>2018-09-16T07:18:51.05Z</time>
      </trkpt>
      <trkpt lat="43.86229" lon="7.46521">
        <ele>913</ele>
        <time>2018-09-16T07:18:59.05Z</time>
      </trkpt>
      <trkpt lat="43.86225" lon="7.46534">
        <ele>914</ele>
        <time>2018-09-16T07:19:06.05Z</time>
      </trkpt>
      <trkpt lat="43.86219" lon="7.46548">
        <ele>914</ele>
        <time>2018-09-16T07:19:12.05Z</time>
      </trkpt>
      <trkpt lat="43.86213" lon="7.46561">
        <ele>914</ele>
        <time>2018-09-16T07:19:19.05Z</time>
      </trkpt>
      <trkpt lat="43.86204" lon="7.46572">
        <ele>915</ele>
        <time>2018-09-16T07:19:26.05Z</time>
      </trkpt>
      <trkpt lat="43.86195" lon="7.4658">
        <ele>917</ele>
        <time>2018-09-16T07:19:32.05Z</time>
      </trkpt>
      <trkpt lat="43.86186" lon="7.46586">
        <ele>917</ele>
        <time>2018-09-16T07:19:38.05Z</time>
      </trkpt>
      <trkpt lat="43.86189" lon="7.46601">
        <ele>919.78</ele>
        <time>2018-09-16T07:19:51.05Z</time>
      </trkpt>
      <trkpt lat="43.86198" lon="7.46608">
        <ele>922</ele>
        <time>2018-09-16T07:19:56.05Z</time>
      </trkpt>
      <trkpt lat="43.86207" lon="7.46615">
        <ele>922.26</ele>
        <time>2018-09-16T07:20:01.05Z</time>
      </trkpt>
      <trkpt lat="43.86215" lon="7.46624">
        <ele>923</ele>
        <time>2018-09-16T07:20:06.05Z</time>
      </trkpt>
      <trkpt lat="43.86225" lon="7.46631">
        <ele>923.52</ele>
        <time>2018-09-16T07:20:11.05Z</time>
      </trkpt>
      <trkpt lat="43.86234" lon="7.46638">
        <ele>925</ele>
        <time>2018-09-16T07:20:17.05Z</time>
      </trkpt>
      <trkpt lat="43.86244" lon="7.46643">
        <ele>927</ele>
        <time>2018-09-16T07:20:22.05Z</time>
      </trkpt>
      <trkpt lat="43.86253" lon="7.46651">
        <ele>927</ele>
        <time>2018-09-16T07:20:29.05Z</time>
      </trkpt>
      <trkpt lat="43.86264" lon="7.46655">
        <ele>928</ele>
        <time>2018-09-16T07:20:36.05Z</time>
      </trkpt>
      <trkpt lat="43.86275" lon="7.4666">
        <ele>930</ele>
        <time>2018-09-16T07:20:46.05Z</time>
      </trkpt>
      <trkpt lat="43.86282" lon="7.4667">
        <ele>933</ele>
        <time>2018-09-16T07:20:55.05Z</time>
      </trkpt>
      <trkpt lat="43.86275" lon="7.46682">
        <ele>938</ele>
        <time>2018-09-16T07:21:07.05Z</time>
      </trkpt>
      <trkpt lat="43.86266" lon="7.46686">
        <ele>938</ele>
        <time>2018-09-16T07:21:17.05Z</time>
      </trkpt>
      <trkpt lat="43.86256" lon="7.46691">
        <ele>940</ele>
        <time>2018-09-16T07:21:30.05Z</time>
      </trkpt>
      <trkpt lat="43.86245" lon="7.46694">
        <ele>941</ele>
        <time>2018-09-16T07:21:38.05Z</time>
      </trkpt>
      <trkpt lat="43.86235" lon="7.46695">
        <ele>947</ele>
        <time>2018-09-16T07:21:50.05Z</time>
      </trkpt>
      <trkpt lat="43.86226" lon="7.46703">
        <ele>952</ele>
        <time>2018-09-16T07:22:04.05Z</time>
      </trkpt>
      <trkpt lat="43.86218" lon="7.46711">
        <ele>958</ele>
        <time>2018-09-16T07:22:19.05Z</time>
      </trkpt>
      <trkpt lat="43.86208" lon="7.46716">
        <ele>962</ele>
        <time>2018-09-16T07:22:37.05Z</time>
      </trkpt>
      <trkpt lat="43.862" lon="7.46724">
        <ele>966</ele>
        <time>2018-09-16T07:22:55.05Z</time>
      </trkpt>
      <trkpt lat="43.86189" lon="7.46725">
        <ele>970</ele>
        <time>2018-09-16T07:23:08.05Z</time>
      </trkpt>
      <trkpt lat="43.86179" lon="7.46731">
        <ele>973</ele>
        <time>2018-09-16T07:23:19.05Z</time>
      </trkpt>
      <trkpt lat="43.86168" lon="7.46733">
        <ele>974</ele>
        <time>2018-09-16T07:23:27.05Z</time>
      </trkpt>
      <trkpt lat="43.86158" lon="7.46737">
        <ele>976</ele>
        <time>2018-09-16T07:23:35.05Z</time>
      </trkpt>
      <trkpt lat="43.86148" lon="7.46742">
        <ele>977</ele>
        <time>2018-09-16T07:23:44.05Z</time>
      </trkpt>
      <trkpt lat="43.86137" lon="7.46747">
        <ele>979</ele>
        <time>2018-09-16T07:23:52.05Z</time>
      </trkpt>
      <trkpt lat="43.86126" lon="7.46751">
        <ele>979</ele>
        <time>2018-09-16T07:23:59.05Z</time>
      </trkpt>
      <trkpt lat="43.86118" lon="7.4676">
        <ele>979</ele>
        <time>2018-09-16T07:24:05.05Z</time>
      </trkpt>
      <trkpt lat="43.86109" lon="7.46769">
        <ele>981</ele>
        <time>2018-09-16T07:24:12.05Z</time>
      </trkpt>
      <trkpt lat="43.86098" lon="7.46772">
        <ele>981</ele>
        <time>2018-09-16T07:24:19.05Z</time>
      </trkpt>
      <trkpt lat="43.86087" lon="7.46774">
        <ele>986</ele>
        <time>2018-09-16T07:24:28.05Z</time>
      </trkpt>
      <trkpt lat="43.86077" lon="7.46775">
        <ele>986</ele>
        <time>2018-09-16T07:24:35.05Z</time>
      </trkpt>
      <trkpt lat="43.86067" lon="7.46784">
        <ele>986.26</ele>
        <time>2018-09-16T07:24:41.05Z</time>
      </trkpt>
      <trkpt lat="43.86057" lon="7.4679">
        <ele>987</ele>
        <time>2018-09-16T07:24:45.05Z</time>
      </trkpt>
      <trkpt lat="43.86047" lon="7.46794">
        <ele>987</ele>
        <time>2018-09-16T07:24:49.05Z</time>
      </trkpt>
      <trkpt lat="43.86038" lon="7.468">
        <ele>986</ele>
        <time>2018-09-16T07:24:53.05Z</time>
      </trkpt>
      <trkpt lat="43.86029" lon="7.46806">
        <ele>986</ele>
        <time>2018-09-16T07:24:57.05Z</time>
      </trkpt>
      <trkpt lat="43.8602" lon="7.46814">
        <ele>984</ele>
        <time>2018-09-16T07:25:02.05Z</time>
      </trkpt>
      <trkpt lat="43.86009" lon="7.4682">
        <ele>986</ele>
        <time>2018-09-16T07:25:08.05Z</time>
      </trkpt>
      <trkpt lat="43.85998" lon="7.46821">
        <ele>987</ele>
        <time>2018-09-16T07:25:13.05Z</time>
      </trkpt>
      <trkpt lat="43.85987" lon="7.46824">
        <ele>989</ele>
        <time>2018-09-16T07:25:18.05Z</time>
      </trkpt>
      <trkpt lat="43.85976" lon="7.46831">
        <ele>990</ele>
        <time>2018-09-16T07:25:23.05Z</time>
      </trkpt>
      <trkpt lat="43.85967" lon="7.46838">
        <ele>991</ele>
        <time>2018-09-16T07:25:27.05Z</time>
      </trkpt>
      <trkpt lat="43.85959" lon="7.46847">
        <ele>990.74</ele>
        <time>2018-09-16T07:25:31.05Z</time>
      </trkpt>
      <trkpt lat="43.85951" lon="7.46852">
        <ele>990</ele>
        <time>2018-09-16T07:25:33.05Z</time>
      </trkpt>
      <trkpt lat="43.85946" lon="7.46858">
        <ele>990</ele>
        <time>2018-09-16T07:25:35.05Z</time>
      </trkpt>
      <trkpt lat="43.85941" lon="7.46866">
        <ele>990</ele>
        <time>2018-09-16T07:25:38.05Z</time>
      </trkpt>
      <trkpt lat="43.85938" lon="7.46879">
        <ele>989</ele>
        <time>2018-09-16T07:25:43.05Z</time>
      </trkpt>
      <trkpt lat="43.85933" lon="7.46892">
        <ele>990</ele>
        <time>2018-09-16T07:25:48.05Z</time>
      </trkpt>
      <trkpt lat="43.85927" lon="7.46902">
        <ele>992</ele>
        <time>2018-09-16T07:25:53.05Z</time>
      </trkpt>
      <trkpt lat="43.85922" lon="7.46911">
        <ele>993</ele>
        <time>2018-09-16T07:25:57.05Z</time>
      </trkpt>
      <trkpt lat="43.85915" lon="7.46922">
        <ele>994</ele>
        <time>2018-09-16T07:26:02.05Z</time>
      </trkpt>
      <trkpt lat="43.85912" lon="7.46929">
        <ele>994</ele>
        <time>2018-09-16T07:26:05.05Z</time>
      </trkpt>
      <trkpt lat="43.85907" lon="7.46941">
        <ele>994</ele>
        <time>2018-09-16T07:26:10.05Z</time>
      </trkpt>
      <trkpt lat="43.85902" lon="7.46955">
        <ele>996</ele>
        <time>2018-09-16T07:26:15.05Z</time>
      </trkpt>
      <trkpt lat="43.85897" lon="7.46968">
        <ele>996.26</ele>
        <time>2018-09-16T07:26:21.05Z</time>
      </trkpt>
      <trkpt lat="43.85889" lon="7.46975">
        <ele>997</ele>
        <time>2018-09-16T07:26:26.05Z</time>
      </trkpt>
      <trkpt lat="43.85881" lon="7.46979">
        <ele>997</ele>
        <time>2018-09-16T07:26:30.05Z</time>
      </trkpt>
      <trkpt lat="43.85875" lon="7.46982">
        <ele>998</ele>
        <time>2018-09-16T07:26:33.05Z</time>
      </trkpt>
      <trkpt lat="43.8587" lon="7.46985">
        <ele>998.26</ele>
        <time>2018-09-16T07:26:36.05Z</time>
      </trkpt>
      <trkpt lat="43.85861" lon="7.46987">
        <ele>999</ele>
        <time>2018-09-16T07:26:45.05Z</time>
      </trkpt>
      <trkpt lat="43.85851" lon="7.46988">
        <ele>1000</ele>
        <time>2018-09-16T07:26:58.05Z</time>
      </trkpt>
      <trkpt lat="43.85841" lon="7.46985">
        <ele>1005</ele>
        <time>2018-09-16T07:27:10.05Z</time>
      </trkpt>
      <trkpt lat="43.85831" lon="7.46979">
        <ele>1008</ele>
        <time>2018-09-16T07:27:25.05Z</time>
      </trkpt>
      <trkpt lat="43.85822" lon="7.46972">
        <ele>1010</ele>
        <time>2018-09-16T07:27:37.05Z</time>
      </trkpt>
      <trkpt lat="43.85813" lon="7.46965">
        <ele>1016</ele>
        <time>2018-09-16T07:27:48.05Z</time>
      </trkpt>
      <trkpt lat="43.85806" lon="7.46955">
        <ele>1019.26</ele>
        <time>2018-09-16T07:28:01.05Z</time>
      </trkpt>
      <trkpt lat="43.85801" lon="7.46943">
        <ele>1021</ele>
        <time>2018-09-16T07:28:14.05Z</time>
      </trkpt>
      <trkpt lat="43.85793" lon="7.46935">
        <ele>1024</ele>
        <time>2018-09-16T07:28:23.05Z</time>
      </trkpt>
      <trkpt lat="43.85784" lon="7.46927">
        <ele>1027.51</ele>
        <time>2018-09-16T07:28:36.05Z</time>
      </trkpt>
      <trkpt lat="43.85777" lon="7.46915">
        <ele>1032</ele>
        <time>2018-09-16T07:28:47.05Z</time>
      </trkpt>
      <trkpt lat="43.85768" lon="7.46906">
        <ele>1033</ele>
        <time>2018-09-16T07:28:56.05Z</time>
      </trkpt>
      <trkpt lat="43.85758" lon="7.469">
        <ele>1035</ele>
        <time>2018-09-16T07:29:02.05Z</time>
      </trkpt>
      <trkpt lat="43.85747" lon="7.46897">
        <ele>1034</ele>
        <time>2018-09-16T07:29:07.05Z</time>
      </trkpt>
      <trkpt lat="43.85738" lon="7.46902">
        <ele>1035</ele>
        <time>2018-09-16T07:29:14.05Z</time>
      </trkpt>
      <trkpt lat="43.85728" lon="7.46907">
        <ele>1035</ele>
        <time>2018-09-16T07:29:21.05Z</time>
      </trkpt>
      <trkpt lat="43.85719" lon="7.46911">
        <ele>1037</ele>
        <time>2018-09-16T07:29:27.05Z</time>
      </trkpt>
      <trkpt lat="43.85708" lon="7.46916">
        <ele>1038</ele>
        <time>2018-09-16T07:29:34.05Z</time>
      </trkpt>
      <trkpt lat="43.85697" lon="7.46923">
        <ele>1038</ele>
        <time>2018-09-16T07:29:40.05Z</time>
      </trkpt>
      <trkpt lat="43.85687" lon="7.46928">
        <ele>1040</ele>
        <time>2018-09-16T07:29:46.05Z</time>
      </trkpt>
      <trkpt lat="43.85679" lon="7.46932">
        <ele>1040.25</ele>
        <time>2018-09-16T07:29:51.05Z</time>
      </trkpt>
      <trkpt lat="43.8567" lon="7.46936">
        <ele>1042</ele>
        <time>2018-09-16T07:29:56.05Z</time>
      </trkpt>
      <trkpt lat="43.8566" lon="7.46943">
        <ele>1042.2</ele>
        <time>2018-09-16T07:30:02.05Z</time>
      </trkpt>
      <trkpt lat="43.8565" lon="7.46948">
        <ele>1043.41</ele>
        <time>2018-09-16T07:30:08.05Z</time>
      </trkpt>
      <trkpt lat="43.85641" lon="7.46958">
        <ele>1046</ele>
        <time>2018-09-16T07:30:14.05Z</time>
      </trkpt>
      <trkpt lat="43.85632" lon="7.46967">
        <ele>1047</ele>
        <time>2018-09-16T07:30:20.05Z</time>
      </trkpt>
      <trkpt lat="43.85624" lon="7.46976">
        <ele>1049</ele>
        <time>2018-09-16T07:30:26.05Z</time>
      </trkpt>
      <trkpt lat="43.85616" lon="7.46986">
        <ele>1049.26</ele>
        <time>2018-09-16T07:30:32.05Z</time>
      </trkpt>
      <trkpt lat="43.85608" lon="7.46995">
        <ele>1051</ele>
        <time>2018-09-16T07:30:38.05Z</time>
      </trkpt>
      <trkpt lat="43.85599" lon="7.47005">
        <ele>1051</ele>
        <time>2018-09-16T07:30:44.05Z</time>
      </trkpt>
      <trkpt lat="43.85591" lon="7.47013">
        <ele>1053</ele>
        <time>2018-09-16T07:30:50.05Z</time>
      </trkpt>
      <trkpt lat="43.85582" lon="7.4702">
        <ele>1053</ele>
        <time>2018-09-16T07:30:56.05Z</time>
      </trkpt>
      <trkpt lat="43.85573" lon="7.47027">
        <ele>1057</ele>
        <time>2018-09-16T07:31:03.05Z</time>
      </trkpt>
      <trkpt lat="43.85562" lon="7.4703">
        <ele>1058</ele>
        <time>2018-09-16T07:31:09.05Z</time>
      </trkpt>
      <trkpt lat="43.85552" lon="7.47031">
        <ele>1059</ele>
        <time>2018-09-16T07:31:15.05Z</time>
      </trkpt>
      <trkpt lat="43.85543" lon="7.47034">
        <ele>1060</ele>
        <time>2018-09-16T07:31:21.05Z</time>
      </trkpt>
      <trkpt lat="43.85533" lon="7.47036">
        <ele>1060</ele>
        <time>2018-09-16T07:31:28.05Z</time>
      </trkpt>
      <trkpt lat="43.85522" lon="7.47032">
        <ele>1062</ele>
        <time>2018-09-16T07:31:34.05Z</time>
      </trkpt>
      <trkpt lat="43.85513" lon="7.47025">
        <ele>1062</ele>
        <time>2018-09-16T07:31:40.05Z</time>
      </trkpt>
      <trkpt lat="43.85503" lon="7.47018">
        <ele>1064</ele>
        <time>2018-09-16T07:31:45.05Z</time>
      </trkpt>
      <trkpt lat="43.85493" lon="7.47013">
        <ele>1064</ele>
        <time>2018-09-16T07:31:50.05Z</time>
      </trkpt>
      <trkpt lat="43.85481" lon="7.47011">
        <ele>1064</ele>
        <time>2018-09-16T07:31:56.05Z</time>
      </trkpt>
      <trkpt lat="43.85471" lon="7.47009">
        <ele>1068</ele>
        <time>2018-09-16T07:32:02.05Z</time>
      </trkpt>
      <trkpt lat="43.85461" lon="7.47003">
        <ele>1070</ele>
        <time>2018-09-16T07:32:09.05Z</time>
      </trkpt>
      <trkpt lat="43.85452" lon="7.46993">
        <ele>1070</ele>
        <time>2018-09-16T07:32:16.05Z</time>
      </trkpt>
      <trkpt lat="43.85444" lon="7.46984">
        <ele>1072</ele>
        <time>2018-09-16T07:32:22.05Z</time>
      </trkpt>
      <trkpt lat="43.85436" lon="7.46976">
        <ele>1072</ele>
        <time>2018-09-16T07:32:27.05Z</time>
      </trkpt>
      <trkpt lat="43.85426" lon="7.46969">
        <ele>1073</ele>
        <time>2018-09-16T07:32:33.05Z</time>
      </trkpt>
      <trkpt lat="43.85414" lon="7.46967">
        <ele>1073</ele>
        <time>2018-09-16T07:32:39.05Z</time>
      </trkpt>
      <trkpt lat="43.85422" lon="7.46979">
        <ele>1076</ele>
        <time>2018-09-16T07:32:55.05Z</time>
      </trkpt>
      <trkpt lat="43.85431" lon="7.46985">
        <ele>1077</ele>
        <time>2018-09-16T07:33:00.05Z</time>
      </trkpt>
      <trkpt lat="43.85437" lon="7.46996">
        <ele>1079</ele>
        <time>2018-09-16T07:33:06.05Z</time>
      </trkpt>
      <trkpt lat="43.85441" lon="7.47011">
        <ele>1081</ele>
        <time>2018-09-16T07:33:13.05Z</time>
      </trkpt>
      <trkpt lat="43.85445" lon="7.47024">
        <ele>1081</ele>
        <time>2018-09-16T07:33:19.05Z</time>
      </trkpt>
      <trkpt lat="43.85451" lon="7.47036">
        <ele>1084</ele>
        <time>2018-09-16T07:33:25.05Z</time>
      </trkpt>
      <trkpt lat="43.85459" lon="7.47047">
        <ele>1085.26</ele>
        <time>2018-09-16T07:33:31.05Z</time>
      </trkpt>
      <trkpt lat="43.85467" lon="7.47059">
        <ele>1086.78</ele>
        <time>2018-09-16T07:33:36.05Z</time>
      </trkpt>
      <trkpt lat="43.85471" lon="7.47074">
        <ele>1091</ele>
        <time>2018-09-16T07:33:42.05Z</time>
      </trkpt>
      <trkpt lat="43.85478" lon="7.47086">
        <ele>1092</ele>
        <time>2018-09-16T07:33:47.05Z</time>
      </trkpt>
      <trkpt lat="43.85486" lon="7.47097">
        <ele>1092</ele>
        <time>2018-09-16T07:33:52.05Z</time>
      </trkpt>
      <trkpt lat="43.85495" lon="7.47106">
        <ele>1092</ele>
        <time>2018-09-16T07:33:59.05Z</time>
      </trkpt>
      <trkpt lat="43.85504" lon="7.47112">
        <ele>1093</ele>
        <time>2018-09-16T07:34:05.05Z</time>
      </trkpt>
      <trkpt lat="43.85514" lon="7.47116">
        <ele>1093.52</ele>
        <time>2018-09-16T07:34:11.05Z</time>
      </trkpt>
      <trkpt lat="43.85524" lon="7.47117">
        <ele>1095</ele>
        <time>2018-09-16T07:34:16.05Z</time>
      </trkpt>
      <trkpt lat="43.85534" lon="7.47117">
        <ele>1095.26</ele>
        <time>2018-09-16T07:34:21.05Z</time>
      </trkpt>
      <trkpt lat="43.85545" lon="7.47115">
        <ele>1096</ele>
        <time>2018-09-16T07:34:28.05Z</time>
      </trkpt>
      <trkpt lat="43.85556" lon="7.47114">
        <ele>1097</ele>
        <time>2018-09-16T07:34:34.05Z</time>
      </trkpt>
      <trkpt lat="43.85567" lon="7.47114">
        <ele>1097.78</ele>
        <time>2018-09-16T07:34:41.05Z</time>
      </trkpt>
      <trkpt lat="43.85577" lon="7.47114">
        <ele>1103</ele>
        <time>2018-09-16T07:34:47.05Z</time>
      </trkpt>
      <trkpt lat="43.85583" lon="7.47125">
        <ele>1104</ele>
        <time>2018-09-16T07:34:52.05Z</time>
      </trkpt>
      <trkpt lat="43.85576" lon="7.47135">
        <ele>1105</ele>
        <time>2018-09-16T07:34:59.05Z</time>
      </trkpt>
      <trkpt lat="43.85568" lon="7.47138">
        <ele>1106</ele>
        <time>2018-09-16T07:35:04.05Z</time>
      </trkpt>
      <trkpt lat="43.85559" lon="7.4714">
        <ele>1106</ele>
        <time>2018-09-16T07:35:09.05Z</time>
      </trkpt>
      <trkpt lat="43.85551" lon="7.47143">
        <ele>1108</ele>
        <time>2018-09-16T07:35:14.05Z</time>
      </trkpt>
      <trkpt lat="43.85542" lon="7.47147">
        <ele>1108</ele>
        <time>2018-09-16T07:35:19.05Z</time>
      </trkpt>
      <trkpt lat="43.85534" lon="7.47151">
        <ele>1110</ele>
        <time>2018-09-16T07:35:24.05Z</time>
      </trkpt>
      <trkpt lat="43.85525" lon="7.47154">
        <ele>1110</ele>
        <time>2018-09-16T07:35:29.05Z</time>
      </trkpt>
      <trkpt lat="43.85517" lon="7.47157">
        <ele>1112</ele>
        <time>2018-09-16T07:35:34.05Z</time>
      </trkpt>
      <trkpt lat="43.85508" lon="7.47161">
        <ele>1112</ele>
        <time>2018-09-16T07:35:40.05Z</time>
      </trkpt>
      <trkpt lat="43.85498" lon="7.47166">
        <ele>1114</ele>
        <time>2018-09-16T07:35:46.05Z</time>
      </trkpt>
      <trkpt lat="43.85489" lon="7.47171">
        <ele>1114</ele>
        <time>2018-09-16T07:35:51.05Z</time>
      </trkpt>
      <trkpt lat="43.85479" lon="7.47175">
        <ele>1114</ele>
        <time>2018-09-16T07:35:56.05Z</time>
      </trkpt>
      <trkpt lat="43.85468" lon="7.47179">
        <ele>1116</ele>
        <time>2018-09-16T07:36:02.05Z</time>
      </trkpt>
      <trkpt lat="43.85458" lon="7.4718">
        <ele>1116</ele>
        <time>2018-09-16T07:36:08.05Z</time>
      </trkpt>
      <trkpt lat="43.85448" lon="7.47179">
        <ele>1118</ele>
        <time>2018-09-16T07:36:15.05Z</time>
      </trkpt>
      <trkpt lat="43.85437" lon="7.47173">
        <ele>1118</ele>
        <time>2018-09-16T07:36:20.05Z</time>
      </trkpt>
      <trkpt lat="43.8543" lon="7.47162">
        <ele>1122</ele>
        <time>2018-09-16T07:36:26.05Z</time>
      </trkpt>
      <trkpt lat="43.85427" lon="7.47147">
        <ele>1124</ele>
        <time>2018-09-16T07:36:32.05Z</time>
      </trkpt>
      <trkpt lat="43.85427" lon="7.47162">
        <ele>1126</ele>
        <time>2018-09-16T07:36:48.05Z</time>
      </trkpt>
      <trkpt lat="43.85427" lon="7.47177">
        <ele>1126</ele>
        <time>2018-09-16T07:36:53.05Z</time>
      </trkpt>
      <trkpt lat="43.85427" lon="7.47191">
        <ele>1126</ele>
        <time>2018-09-16T07:36:58.05Z</time>
      </trkpt>
      <trkpt lat="43.85433" lon="7.47204">
        <ele>1127</ele>
        <time>2018-09-16T07:37:05.05Z</time>
      </trkpt>
      <trkpt lat="43.85431" lon="7.47219">
        <ele>1127.52</ele>
        <time>2018-09-16T07:37:11.05Z</time>
      </trkpt>
      <trkpt lat="43.85421" lon="7.47222">
        <ele>1129</ele>
        <time>2018-09-16T07:37:15.05Z</time>
      </trkpt>
      <trkpt lat="43.85411" lon="7.47225">
        <ele>1129</ele>
        <time>2018-09-16T07:37:19.05Z</time>
      </trkpt>
      <trkpt lat="43.85402" lon="7.4723">
        <ele>1129</ele>
        <time>2018-09-16T07:37:23.05Z</time>
      </trkpt>
      <trkpt lat="43.85392" lon="7.47236">
        <ele>1129</ele>
        <time>2018-09-16T07:37:28.05Z</time>
      </trkpt>
      <trkpt lat="43.85382" lon="7.4724">
        <ele>1130</ele>
        <time>2018-09-16T07:37:32.05Z</time>
      </trkpt>
      <trkpt lat="43.85372" lon="7.47246">
        <ele>1130</ele>
        <time>2018-09-16T07:37:36.05Z</time>
      </trkpt>
      <trkpt lat="43.85363" lon="7.47253">
        <ele>1131</ele>
        <time>2018-09-16T07:37:40.05Z</time>
      </trkpt>
      <trkpt lat="43.85355" lon="7.47259">
        <ele>1131</ele>
        <time>2018-09-16T07:37:43.05Z</time>
      </trkpt>
      <trkpt lat="43.85347" lon="7.47268">
        <ele>1131</ele>
        <time>2018-09-16T07:37:47.05Z</time>
      </trkpt>
      <trkpt lat="43.8534" lon="7.47278">
        <ele>1131</ele>
        <time>2018-09-16T07:37:51.05Z</time>
      </trkpt>
      <trkpt lat="43.85334" lon="7.47288">
        <ele>1131</ele>
        <time>2018-09-16T07:37:55.05Z</time>
      </trkpt>
      <trkpt lat="43.85326" lon="7.47297">
        <ele>1131</ele>
        <time>2018-09-16T07:37:59.05Z</time>
      </trkpt>
      <trkpt lat="43.85318" lon="7.47307">
        <ele>1131</ele>
        <time>2018-09-16T07:38:03.05Z</time>
      </trkpt>
      <trkpt lat="43.85311" lon="7.47317">
        <ele>1131</ele>
        <time>2018-09-16T07:38:07.05Z</time>
      </trkpt>
      <trkpt lat="43.85304" lon="7.47325">
        <ele>1131.26</ele>
        <time>2018-09-16T07:38:11.05Z</time>
      </trkpt>
      <trkpt lat="43.85296" lon="7.47334">
        <ele>1132</ele>
        <time>2018-09-16T07:38:15.05Z</time>
      </trkpt>
      <trkpt lat="43.85286" lon="7.47344">
        <ele>1132</ele>
        <time>2018-09-16T07:38:20.05Z</time>
      </trkpt>
      <trkpt lat="43.85276" lon="7.47349">
        <ele>1132</ele>
        <time>2018-09-16T07:38:25.05Z</time>
      </trkpt>
      <trkpt lat="43.85265" lon="7.47355">
        <ele>1132</ele>
        <time>2018-09-16T07:38:30.05Z</time>
      </trkpt>
      <trkpt lat="43.85257" lon="7.47357">
        <ele>1132</ele>
        <time>2018-09-16T07:38:34.05Z</time>
      </trkpt>
      <trkpt lat="43.85248" lon="7.47362">
        <ele>1132</ele>
        <time>2018-09-16T07:38:39.05Z</time>
      </trkpt>
      <trkpt lat="43.8524" lon="7.47365">
        <ele>1134</ele>
        <time>2018-09-16T07:38:43.05Z</time>
      </trkpt>
      <trkpt lat="43.85233" lon="7.47368">
        <ele>1135</ele>
        <time>2018-09-16T07:38:47.05Z</time>
      </trkpt>
      <trkpt lat="43.85224" lon="7.47371">
        <ele>1136</ele>
        <time>2018-09-16T07:38:52.05Z</time>
      </trkpt>
      <trkpt lat="43.85215" lon="7.47373">
        <ele>1137</ele>
        <time>2018-09-16T07:38:57.05Z</time>
      </trkpt>
      <trkpt lat="43.85204" lon="7.47374">
        <ele>1138</ele>
        <time>2018-09-16T07:39:03.05Z</time>
      </trkpt>
      <trkpt lat="43.85195" lon="7.47374">
        <ele>1139</ele>
        <time>2018-09-16T07:39:08.05Z</time>
      </trkpt>
      <trkpt lat="43.85185" lon="7.47374">
        <ele>1140</ele>
        <time>2018-09-16T07:39:13.05Z</time>
      </trkpt>
      <trkpt lat="43.85176" lon="7.47375">
        <ele>1141</ele>
        <time>2018-09-16T07:39:18.05Z</time>
      </trkpt>
      <trkpt lat="43.85166" lon="7.47377">
        <ele>1142</ele>
        <time>2018-09-16T07:39:23.05Z</time>
      </trkpt>
      <trkpt lat="43.85157" lon="7.4738">
        <ele>1142.26</ele>
        <time>2018-09-16T07:39:28.05Z</time>
      </trkpt>
      <trkpt lat="43.85148" lon="7.47382">
        <ele>1145</ele>
        <time>2018-09-16T07:39:33.05Z</time>
      </trkpt>
      <trkpt lat="43.85138" lon="7.47384">
        <ele>1147</ele>
        <time>2018-09-16T07:39:38.05Z</time>
      </trkpt>
      <trkpt lat="43.8513" lon="7.47385">
        <ele>1148</ele>
        <time>2018-09-16T07:39:42.05Z</time>
      </trkpt>
      <trkpt lat="43.85123" lon="7.47384">
        <ele>1149</ele>
        <time>2018-09-16T07:39:46.05Z</time>
      </trkpt>
      <trkpt lat="43.85115" lon="7.47384">
        <ele>1150</ele>
        <time>2018-09-16T07:39:50.05Z</time>
      </trkpt>
      <trkpt lat="43.85107" lon="7.47384">
        <ele>1150</ele>
        <time>2018-09-16T07:39:54.05Z</time>
      </trkpt>
      <trkpt lat="43.85097" lon="7.47384">
        <ele>1150</ele>
        <time>2018-09-16T07:39:59.05Z</time>
      </trkpt>
      <trkpt lat="43.85087" lon="7.47385">
        <ele>1151</ele>
        <time>2018-09-16T07:40:04.05Z</time>
      </trkpt>
      <trkpt lat="43.85076" lon="7.47387">
        <ele>1151</ele>
        <time>2018-09-16T07:40:10.05Z</time>
      </trkpt>
      <trkpt lat="43.85066" lon="7.4739">
        <ele>1152</ele>
        <time>2018-09-16T07:40:16.05Z</time>
      </trkpt>
      <trkpt lat="43.85057" lon="7.47391">
        <ele>1152.52</ele>
        <time>2018-09-16T07:40:21.05Z</time>
      </trkpt>
      <trkpt lat="43.85051" lon="7.47393">
        <ele>1154</ele>
        <time>2018-09-16T07:40:25.05Z</time>
      </trkpt>
      <trkpt lat="43.85044" lon="7.47396">
        <ele>1154</ele>
        <time>2018-09-16T07:40:29.05Z</time>
      </trkpt>
      <trkpt lat="43.85037" lon="7.47399">
        <ele>1156</ele>
        <time>2018-09-16T07:40:33.05Z</time>
      </trkpt>
      <trkpt lat="43.85028" lon="7.47405">
        <ele>1156</ele>
        <time>2018-09-16T07:40:38.05Z</time>
      </trkpt>
      <trkpt lat="43.85018" lon="7.4741">
        <ele>1159</ele>
        <time>2018-09-16T07:40:43.05Z</time>
      </trkpt>
      <trkpt lat="43.85007" lon="7.47414">
        <ele>1161</ele>
        <time>2018-09-16T07:40:49.05Z</time>
      </trkpt>
      <trkpt lat="43.84997" lon="7.47419">
        <ele>1163</ele>
        <time>2018-09-16T07:40:54.05Z</time>
      </trkpt>
      <trkpt lat="43.84989" lon="7.47423">
        <ele>1164</ele>
        <time>2018-09-16T07:40:59.05Z</time>
      </trkpt>
      <trkpt lat="43.84984" lon="7.47425">
        <ele>1163</ele>
        <time>2018-09-16T07:41:23.05Z</time>
      </trkpt>
      <trkpt lat="43.84976" lon="7.47425">
        <ele>1163</ele>
        <time>2018-09-16T07:41:52.05Z</time>
      </trkpt>
      <trkpt lat="43.8497" lon="7.47426">
        <ele>1163</ele>
        <time>2018-09-16T07:41:57.05Z</time>
      </trkpt>
      <trkpt lat="43.84962" lon="7.47428">
        <ele>1163</ele>
        <time>2018-09-16T07:42:02.05Z</time>
      </trkpt>
      <trkpt lat="43.84952" lon="7.47421">
        <ele>1163</ele>
        <time>2018-09-16T07:42:08.05Z</time>
      </trkpt>
      <trkpt lat="43.84942" lon="7.47417">
        <ele>1160</ele>
        <time>2018-09-16T07:42:13.05Z</time>
      </trkpt>
      <trkpt lat="43.8493" lon="7.47418">
        <ele>1156</ele>
        <time>2018-09-16T07:42:18.05Z</time>
      </trkpt>
      <trkpt lat="43.84921" lon="7.47424">
        <ele>1154</ele>
        <time>2018-09-16T07:42:23.05Z</time>
      </trkpt>
      <trkpt lat="43.84913" lon="7.47436">
        <ele>1154.48</ele>
        <time>2018-09-16T07:42:30.05Z</time>
      </trkpt>
      <trkpt lat="43.84903" lon="7.47443">
        <ele>1153</ele>
        <time>2018-09-16T07:42:36.05Z</time>
      </trkpt>
      <trkpt lat="43.84892" lon="7.4745">
        <ele>1152.74</ele>
        <time>2018-09-16T07:42:41.05Z</time>
      </trkpt>
      <trkpt lat="43.84882" lon="7.47453">
        <ele>1152</ele>
        <time>2018-09-16T07:42:45.05Z</time>
      </trkpt>
      <trkpt lat="43.84872" lon="7.47458">
        <ele>1152</ele>
        <time>2018-09-16T07:42:49.05Z</time>
      </trkpt>
      <trkpt lat="43.84861" lon="7.47456">
        <ele>1149</ele>
        <time>2018-09-16T07:42:54.05Z</time>
      </trkpt>
      <trkpt lat="43.8485" lon="7.47454">
        <ele>1147</ele>
        <time>2018-09-16T07:42:59.05Z</time>
      </trkpt>
      <trkpt lat="43.8484" lon="7.47449">
        <ele>1144</ele>
        <time>2018-09-16T07:43:04.05Z</time>
      </trkpt>
      <trkpt lat="43.84831" lon="7.4744">
        <ele>1144</ele>
        <time>2018-09-16T07:43:08.05Z</time>
      </trkpt>
      <trkpt lat="43.8482" lon="7.4743">
        <ele>1143</ele>
        <time>2018-09-16T07:43:12.05Z</time>
      </trkpt>
      <trkpt lat="43.8481" lon="7.47424">
        <ele>1143</ele>
        <time>2018-09-16T07:43:15.05Z</time>
      </trkpt>
      <trkpt lat="43.848" lon="7.47425">
        <ele>1143</ele>
        <time>2018-09-16T07:43:19.05Z</time>
      </trkpt>
      <trkpt lat="43.8479" lon="7.47429">
        <ele>1135.26</ele>
        <time>2018-09-16T07:43:23.05Z</time>
      </trkpt>
      <trkpt lat="43.8478" lon="7.47429">
        <ele>1132</ele>
        <time>2018-09-16T07:43:28.05Z</time>
      </trkpt>
      <trkpt lat="43.84771" lon="7.4742">
        <ele>1130.74</ele>
        <time>2018-09-16T07:43:33.05Z</time>
      </trkpt>
      <trkpt lat="43.84761" lon="7.47413">
        <ele>1129</ele>
        <time>2018-09-16T07:43:37.05Z</time>
      </trkpt>
      <trkpt lat="43.84751" lon="7.47403">
        <ele>1127</ele>
        <time>2018-09-16T07:43:41.05Z</time>
      </trkpt>
      <trkpt lat="43.84741" lon="7.47397">
        <ele>1127</ele>
        <time>2018-09-16T07:43:44.05Z</time>
      </trkpt>
      <trkpt lat="43.8473" lon="7.47393">
        <ele>1125</ele>
        <time>2018-09-16T07:43:48.05Z</time>
      </trkpt>
      <trkpt lat="43.84718" lon="7.47392">
        <ele>1125</ele>
        <time>2018-09-16T07:43:52.05Z</time>
      </trkpt>
      <trkpt lat="43.84713" lon="7.47405">
        <ele>1125</ele>
        <time>2018-09-16T07:43:58.05Z</time>
      </trkpt>
      <trkpt lat="43.84716" lon="7.47422">
        <ele>1123</ele>
        <time>2018-09-16T07:44:02.05Z</time>
      </trkpt>
      <trkpt lat="43.84718" lon="7.4744">
        <ele>1123</ele>
        <time>2018-09-16T07:44:06.05Z</time>
      </trkpt>
      <trkpt lat="43.84719" lon="7.47454">
        <ele>1123</ele>
        <time>2018-09-16T07:44:10.05Z</time>
      </trkpt>
      <trkpt lat="43.84722" lon="7.4747">
        <ele>1123</ele>
        <time>2018-09-16T07:44:15.05Z</time>
      </trkpt>
      <trkpt lat="43.84724" lon="7.47487">
        <ele>1123</ele>
        <time>2018-09-16T07:44:20.05Z</time>
      </trkpt>
      <trkpt lat="43.84723" lon="7.47502">
        <ele>1123</ele>
        <time>2018-09-16T07:44:25.05Z</time>
      </trkpt>
      <trkpt lat="43.84719" lon="7.47517">
        <ele>1123.52</ele>
        <time>2018-09-16T07:44:31.05Z</time>
      </trkpt>
      <trkpt lat="43.84714" lon="7.47529">
        <ele>1125.26</ele>
        <time>2018-09-16T07:44:36.05Z</time>
      </trkpt>
      <trkpt lat="43.8471" lon="7.47542">
        <ele>1126</ele>
        <time>2018-09-16T07:44:40.05Z</time>
      </trkpt>
      <trkpt lat="43.84708" lon="7.47553">
        <ele>1128</ele>
        <time>2018-09-16T07:44:43.05Z</time>
      </trkpt>
      <trkpt lat="43.84704" lon="7.47565">
        <ele>1128</ele>
        <time>2018-09-16T07:44:47.05Z</time>
      </trkpt>
      <trkpt lat="43.84698" lon="7.47576">
        <ele>1128</ele>
        <time>2018-09-16T07:44:51.05Z</time>
      </trkpt>
      <trkpt lat="43.84692" lon="7.47583">
        <ele>1128</ele>
        <time>2018-09-16T07:44:54.05Z</time>
      </trkpt>
      <trkpt lat="43.84686" lon="7.47592">
        <ele>1128</ele>
        <time>2018-09-16T07:44:58.05Z</time>
      </trkpt>
      <trkpt lat="43.84682" lon="7.47602">
        <ele>1127</ele>
        <time>2018-09-16T07:45:02.05Z</time>
      </trkpt>
      <trkpt lat="43.84677" lon="7.47614">
        <ele>1127</ele>
        <time>2018-09-16T07:45:06.05Z</time>
      </trkpt>
      <trkpt lat="43.84672" lon="7.47623">
        <ele>1127</ele>
        <time>2018-09-16T07:45:09.05Z</time>
      </trkpt>
      <trkpt lat="43.84665" lon="7.47635">
        <ele>1126</ele>
        <time>2018-09-16T07:45:14.05Z</time>
      </trkpt>
      <trkpt lat="43.84659" lon="7.47645">
        <ele>1126</ele>
        <time>2018-09-16T07:45:18.05Z</time>
      </trkpt>
      <trkpt lat="43.84653" lon="7.47651">
        <ele>1126.26</ele>
        <time>2018-09-16T07:45:21.05Z</time>
      </trkpt>
      <trkpt lat="43.84647" lon="7.47658">
        <ele>1127</ele>
        <time>2018-09-16T07:45:25.05Z</time>
      </trkpt>
      <trkpt lat="43.84637" lon="7.47661">
        <ele>1127</ele>
        <time>2018-09-16T07:45:30.05Z</time>
      </trkpt>
      <trkpt lat="43.84626" lon="7.47662">
        <ele>1127</ele>
        <time>2018-09-16T07:45:34.05Z</time>
      </trkpt>
      <trkpt lat="43.84617" lon="7.47662">
        <ele>1127</ele>
        <time>2018-09-16T07:45:37.05Z</time>
      </trkpt>
      <trkpt lat="43.84609" lon="7.47663">
        <ele>1127</ele>
        <time>2018-09-16T07:45:40.05Z</time>
      </trkpt>
      <trkpt lat="43.846" lon="7.47666">
        <ele>1126</ele>
        <time>2018-09-16T07:45:44.05Z</time>
      </trkpt>
      <trkpt lat="43.84589" lon="7.47666">
        <ele>1126</ele>
        <time>2018-09-16T07:45:48.05Z</time>
      </trkpt>
      <trkpt lat="43.84579" lon="7.47663">
        <ele>1120.74</ele>
        <time>2018-09-16T07:45:52.05Z</time>
      </trkpt>
      <trkpt lat="43.8457" lon="7.47661">
        <ele>1121.26</ele>
        <time>2018-09-16T07:45:56.05Z</time>
      </trkpt>
      <trkpt lat="43.84559" lon="7.47658">
        <ele>1122</ele>
        <time>2018-09-16T07:46:00.05Z</time>
      </trkpt>
      <trkpt lat="43.84547" lon="7.47658">
        <ele>1121</ele>
        <time>2018-09-16T07:46:06.05Z</time>
      </trkpt>
      <trkpt lat="43.84536" lon="7.47661">
        <ele>1121.26</ele>
        <time>2018-09-16T07:46:11.05Z</time>
      </trkpt>
      <trkpt lat="43.84524" lon="7.47659">
        <ele>1122</ele>
        <time>2018-09-16T07:46:15.05Z</time>
      </trkpt>
      <trkpt lat="43.84513" lon="7.47661">
        <ele>1122</ele>
        <time>2018-09-16T07:46:20.05Z</time>
      </trkpt>
      <trkpt lat="43.845" lon="7.47663">
        <ele>1122</ele>
        <time>2018-09-16T07:46:25.05Z</time>
      </trkpt>
      <trkpt lat="43.84492" lon="7.4767">
        <ele>1122</ele>
        <time>2018-09-16T07:46:29.05Z</time>
      </trkpt>
      <trkpt lat="43.84486" lon="7.4768">
        <ele>1124</ele>
        <time>2018-09-16T07:46:34.05Z</time>
      </trkpt>
      <trkpt lat="43.84492" lon="7.47687">
        <ele>1126</ele>
        <time>2018-09-16T07:46:48.05Z</time>
      </trkpt>
      <trkpt lat="43.84489" lon="7.47698">
        <ele>1128</ele>
        <time>2018-09-16T07:46:56.05Z</time>
      </trkpt>
      <trkpt lat="43.84486" lon="7.47707">
        <ele>1129.3</ele>
        <time>2018-09-16T07:47:01.05Z</time>
      </trkpt>
      <trkpt lat="43.84483" lon="7.47717">
        <ele>1133</ele>
        <time>2018-09-16T07:47:05.05Z</time>
      </trkpt>
      <trkpt lat="43.8448" lon="7.47728">
        <ele>1134</ele>
        <time>2018-09-16T07:47:09.05Z</time>
      </trkpt>
      <trkpt lat="43.84478" lon="7.47739">
        <ele>1136</ele>
        <time>2018-09-16T07:47:13.05Z</time>
      </trkpt>
      <trkpt lat="43.84475" lon="7.47754">
        <ele>1135</ele>
        <time>2018-09-16T07:47:18.05Z</time>
      </trkpt>
      <trkpt lat="43.84472" lon="7.47765">
        <ele>1134</ele>
        <time>2018-09-16T07:47:22.05Z</time>
      </trkpt>
      <trkpt lat="43.84472" lon="7.47777">
        <ele>1134</ele>
        <time>2018-09-16T07:47:26.05Z</time>
      </trkpt>
      <trkpt lat="43.84473" lon="7.47788">
        <ele>1134</ele>
        <time>2018-09-16T07:47:30.05Z</time>
      </trkpt>
      <trkpt lat="43.84474" lon="7.47801">
        <ele>1134</ele>
        <time>2018-09-16T07:47:34.05Z</time>
      </trkpt>
      <trkpt lat="43.84474" lon="7.47812">
        <ele>1134</ele>
        <time>2018-09-16T07:47:38.05Z</time>
      </trkpt>
      <trkpt lat="43.84472" lon="7.47822">
        <ele>1134.26</ele>
        <time>2018-09-16T07:47:41.05Z</time>
      </trkpt>
      <trkpt lat="43.84467" lon="7.47832">
        <ele>1135</ele>
        <time>2018-09-16T07:47:45.05Z</time>
      </trkpt>
      <trkpt lat="43.84459" lon="7.4784">
        <ele>1135</ele>
        <time>2018-09-16T07:47:49.05Z</time>
      </trkpt>
      <trkpt lat="43.84452" lon="7.47849">
        <ele>1135</ele>
        <time>2018-09-16T07:47:53.05Z</time>
      </trkpt>
      <trkpt lat="43.84445" lon="7.47855">
        <ele>1135</ele>
        <time>2018-09-16T07:47:57.05Z</time>
      </trkpt>
      <trkpt lat="43.84439" lon="7.47865">
        <ele>1136</ele>
        <time>2018-09-16T07:48:02.05Z</time>
      </trkpt>
      <trkpt lat="43.84435" lon="7.47873">
        <ele>1136</ele>
        <time>2018-09-16T07:48:06.05Z</time>
      </trkpt>
      <trkpt lat="43.8443" lon="7.47881">
        <ele>1137</ele>
        <time>2018-09-16T07:48:10.05Z</time>
      </trkpt>
      <trkpt lat="43.84424" lon="7.47889">
        <ele>1138</ele>
        <time>2018-09-16T07:48:14.05Z</time>
      </trkpt>
      <trkpt lat="43.84418" lon="7.47897">
        <ele>1138</ele>
        <time>2018-09-16T07:48:18.05Z</time>
      </trkpt>
      <trkpt lat="43.84412" lon="7.47902">
        <ele>1138.52</ele>
        <time>2018-09-16T07:48:21.05Z</time>
      </trkpt>
      <trkpt lat="43.84405" lon="7.4791">
        <ele>1140</ele>
        <time>2018-09-16T07:48:25.05Z</time>
      </trkpt>
      <trkpt lat="43.84399" lon="7.47917">
        <ele>1140</ele>
        <time>2018-09-16T07:48:30.05Z</time>
      </trkpt>
      <trkpt lat="43.84391" lon="7.47925">
        <ele>1142</ele>
        <time>2018-09-16T07:48:38.05Z</time>
      </trkpt>
      <trkpt lat="43.84384" lon="7.47932">
        <ele>1144</ele>
        <time>2018-09-16T07:48:45.05Z</time>
      </trkpt>
      <trkpt lat="43.84378" lon="7.47938">
        <ele>1144.52</ele>
        <time>2018-09-16T07:48:51.05Z</time>
      </trkpt>
      <trkpt lat="43.84372" lon="7.47942">
        <ele>1146</ele>
        <time>2018-09-16T07:48:56.05Z</time>
      </trkpt>
      <trkpt lat="43.84367" lon="7.47948">
        <ele>1150</ele>
        <time>2018-09-16T07:49:03.05Z</time>
      </trkpt>
      <trkpt lat="43.84363" lon="7.47957">
        <ele>1151.26</ele>
        <time>2018-09-16T07:49:11.05Z</time>
      </trkpt>
      <trkpt lat="43.84358" lon="7.47964">
        <ele>1152</ele>
        <time>2018-09-16T07:49:19.05Z</time>
      </trkpt>
      <trkpt lat="43.84351" lon="7.4797">
        <ele>1158</ele>
        <time>2018-09-16T07:49:27.05Z</time>
      </trkpt>
      <trkpt lat="43.84346" lon="7.47978">
        <ele>1159</ele>
        <time>2018-09-16T07:49:34.05Z</time>
      </trkpt>
      <trkpt lat="43.84341" lon="7.47987">
        <ele>1161</ele>
        <time>2018-09-16T07:49:43.05Z</time>
      </trkpt>
      <trkpt lat="43.84337" lon="7.47993">
        <ele>1163</ele>
        <time>2018-09-16T07:49:47.05Z</time>
      </trkpt>
      <trkpt lat="43.84334" lon="7.48">
        <ele>1163</ele>
        <time>2018-09-16T07:49:52.05Z</time>
      </trkpt>
      <trkpt lat="43.84332" lon="7.48009">
        <ele>1163</ele>
        <time>2018-09-16T07:49:57.05Z</time>
      </trkpt>
      <trkpt lat="43.84327" lon="7.4802">
        <ele>1166</ele>
        <time>2018-09-16T07:50:04.05Z</time>
      </trkpt>
      <trkpt lat="43.8432" lon="7.48028">
        <ele>1169</ele>
        <time>2018-09-16T07:50:12.05Z</time>
      </trkpt>
      <trkpt lat="43.84312" lon="7.48036">
        <ele>1171</ele>
        <time>2018-09-16T07:50:22.05Z</time>
      </trkpt>
      <trkpt lat="43.84308" lon="7.48047">
        <ele>1171.52</ele>
        <time>2018-09-16T07:50:31.05Z</time>
      </trkpt>
      <trkpt lat="43.84306" lon="7.48057">
        <ele>1173</ele>
        <time>2018-09-16T07:50:36.05Z</time>
      </trkpt>
      <trkpt lat="43.84303" lon="7.48063">
        <ele>1173</ele>
        <time>2018-09-16T07:50:39.05Z</time>
      </trkpt>
      <trkpt lat="43.84297" lon="7.48071">
        <ele>1173</ele>
        <time>2018-09-16T07:50:43.05Z</time>
      </trkpt>
      <trkpt lat="43.84294" lon="7.48079">
        <ele>1173</ele>
        <time>2018-09-16T07:50:46.05Z</time>
      </trkpt>
      <trkpt lat="43.8429" lon="7.48087">
        <ele>1173</ele>
        <time>2018-09-16T07:50:49.05Z</time>
      </trkpt>
      <trkpt lat="43.84281" lon="7.48091">
        <ele>1169</ele>
        <time>2018-09-16T07:50:53.05Z</time>
      </trkpt>
      <trkpt lat="43.84272" lon="7.48088">
        <ele>1168.48</ele>
        <time>2018-09-16T07:50:56.05Z</time>
      </trkpt>
      <trkpt lat="43.84264" lon="7.48092">
        <ele>1167</ele>
        <time>2018-09-16T07:51:00.05Z</time>
      </trkpt>
      <trkpt lat="43.84257" lon="7.481">
        <ele>1165</ele>
        <time>2018-09-16T07:51:05.05Z</time>
      </trkpt>
      <trkpt lat="43.84248" lon="7.48103">
        <ele>1167</ele>
        <time>2018-09-16T07:51:09.05Z</time>
      </trkpt>
      <trkpt lat="43.84241" lon="7.48107">
        <ele>1167</ele>
        <time>2018-09-16T07:51:13.05Z</time>
      </trkpt>
      <trkpt lat="43.84236" lon="7.48118">
        <ele>1167</ele>
        <time>2018-09-16T07:51:20.05Z</time>
      </trkpt>
      <trkpt lat="43.84244" lon="7.48121">
        <ele>1168</ele>
        <time>2018-09-16T07:51:27.05Z</time>
      </trkpt>
      <trkpt lat="43.84251" lon="7.48127">
        <ele>1168.78</ele>
        <time>2018-09-16T07:51:31.05Z</time>
      </trkpt>
      <trkpt lat="43.84259" lon="7.4813">
        <ele>1171.52</ele>
        <time>2018-09-16T07:51:36.05Z</time>
      </trkpt>
      <trkpt lat="43.84268" lon="7.48133">
        <ele>1174</ele>
        <time>2018-09-16T07:51:42.05Z</time>
      </trkpt>
      <trkpt lat="43.84276" lon="7.48131">
        <ele>1174.26</ele>
        <time>2018-09-16T07:51:46.05Z</time>
      </trkpt>
      <trkpt lat="43.84285" lon="7.48133">
        <ele>1174.48</ele>
        <time>2018-09-16T07:51:51.05Z</time>
      </trkpt>
      <trkpt lat="43.84296" lon="7.48137">
        <ele>1173</ele>
        <time>2018-09-16T07:51:58.05Z</time>
      </trkpt>
      <trkpt lat="43.84306" lon="7.48144">
        <ele>1168</ele>
        <time>2018-09-16T07:52:04.05Z</time>
      </trkpt>
      <trkpt lat="43.84316" lon="7.48149">
        <ele>1166</ele>
        <time>2018-09-16T07:52:09.05Z</time>
      </trkpt>
      <trkpt lat="43.84326" lon="7.48153">
        <ele>1164</ele>
        <time>2018-09-16T07:52:14.05Z</time>
      </trkpt>
      <trkpt lat="43.84337" lon="7.4816">
        <ele>1161</ele>
        <time>2018-09-16T07:52:19.05Z</time>
      </trkpt>
      <trkpt lat="43.84346" lon="7.48167">
        <ele>1156</ele>
        <time>2018-09-16T07:52:24.05Z</time>
      </trkpt>
      <trkpt lat="43.84358" lon="7.48173">
        <ele>1154.48</ele>
        <time>2018-09-16T07:52:29.05Z</time>
      </trkpt>
      <trkpt lat="43.84368" lon="7.48176">
        <ele>1153</ele>
        <time>2018-09-16T07:52:33.05Z</time>
      </trkpt>
      <trkpt lat="43.84381" lon="7.48182">
        <ele>1153</ele>
        <time>2018-09-16T07:52:38.05Z</time>
      </trkpt>
      <trkpt lat="43.84391" lon="7.48187">
        <ele>1150</ele>
        <time>2018-09-16T07:52:42.05Z</time>
      </trkpt>
      <trkpt lat="43.84396" lon="7.48199">
        <ele>1138.26</ele>
        <time>2018-09-16T07:52:58.05Z</time>
      </trkpt>
      <trkpt lat="43.84408" lon="7.48199">
        <ele>1138</ele>
        <time>2018-09-16T07:53:04.05Z</time>
      </trkpt>
      <trkpt lat="43.84419" lon="7.482">
        <ele>1136</ele>
        <time>2018-09-16T07:53:08.05Z</time>
      </trkpt>
      <trkpt lat="43.84428" lon="7.48195">
        <ele>1135.22</ele>
        <time>2018-09-16T07:53:11.05Z</time>
      </trkpt>
      <trkpt lat="43.84439" lon="7.4819">
        <ele>1133</ele>
        <time>2018-09-16T07:53:15.05Z</time>
      </trkpt>
      <trkpt lat="43.84451" lon="7.4819">
        <ele>1130</ele>
        <time>2018-09-16T07:53:19.05Z</time>
      </trkpt>
      <trkpt lat="43.84462" lon="7.48194">
        <ele>1128</ele>
        <time>2018-09-16T07:53:22.05Z</time>
      </trkpt>
      <trkpt lat="43.84473" lon="7.48201">
        <ele>1127.48</ele>
        <time>2018-09-16T07:53:26.05Z</time>
      </trkpt>
      <trkpt lat="43.84485" lon="7.48203">
        <ele>1126</ele>
        <time>2018-09-16T07:53:30.05Z</time>
      </trkpt>
      <trkpt lat="43.84497" lon="7.48205">
        <ele>1125</ele>
        <time>2018-09-16T07:53:34.05Z</time>
      </trkpt>
      <trkpt lat="43.84509" lon="7.48207">
        <ele>1123</ele>
        <time>2018-09-16T07:53:39.05Z</time>
      </trkpt>
      <trkpt lat="43.8452" lon="7.48211">
        <ele>1124</ele>
        <time>2018-09-16T07:53:45.05Z</time>
      </trkpt>
      <trkpt lat="43.84532" lon="7.48216">
        <ele>1123.74</ele>
        <time>2018-09-16T07:53:51.05Z</time>
      </trkpt>
      <trkpt lat="43.84543" lon="7.48215">
        <ele>1123</ele>
        <time>2018-09-16T07:53:56.05Z</time>
      </trkpt>
      <trkpt lat="43.84552" lon="7.48206">
        <ele>1123</ele>
        <time>2018-09-16T07:54:00.05Z</time>
      </trkpt>
      <trkpt lat="43.84561" lon="7.482">
        <ele>1119</ele>
        <time>2018-09-16T07:54:04.05Z</time>
      </trkpt>
      <trkpt lat="43.84574" lon="7.48194">
        <ele>1117</ele>
        <time>2018-09-16T07:54:08.05Z</time>
      </trkpt>
      <trkpt lat="43.84586" lon="7.48191">
        <ele>1115</ele>
        <time>2018-09-16T07:54:13.05Z</time>
      </trkpt>
      <trkpt lat="43.84596" lon="7.48201">
        <ele>1114</ele>
        <time>2018-09-16T07:54:18.05Z</time>
      </trkpt>
      <trkpt lat="43.84606" lon="7.48207">
        <ele>1111</ele>
        <time>2018-09-16T07:54:22.05Z</time>
      </trkpt>
      <trkpt lat="43.84616" lon="7.48211">
        <ele>1111</ele>
        <time>2018-09-16T07:54:25.05Z</time>
      </trkpt>
      <trkpt lat="43.84625" lon="7.48216">
        <ele>1110</ele>
        <time>2018-09-16T07:54:28.05Z</time>
      </trkpt>
      <trkpt lat="43.84637" lon="7.48224">
        <ele>1109</ele>
        <time>2018-09-16T07:54:32.05Z</time>
      </trkpt>
      <trkpt lat="43.84648" lon="7.48231">
        <ele>1109</ele>
        <time>2018-09-16T07:54:36.05Z</time>
      </trkpt>
      <trkpt lat="43.84657" lon="7.48236">
        <ele>1109</ele>
        <time>2018-09-16T07:54:39.05Z</time>
      </trkpt>
      <trkpt lat="43.84667" lon="7.48239">
        <ele>1107</ele>
        <time>2018-09-16T07:54:43.05Z</time>
      </trkpt>
      <trkpt lat="43.84679" lon="7.48242">
        <ele>1106</ele>
        <time>2018-09-16T07:54:47.05Z</time>
      </trkpt>
      <trkpt lat="43.84691" lon="7.48242">
        <ele>1106</ele>
        <time>2018-09-16T07:54:51.05Z</time>
      </trkpt>
      <trkpt lat="43.84702" lon="7.48244">
        <ele>1106</ele>
        <time>2018-09-16T07:54:55.05Z</time>
      </trkpt>
      <trkpt lat="43.84712" lon="7.48247">
        <ele>1106</ele>
        <time>2018-09-16T07:54:59.05Z</time>
      </trkpt>
      <trkpt lat="43.84724" lon="7.4825">
        <ele>1103</ele>
        <time>2018-09-16T07:55:04.05Z</time>
      </trkpt>
      <trkpt lat="43.84734" lon="7.48253">
        <ele>1101</ele>
        <time>2018-09-16T07:55:08.05Z</time>
      </trkpt>
      <trkpt lat="43.84744" lon="7.48255">
        <ele>1100</ele>
        <time>2018-09-16T07:55:12.05Z</time>
      </trkpt>
      <trkpt lat="43.84755" lon="7.48259">
        <ele>1098</ele>
        <time>2018-09-16T07:55:17.05Z</time>
      </trkpt>
      <trkpt lat="43.84768" lon="7.48262">
        <ele>1097.48</ele>
        <time>2018-09-16T07:55:21.05Z</time>
      </trkpt>
      <trkpt lat="43.84778" lon="7.48267">
        <ele>1096</ele>
        <time>2018-09-16T07:55:24.05Z</time>
      </trkpt>
      <trkpt lat="43.84787" lon="7.48271">
        <ele>1096</ele>
        <time>2018-09-16T07:55:27.05Z</time>
      </trkpt>
      <trkpt lat="43.84797" lon="7.48275">
        <ele>1096</ele>
        <time>2018-09-16T07:55:30.05Z</time>
      </trkpt>
      <trkpt lat="43.84809" lon="7.48281">
        <ele>1093</ele>
        <time>2018-09-16T07:55:34.05Z</time>
      </trkpt>
      <trkpt lat="43.8482" lon="7.48288">
        <ele>1092</ele>
        <time>2018-09-16T07:55:38.05Z</time>
      </trkpt>
      <trkpt lat="43.8483" lon="7.48297">
        <ele>1093</ele>
        <time>2018-09-16T07:55:42.05Z</time>
      </trkpt>
      <trkpt lat="43.84836" lon="7.48309">
        <ele>1093</ele>
        <time>2018-09-16T07:55:45.05Z</time>
      </trkpt>
      <trkpt lat="43.84839" lon="7.48327">
        <ele>1093</ele>
        <time>2018-09-16T07:55:49.05Z</time>
      </trkpt>
      <trkpt lat="43.8484" lon="7.48342">
        <ele>1092</ele>
        <time>2018-09-16T07:55:52.05Z</time>
      </trkpt>
      <trkpt lat="43.84845" lon="7.48354">
        <ele>1092</ele>
        <time>2018-09-16T07:55:56.05Z</time>
      </trkpt>
      <trkpt lat="43.84849" lon="7.48369">
        <ele>1090.99</ele>
        <time>2018-09-16T07:56:01.05Z</time>
      </trkpt>
      <trkpt lat="43.84854" lon="7.48382">
        <ele>1088</ele>
        <time>2018-09-16T07:56:05.05Z</time>
      </trkpt>
      <trkpt lat="43.84858" lon="7.48394">
        <ele>1086</ele>
        <time>2018-09-16T07:56:09.05Z</time>
      </trkpt>
      <trkpt lat="43.84861" lon="7.4841">
        <ele>1086</ele>
        <time>2018-09-16T07:56:13.05Z</time>
      </trkpt>
      <trkpt lat="43.84861" lon="7.48425">
        <ele>1086</ele>
        <time>2018-09-16T07:56:17.05Z</time>
      </trkpt>
      <trkpt lat="43.84859" lon="7.48442">
        <ele>1085.48</ele>
        <time>2018-09-16T07:56:21.05Z</time>
      </trkpt>
      <trkpt lat="43.8486" lon="7.4846">
        <ele>1084</ele>
        <time>2018-09-16T07:56:25.05Z</time>
      </trkpt>
      <trkpt lat="43.84862" lon="7.48476">
        <ele>1084</ele>
        <time>2018-09-16T07:56:28.05Z</time>
      </trkpt>
      <trkpt lat="43.84864" lon="7.4849">
        <ele>1082.96</ele>
        <time>2018-09-16T07:56:31.05Z</time>
      </trkpt>
      <trkpt lat="43.84866" lon="7.48504">
        <ele>1080</ele>
        <time>2018-09-16T07:56:34.05Z</time>
      </trkpt>
      <trkpt lat="43.84871" lon="7.4852">
        <ele>1076</ele>
        <time>2018-09-16T07:56:38.05Z</time>
      </trkpt>
      <trkpt lat="43.84878" lon="7.48532">
        <ele>1073.74</ele>
        <time>2018-09-16T07:56:42.05Z</time>
      </trkpt>
      <trkpt lat="43.84885" lon="7.48542">
        <ele>1070.48</ele>
        <time>2018-09-16T07:56:46.05Z</time>
      </trkpt>
      <trkpt lat="43.84892" lon="7.48553">
        <ele>1067.74</ele>
        <time>2018-09-16T07:56:51.05Z</time>
      </trkpt>
      <trkpt lat="43.84901" lon="7.48565">
        <ele>1063</ele>
        <time>2018-09-16T07:56:56.05Z</time>
      </trkpt>
      <trkpt lat="43.84907" lon="7.48578">
        <ele>1059.48</ele>
        <time>2018-09-16T07:57:01.05Z</time>
      </trkpt>
      <trkpt lat="43.84915" lon="7.4859">
        <ele>1054.74</ele>
        <time>2018-09-16T07:57:06.05Z</time>
      </trkpt>
      <trkpt lat="43.84923" lon="7.486">
        <ele>1051.74</ele>
        <time>2018-09-16T07:57:11.05Z</time>
      </trkpt>
      <trkpt lat="43.84931" lon="7.48609">
        <ele>1049.24</ele>
        <time>2018-09-16T07:57:14.05Z</time>
      </trkpt>
      <trkpt lat="43.84943" lon="7.48618">
        <ele>1045</ele>
        <time>2018-09-16T07:57:19.05Z</time>
      </trkpt>
      <trkpt lat="43.84952" lon="7.48628">
        <ele>1041.26</ele>
        <time>2018-09-16T07:57:23.05Z</time>
      </trkpt>
      <trkpt lat="43.84962" lon="7.48638">
        <ele>1036.74</ele>
        <time>2018-09-16T07:57:27.05Z</time>
      </trkpt>
      <trkpt lat="43.84974" lon="7.48645">
        <ele>1036.74</ele>
        <time>2018-09-16T07:57:31.05Z</time>
      </trkpt>
      <trkpt lat="43.84982" lon="7.48653">
        <ele>1036</ele>
        <time>2018-09-16T07:57:34.05Z</time>
      </trkpt>
      <trkpt lat="43.8499" lon="7.48666">
        <ele>1034.74</ele>
        <time>2018-09-16T07:57:38.05Z</time>
      </trkpt>
      <trkpt lat="43.84985" lon="7.48678">
        <ele>1034</ele>
        <time>2018-09-16T07:57:41.05Z</time>
      </trkpt>
      <trkpt lat="43.84982" lon="7.48695">
        <ele>1034</ele>
        <time>2018-09-16T07:57:46.05Z</time>
      </trkpt>
      <trkpt lat="43.84978" lon="7.4871">
        <ele>1034</ele>
        <time>2018-09-16T07:57:50.05Z</time>
      </trkpt>
      <trkpt lat="43.84976" lon="7.48725">
        <ele>1032</ele>
        <time>2018-09-16T07:57:55.05Z</time>
      </trkpt>
      <trkpt lat="43.84972" lon="7.48738">
        <ele>1032.52</ele>
        <time>2018-09-16T07:58:01.05Z</time>
      </trkpt>
      <trkpt lat="43.84968" lon="7.48752">
        <ele>1034</ele>
        <time>2018-09-16T07:58:07.05Z</time>
      </trkpt>
      <trkpt lat="43.84962" lon="7.48766">
        <ele>1035</ele>
        <time>2018-09-16T07:58:13.05Z</time>
      </trkpt>
      <trkpt lat="43.84956" lon="7.48779">
        <ele>1035</ele>
        <time>2018-09-16T07:58:18.05Z</time>
      </trkpt>
      <trkpt lat="43.84952" lon="7.48795">
        <ele>1037</ele>
        <time>2018-09-16T07:58:23.05Z</time>
      </trkpt>
      <trkpt lat="43.84948" lon="7.48809">
        <ele>1037</ele>
        <time>2018-09-16T07:58:28.05Z</time>
      </trkpt>
      <trkpt lat="43.84946" lon="7.48824">
        <ele>1037</ele>
        <time>2018-09-16T07:58:33.05Z</time>
      </trkpt>
      <trkpt lat="43.84939" lon="7.48836">
        <ele>1037</ele>
        <time>2018-09-16T07:58:38.05Z</time>
      </trkpt>
      <trkpt lat="43.84929" lon="7.48843">
        <ele>1039</ele>
        <time>2018-09-16T07:58:44.05Z</time>
      </trkpt>
      <trkpt lat="43.84918" lon="7.4885">
        <ele>1039</ele>
        <time>2018-09-16T07:58:49.05Z</time>
      </trkpt>
      <trkpt lat="43.84909" lon="7.4886">
        <ele>1040</ele>
        <time>2018-09-16T07:58:53.05Z</time>
      </trkpt>
      <trkpt lat="43.849" lon="7.48868">
        <ele>1040</ele>
        <time>2018-09-16T07:58:58.05Z</time>
      </trkpt>
      <trkpt lat="43.84891" lon="7.48877">
        <ele>1042</ele>
        <time>2018-09-16T07:59:04.05Z</time>
      </trkpt>
      <trkpt lat="43.84884" lon="7.48889">
        <ele>1042.26</ele>
        <time>2018-09-16T07:59:11.05Z</time>
      </trkpt>
      <trkpt lat="43.84877" lon="7.48901">
        <ele>1043</ele>
        <time>2018-09-16T07:59:16.05Z</time>
      </trkpt>
      <trkpt lat="43.84869" lon="7.4891">
        <ele>1043</ele>
        <time>2018-09-16T07:59:20.05Z</time>
      </trkpt>
      <trkpt lat="43.84863" lon="7.48921">
        <ele>1043</ele>
        <time>2018-09-16T07:59:24.05Z</time>
      </trkpt>
      <trkpt lat="43.84856" lon="7.48935">
        <ele>1043</ele>
        <time>2018-09-16T07:59:28.05Z</time>
      </trkpt>
      <trkpt lat="43.84845" lon="7.48944">
        <ele>1041</ele>
        <time>2018-09-16T07:59:32.05Z</time>
      </trkpt>
      <trkpt lat="43.84838" lon="7.48956">
        <ele>1041</ele>
        <time>2018-09-16T07:59:36.05Z</time>
      </trkpt>
      <trkpt lat="43.84829" lon="7.48967">
        <ele>1040.22</ele>
        <time>2018-09-16T07:59:41.05Z</time>
      </trkpt>
      <trkpt lat="43.84821" lon="7.48976">
        <ele>1038</ele>
        <time>2018-09-16T07:59:45.05Z</time>
      </trkpt>
      <trkpt lat="43.84812" lon="7.48988">
        <ele>1037</ele>
        <time>2018-09-16T07:59:49.05Z</time>
      </trkpt>
      <trkpt lat="43.84807" lon="7.49001">
        <ele>1036</ele>
        <time>2018-09-16T07:59:54.05Z</time>
      </trkpt>
      <trkpt lat="43.84808" lon="7.49016">
        <ele>1036</ele>
        <time>2018-09-16T07:59:58.05Z</time>
      </trkpt>
      <trkpt lat="43.84802" lon="7.49028">
        <ele>1031</ele>
        <time>2018-09-16T08:00:02.05Z</time>
      </trkpt>
      <trkpt lat="43.84795" lon="7.49039">
        <ele>1031</ele>
        <time>2018-09-16T08:00:06.05Z</time>
      </trkpt>
      <trkpt lat="43.84788" lon="7.4905">
        <ele>1031</ele>
        <time>2018-09-16T08:00:10.05Z</time>
      </trkpt>
      <trkpt lat="43.84779" lon="7.4906">
        <ele>1033</ele>
        <time>2018-09-16T08:00:15.05Z</time>
      </trkpt>
      <trkpt lat="43.84771" lon="7.4907">
        <ele>1033</ele>
        <time>2018-09-16T08:00:19.05Z</time>
      </trkpt>
      <trkpt lat="43.8477" lon="7.49084">
        <ele>1035</ele>
        <time>2018-09-16T08:00:24.05Z</time>
      </trkpt>
      <trkpt lat="43.84763" lon="7.49098">
        <ele>1035</ele>
        <time>2018-09-16T08:00:29.05Z</time>
      </trkpt>
      <trkpt lat="43.84755" lon="7.4911">
        <ele>1033</ele>
        <time>2018-09-16T08:00:33.05Z</time>
      </trkpt>
      <trkpt lat="43.84749" lon="7.49122">
        <ele>1033</ele>
        <time>2018-09-16T08:00:37.05Z</time>
      </trkpt>
      <trkpt lat="43.84743" lon="7.49133">
        <ele>1033</ele>
        <time>2018-09-16T08:00:41.05Z</time>
      </trkpt>
      <trkpt lat="43.84737" lon="7.49147">
        <ele>1033</ele>
        <time>2018-09-16T08:00:45.05Z</time>
      </trkpt>
      <trkpt lat="43.8473" lon="7.49156">
        <ele>1033</ele>
        <time>2018-09-16T08:00:49.05Z</time>
      </trkpt>
      <trkpt lat="43.84722" lon="7.49162">
        <ele>1032</ele>
        <time>2018-09-16T08:00:52.05Z</time>
      </trkpt>
      <trkpt lat="43.84716" lon="7.4917">
        <ele>1032</ele>
        <time>2018-09-16T08:00:55.05Z</time>
      </trkpt>
      <trkpt lat="43.84714" lon="7.49184">
        <ele>1032</ele>
        <time>2018-09-16T08:00:59.05Z</time>
      </trkpt>
      <trkpt lat="43.84715" lon="7.492">
        <ele>1028</ele>
        <time>2018-09-16T08:01:04.05Z</time>
      </trkpt>
      <trkpt lat="43.84717" lon="7.49215">
        <ele>1028</ele>
        <time>2018-09-16T08:01:08.05Z</time>
      </trkpt>
      <trkpt lat="43.84721" lon="7.49229">
        <ele>1027</ele>
        <time>2018-09-16T08:01:12.05Z</time>
      </trkpt>
      <trkpt lat="43.84721" lon="7.49246">
        <ele>1027</ele>
        <time>2018-09-16T08:01:17.05Z</time>
      </trkpt>
      <trkpt lat="43.84712" lon="7.49258">
        <ele>1026.22</ele>
        <time>2018-09-16T08:01:21.05Z</time>
      </trkpt>
      <trkpt lat="43.84708" lon="7.49272">
        <ele>1024</ele>
        <time>2018-09-16T08:01:25.05Z</time>
      </trkpt>
      <trkpt lat="43.84706" lon="7.49279">
        <ele>1022</ele>
        <time>2018-09-16T08:01:27.05Z</time>
      </trkpt>
      <trkpt lat="43.847" lon="7.49287">
        <ele>1022</ele>
        <time>2018-09-16T08:01:30.05Z</time>
      </trkpt>
      <trkpt lat="43.84694" lon="7.49296">
        <ele>1021</ele>
        <time>2018-09-16T08:01:33.05Z</time>
      </trkpt>
      <trkpt lat="43.8469" lon="7.49305">
        <ele>1020.74</ele>
        <time>2018-09-16T08:01:36.05Z</time>
      </trkpt>
      <trkpt lat="43.84685" lon="7.49314">
        <ele>1020</ele>
        <time>2018-09-16T08:01:39.05Z</time>
      </trkpt>
      <trkpt lat="43.84677" lon="7.49321">
        <ele>1018</ele>
        <time>2018-09-16T08:01:42.05Z</time>
      </trkpt>
      <trkpt lat="43.84669" lon="7.49325">
        <ele>1018</ele>
        <time>2018-09-16T08:01:45.05Z</time>
      </trkpt>
      <trkpt lat="43.84662" lon="7.49332">
        <ele>1018</ele>
        <time>2018-09-16T08:01:48.05Z</time>
      </trkpt>
      <trkpt lat="43.84657" lon="7.49339">
        <ele>1018</ele>
        <time>2018-09-16T08:01:51.05Z</time>
      </trkpt>
      <trkpt lat="43.84648" lon="7.49346">
        <ele>1018</ele>
        <time>2018-09-16T08:01:55.05Z</time>
      </trkpt>
      <trkpt lat="43.84639" lon="7.4935">
        <ele>1018</ele>
        <time>2018-09-16T08:01:59.05Z</time>
      </trkpt>
      <trkpt lat="43.84629" lon="7.49356">
        <ele>1019</ele>
        <time>2018-09-16T08:02:03.05Z</time>
      </trkpt>
      <trkpt lat="43.8462" lon="7.49364">
        <ele>1019</ele>
        <time>2018-09-16T08:02:07.05Z</time>
      </trkpt>
      <trkpt lat="43.84612" lon="7.49372">
        <ele>1019.26</ele>
        <time>2018-09-16T08:02:11.05Z</time>
      </trkpt>
      <trkpt lat="43.84606" lon="7.49382">
        <ele>1020</ele>
        <time>2018-09-16T08:02:15.05Z</time>
      </trkpt>
      <trkpt lat="43.84601" lon="7.49393">
        <ele>1020</ele>
        <time>2018-09-16T08:02:19.05Z</time>
      </trkpt>
      <trkpt lat="43.84598" lon="7.49405">
        <ele>1021</ele>
        <time>2018-09-16T08:02:24.05Z</time>
      </trkpt>
      <trkpt lat="43.84597" lon="7.49416">
        <ele>1021</ele>
        <time>2018-09-16T08:02:28.05Z</time>
      </trkpt>
      <trkpt lat="43.84595" lon="7.49427">
        <ele>1023</ele>
        <time>2018-09-16T08:02:33.05Z</time>
      </trkpt>
      <trkpt lat="43.84594" lon="7.49437">
        <ele>1023</ele>
        <time>2018-09-16T08:02:37.05Z</time>
      </trkpt>
      <trkpt lat="43.84591" lon="7.49449">
        <ele>1025</ele>
        <time>2018-09-16T08:02:42.05Z</time>
      </trkpt>
      <trkpt lat="43.84588" lon="7.49456">
        <ele>1025</ele>
        <time>2018-09-16T08:02:45.05Z</time>
      </trkpt>
      <trkpt lat="43.84585" lon="7.49468">
        <ele>1026</ele>
        <time>2018-09-16T08:02:50.05Z</time>
      </trkpt>
      <trkpt lat="43.84583" lon="7.49482">
        <ele>1027</ele>
        <time>2018-09-16T08:02:56.05Z</time>
      </trkpt>
      <trkpt lat="43.84584" lon="7.49493">
        <ele>1027</ele>
        <time>2018-09-16T08:03:00.05Z</time>
      </trkpt>
      <trkpt lat="43.84584" lon="7.49504">
        <ele>1029</ele>
        <time>2018-09-16T08:03:07.05Z</time>
      </trkpt>
      <trkpt lat="43.84579" lon="7.49514">
        <ele>1032</ele>
        <time>2018-09-16T08:03:13.05Z</time>
      </trkpt>
      <trkpt lat="43.84577" lon="7.49523">
        <ele>1032.52</ele>
        <time>2018-09-16T08:03:16.05Z</time>
      </trkpt>
      <trkpt lat="43.84574" lon="7.49533">
        <ele>1034</ele>
        <time>2018-09-16T08:03:19.05Z</time>
      </trkpt>
      <trkpt lat="43.84571" lon="7.49543">
        <ele>1034</ele>
        <time>2018-09-16T08:03:22.05Z</time>
      </trkpt>
      <trkpt lat="43.84568" lon="7.49552">
        <ele>1034</ele>
        <time>2018-09-16T08:03:25.05Z</time>
      </trkpt>
      <trkpt lat="43.84566" lon="7.49562">
        <ele>1034</ele>
        <time>2018-09-16T08:03:28.05Z</time>
      </trkpt>
      <trkpt lat="43.84563" lon="7.49571">
        <ele>1033.74</ele>
        <time>2018-09-16T08:03:31.05Z</time>
      </trkpt>
      <trkpt lat="43.84559" lon="7.4958">
        <ele>1033</ele>
        <time>2018-09-16T08:03:34.05Z</time>
      </trkpt>
      <trkpt lat="43.84555" lon="7.4959">
        <ele>1033</ele>
        <time>2018-09-16T08:03:37.05Z</time>
      </trkpt>
      <trkpt lat="43.84552" lon="7.49599">
        <ele>1033</ele>
        <time>2018-09-16T08:03:40.05Z</time>
      </trkpt>
      <trkpt lat="43.84545" lon="7.49611">
        <ele>1033</ele>
        <time>2018-09-16T08:03:45.05Z</time>
      </trkpt>
      <trkpt lat="43.8454" lon="7.49616">
        <ele>1033</ele>
        <time>2018-09-16T08:03:48.05Z</time>
      </trkpt>
      <trkpt lat="43.84535" lon="7.49625">
        <ele>1033</ele>
        <time>2018-09-16T08:03:51.05Z</time>
      </trkpt>
      <trkpt lat="43.84531" lon="7.49633">
        <ele>1033</ele>
        <time>2018-09-16T08:03:54.05Z</time>
      </trkpt>
      <trkpt lat="43.84527" lon="7.4964">
        <ele>1033</ele>
        <time>2018-09-16T08:03:57.05Z</time>
      </trkpt>
      <trkpt lat="43.84521" lon="7.49651">
        <ele>1035</ele>
        <time>2018-09-16T08:04:02.05Z</time>
      </trkpt>
      <trkpt lat="43.84514" lon="7.49659">
        <ele>1035</ele>
        <time>2018-09-16T08:04:06.05Z</time>
      </trkpt>
      <trkpt lat="43.8451" lon="7.49667">
        <ele>1035</ele>
        <time>2018-09-16T08:04:10.05Z</time>
      </trkpt>
      <trkpt lat="43.84504" lon="7.49675">
        <ele>1034</ele>
        <time>2018-09-16T08:04:14.05Z</time>
      </trkpt>
      <trkpt lat="43.845" lon="7.49683">
        <ele>1034</ele>
        <time>2018-09-16T08:04:18.05Z</time>
      </trkpt>
      <trkpt lat="43.84497" lon="7.49693">
        <ele>1035</ele>
        <time>2018-09-16T08:04:22.05Z</time>
      </trkpt>
      <trkpt lat="43.84496" lon="7.49702">
        <ele>1035</ele>
        <time>2018-09-16T08:04:27.05Z</time>
      </trkpt>
      <trkpt lat="43.84493" lon="7.49709">
        <ele>1035.52</ele>
        <time>2018-09-16T08:04:31.05Z</time>
      </trkpt>
      <trkpt lat="43.8449" lon="7.49721">
        <ele>1037</ele>
        <time>2018-09-16T08:04:38.05Z</time>
      </trkpt>
      <trkpt lat="43.84486" lon="7.49732">
        <ele>1040.26</ele>
        <time>2018-09-16T08:04:46.05Z</time>
      </trkpt>
      <trkpt lat="43.8448" lon="7.49741">
        <ele>1043</ele>
        <time>2018-09-16T08:04:52.05Z</time>
      </trkpt>
      <trkpt lat="43.84473" lon="7.49749">
        <ele>1045</ele>
        <time>2018-09-16T08:04:59.05Z</time>
      </trkpt>
      <trkpt lat="43.84467" lon="7.4976">
        <ele>1045</ele>
        <time>2018-09-16T08:05:05.05Z</time>
      </trkpt>
      <trkpt lat="43.84462" lon="7.49772">
        <ele>1047</ele>
        <time>2018-09-16T08:05:10.05Z</time>
      </trkpt>
      <trkpt lat="43.84457" lon="7.4978">
        <ele>1049</ele>
        <time>2018-09-16T08:05:14.05Z</time>
      </trkpt>
      <trkpt lat="43.84451" lon="7.49789">
        <ele>1049</ele>
        <time>2018-09-16T08:05:18.05Z</time>
      </trkpt>
      <trkpt lat="43.8445" lon="7.49802">
        <ele>1049</ele>
        <time>2018-09-16T08:05:24.05Z</time>
      </trkpt>
      <trkpt lat="43.8445" lon="7.49812">
        <ele>1049</ele>
        <time>2018-09-16T08:05:30.05Z</time>
      </trkpt>
      <trkpt lat="43.84446" lon="7.49822">
        <ele>1054</ele>
        <time>2018-09-16T08:05:39.05Z</time>
      </trkpt>
      <trkpt lat="43.84447" lon="7.49833">
        <ele>1056.78</ele>
        <time>2018-09-16T08:05:46.05Z</time>
      </trkpt>
      <trkpt lat="43.84443" lon="7.49839">
        <ele>1063</ele>
        <time>2018-09-16T08:05:55.05Z</time>
      </trkpt>
      <trkpt lat="43.8444" lon="7.49853">
        <ele>1061</ele>
        <time>2018-09-16T08:06:00.05Z</time>
      </trkpt>
      <trkpt lat="43.84437" lon="7.49865">
        <ele>1060</ele>
        <time>2018-09-16T08:06:04.05Z</time>
      </trkpt>
      <trkpt lat="43.84434" lon="7.49878">
        <ele>1060</ele>
        <time>2018-09-16T08:06:08.05Z</time>
      </trkpt>
      <trkpt lat="43.84431" lon="7.49893">
        <ele>1060</ele>
        <time>2018-09-16T08:06:13.05Z</time>
      </trkpt>
      <trkpt lat="43.84427" lon="7.49907">
        <ele>1060</ele>
        <time>2018-09-16T08:06:18.05Z</time>
      </trkpt>
      <trkpt lat="43.84425" lon="7.49923">
        <ele>1061</ele>
        <time>2018-09-16T08:06:24.05Z</time>
      </trkpt>
      <trkpt lat="43.8442" lon="7.49936">
        <ele>1061</ele>
        <time>2018-09-16T08:06:30.05Z</time>
      </trkpt>
      <trkpt lat="43.84414" lon="7.49948">
        <ele>1062</ele>
        <time>2018-09-16T08:06:39.05Z</time>
      </trkpt>
      <trkpt lat="43.84407" lon="7.49959">
        <ele>1064</ele>
        <time>2018-09-16T08:06:49.05Z</time>
      </trkpt>
      <trkpt lat="43.84398" lon="7.49966">
        <ele>1069</ele>
        <time>2018-09-16T08:06:59.05Z</time>
      </trkpt>
      <trkpt lat="43.84388" lon="7.49969">
        <ele>1072</ele>
        <time>2018-09-16T08:07:08.05Z</time>
      </trkpt>
      <trkpt lat="43.84382" lon="7.49981">
        <ele>1075</ele>
        <time>2018-09-16T08:07:17.05Z</time>
      </trkpt>
      <trkpt lat="43.84379" lon="7.49995">
        <ele>1075</ele>
        <time>2018-09-16T08:07:21.05Z</time>
      </trkpt>
      <trkpt lat="43.84372" lon="7.50007">
        <ele>1074</ele>
        <time>2018-09-16T08:07:27.05Z</time>
      </trkpt>
      <trkpt lat="43.84364" lon="7.50017">
        <ele>1074</ele>
        <time>2018-09-16T08:07:36.05Z</time>
      </trkpt>
      <trkpt lat="43.84356" lon="7.50022">
        <ele>1076</ele>
        <time>2018-09-16T08:07:44.05Z</time>
      </trkpt>
      <trkpt lat="43.84349" lon="7.50027">
        <ele>1080</ele>
        <time>2018-09-16T08:07:52.05Z</time>
      </trkpt>
      <trkpt lat="43.84342" lon="7.50034">
        <ele>1080</ele>
        <time>2018-09-16T08:08:00.05Z</time>
      </trkpt>
      <trkpt lat="43.84333" lon="7.50035">
        <ele>1086</ele>
        <time>2018-09-16T08:08:10.05Z</time>
      </trkpt>
      <trkpt lat="43.84324" lon="7.50042">
        <ele>1086</ele>
        <time>2018-09-16T08:08:20.05Z</time>
      </trkpt>
      <trkpt lat="43.84316" lon="7.50048">
        <ele>1090.25</ele>
        <time>2018-09-16T08:08:26.05Z</time>
      </trkpt>
      <trkpt lat="43.84308" lon="7.50054">
        <ele>1092</ele>
        <time>2018-09-16T08:08:33.05Z</time>
      </trkpt>
      <trkpt lat="43.84301" lon="7.50065">
        <ele>1094</ele>
        <time>2018-09-16T08:08:40.05Z</time>
      </trkpt>
      <trkpt lat="43.84291" lon="7.50074">
        <ele>1096.24</ele>
        <time>2018-09-16T08:08:47.05Z</time>
      </trkpt>
      <trkpt lat="43.84284" lon="7.50083">
        <ele>1097</ele>
        <time>2018-09-16T08:08:55.05Z</time>
      </trkpt>
      <trkpt lat="43.84276" lon="7.5009">
        <ele>1100</ele>
        <time>2018-09-16T08:09:04.05Z</time>
      </trkpt>
      <trkpt lat="43.84271" lon="7.50103">
        <ele>1102</ele>
        <time>2018-09-16T08:09:15.05Z</time>
      </trkpt>
      <trkpt lat="43.84264" lon="7.50116">
        <ele>1102</ele>
        <time>2018-09-16T08:09:21.05Z</time>
      </trkpt>
      <trkpt lat="43.84259" lon="7.50129">
        <ele>1104</ele>
        <time>2018-09-16T08:09:28.05Z</time>
      </trkpt>
      <trkpt lat="43.84261" lon="7.5014">
        <ele>1105</ele>
        <time>2018-09-16T08:09:34.05Z</time>
      </trkpt>
      <trkpt lat="43.84264" lon="7.50152">
        <ele>1105</ele>
        <time>2018-09-16T08:09:38.05Z</time>
      </trkpt>
      <trkpt lat="43.84268" lon="7.50161">
        <ele>1105.5</ele>
        <time>2018-09-16T08:09:42.05Z</time>
      </trkpt>
      <trkpt lat="43.84275" lon="7.50171">
        <ele>1107</ele>
        <time>2018-09-16T08:09:49.05Z</time>
      </trkpt>
      <trkpt lat="43.84285" lon="7.50168">
        <ele>1106</ele>
        <time>2018-09-16T08:09:54.05Z</time>
      </trkpt>
      <trkpt lat="43.84293" lon="7.50159">
        <ele>1106</ele>
        <time>2018-09-16T08:09:59.05Z</time>
      </trkpt>
      <trkpt lat="43.84297" lon="7.50147">
        <ele>1103</ele>
        <time>2018-09-16T08:10:04.05Z</time>
      </trkpt>
      <trkpt lat="43.84301" lon="7.50131">
        <ele>1101</ele>
        <time>2018-09-16T08:10:10.05Z</time>
      </trkpt>
      <trkpt lat="43.84309" lon="7.50121">
        <ele>1097.77</ele>
        <time>2018-09-16T08:10:15.05Z</time>
      </trkpt>
      <trkpt lat="43.84317" lon="7.50111">
        <ele>1094</ele>
        <time>2018-09-16T08:10:20.05Z</time>
      </trkpt>
      <trkpt lat="43.84326" lon="7.50103">
        <ele>1094</ele>
        <time>2018-09-16T08:10:25.05Z</time>
      </trkpt>
      <trkpt lat="43.84337" lon="7.50098">
        <ele>1092</ele>
        <time>2018-09-16T08:10:31.05Z</time>
      </trkpt>
      <trkpt lat="43.84347" lon="7.50093">
        <ele>1090</ele>
        <time>2018-09-16T08:10:35.05Z</time>
      </trkpt>
      <trkpt lat="43.84358" lon="7.50089">
        <ele>1087</ele>
        <time>2018-09-16T08:10:40.05Z</time>
      </trkpt>
      <trkpt lat="43.84367" lon="7.50081">
        <ele>1086</ele>
        <time>2018-09-16T08:10:45.05Z</time>
      </trkpt>
      <trkpt lat="43.84377" lon="7.50075">
        <ele>1084</ele>
        <time>2018-09-16T08:10:50.05Z</time>
      </trkpt>
      <trkpt lat="43.84386" lon="7.5007">
        <ele>1082</ele>
        <time>2018-09-16T08:10:55.05Z</time>
      </trkpt>
      <trkpt lat="43.84396" lon="7.50065">
        <ele>1083</ele>
        <time>2018-09-16T08:10:59.05Z</time>
      </trkpt>
      <trkpt lat="43.84407" lon="7.50061">
        <ele>1083</ele>
        <time>2018-09-16T08:11:03.05Z</time>
      </trkpt>
      <trkpt lat="43.84417" lon="7.50063">
        <ele>1083</ele>
        <time>2018-09-16T08:11:08.05Z</time>
      </trkpt>
      <trkpt lat="43.84427" lon="7.50064">
        <ele>1083</ele>
        <time>2018-09-16T08:11:12.05Z</time>
      </trkpt>
      <trkpt lat="43.84437" lon="7.50062">
        <ele>1083</ele>
        <time>2018-09-16T08:11:16.05Z</time>
      </trkpt>
      <trkpt lat="43.84448" lon="7.50059">
        <ele>1083</ele>
        <time>2018-09-16T08:11:21.05Z</time>
      </trkpt>
      <trkpt lat="43.84458" lon="7.50056">
        <ele>1083.16</ele>
        <time>2018-09-16T08:11:26.05Z</time>
      </trkpt>
      <trkpt lat="43.84469" lon="7.50052">
        <ele>1084</ele>
        <time>2018-09-16T08:11:32.05Z</time>
      </trkpt>
      <trkpt lat="43.8448" lon="7.50053">
        <ele>1086</ele>
        <time>2018-09-16T08:11:38.05Z</time>
      </trkpt>
      <trkpt lat="43.84492" lon="7.50051">
        <ele>1086</ele>
        <time>2018-09-16T08:11:45.05Z</time>
      </trkpt>
      <trkpt lat="43.84502" lon="7.50051">
        <ele>1085</ele>
        <time>2018-09-16T08:11:51.05Z</time>
      </trkpt>
      <trkpt lat="43.84511" lon="7.50059">
        <ele>1085</ele>
        <time>2018-09-16T08:11:56.05Z</time>
      </trkpt>
      <trkpt lat="43.84518" lon="7.50069">
        <ele>1084</ele>
        <time>2018-09-16T08:12:01.05Z</time>
      </trkpt>
      <trkpt lat="43.8453" lon="7.50074">
        <ele>1081</ele>
        <time>2018-09-16T08:12:07.05Z</time>
      </trkpt>
      <trkpt lat="43.84541" lon="7.50071">
        <ele>1081</ele>
        <time>2018-09-16T08:12:11.05Z</time>
      </trkpt>
      <trkpt lat="43.84552" lon="7.5007">
        <ele>1080</ele>
        <time>2018-09-16T08:12:15.05Z</time>
      </trkpt>
      <trkpt lat="43.84562" lon="7.50068">
        <ele>1076</ele>
        <time>2018-09-16T08:12:20.05Z</time>
      </trkpt>
      <trkpt lat="43.84572" lon="7.50065">
        <ele>1074</ele>
        <time>2018-09-16T08:12:25.05Z</time>
      </trkpt>
      <trkpt lat="43.84584" lon="7.50072">
        <ele>1072.54</ele>
        <time>2018-09-16T08:12:30.05Z</time>
      </trkpt>
      <trkpt lat="43.84594" lon="7.50078">
        <ele>1069</ele>
        <time>2018-09-16T08:12:35.05Z</time>
      </trkpt>
      <trkpt lat="43.84605" lon="7.50079">
        <ele>1069</ele>
        <time>2018-09-16T08:12:40.05Z</time>
      </trkpt>
      <trkpt lat="43.84614" lon="7.50086">
        <ele>1068.64</ele>
        <time>2018-09-16T08:12:45.05Z</time>
      </trkpt>
      <trkpt lat="43.84623" lon="7.50093">
        <ele>1064</ele>
        <time>2018-09-16T08:12:51.05Z</time>
      </trkpt>
      <trkpt lat="43.84634" lon="7.50098">
        <ele>1062</ele>
        <time>2018-09-16T08:12:56.05Z</time>
      </trkpt>
      <trkpt lat="43.84642" lon="7.5011">
        <ele>1061</ele>
        <time>2018-09-16T08:13:01.05Z</time>
      </trkpt>
      <trkpt lat="43.84649" lon="7.50123">
        <ele>1057</ele>
        <time>2018-09-16T08:13:07.05Z</time>
      </trkpt>
      <trkpt lat="43.84654" lon="7.50135">
        <ele>1057</ele>
        <time>2018-09-16T08:13:12.05Z</time>
      </trkpt>
      <trkpt lat="43.84662" lon="7.50145">
        <ele>1051</ele>
        <time>2018-09-16T08:13:19.05Z</time>
      </trkpt>
      <trkpt lat="43.84669" lon="7.50158">
        <ele>1048</ele>
        <time>2018-09-16T08:13:24.05Z</time>
      </trkpt>
      <trkpt lat="43.84676" lon="7.50172">
        <ele>1048</ele>
        <time>2018-09-16T08:13:28.05Z</time>
      </trkpt>
      <trkpt lat="43.84686" lon="7.50166">
        <ele>1043</ele>
        <time>2018-09-16T08:13:42.05Z</time>
      </trkpt>
      <trkpt lat="43.84697" lon="7.50161">
        <ele>1040.88</ele>
        <time>2018-09-16T08:13:49.05Z</time>
      </trkpt>
      <trkpt lat="43.84709" lon="7.50164">
        <ele>1039.76</ele>
        <time>2018-09-16T08:13:54.05Z</time>
      </trkpt>
      <trkpt lat="43.84719" lon="7.50168">
        <ele>1039</ele>
        <time>2018-09-16T08:13:58.05Z</time>
      </trkpt>
      <trkpt lat="43.84729" lon="7.5017">
        <ele>1034</ele>
        <time>2018-09-16T08:14:02.05Z</time>
      </trkpt>
      <trkpt lat="43.8474" lon="7.5017">
        <ele>1034</ele>
        <time>2018-09-16T08:14:06.05Z</time>
      </trkpt>
      <trkpt lat="43.84751" lon="7.50168">
        <ele>1033.23</ele>
        <time>2018-09-16T08:14:11.05Z</time>
      </trkpt>
      <trkpt lat="43.84762" lon="7.50161">
        <ele>1028</ele>
        <time>2018-09-16T08:14:15.05Z</time>
      </trkpt>
      <trkpt lat="43.84771" lon="7.5016">
        <ele>1028</ele>
        <time>2018-09-16T08:14:19.05Z</time>
      </trkpt>
      <trkpt lat="43.84784" lon="7.50159">
        <ele>1028</ele>
        <time>2018-09-16T08:14:23.05Z</time>
      </trkpt>
      <trkpt lat="43.84794" lon="7.50154">
        <ele>1028</ele>
        <time>2018-09-16T08:14:26.05Z</time>
      </trkpt>
      <trkpt lat="43.84805" lon="7.50155">
        <ele>1025</ele>
        <time>2018-09-16T08:14:30.05Z</time>
      </trkpt>
      <trkpt lat="43.84815" lon="7.5016">
        <ele>1023</ele>
        <time>2018-09-16T08:14:35.05Z</time>
      </trkpt>
      <trkpt lat="43.84825" lon="7.50169">
        <ele>1021</ele>
        <time>2018-09-16T08:14:40.05Z</time>
      </trkpt>
      <trkpt lat="43.84833" lon="7.50178">
        <ele>1019</ele>
        <time>2018-09-16T08:14:44.05Z</time>
      </trkpt>
      <trkpt lat="43.84841" lon="7.50189">
        <ele>1017</ele>
        <time>2018-09-16T08:14:49.05Z</time>
      </trkpt>
      <trkpt lat="43.84848" lon="7.502">
        <ele>1015</ele>
        <time>2018-09-16T08:14:53.05Z</time>
      </trkpt>
      <trkpt lat="43.84856" lon="7.50209">
        <ele>1014</ele>
        <time>2018-09-16T08:14:58.05Z</time>
      </trkpt>
      <trkpt lat="43.84866" lon="7.50215">
        <ele>1013.75</ele>
        <time>2018-09-16T08:15:02.05Z</time>
      </trkpt>
      <trkpt lat="43.84878" lon="7.50218">
        <ele>1013</ele>
        <time>2018-09-16T08:15:06.05Z</time>
      </trkpt>
      <trkpt lat="43.84889" lon="7.50221">
        <ele>1013</ele>
        <time>2018-09-16T08:15:10.05Z</time>
      </trkpt>
      <trkpt lat="43.849" lon="7.5023">
        <ele>1011</ele>
        <time>2018-09-16T08:15:14.05Z</time>
      </trkpt>
      <trkpt lat="43.84913" lon="7.50232">
        <ele>1011</ele>
        <time>2018-09-16T08:15:18.05Z</time>
      </trkpt>
      <trkpt lat="43.84924" lon="7.50228">
        <ele>1011</ele>
        <time>2018-09-16T08:15:22.05Z</time>
      </trkpt>
      <trkpt lat="43.84935" lon="7.50225">
        <ele>1008</ele>
        <time>2018-09-16T08:15:26.05Z</time>
      </trkpt>
      <trkpt lat="43.84946" lon="7.50226">
        <ele>1007</ele>
        <time>2018-09-16T08:15:29.05Z</time>
      </trkpt>
      <trkpt lat="43.84955" lon="7.5023">
        <ele>1006.83</ele>
        <time>2018-09-16T08:15:32.05Z</time>
      </trkpt>
      <trkpt lat="43.84966" lon="7.50233">
        <ele>1006</ele>
        <time>2018-09-16T08:15:36.05Z</time>
      </trkpt>
      <trkpt lat="43.84977" lon="7.50232">
        <ele>1005</ele>
        <time>2018-09-16T08:15:40.05Z</time>
      </trkpt>
      <trkpt lat="43.84988" lon="7.50234">
        <ele>1003</ele>
        <time>2018-09-16T08:15:45.05Z</time>
      </trkpt>
      <trkpt lat="43.84999" lon="7.50234">
        <ele>1002</ele>
        <time>2018-09-16T08:15:49.05Z</time>
      </trkpt>
      <trkpt lat="43.85009" lon="7.50236">
        <ele>1001.37</ele>
        <time>2018-09-16T08:15:53.05Z</time>
      </trkpt>
      <trkpt lat="43.85006" lon="7.5025">
        <ele>997</ele>
        <time>2018-09-16T08:15:58.05Z</time>
      </trkpt>
      <trkpt lat="43.84997" lon="7.50257">
        <ele>992</ele>
        <time>2018-09-16T08:16:02.05Z</time>
      </trkpt>
      <trkpt lat="43.85006" lon="7.50266">
        <ele>991</ele>
        <time>2018-09-16T08:16:09.05Z</time>
      </trkpt>
      <trkpt lat="43.85017" lon="7.5027">
        <ele>990</ele>
        <time>2018-09-16T08:16:13.05Z</time>
      </trkpt>
      <trkpt lat="43.85027" lon="7.50275">
        <ele>989.49</ele>
        <time>2018-09-16T08:16:17.05Z</time>
      </trkpt>
      <trkpt lat="43.85038" lon="7.5028">
        <ele>988</ele>
        <time>2018-09-16T08:16:21.05Z</time>
      </trkpt>
      <trkpt lat="43.85048" lon="7.50286">
        <ele>985</ele>
        <time>2018-09-16T08:16:25.05Z</time>
      </trkpt>
      <trkpt lat="43.8506" lon="7.50289">
        <ele>983</ele>
        <time>2018-09-16T08:16:29.05Z</time>
      </trkpt>
      <trkpt lat="43.85071" lon="7.50292">
        <ele>983</ele>
        <time>2018-09-16T08:16:33.05Z</time>
      </trkpt>
      <trkpt lat="43.85082" lon="7.50295">
        <ele>983</ele>
        <time>2018-09-16T08:16:37.05Z</time>
      </trkpt>
      <trkpt lat="43.85094" lon="7.50301">
        <ele>983</ele>
        <time>2018-09-16T08:16:41.05Z</time>
      </trkpt>
      <trkpt lat="43.85104" lon="7.50304">
        <ele>979</ele>
        <time>2018-09-16T08:16:45.05Z</time>
      </trkpt>
      <trkpt lat="43.85114" lon="7.50302">
        <ele>977</ele>
        <time>2018-09-16T08:16:49.05Z</time>
      </trkpt>
      <trkpt lat="43.85125" lon="7.50297">
        <ele>975.74</ele>
        <time>2018-09-16T08:16:54.05Z</time>
      </trkpt>
      <trkpt lat="43.85137" lon="7.5029">
        <ele>973.5</ele>
        <time>2018-09-16T08:16:58.05Z</time>
      </trkpt>
      <trkpt lat="43.85148" lon="7.50287">
        <ele>972</ele>
        <time>2018-09-16T08:17:02.05Z</time>
      </trkpt>
      <trkpt lat="43.85158" lon="7.50284">
        <ele>969</ele>
        <time>2018-09-16T08:17:09.05Z</time>
      </trkpt>
      <trkpt lat="43.85168" lon="7.50278">
        <ele>970</ele>
        <time>2018-09-16T08:17:15.05Z</time>
      </trkpt>
      <trkpt lat="43.85179" lon="7.50279">
        <ele>969.48</ele>
        <time>2018-09-16T08:17:19.05Z</time>
      </trkpt>
      <trkpt lat="43.85193" lon="7.50276">
        <ele>968</ele>
        <time>2018-09-16T08:17:24.05Z</time>
      </trkpt>
      <trkpt lat="43.85203" lon="7.50274">
        <ele>967.44</ele>
        <time>2018-09-16T08:17:28.05Z</time>
      </trkpt>
      <trkpt lat="43.85214" lon="7.50276">
        <ele>965</ele>
        <time>2018-09-16T08:17:32.05Z</time>
      </trkpt>
      <trkpt lat="43.85225" lon="7.50278">
        <ele>965</ele>
        <time>2018-09-16T08:17:36.05Z</time>
      </trkpt>
      <trkpt lat="43.85236" lon="7.50279">
        <ele>959.67</ele>
        <time>2018-09-16T08:17:40.05Z</time>
      </trkpt>
      <trkpt lat="43.85247" lon="7.50278">
        <ele>957.78</ele>
        <time>2018-09-16T08:17:43.05Z</time>
      </trkpt>
      <trkpt lat="43.85257" lon="7.50278">
        <ele>957</ele>
        <time>2018-09-16T08:17:46.05Z</time>
      </trkpt>
      <trkpt lat="43.85268" lon="7.50278">
        <ele>956.75</ele>
        <time>2018-09-16T08:17:49.05Z</time>
      </trkpt>
      <trkpt lat="43.85278" lon="7.50278">
        <ele>956</ele>
        <time>2018-09-16T08:17:52.05Z</time>
      </trkpt>
      <trkpt lat="43.85288" lon="7.50277">
        <ele>956</ele>
        <time>2018-09-16T08:17:56.05Z</time>
      </trkpt>
      <trkpt lat="43.85299" lon="7.50274">
        <ele>956</ele>
        <time>2018-09-16T08:18:00.05Z</time>
      </trkpt>
      <trkpt lat="43.85311" lon="7.50271">
        <ele>956</ele>
        <time>2018-09-16T08:18:05.05Z</time>
      </trkpt>
      <trkpt lat="43.85322" lon="7.50269">
        <ele>956</ele>
        <time>2018-09-16T08:18:10.05Z</time>
      </trkpt>
      <trkpt lat="43.85334" lon="7.5027">
        <ele>956</ele>
        <time>2018-09-16T08:18:13.05Z</time>
      </trkpt>
      <trkpt lat="43.85345" lon="7.50272">
        <ele>956</ele>
        <time>2018-09-16T08:18:16.05Z</time>
      </trkpt>
      <trkpt lat="43.85357" lon="7.50277">
        <ele>956</ele>
        <time>2018-09-16T08:18:20.05Z</time>
      </trkpt>
      <trkpt lat="43.85368" lon="7.50278">
        <ele>956</ele>
        <time>2018-09-16T08:18:24.05Z</time>
      </trkpt>
      <trkpt lat="43.8538" lon="7.5028">
        <ele>956</ele>
        <time>2018-09-16T08:18:29.05Z</time>
      </trkpt>
      <trkpt lat="43.85388" lon="7.50289">
        <ele>954</ele>
        <time>2018-09-16T08:18:32.05Z</time>
      </trkpt>
      <trkpt lat="43.85398" lon="7.50293">
        <ele>954</ele>
        <time>2018-09-16T08:18:37.05Z</time>
      </trkpt>
      <trkpt lat="43.85409" lon="7.50293">
        <ele>953.78</ele>
        <time>2018-09-16T08:18:41.05Z</time>
      </trkpt>
      <trkpt lat="43.85421" lon="7.50292">
        <ele>953</ele>
        <time>2018-09-16T08:18:45.05Z</time>
      </trkpt>
      <trkpt lat="43.85432" lon="7.50288">
        <ele>953</ele>
        <time>2018-09-16T08:18:48.05Z</time>
      </trkpt>
      <trkpt lat="43.85444" lon="7.50288">
        <ele>953</ele>
        <time>2018-09-16T08:18:52.05Z</time>
      </trkpt>
      <trkpt lat="43.85454" lon="7.50287">
        <ele>953</ele>
        <time>2018-09-16T08:18:56.05Z</time>
      </trkpt>
      <trkpt lat="43.85466" lon="7.50288">
        <ele>953</ele>
        <time>2018-09-16T08:19:00.05Z</time>
      </trkpt>
      <trkpt lat="43.85474" lon="7.50287">
        <ele>952</ele>
        <time>2018-09-16T08:19:03.05Z</time>
      </trkpt>
      <trkpt lat="43.85485" lon="7.50286">
        <ele>952</ele>
        <time>2018-09-16T08:19:07.05Z</time>
      </trkpt>
      <trkpt lat="43.85495" lon="7.50282">
        <ele>952</ele>
        <time>2018-09-16T08:19:11.05Z</time>
      </trkpt>
      <trkpt lat="43.85506" lon="7.50276">
        <ele>952</ele>
        <time>2018-09-16T08:19:16.05Z</time>
      </trkpt>
      <trkpt lat="43.85516" lon="7.50277">
        <ele>951.47</ele>
        <time>2018-09-16T08:19:21.05Z</time>
      </trkpt>
      <trkpt lat="43.85526" lon="7.50275">
        <ele>948.48</ele>
        <time>2018-09-16T08:19:26.05Z</time>
      </trkpt>
      <trkpt lat="43.85537" lon="7.50274">
        <ele>944</ele>
        <time>2018-09-16T08:19:32.05Z</time>
      </trkpt>
      <trkpt lat="43.85548" lon="7.50271">
        <ele>942.77</ele>
        <time>2018-09-16T08:19:38.05Z</time>
      </trkpt>
      <trkpt lat="43.85557" lon="7.50277">
        <ele>939.83</ele>
        <time>2018-09-16T08:19:42.05Z</time>
      </trkpt>
      <trkpt lat="43.85566" lon="7.50278">
        <ele>938.77</ele>
        <time>2018-09-16T08:19:47.05Z</time>
      </trkpt>
      <trkpt lat="43.85578" lon="7.50277">
        <ele>938</ele>
        <time>2018-09-16T08:19:52.05Z</time>
      </trkpt>
      <trkpt lat="43.85588" lon="7.5027">
        <ele>934.65</ele>
        <time>2018-09-16T08:19:58.05Z</time>
      </trkpt>
      <trkpt lat="43.85598" lon="7.50264">
        <ele>930</ele>
        <time>2018-09-16T08:20:03.05Z</time>
      </trkpt>
      <trkpt lat="43.85606" lon="7.50257">
        <ele>930</ele>
        <time>2018-09-16T08:20:07.05Z</time>
      </trkpt>
      <trkpt lat="43.85614" lon="7.50253">
        <ele>930</ele>
        <time>2018-09-16T08:20:11.05Z</time>
      </trkpt>
      <trkpt lat="43.85624" lon="7.50252">
        <ele>928.65</ele>
        <time>2018-09-16T08:20:17.05Z</time>
      </trkpt>
      <trkpt lat="43.85636" lon="7.5025">
        <ele>926</ele>
        <time>2018-09-16T08:20:23.05Z</time>
      </trkpt>
      <trkpt lat="43.85648" lon="7.50252">
        <ele>926</ele>
        <time>2018-09-16T08:20:28.05Z</time>
      </trkpt>
      <trkpt lat="43.85657" lon="7.50246">
        <ele>922.48</ele>
        <time>2018-09-16T08:20:36.05Z</time>
      </trkpt>
      <trkpt lat="43.85666" lon="7.5024">
        <ele>922</ele>
        <time>2018-09-16T08:20:45.05Z</time>
      </trkpt>
      <trkpt lat="43.85678" lon="7.50238">
        <ele>922</ele>
        <time>2018-09-16T08:20:51.05Z</time>
      </trkpt>
      <trkpt lat="43.85689" lon="7.50231">
        <ele>920</ele>
        <time>2018-09-16T08:20:56.05Z</time>
      </trkpt>
      <trkpt lat="43.85698" lon="7.50223">
        <ele>916.34</ele>
        <time>2018-09-16T08:21:02.05Z</time>
      </trkpt>
      <trkpt lat="43.85708" lon="7.50226">
        <ele>911</ele>
        <time>2018-09-16T08:21:10.05Z</time>
      </trkpt>
      <trkpt lat="43.85719" lon="7.50222">
        <ele>911</ele>
        <time>2018-09-16T08:21:17.05Z</time>
      </trkpt>
      <trkpt lat="43.85729" lon="7.50218">
        <ele>908.5</ele>
        <time>2018-09-16T08:21:23.05Z</time>
      </trkpt>
      <trkpt lat="43.8574" lon="7.50212">
        <ele>907</ele>
        <time>2018-09-16T08:21:29.05Z</time>
      </trkpt>
      <trkpt lat="43.85751" lon="7.50207">
        <ele>906.49</ele>
        <time>2018-09-16T08:21:33.05Z</time>
      </trkpt>
      <trkpt lat="43.85762" lon="7.50201">
        <ele>905</ele>
        <time>2018-09-16T08:21:37.05Z</time>
      </trkpt>
      <trkpt lat="43.85773" lon="7.50195">
        <ele>904.67</ele>
        <time>2018-09-16T08:21:42.05Z</time>
      </trkpt>
      <trkpt lat="43.85783" lon="7.50195">
        <ele>903</ele>
        <time>2018-09-16T08:21:46.05Z</time>
      </trkpt>
      <trkpt lat="43.85793" lon="7.50193">
        <ele>903</ele>
        <time>2018-09-16T08:21:51.05Z</time>
      </trkpt>
      <trkpt lat="43.85803" lon="7.50192">
        <ele>902</ele>
        <time>2018-09-16T08:21:55.05Z</time>
      </trkpt>
      <trkpt lat="43.85813" lon="7.50186">
        <ele>899</ele>
        <time>2018-09-16T08:21:59.05Z</time>
      </trkpt>
      <trkpt lat="43.85825" lon="7.50183">
        <ele>895</ele>
        <time>2018-09-16T08:22:04.05Z</time>
      </trkpt>
      <trkpt lat="43.85836" lon="7.50188">
        <ele>893.83</ele>
        <time>2018-09-16T08:22:10.05Z</time>
      </trkpt>
      <trkpt lat="43.85845" lon="7.50194">
        <ele>890</ele>
        <time>2018-09-16T08:22:16.05Z</time>
      </trkpt>
      <trkpt lat="43.85857" lon="7.502">
        <ele>886</ele>
        <time>2018-09-16T08:22:23.05Z</time>
      </trkpt>
      <trkpt lat="43.85867" lon="7.50206">
        <ele>882</ele>
        <time>2018-09-16T08:22:28.05Z</time>
      </trkpt>
      <trkpt lat="43.85876" lon="7.5021">
        <ele>881</ele>
        <time>2018-09-16T08:22:33.05Z</time>
      </trkpt>
      <trkpt lat="43.85884" lon="7.50218">
        <ele>876</ele>
        <time>2018-09-16T08:22:39.05Z</time>
      </trkpt>
      <trkpt lat="43.85884" lon="7.50202">
        <ele>872</ele>
        <time>2018-09-16T08:22:49.05Z</time>
      </trkpt>
      <trkpt lat="43.85894" lon="7.50204">
        <ele>863</ele>
        <time>2018-09-16T08:23:03.05Z</time>
      </trkpt>
      <trkpt lat="43.85903" lon="7.50211">
        <ele>860.75</ele>
        <time>2018-09-16T08:23:09.05Z</time>
      </trkpt>
      <trkpt lat="43.85912" lon="7.50205">
        <ele>857</ele>
        <time>2018-09-16T08:23:16.05Z</time>
      </trkpt>
      <trkpt lat="43.85919" lon="7.50192">
        <ele>856</ele>
        <time>2018-09-16T08:23:22.05Z</time>
      </trkpt>
      <trkpt lat="43.85927" lon="7.50184">
        <ele>854</ele>
        <time>2018-09-16T08:23:27.05Z</time>
      </trkpt>
      <trkpt lat="43.85936" lon="7.50176">
        <ele>848.25</ele>
        <time>2018-09-16T08:23:33.05Z</time>
      </trkpt>
      <trkpt lat="43.85947" lon="7.50172">
        <ele>844.82</ele>
        <time>2018-09-16T08:23:38.05Z</time>
      </trkpt>
      <trkpt lat="43.85958" lon="7.50176">
        <ele>844.54</ele>
        <time>2018-09-16T08:23:43.05Z</time>
      </trkpt>
      <trkpt lat="43.85969" lon="7.50174">
        <ele>839</ele>
        <time>2018-09-16T08:23:50.05Z</time>
      </trkpt>
      <trkpt lat="43.85979" lon="7.5017">
        <ele>838.53</ele>
        <time>2018-09-16T08:23:54.05Z</time>
      </trkpt>
      <trkpt lat="43.85991" lon="7.50169">
        <ele>836.66</ele>
        <time>2018-09-16T08:23:59.05Z</time>
      </trkpt>
      <trkpt lat="43.86003" lon="7.50169">
        <ele>832</ele>
        <time>2018-09-16T08:24:04.05Z</time>
      </trkpt>
      <trkpt lat="43.86013" lon="7.50166">
        <ele>830</ele>
        <time>2018-09-16T08:24:10.05Z</time>
      </trkpt>
      <trkpt lat="43.86023" lon="7.50169">
        <ele>825.65</ele>
        <time>2018-09-16T08:24:16.05Z</time>
      </trkpt>
      <trkpt lat="43.86033" lon="7.50172">
        <ele>823.74</ele>
        <time>2018-09-16T08:24:21.05Z</time>
      </trkpt>
      <trkpt lat="43.86043" lon="7.50174">
        <ele>821</ele>
        <time>2018-09-16T08:24:26.05Z</time>
      </trkpt>
      <trkpt lat="43.86055" lon="7.50175">
        <ele>820</ele>
        <time>2018-09-16T08:24:31.05Z</time>
      </trkpt>
      <trkpt lat="43.86065" lon="7.50174">
        <ele>820</ele>
        <time>2018-09-16T08:24:36.05Z</time>
      </trkpt>
      <trkpt lat="43.86076" lon="7.50172">
        <ele>819</ele>
        <time>2018-09-16T08:24:40.05Z</time>
      </trkpt>
      <trkpt lat="43.86087" lon="7.50166">
        <ele>817</ele>
        <time>2018-09-16T08:24:44.05Z</time>
      </trkpt>
      <trkpt lat="43.86097" lon="7.50169">
        <ele>813</ele>
        <time>2018-09-16T08:24:50.05Z</time>
      </trkpt>
      <trkpt lat="43.86104" lon="7.50181">
        <ele>812</ele>
        <time>2018-09-16T08:24:55.05Z</time>
      </trkpt>
      <trkpt lat="43.86108" lon="7.50194">
        <ele>812</ele>
        <time>2018-09-16T08:24:59.05Z</time>
      </trkpt>
      <trkpt lat="43.86114" lon="7.50208">
        <ele>810</ele>
        <time>2018-09-16T08:25:04.05Z</time>
      </trkpt>
      <trkpt lat="43.8612" lon="7.50221">
        <ele>810</ele>
        <time>2018-09-16T08:25:09.05Z</time>
      </trkpt>
      <trkpt lat="43.86128" lon="7.50234">
        <ele>809.25</ele>
        <time>2018-09-16T08:25:14.05Z</time>
      </trkpt>
      <trkpt lat="43.86137" lon="7.50243">
        <ele>807</ele>
        <time>2018-09-16T08:25:18.05Z</time>
      </trkpt>
      <trkpt lat="43.86147" lon="7.50249">
        <ele>805</ele>
        <time>2018-09-16T08:25:22.05Z</time>
      </trkpt>
      <trkpt lat="43.86158" lon="7.50253">
        <ele>805</ele>
        <time>2018-09-16T08:25:27.05Z</time>
      </trkpt>
      <trkpt lat="43.86168" lon="7.50263">
        <ele>805</ele>
        <time>2018-09-16T08:25:31.05Z</time>
      </trkpt>
      <trkpt lat="43.86177" lon="7.50273">
        <ele>803</ele>
        <time>2018-09-16T08:25:35.05Z</time>
      </trkpt>
      <trkpt lat="43.86188" lon="7.5028">
        <ele>803</ele>
        <time>2018-09-16T08:25:40.05Z</time>
      </trkpt>
      <trkpt lat="43.86198" lon="7.50287">
        <ele>802.78</ele>
        <time>2018-09-16T08:25:44.05Z</time>
      </trkpt>
      <trkpt lat="43.86208" lon="7.50294">
        <ele>802</ele>
        <time>2018-09-16T08:25:48.05Z</time>
      </trkpt>
      <trkpt lat="43.86216" lon="7.50304">
        <ele>802</ele>
        <time>2018-09-16T08:25:52.05Z</time>
      </trkpt>
      <trkpt lat="43.86225" lon="7.5031">
        <ele>801</ele>
        <time>2018-09-16T08:25:56.05Z</time>
      </trkpt>
      <trkpt lat="43.86235" lon="7.50321">
        <ele>801</ele>
        <time>2018-09-16T08:26:00.05Z</time>
      </trkpt>
      <trkpt lat="43.86243" lon="7.50329">
        <ele>799</ele>
        <time>2018-09-16T08:26:04.05Z</time>
      </trkpt>
      <trkpt lat="43.86251" lon="7.50339">
        <ele>799</ele>
        <time>2018-09-16T08:26:08.05Z</time>
      </trkpt>
      <trkpt lat="43.8626" lon="7.5035">
        <ele>799</ele>
        <time>2018-09-16T08:26:13.05Z</time>
      </trkpt>
      <trkpt lat="43.86266" lon="7.50361">
        <ele>799</ele>
        <time>2018-09-16T08:26:17.05Z</time>
      </trkpt>
      <trkpt lat="43.86273" lon="7.50374">
        <ele>798.65</ele>
        <time>2018-09-16T08:26:22.05Z</time>
      </trkpt>
      <trkpt lat="43.8628" lon="7.50384">
        <ele>797</ele>
        <time>2018-09-16T08:26:27.05Z</time>
      </trkpt>
      <trkpt lat="43.86283" lon="7.50399">
        <ele>798</ele>
        <time>2018-09-16T08:26:32.05Z</time>
      </trkpt>
      <trkpt lat="43.86288" lon="7.50415">
        <ele>798</ele>
        <time>2018-09-16T08:26:37.05Z</time>
      </trkpt>
      <trkpt lat="43.86294" lon="7.50429">
        <ele>795</ele>
        <time>2018-09-16T08:26:42.05Z</time>
      </trkpt>
      <trkpt lat="43.863" lon="7.50441">
        <ele>794.24</ele>
        <time>2018-09-16T08:26:47.05Z</time>
      </trkpt>
      <trkpt lat="43.86308" lon="7.50451">
        <ele>791.82</ele>
        <time>2018-09-16T08:26:52.05Z</time>
      </trkpt>
      <trkpt lat="43.86317" lon="7.5046">
        <ele>790.27</ele>
        <time>2018-09-16T08:26:56.05Z</time>
      </trkpt>
      <trkpt lat="43.86326" lon="7.50465">
        <ele>788</ele>
        <time>2018-09-16T08:27:00.05Z</time>
      </trkpt>
      <trkpt lat="43.86337" lon="7.50471">
        <ele>786</ele>
        <time>2018-09-16T08:27:04.05Z</time>
      </trkpt>
      <trkpt lat="43.86348" lon="7.5048">
        <ele>783</ele>
        <time>2018-09-16T08:27:09.05Z</time>
      </trkpt>
      <trkpt lat="43.86354" lon="7.50492">
        <ele>781.75</ele>
        <time>2018-09-16T08:27:13.05Z</time>
      </trkpt>
      <trkpt lat="43.86361" lon="7.50504">
        <ele>780</ele>
        <time>2018-09-16T08:27:17.05Z</time>
      </trkpt>
      <trkpt lat="43.86363" lon="7.50518">
        <ele>780</ele>
        <time>2018-09-16T08:27:22.05Z</time>
      </trkpt>
      <trkpt lat="43.86364" lon="7.50532">
        <ele>778</ele>
        <time>2018-09-16T08:27:26.05Z</time>
      </trkpt>
      <trkpt lat="43.86369" lon="7.50547">
        <ele>773.68</ele>
        <time>2018-09-16T08:27:31.05Z</time>
      </trkpt>
      <trkpt lat="43.86375" lon="7.50558">
        <ele>772</ele>
        <time>2018-09-16T08:27:35.05Z</time>
      </trkpt>
      <trkpt lat="43.86383" lon="7.5057">
        <ele>771.74</ele>
        <time>2018-09-16T08:27:39.05Z</time>
      </trkpt>
      <trkpt lat="43.86391" lon="7.50581">
        <ele>771</ele>
        <time>2018-09-16T08:27:44.05Z</time>
      </trkpt>
      <trkpt lat="43.86398" lon="7.50593">
        <ele>771</ele>
        <time>2018-09-16T08:27:48.05Z</time>
      </trkpt>
      <trkpt lat="43.86407" lon="7.50606">
        <ele>769</ele>
        <time>2018-09-16T08:27:53.05Z</time>
      </trkpt>
      <trkpt lat="43.86416" lon="7.50617">
        <ele>766</ele>
        <time>2018-09-16T08:27:57.05Z</time>
      </trkpt>
      <trkpt lat="43.86422" lon="7.50632">
        <ele>766.48</ele>
        <time>2018-09-16T08:28:01.05Z</time>
      </trkpt>
      <trkpt lat="43.86427" lon="7.50647">
        <ele>765</ele>
        <time>2018-09-16T08:28:05.05Z</time>
      </trkpt>
      <trkpt lat="43.86431" lon="7.50662">
        <ele>765</ele>
        <time>2018-09-16T08:28:09.05Z</time>
      </trkpt>
      <trkpt lat="43.86433" lon="7.50676">
        <ele>766</ele>
        <time>2018-09-16T08:28:13.05Z</time>
      </trkpt>
      <trkpt lat="43.86437" lon="7.50691">
        <ele>766</ele>
        <time>2018-09-16T08:28:18.05Z</time>
      </trkpt>
      <trkpt lat="43.86439" lon="7.50706">
        <ele>766</ele>
        <time>2018-09-16T08:28:23.05Z</time>
      </trkpt>
      <trkpt lat="43.86441" lon="7.50719">
        <ele>766</ele>
        <time>2018-09-16T08:28:28.05Z</time>
      </trkpt>
      <trkpt lat="43.86443" lon="7.50735">
        <ele>768</ele>
        <time>2018-09-16T08:28:34.05Z</time>
      </trkpt>
      <trkpt lat="43.86445" lon="7.50749">
        <ele>768</ele>
        <time>2018-09-16T08:28:39.05Z</time>
      </trkpt>
      <trkpt lat="43.86447" lon="7.50764">
        <ele>771</ele>
        <time>2018-09-16T08:28:45.05Z</time>
      </trkpt>
      <trkpt lat="43.86446" lon="7.5078">
        <ele>772.26</ele>
        <time>2018-09-16T08:28:51.05Z</time>
      </trkpt>
      <trkpt lat="43.8645" lon="7.50793">
        <ele>773</ele>
        <time>2018-09-16T08:28:56.05Z</time>
      </trkpt>
      <trkpt lat="43.86457" lon="7.50804">
        <ele>770</ele>
        <time>2018-09-16T08:29:02.05Z</time>
      </trkpt>
      <trkpt lat="43.86466" lon="7.50812">
        <ele>769</ele>
        <time>2018-09-16T08:29:08.05Z</time>
      </trkpt>
      <trkpt lat="43.86473" lon="7.50824">
        <ele>765</ele>
        <time>2018-09-16T08:29:25.05Z</time>
      </trkpt>
      <trkpt lat="43.86482" lon="7.50832">
        <ele>765</ele>
        <time>2018-09-16T08:29:29.05Z</time>
      </trkpt>
      <trkpt lat="43.86492" lon="7.50841">
        <ele>762</ele>
        <time>2018-09-16T08:29:34.05Z</time>
      </trkpt>
      <trkpt lat="43.865" lon="7.50849">
        <ele>758</ele>
        <time>2018-09-16T08:29:39.05Z</time>
      </trkpt>
      <trkpt lat="43.8651" lon="7.50857">
        <ele>754.74</ele>
        <time>2018-09-16T08:29:44.05Z</time>
      </trkpt>
      <trkpt lat="43.86519" lon="7.50864">
        <ele>753.48</ele>
        <time>2018-09-16T08:29:48.05Z</time>
      </trkpt>
      <trkpt lat="43.8653" lon="7.50872">
        <ele>753</ele>
        <time>2018-09-16T08:29:53.05Z</time>
      </trkpt>
      <trkpt lat="43.86537" lon="7.50881">
        <ele>750</ele>
        <time>2018-09-16T08:29:57.05Z</time>
      </trkpt>
      <trkpt lat="43.86545" lon="7.50891">
        <ele>750</ele>
        <time>2018-09-16T08:30:02.05Z</time>
      </trkpt>
      <trkpt lat="43.8655" lon="7.50905">
        <ele>748</ele>
        <time>2018-09-16T08:30:09.05Z</time>
      </trkpt>
      <trkpt lat="43.86555" lon="7.50922">
        <ele>747</ele>
        <time>2018-09-16T08:30:14.05Z</time>
      </trkpt>
      <trkpt lat="43.8656" lon="7.50936">
        <ele>745</ele>
        <time>2018-09-16T08:30:18.05Z</time>
      </trkpt>
      <trkpt lat="43.86566" lon="7.50948">
        <ele>744</ele>
        <time>2018-09-16T08:30:23.05Z</time>
      </trkpt>
      <trkpt lat="43.86576" lon="7.50957">
        <ele>742</ele>
        <time>2018-09-16T08:30:28.05Z</time>
      </trkpt>
      <trkpt lat="43.86585" lon="7.50964">
        <ele>741</ele>
        <time>2018-09-16T08:30:33.05Z</time>
      </trkpt>
      <trkpt lat="43.86596" lon="7.5097">
        <ele>739</ele>
        <time>2018-09-16T08:30:38.05Z</time>
      </trkpt>
      <trkpt lat="43.86606" lon="7.50974">
        <ele>739</ele>
        <time>2018-09-16T08:30:42.05Z</time>
      </trkpt>
      <trkpt lat="43.86615" lon="7.50982">
        <ele>740</ele>
        <time>2018-09-16T08:30:47.05Z</time>
      </trkpt>
      <trkpt lat="43.86624" lon="7.5099">
        <ele>739</ele>
        <time>2018-09-16T08:30:52.05Z</time>
      </trkpt>
      <trkpt lat="43.86634" lon="7.50998">
        <ele>739</ele>
        <time>2018-09-16T08:30:57.05Z</time>
      </trkpt>
      <trkpt lat="43.86643" lon="7.51005">
        <ele>739</ele>
        <time>2018-09-16T08:31:02.05Z</time>
      </trkpt>
      <trkpt lat="43.86651" lon="7.51015">
        <ele>739</ele>
        <time>2018-09-16T08:31:07.05Z</time>
      </trkpt>
      <trkpt lat="43.86659" lon="7.51022">
        <ele>739</ele>
        <time>2018-09-16T08:31:12.05Z</time>
      </trkpt>
      <trkpt lat="43.86669" lon="7.51033">
        <ele>739</ele>
        <time>2018-09-16T08:31:17.05Z</time>
      </trkpt>
      <trkpt lat="43.86679" lon="7.51038">
        <ele>739</ele>
        <time>2018-09-16T08:31:22.05Z</time>
      </trkpt>
      <trkpt lat="43.8669" lon="7.5104">
        <ele>739</ele>
        <time>2018-09-16T08:31:27.05Z</time>
      </trkpt>
      <trkpt lat="43.86701" lon="7.51041">
        <ele>738</ele>
        <time>2018-09-16T08:31:32.05Z</time>
      </trkpt>
      <trkpt lat="43.86711" lon="7.51041">
        <ele>738</ele>
        <time>2018-09-16T08:31:37.05Z</time>
      </trkpt>
      <trkpt lat="43.86721" lon="7.51043">
        <ele>735</ele>
        <time>2018-09-16T08:31:42.05Z</time>
      </trkpt>
      <trkpt lat="43.8673" lon="7.5105">
        <ele>728</ele>
        <time>2018-09-16T08:31:53.05Z</time>
      </trkpt>
      <trkpt lat="43.86738" lon="7.51057">
        <ele>723.74</ele>
        <time>2018-09-16T08:31:59.05Z</time>
      </trkpt>
      <trkpt lat="43.86747" lon="7.51065">
        <ele>721.74</ele>
        <time>2018-09-16T08:32:06.05Z</time>
      </trkpt>
      <trkpt lat="43.86756" lon="7.51072">
        <ele>719.74</ele>
        <time>2018-09-16T08:32:11.05Z</time>
      </trkpt>
      <trkpt lat="43.86766" lon="7.51078">
        <ele>718.48</ele>
        <time>2018-09-16T08:32:16.05Z</time>
      </trkpt>
      <trkpt lat="43.86776" lon="7.51087">
        <ele>716.48</ele>
        <time>2018-09-16T08:32:21.05Z</time>
      </trkpt>
      <trkpt lat="43.86787" lon="7.51097">
        <ele>715</ele>
        <time>2018-09-16T08:32:27.05Z</time>
      </trkpt>
      <trkpt lat="43.86797" lon="7.51106">
        <ele>714</ele>
        <time>2018-09-16T08:32:32.05Z</time>
      </trkpt>
      <trkpt lat="43.86805" lon="7.51111">
        <ele>714</ele>
        <time>2018-09-16T08:32:36.05Z</time>
      </trkpt>
      <trkpt lat="43.86811" lon="7.51115">
        <ele>714</ele>
        <time>2018-09-16T08:32:39.05Z</time>
      </trkpt>
      <trkpt lat="43.86818" lon="7.51123">
        <ele>711</ele>
        <time>2018-09-16T08:32:43.05Z</time>
      </trkpt>
      <trkpt lat="43.86826" lon="7.5113">
        <ele>706</ele>
        <time>2018-09-16T08:32:47.05Z</time>
      </trkpt>
      <trkpt lat="43.86832" lon="7.51138">
        <ele>705.22</ele>
        <time>2018-09-16T08:32:51.05Z</time>
      </trkpt>
      <trkpt lat="43.86842" lon="7.5114">
        <ele>698.26</ele>
        <time>2018-09-16T08:32:56.05Z</time>
      </trkpt>
      <trkpt lat="43.86851" lon="7.51141">
        <ele>698.74</ele>
        <time>2018-09-16T08:33:00.05Z</time>
      </trkpt>
      <trkpt lat="43.8686" lon="7.51142">
        <ele>697</ele>
        <time>2018-09-16T08:33:03.05Z</time>
      </trkpt>
      <trkpt lat="43.86868" lon="7.51147">
        <ele>695.74</ele>
        <time>2018-09-16T08:33:06.05Z</time>
      </trkpt>
      <trkpt lat="43.86875" lon="7.51153">
        <ele>694.74</ele>
        <time>2018-09-16T08:33:09.05Z</time>
      </trkpt>
      <trkpt lat="43.8688" lon="7.51162">
        <ele>694</ele>
        <time>2018-09-16T08:33:12.05Z</time>
      </trkpt>
      <trkpt lat="43.86886" lon="7.51166">
        <ele>694</ele>
        <time>2018-09-16T08:33:15.05Z</time>
      </trkpt>
      <trkpt lat="43.86893" lon="7.51169">
        <ele>693</ele>
        <time>2018-09-16T08:33:18.05Z</time>
      </trkpt>
      <trkpt lat="43.869" lon="7.51172">
        <ele>692.75</ele>
        <time>2018-09-16T08:33:21.05Z</time>
      </trkpt>
      <trkpt lat="43.86907" lon="7.51176">
        <ele>692</ele>
        <time>2018-09-16T08:33:24.05Z</time>
      </trkpt>
      <trkpt lat="43.86915" lon="7.51181">
        <ele>690</ele>
        <time>2018-09-16T08:33:28.05Z</time>
      </trkpt>
      <trkpt lat="43.86921" lon="7.51183">
        <ele>688.96</ele>
        <time>2018-09-16T08:33:31.05Z</time>
      </trkpt>
      <trkpt lat="43.86927" lon="7.51186">
        <ele>684.74</ele>
        <time>2018-09-16T08:33:34.05Z</time>
      </trkpt>
      <trkpt lat="43.86936" lon="7.51193">
        <ele>683.26</ele>
        <time>2018-09-16T08:33:38.05Z</time>
      </trkpt>
      <trkpt lat="43.86944" lon="7.51198">
        <ele>683</ele>
        <time>2018-09-16T08:33:41.05Z</time>
      </trkpt>
      <trkpt lat="43.86953" lon="7.51204">
        <ele>683</ele>
        <time>2018-09-16T08:33:45.05Z</time>
      </trkpt>
      <trkpt lat="43.86964" lon="7.51206">
        <ele>684</ele>
        <time>2018-09-16T08:33:50.05Z</time>
      </trkpt>
      <trkpt lat="43.8697" lon="7.51216">
        <ele>682</ele>
        <time>2018-09-16T08:33:55.05Z</time>
      </trkpt>
      <trkpt lat="43.86968" lon="7.51225">
        <ele>682</ele>
        <time>2018-09-16T08:33:58.05Z</time>
      </trkpt>
      <trkpt lat="43.86974" lon="7.51236">
        <ele>675</ele>
        <time>2018-09-16T08:34:04.05Z</time>
      </trkpt>
      <trkpt lat="43.86977" lon="7.51245">
        <ele>675</ele>
        <time>2018-09-16T08:34:07.05Z</time>
      </trkpt>
      <trkpt lat="43.86983" lon="7.51253">
        <ele>675</ele>
        <time>2018-09-16T08:34:11.05Z</time>
      </trkpt>
      <trkpt lat="43.86986" lon="7.51264">
        <ele>667.75</ele>
        <time>2018-09-16T08:34:16.05Z</time>
      </trkpt>
      <trkpt lat="43.86984" lon="7.51272">
        <ele>666</ele>
        <time>2018-09-16T08:34:20.05Z</time>
      </trkpt>
      <trkpt lat="43.86988" lon="7.5128">
        <ele>663.75</ele>
        <time>2018-09-16T08:34:26.05Z</time>
      </trkpt>
      <trkpt lat="43.86993" lon="7.51289">
        <ele>661.77</ele>
        <time>2018-09-16T08:34:32.05Z</time>
      </trkpt>
      <trkpt lat="43.87003" lon="7.51286">
        <ele>660</ele>
        <time>2018-09-16T08:34:37.05Z</time>
      </trkpt>
      <trkpt lat="43.87009" lon="7.51275">
        <ele>658</ele>
        <time>2018-09-16T08:34:42.05Z</time>
      </trkpt>
      <trkpt lat="43.87017" lon="7.51277">
        <ele>652</ele>
        <time>2018-09-16T08:34:51.05Z</time>
      </trkpt>
      <trkpt lat="43.87023" lon="7.51286">
        <ele>649</ele>
        <time>2018-09-16T08:34:55.05Z</time>
      </trkpt>
      <trkpt lat="43.87029" lon="7.51294">
        <ele>648.77</ele>
        <time>2018-09-16T08:34:59.05Z</time>
      </trkpt>
      <trkpt lat="43.87033" lon="7.51302">
        <ele>647</ele>
        <time>2018-09-16T08:35:02.05Z</time>
      </trkpt>
      <trkpt lat="43.87037" lon="7.51311">
        <ele>646</ele>
        <time>2018-09-16T08:35:05.05Z</time>
      </trkpt>
      <trkpt lat="43.87043" lon="7.51321">
        <ele>642.17</ele>
        <time>2018-09-16T08:35:09.05Z</time>
      </trkpt>
      <trkpt lat="43.87046" lon="7.51332">
        <ele>643</ele>
        <time>2018-09-16T08:35:13.05Z</time>
      </trkpt>
      <trkpt lat="43.87053" lon="7.51342">
        <ele>640</ele>
        <time>2018-09-16T08:35:24.05Z</time>
      </trkpt>
      <trkpt lat="43.87058" lon="7.51354">
        <ele>638</ele>
        <time>2018-09-16T08:35:28.05Z</time>
      </trkpt>
      <trkpt lat="43.8706" lon="7.51367">
        <ele>635</ele>
        <time>2018-09-16T08:35:32.05Z</time>
      </trkpt>
      <trkpt lat="43.87067" lon="7.51358">
        <ele>634</ele>
        <time>2018-09-16T08:35:39.05Z</time>
      </trkpt>
      <trkpt lat="43.87072" lon="7.51366">
        <ele>631</ele>
        <time>2018-09-16T08:35:46.05Z</time>
      </trkpt>
      <trkpt lat="43.87075" lon="7.51353">
        <ele>626.38</ele>
        <time>2018-09-16T08:35:55.05Z</time>
      </trkpt>
      <trkpt lat="43.87081" lon="7.51364">
        <ele>621</ele>
        <time>2018-09-16T08:36:04.05Z</time>
      </trkpt>
      <trkpt lat="43.87083" lon="7.51377">
        <ele>621</ele>
        <time>2018-09-16T08:36:09.05Z</time>
      </trkpt>
      <trkpt lat="43.87091" lon="7.51367">
        <ele>614.69</ele>
        <time>2018-09-16T08:36:19.05Z</time>
      </trkpt>
      <trkpt lat="43.87093" lon="7.51352">
        <ele>610</ele>
        <time>2018-09-16T08:36:25.05Z</time>
      </trkpt>
      <trkpt lat="43.87095" lon="7.51336">
        <ele>605.74</ele>
        <time>2018-09-16T08:36:31.05Z</time>
      </trkpt>
      <trkpt lat="43.87105" lon="7.5134">
        <ele>603.79</ele>
        <time>2018-09-16T08:36:38.05Z</time>
      </trkpt>
      <trkpt lat="43.87113" lon="7.51351">
        <ele>602</ele>
        <time>2018-09-16T08:36:42.05Z</time>
      </trkpt>
      <trkpt lat="43.8712" lon="7.51361">
        <ele>599</ele>
        <time>2018-09-16T08:36:46.05Z</time>
      </trkpt>
      <trkpt lat="43.87126" lon="7.51374">
        <ele>596.75</ele>
        <time>2018-09-16T08:36:51.05Z</time>
      </trkpt>
      <trkpt lat="43.87135" lon="7.51369">
        <ele>586.77</ele>
        <time>2018-09-16T08:37:07.05Z</time>
      </trkpt>
      <trkpt lat="43.87139" lon="7.51356">
        <ele>586</ele>
        <time>2018-09-16T08:37:13.05Z</time>
      </trkpt>
      <trkpt lat="43.87148" lon="7.51363">
        <ele>582</ele>
        <time>2018-09-16T08:37:19.05Z</time>
      </trkpt>
      <trkpt lat="43.87157" lon="7.51371">
        <ele>575.5</ele>
        <time>2018-09-16T08:37:28.05Z</time>
      </trkpt>
      <trkpt lat="43.87166" lon="7.5138">
        <ele>570.5</ele>
        <time>2018-09-16T08:37:38.05Z</time>
      </trkpt>
      <trkpt lat="43.87174" lon="7.5137">
        <ele>567</ele>
        <time>2018-09-16T08:37:49.05Z</time>
      </trkpt>
      <trkpt lat="43.87174" lon="7.51356">
        <ele>564</ele>
        <time>2018-09-16T08:37:54.05Z</time>
      </trkpt>
      <trkpt lat="43.87184" lon="7.51353">
        <ele>562</ele>
        <time>2018-09-16T08:38:01.05Z</time>
      </trkpt>
      <trkpt lat="43.87193" lon="7.51365">
        <ele>558</ele>
        <time>2018-09-16T08:38:05.05Z</time>
      </trkpt>
      <trkpt lat="43.87202" lon="7.51374">
        <ele>554</ele>
        <time>2018-09-16T08:38:11.05Z</time>
      </trkpt>
      <trkpt lat="43.87212" lon="7.51379">
        <ele>545.87</ele>
        <time>2018-09-16T08:38:21.05Z</time>
      </trkpt>
      <trkpt lat="43.87213" lon="7.51364">
        <ele>545</ele>
        <time>2018-09-16T08:38:27.05Z</time>
      </trkpt>
      <trkpt lat="43.87224" lon="7.51366">
        <ele>540</ele>
        <time>2018-09-16T08:38:35.05Z</time>
      </trkpt>
      <trkpt lat="43.8723" lon="7.51379">
        <ele>538</ele>
        <time>2018-09-16T08:38:40.05Z</time>
      </trkpt>
      <trkpt lat="43.87241" lon="7.51375">
        <ele>533.8</ele>
        <time>2018-09-16T08:38:48.05Z</time>
      </trkpt>
      <trkpt lat="43.8725" lon="7.51381">
        <ele>528.77</ele>
        <time>2018-09-16T08:38:55.05Z</time>
      </trkpt>
      <trkpt lat="43.87252" lon="7.51394">
        <ele>526.54</ele>
        <time>2018-09-16T08:39:01.05Z</time>
      </trkpt>
      <trkpt lat="43.87259" lon="7.51381">
        <ele>520</ele>
        <time>2018-09-16T08:39:09.05Z</time>
      </trkpt>
      <trkpt lat="43.87262" lon="7.51369">
        <ele>518</ele>
        <time>2018-09-16T08:39:14.05Z</time>
      </trkpt>
      <trkpt lat="43.87267" lon="7.51361">
        <ele>517</ele>
        <time>2018-09-16T08:39:18.05Z</time>
      </trkpt>
      <trkpt lat="43.87276" lon="7.51353">
        <ele>513</ele>
        <time>2018-09-16T08:39:28.05Z</time>
      </trkpt>
      <trkpt lat="43.87286" lon="7.5135">
        <ele>510</ele>
        <time>2018-09-16T08:39:33.05Z</time>
      </trkpt>
      <trkpt lat="43.87287" lon="7.51363">
        <ele>507</ele>
        <time>2018-09-16T08:39:37.05Z</time>
      </trkpt>
      <trkpt lat="43.87294" lon="7.51354">
        <ele>504</ele>
        <time>2018-09-16T08:39:45.05Z</time>
      </trkpt>
      <trkpt lat="43.87299" lon="7.51342">
        <ele>503.51</ele>
        <time>2018-09-16T08:39:51.05Z</time>
      </trkpt>
      <trkpt lat="43.87308" lon="7.51331">
        <ele>501</ele>
        <time>2018-09-16T08:39:56.05Z</time>
      </trkpt>
      <trkpt lat="43.87317" lon="7.51337">
        <ele>494</ele>
        <time>2018-09-16T08:40:01.05Z</time>
      </trkpt>
      <trkpt lat="43.87321" lon="7.51353">
        <ele>491</ele>
        <time>2018-09-16T08:40:05.05Z</time>
      </trkpt>
      <trkpt lat="43.87321" lon="7.51368">
        <ele>492</ele>
        <time>2018-09-16T08:40:11.05Z</time>
      </trkpt>
      <trkpt lat="43.87323" lon="7.5138">
        <ele>488</ele>
        <time>2018-09-16T08:40:15.05Z</time>
      </trkpt>
      <trkpt lat="43.87327" lon="7.51394">
        <ele>482</ele>
        <time>2018-09-16T08:40:21.05Z</time>
      </trkpt>
      <trkpt lat="43.87326" lon="7.51406">
        <ele>482</ele>
        <time>2018-09-16T08:40:25.05Z</time>
      </trkpt>
      <trkpt lat="43.87329" lon="7.51418">
        <ele>481</ele>
        <time>2018-09-16T08:40:29.05Z</time>
      </trkpt>
      <trkpt lat="43.87332" lon="7.51431">
        <ele>478</ele>
        <time>2018-09-16T08:40:33.05Z</time>
      </trkpt>
      <trkpt lat="43.87332" lon="7.51441">
        <ele>478</ele>
        <time>2018-09-16T08:40:36.05Z</time>
      </trkpt>
      <trkpt lat="43.87329" lon="7.51449">
        <ele>476</ele>
        <time>2018-09-16T08:40:39.05Z</time>
      </trkpt>
      <trkpt lat="43.87327" lon="7.51458">
        <ele>474.76</ele>
        <time>2018-09-16T08:40:42.05Z</time>
      </trkpt>
      <trkpt lat="43.87324" lon="7.51464">
        <ele>472</ele>
        <time>2018-09-16T08:40:45.05Z</time>
      </trkpt>
      <trkpt lat="43.8732" lon="7.51472">
        <ele>470</ele>
        <time>2018-09-16T08:40:49.05Z</time>
      </trkpt>
      <trkpt lat="43.87326" lon="7.51479">
        <ele>465</ele>
        <time>2018-09-16T08:40:58.05Z</time>
      </trkpt>
      <trkpt lat="43.87336" lon="7.51481">
        <ele>462.18</ele>
        <time>2018-09-16T08:41:03.05Z</time>
      </trkpt>
      <trkpt lat="43.87344" lon="7.51479">
        <ele>458.88</ele>
        <time>2018-09-16T08:41:08.05Z</time>
      </trkpt>
      <trkpt lat="43.87353" lon="7.51474">
        <ele>456.75</ele>
        <time>2018-09-16T08:41:18.05Z</time>
      </trkpt>
      <trkpt lat="43.87359" lon="7.51464">
        <ele>456</ele>
        <time>2018-09-16T08:41:23.05Z</time>
      </trkpt>
      <trkpt lat="43.87368" lon="7.51455">
        <ele>453</ele>
        <time>2018-09-16T08:41:29.05Z</time>
      </trkpt>
      <trkpt lat="43.87375" lon="7.51447">
        <ele>446.88</ele>
        <time>2018-09-16T08:41:33.05Z</time>
      </trkpt>
      <trkpt lat="43.87381" lon="7.5146">
        <ele>444</ele>
        <time>2018-09-16T08:41:40.05Z</time>
      </trkpt>
      <trkpt lat="43.87377" lon="7.51472">
        <ele>442</ele>
        <time>2018-09-16T08:41:44.05Z</time>
      </trkpt>
      <trkpt lat="43.87387" lon="7.51466">
        <ele>440</ele>
        <time>2018-09-16T08:41:54.05Z</time>
      </trkpt>
      <trkpt lat="43.87394" lon="7.51454">
        <ele>435.51</ele>
        <time>2018-09-16T08:42:00.05Z</time>
      </trkpt>
      <trkpt lat="43.87405" lon="7.51455">
        <ele>430</ele>
        <time>2018-09-16T08:42:08.05Z</time>
      </trkpt>
      <trkpt lat="43.87414" lon="7.51447">
        <ele>425</ele>
        <time>2018-09-16T08:42:17.05Z</time>
      </trkpt>
      <trkpt lat="43.87417" lon="7.51433">
        <ele>421</ele>
        <time>2018-09-16T08:42:23.05Z</time>
      </trkpt>
      <trkpt lat="43.87427" lon="7.51438">
        <ele>419</ele>
        <time>2018-09-16T08:42:29.05Z</time>
      </trkpt>
      <trkpt lat="43.87431" lon="7.51452">
        <ele>415.75</ele>
        <time>2018-09-16T08:42:34.05Z</time>
      </trkpt>
      <trkpt lat="43.87441" lon="7.51444">
        <ele>413</ele>
        <time>2018-09-16T08:42:42.05Z</time>
      </trkpt>
      <trkpt lat="43.87447" lon="7.51432">
        <ele>408.23</ele>
        <time>2018-09-16T08:42:48.05Z</time>
      </trkpt>
      <trkpt lat="43.87459" lon="7.51434">
        <ele>404.87</ele>
        <time>2018-09-16T08:42:53.05Z</time>
      </trkpt>
      <trkpt lat="43.87468" lon="7.51428">
        <ele>401.78</ele>
        <time>2018-09-16T08:42:59.05Z</time>
      </trkpt>
      <trkpt lat="43.87472" lon="7.51417">
        <ele>399</ele>
        <time>2018-09-16T08:43:04.05Z</time>
      </trkpt>
      <trkpt lat="43.8747" lon="7.51403">
        <ele>397.8</ele>
        <time>2018-09-16T08:43:09.05Z</time>
      </trkpt>
      <trkpt lat="43.87473" lon="7.51388">
        <ele>395</ele>
        <time>2018-09-16T08:43:15.05Z</time>
      </trkpt>
      <trkpt lat="43.87479" lon="7.51378">
        <ele>395</ele>
        <time>2018-09-16T08:43:19.05Z</time>
      </trkpt>
      <trkpt lat="43.87486" lon="7.51367">
        <ele>392.4</ele>
        <time>2018-09-16T08:43:24.05Z</time>
      </trkpt>
      <trkpt lat="43.87496" lon="7.51356">
        <ele>388</ele>
        <time>2018-09-16T08:43:29.05Z</time>
      </trkpt>
      <trkpt lat="43.87504" lon="7.51352">
        <ele>387</ele>
        <time>2018-09-16T08:43:33.05Z</time>
      </trkpt>
      <trkpt lat="43.87511" lon="7.51345">
        <ele>387</ele>
        <time>2018-09-16T08:43:37.05Z</time>
      </trkpt>
      <trkpt lat="43.8752" lon="7.51339">
        <ele>384</ele>
        <time>2018-09-16T08:43:43.05Z</time>
      </trkpt>
      <trkpt lat="43.87528" lon="7.51342">
        <ele>379.83</ele>
        <time>2018-09-16T08:43:48.05Z</time>
      </trkpt>
      <trkpt lat="43.87536" lon="7.51347">
        <ele>378</ele>
        <time>2018-09-16T08:43:52.05Z</time>
      </trkpt>
      <trkpt lat="43.87539" lon="7.51358">
        <ele>376</ele>
        <time>2018-09-16T08:43:56.05Z</time>
      </trkpt>
      <trkpt lat="43.87548" lon="7.51359">
        <ele>374.3</ele>
        <time>2018-09-16T08:44:02.05Z</time>
      </trkpt>
      <trkpt lat="43.87558" lon="7.51355">
        <ele>372</ele>
        <time>2018-09-16T08:44:06.05Z</time>
      </trkpt>
      <trkpt lat="43.87568" lon="7.51348">
        <ele>372</ele>
        <time>2018-09-16T08:44:11.05Z</time>
      </trkpt>
      <trkpt lat="43.87574" lon="7.51358">
        <ele>372</ele>
        <time>2018-09-16T08:44:16.05Z</time>
      </trkpt>
      <trkpt lat="43.87566" lon="7.51363">
        <ele>369</ele>
        <time>2018-09-16T08:44:19.05Z</time>
      </trkpt>
      <trkpt lat="43.8757" lon="7.51375">
        <ele>367</ele>
        <time>2018-09-16T08:44:25.05Z</time>
      </trkpt>
      <trkpt lat="43.8758" lon="7.5137">
        <ele>365</ele>
        <time>2018-09-16T08:44:29.05Z</time>
      </trkpt>
      <trkpt lat="43.8759" lon="7.51365">
        <ele>360.49</ele>
        <time>2018-09-16T08:44:33.05Z</time>
      </trkpt>
      <trkpt lat="43.87597" lon="7.51359">
        <ele>359</ele>
        <time>2018-09-16T08:44:36.05Z</time>
      </trkpt>
      <trkpt lat="43.87601" lon="7.51349">
        <ele>359</ele>
        <time>2018-09-16T08:44:40.05Z</time>
      </trkpt>
      <trkpt lat="43.87597" lon="7.51335">
        <ele>355.22</ele>
        <time>2018-09-16T08:44:44.05Z</time>
      </trkpt>
      <trkpt lat="43.8759" lon="7.51328">
        <ele>356</ele>
        <time>2018-09-16T08:44:47.05Z</time>
      </trkpt>
      <trkpt lat="43.87583" lon="7.51322">
        <ele>353</ele>
        <time>2018-09-16T08:44:50.05Z</time>
      </trkpt>
      <trkpt lat="43.87576" lon="7.51316">
        <ele>353</ele>
        <time>2018-09-16T08:44:53.05Z</time>
      </trkpt>
      <trkpt lat="43.87569" lon="7.51311">
        <ele>353</ele>
        <time>2018-09-16T08:44:56.05Z</time>
      </trkpt>
      <trkpt lat="43.87562" lon="7.51305">
        <ele>350</ele>
        <time>2018-09-16T08:44:59.05Z</time>
      </trkpt>
      <trkpt lat="43.87556" lon="7.51297">
        <ele>349.5</ele>
        <time>2018-09-16T08:45:02.05Z</time>
      </trkpt>
      <trkpt lat="43.8755" lon="7.51288">
        <ele>345</ele>
        <time>2018-09-16T08:45:05.05Z</time>
      </trkpt>
      <trkpt lat="43.87543" lon="7.51278">
        <ele>343.76</ele>
        <time>2018-09-16T08:45:09.05Z</time>
      </trkpt>
      <trkpt lat="43.87537" lon="7.51268">
        <ele>341.78</ele>
        <time>2018-09-16T08:45:13.05Z</time>
      </trkpt>
      <trkpt lat="43.87533" lon="7.51258">
        <ele>339</ele>
        <time>2018-09-16T08:45:17.05Z</time>
      </trkpt>
      <trkpt lat="43.87529" lon="7.51246">
        <ele>337.45</ele>
        <time>2018-09-16T08:45:21.05Z</time>
      </trkpt>
      <trkpt lat="43.87531" lon="7.51234">
        <ele>334</ele>
        <time>2018-09-16T08:45:26.05Z</time>
      </trkpt>
      <trkpt lat="43.8754" lon="7.51242">
        <ele>331</ele>
        <time>2018-09-16T08:45:31.05Z</time>
      </trkpt>
      <trkpt lat="43.87548" lon="7.51246">
        <ele>328</ele>
        <time>2018-09-16T08:45:35.05Z</time>
      </trkpt>
      <trkpt lat="43.87558" lon="7.51255">
        <ele>326.87</ele>
        <time>2018-09-16T08:45:40.05Z</time>
      </trkpt>
      <trkpt lat="43.87566" lon="7.5126">
        <ele>326</ele>
        <time>2018-09-16T08:45:43.05Z</time>
      </trkpt>
      <trkpt lat="43.87567" lon="7.51249">
        <ele>326</ele>
        <time>2018-09-16T08:45:51.05Z</time>
      </trkpt>
      <trkpt lat="43.87567" lon="7.51241">
        <ele>325.2</ele>
        <time>2018-09-16T08:45:55.05Z</time>
      </trkpt>
      <trkpt lat="43.87568" lon="7.5123">
        <ele>318</ele>
        <time>2018-09-16T08:45:59.05Z</time>
      </trkpt>
      <trkpt lat="43.87579" lon="7.5123">
        <ele>319</ele>
        <time>2018-09-16T08:46:04.05Z</time>
      </trkpt>
      <trkpt lat="43.87586" lon="7.51234">
        <ele>319</ele>
        <time>2018-09-16T08:46:07.05Z</time>
      </trkpt>
      <trkpt lat="43.87591" lon="7.51235">
        <ele>319</ele>
        <time>2018-09-16T08:46:09.05Z</time>
      </trkpt>
      <trkpt lat="43.87596" lon="7.51235">
        <ele>319</ele>
        <time>2018-09-16T08:46:11.05Z</time>
      </trkpt>
      <trkpt lat="43.87605" lon="7.51236">
        <ele>319</ele>
        <time>2018-09-16T08:46:15.05Z</time>
      </trkpt>
      <trkpt lat="43.87614" lon="7.51235">
        <ele>316</ele>
        <time>2018-09-16T08:46:19.05Z</time>
      </trkpt>
      <trkpt lat="43.87625" lon="7.51233">
        <ele>313</ele>
        <time>2018-09-16T08:46:23.05Z</time>
      </trkpt>
      <trkpt lat="43.87635" lon="7.51228">
        <ele>312</ele>
        <time>2018-09-16T08:46:27.05Z</time>
      </trkpt>
      <trkpt lat="43.87645" lon="7.51224">
        <ele>309</ele>
        <time>2018-09-16T08:46:32.05Z</time>
      </trkpt>
      <trkpt lat="43.87656" lon="7.51221">
        <ele>307</ele>
        <time>2018-09-16T08:46:37.05Z</time>
      </trkpt>
      <trkpt lat="43.87666" lon="7.51215">
        <ele>303.75</ele>
        <time>2018-09-16T08:46:42.05Z</time>
      </trkpt>
      <trkpt lat="43.87674" lon="7.51203">
        <ele>303</ele>
        <time>2018-09-16T08:46:47.05Z</time>
      </trkpt>
      <trkpt lat="43.8768" lon="7.5119">
        <ele>302</ele>
        <time>2018-09-16T08:46:52.05Z</time>
      </trkpt>
      <trkpt lat="43.87689" lon="7.51179">
        <ele>298</ele>
        <time>2018-09-16T08:46:58.05Z</time>
      </trkpt>
      <trkpt lat="43.87693" lon="7.51165">
        <ele>293</ele>
        <time>2018-09-16T08:47:04.05Z</time>
      </trkpt>
      <trkpt lat="43.87696" lon="7.5115">
        <ele>289.77</ele>
        <time>2018-09-16T08:47:10.05Z</time>
      </trkpt>
      <trkpt lat="43.87704" lon="7.51141">
        <ele>283</ele>
        <time>2018-09-16T08:47:23.05Z</time>
      </trkpt>
      <trkpt lat="43.87716" lon="7.51141">
        <ele>281</ele>
        <time>2018-09-16T08:47:30.05Z</time>
      </trkpt>
      <trkpt lat="43.87727" lon="7.51137">
        <ele>278</ele>
        <time>2018-09-16T08:47:35.05Z</time>
      </trkpt>
      <trkpt lat="43.87739" lon="7.51132">
        <ele>275.17</ele>
        <time>2018-09-16T08:47:40.05Z</time>
      </trkpt>
      <trkpt lat="43.87749" lon="7.51136">
        <ele>276</ele>
        <time>2018-09-16T08:47:44.05Z</time>
      </trkpt>
      <trkpt lat="43.87754" lon="7.51151">
        <ele>275</ele>
        <time>2018-09-16T08:47:49.05Z</time>
      </trkpt>
      <trkpt lat="43.87754" lon="7.51166">
        <ele>276</ele>
        <time>2018-09-16T08:47:53.05Z</time>
      </trkpt>
      <trkpt lat="43.87756" lon="7.51179">
        <ele>276</ele>
        <time>2018-09-16T08:47:57.05Z</time>
      </trkpt>
      <trkpt lat="43.87759" lon="7.51193">
        <ele>276.23</ele>
        <time>2018-09-16T08:48:01.05Z</time>
      </trkpt>
      <trkpt lat="43.87765" lon="7.51204">
        <ele>277</ele>
        <time>2018-09-16T08:48:05.05Z</time>
      </trkpt>
      <trkpt lat="43.87768" lon="7.51216">
        <ele>277</ele>
        <time>2018-09-16T08:48:09.05Z</time>
      </trkpt>
      <trkpt lat="43.87774" lon="7.51225">
        <ele>280</ele>
        <time>2018-09-16T08:48:14.05Z</time>
      </trkpt>
      <trkpt lat="43.8778" lon="7.51232">
        <ele>281</ele>
        <time>2018-09-16T08:48:18.05Z</time>
      </trkpt>
      <trkpt lat="43.87785" lon="7.51238">
        <ele>283</ele>
        <time>2018-09-16T08:48:23.05Z</time>
      </trkpt>
      <trkpt lat="43.87783" lon="7.51233">
        <ele>283.42</ele>
        <time>2018-09-16T08:48:27.05Z</time>
      </trkpt>
      <trkpt lat="43.87779" lon="7.51226">
        <ele>285</ele>
        <time>2018-09-16T08:48:29.05Z</time>
      </trkpt>
      <trkpt lat="43.87775" lon="7.51221">
        <ele>284</ele>
        <time>2018-09-16T08:48:31.05Z</time>
      </trkpt>
      <trkpt lat="43.87772" lon="7.51215">
        <ele>284.17</ele>
        <time>2018-09-16T08:48:33.05Z</time>
      </trkpt>
      <trkpt lat="43.87769" lon="7.51209">
        <ele>284.8</ele>
        <time>2018-09-16T08:48:35.05Z</time>
      </trkpt>
      <trkpt lat="43.87768" lon="7.51201">
        <ele>284</ele>
        <time>2018-09-16T08:48:37.05Z</time>
      </trkpt>
      <trkpt lat="43.87767" lon="7.51195">
        <ele>284</ele>
        <time>2018-09-16T08:48:39.05Z</time>
      </trkpt>
      <trkpt lat="43.87762" lon="7.51184">
        <ele>284</ele>
        <time>2018-09-16T08:48:42.05Z</time>
      </trkpt>
      <trkpt lat="43.87758" lon="7.51169">
        <ele>284</ele>
        <time>2018-09-16T08:48:46.05Z</time>
      </trkpt>
      <trkpt lat="43.87758" lon="7.51155">
        <ele>284</ele>
        <time>2018-09-16T08:48:50.05Z</time>
      </trkpt>
      <trkpt lat="43.87758" lon="7.51141">
        <ele>284</ele>
        <time>2018-09-16T08:48:54.05Z</time>
      </trkpt>
      <trkpt lat="43.8776" lon="7.5113">
        <ele>284</ele>
        <time>2018-09-16T08:48:57.05Z</time>
      </trkpt>
      <trkpt lat="43.87764" lon="7.51121">
        <ele>284</ele>
        <time>2018-09-16T08:49:00.05Z</time>
      </trkpt>
      <trkpt lat="43.87768" lon="7.51112">
        <ele>285</ele>
        <time>2018-09-16T08:49:03.05Z</time>
      </trkpt>
      <trkpt lat="43.87772" lon="7.511">
        <ele>285</ele>
        <time>2018-09-16T08:49:07.05Z</time>
      </trkpt>
      <trkpt lat="43.87778" lon="7.51089">
        <ele>285</ele>
        <time>2018-09-16T08:49:12.05Z</time>
      </trkpt>
      <trkpt lat="43.87787" lon="7.5108">
        <ele>286</ele>
        <time>2018-09-16T08:49:17.05Z</time>
      </trkpt>
      <trkpt lat="43.87794" lon="7.51068">
        <ele>286</ele>
        <time>2018-09-16T08:49:22.05Z</time>
      </trkpt>
      <trkpt lat="43.87803" lon="7.51057">
        <ele>286</ele>
        <time>2018-09-16T08:49:27.05Z</time>
      </trkpt>
      <trkpt lat="43.87812" lon="7.51048">
        <ele>285.84</ele>
        <time>2018-09-16T08:49:33.05Z</time>
      </trkpt>
      <trkpt lat="43.8782" lon="7.51036">
        <ele>285</ele>
        <time>2018-09-16T08:49:38.05Z</time>
      </trkpt>
      <trkpt lat="43.87826" lon="7.51026">
        <ele>285</ele>
        <time>2018-09-16T08:49:42.05Z</time>
      </trkpt>
      <trkpt lat="43.87833" lon="7.51016">
        <ele>286</ele>
        <time>2018-09-16T08:49:46.05Z</time>
      </trkpt>
      <trkpt lat="43.87839" lon="7.51006">
        <ele>286</ele>
        <time>2018-09-16T08:49:50.05Z</time>
      </trkpt>
      <trkpt lat="43.87847" lon="7.50996">
        <ele>286</ele>
        <time>2018-09-16T08:49:55.05Z</time>
      </trkpt>
      <trkpt lat="43.87854" lon="7.50986">
        <ele>286</ele>
        <time>2018-09-16T08:49:59.05Z</time>
      </trkpt>
      <trkpt lat="43.87862" lon="7.50977">
        <ele>285</ele>
        <time>2018-09-16T08:50:03.05Z</time>
      </trkpt>
      <trkpt lat="43.87865" lon="7.50972">
        <ele>285</ele>
        <time>2018-09-16T08:50:05.05Z</time>
      </trkpt>
      <trkpt lat="43.87873" lon="7.50962">
        <ele>285</ele>
        <time>2018-09-16T08:50:10.05Z</time>
      </trkpt>
      <trkpt lat="43.87883" lon="7.50954">
        <ele>284</ele>
        <time>2018-09-16T08:50:15.05Z</time>
      </trkpt>
      <trkpt lat="43.87891" lon="7.50947">
        <ele>284</ele>
        <time>2018-09-16T08:50:19.05Z</time>
      </trkpt>
      <trkpt lat="43.87898" lon="7.50939">
        <ele>284.15</ele>
        <time>2018-09-16T08:50:23.05Z</time>
      </trkpt>
      <trkpt lat="43.87907" lon="7.50928">
        <ele>285</ele>
        <time>2018-09-16T08:50:28.05Z</time>
      </trkpt>
      <trkpt lat="43.87912" lon="7.50925">
        <ele>285</ele>
        <time>2018-09-16T08:50:30.05Z</time>
      </trkpt>
      <trkpt lat="43.87921" lon="7.50919">
        <ele>285</ele>
        <time>2018-09-16T08:50:34.05Z</time>
      </trkpt>
      <trkpt lat="43.87925" lon="7.50916">
        <ele>285</ele>
        <time>2018-09-16T08:50:36.05Z</time>
      </trkpt>
      <trkpt lat="43.8793" lon="7.50912">
        <ele>285</ele>
        <time>2018-09-16T08:50:38.05Z</time>
      </trkpt>
      <trkpt lat="43.87934" lon="7.50909">
        <ele>285</ele>
        <time>2018-09-16T08:50:40.05Z</time>
      </trkpt>
      <trkpt lat="43.87938" lon="7.50906">
        <ele>285</ele>
        <time>2018-09-16T08:50:42.05Z</time>
      </trkpt>
      <trkpt lat="43.87948" lon="7.50898">
        <ele>285</ele>
        <time>2018-09-16T08:50:47.05Z</time>
      </trkpt>
      <trkpt lat="43.87959" lon="7.50894">
        <ele>285</ele>
        <time>2018-09-16T08:50:52.05Z</time>
      </trkpt>
      <trkpt lat="43.8797" lon="7.5089">
        <ele>284</ele>
        <time>2018-09-16T08:50:57.05Z</time>
      </trkpt>
      <trkpt lat="43.8798" lon="7.50886">
        <ele>284</ele>
        <time>2018-09-16T08:51:02.05Z</time>
      </trkpt>
      <trkpt lat="43.87989" lon="7.50877">
        <ele>284</ele>
        <time>2018-09-16T08:51:07.05Z</time>
      </trkpt>
      <trkpt lat="43.87997" lon="7.50866">
        <ele>284.23</ele>
        <time>2018-09-16T08:51:12.05Z</time>
      </trkpt>
      <trkpt lat="43.88007" lon="7.50859">
        <ele>285</ele>
        <time>2018-09-16T08:51:17.05Z</time>
      </trkpt>
      <trkpt lat="43.88017" lon="7.5085">
        <ele>285</ele>
        <time>2018-09-16T08:51:23.05Z</time>
      </trkpt>
      <trkpt lat="43.88026" lon="7.5084">
        <ele>284</ele>
        <time>2018-09-16T08:51:28.05Z</time>
      </trkpt>
      <trkpt lat="43.88029" lon="7.50832">
        <ele>284</ele>
        <time>2018-09-16T08:51:31.05Z</time>
      </trkpt>
      <trkpt lat="43.8803" lon="7.50825">
        <ele>284</ele>
        <time>2018-09-16T08:51:33.05Z</time>
      </trkpt>
      <trkpt lat="43.88029" lon="7.50818">
        <ele>284</ele>
        <time>2018-09-16T08:51:35.05Z</time>
      </trkpt>
      <trkpt lat="43.88028" lon="7.50811">
        <ele>284</ele>
        <time>2018-09-16T08:51:37.05Z</time>
      </trkpt>
      <trkpt lat="43.88028" lon="7.50805">
        <ele>284</ele>
        <time>2018-09-16T08:51:39.05Z</time>
      </trkpt>
      <trkpt lat="43.88026" lon="7.50796">
        <ele>283</ele>
        <time>2018-09-16T08:51:43.05Z</time>
      </trkpt>
      <trkpt lat="43.88023" lon="7.50791">
        <ele>283</ele>
        <time>2018-09-16T08:51:45.05Z</time>
      </trkpt>
      <trkpt lat="43.88021" lon="7.50786">
        <ele>283</ele>
        <time>2018-09-16T08:51:47.05Z</time>
      </trkpt>
      <trkpt lat="43.88018" lon="7.50781">
        <ele>283</ele>
        <time>2018-09-16T08:51:49.05Z</time>
      </trkpt>
      <trkpt lat="43.88017" lon="7.50775">
        <ele>283</ele>
        <time>2018-09-16T08:51:51.05Z</time>
      </trkpt>
      <trkpt lat="43.88016" lon="7.50769">
        <ele>283</ele>
        <time>2018-09-16T08:51:53.05Z</time>
      </trkpt>
      <trkpt lat="43.88014" lon="7.50764">
        <ele>283</ele>
        <time>2018-09-16T08:51:55.05Z</time>
      </trkpt>
      <trkpt lat="43.88009" lon="7.50749">
        <ele>283</ele>
        <time>2018-09-16T08:52:00.05Z</time>
      </trkpt>
      <trkpt lat="43.88006" lon="7.50744">
        <ele>283.08</ele>
        <time>2018-09-16T08:52:02.05Z</time>
      </trkpt>
      <trkpt lat="43.88004" lon="7.50738">
        <ele>284</ele>
        <time>2018-09-16T08:52:04.05Z</time>
      </trkpt>
      <trkpt lat="43.88001" lon="7.50732">
        <ele>284</ele>
        <time>2018-09-16T08:52:06.05Z</time>
      </trkpt>
      <trkpt lat="43.87998" lon="7.50727">
        <ele>284</ele>
        <time>2018-09-16T08:52:08.05Z</time>
      </trkpt>
      <trkpt lat="43.87995" lon="7.5072">
        <ele>284</ele>
        <time>2018-09-16T08:52:10.05Z</time>
      </trkpt>
      <trkpt lat="43.87994" lon="7.50715">
        <ele>284</ele>
        <time>2018-09-16T08:52:12.05Z</time>
      </trkpt>
      <trkpt lat="43.87992" lon="7.50709">
        <ele>283</ele>
        <time>2018-09-16T08:52:14.05Z</time>
      </trkpt>
      <trkpt lat="43.87989" lon="7.50704">
        <ele>283</ele>
        <time>2018-09-16T08:52:16.05Z</time>
      </trkpt>
      <trkpt lat="43.87986" lon="7.50698">
        <ele>283</ele>
        <time>2018-09-16T08:52:18.05Z</time>
      </trkpt>
      <trkpt lat="43.87983" lon="7.50693">
        <ele>283</ele>
        <time>2018-09-16T08:52:20.05Z</time>
      </trkpt>
      <trkpt lat="43.8798" lon="7.50687">
        <ele>282.84</ele>
        <time>2018-09-16T08:52:22.05Z</time>
      </trkpt>
      <trkpt lat="43.87978" lon="7.50681">
        <ele>282</ele>
        <time>2018-09-16T08:52:24.05Z</time>
      </trkpt>
      <trkpt lat="43.87977" lon="7.50675">
        <ele>282</ele>
        <time>2018-09-16T08:52:26.05Z</time>
      </trkpt>
      <trkpt lat="43.87976" lon="7.50669">
        <ele>282</ele>
        <time>2018-09-16T08:52:28.05Z</time>
      </trkpt>
      <trkpt lat="43.87975" lon="7.50663">
        <ele>282</ele>
        <time>2018-09-16T08:52:30.05Z</time>
      </trkpt>
      <trkpt lat="43.87974" lon="7.50658">
        <ele>282</ele>
        <time>2018-09-16T08:52:32.05Z</time>
      </trkpt>
      <trkpt lat="43.87972" lon="7.50653">
        <ele>282</ele>
        <time>2018-09-16T08:52:34.05Z</time>
      </trkpt>
      <trkpt lat="43.87969" lon="7.50648">
        <ele>282</ele>
        <time>2018-09-16T08:52:36.05Z</time>
      </trkpt>
      <trkpt lat="43.87967" lon="7.50642">
        <ele>282</ele>
        <time>2018-09-16T08:52:38.05Z</time>
      </trkpt>
      <trkpt lat="43.87964" lon="7.50637">
        <ele>282</ele>
        <time>2018-09-16T08:52:40.05Z</time>
      </trkpt>
      <trkpt lat="43.87961" lon="7.50631">
        <ele>282</ele>
        <time>2018-09-16T08:52:42.05Z</time>
      </trkpt>
      <trkpt lat="43.87959" lon="7.50626">
        <ele>282</ele>
        <time>2018-09-16T08:52:44.05Z</time>
      </trkpt>
      <trkpt lat="43.87957" lon="7.50622">
        <ele>282</ele>
        <time>2018-09-16T08:52:45.05Z</time>
      </trkpt>
      <trkpt lat="43.87954" lon="7.50616">
        <ele>282</ele>
        <time>2018-09-16T08:52:47.05Z</time>
      </trkpt>
      <trkpt lat="43.87949" lon="7.50611">
        <ele>282</ele>
        <time>2018-09-16T08:52:49.05Z</time>
      </trkpt>
      <trkpt lat="43.87946" lon="7.50607">
        <ele>282</ele>
        <time>2018-09-16T08:52:51.05Z</time>
      </trkpt>
      <trkpt lat="43.87944" lon="7.50603">
        <ele>281.76</ele>
        <time>2018-09-16T08:52:53.05Z</time>
      </trkpt>
      <trkpt lat="43.87943" lon="7.50589">
        <ele>281.24</ele>
        <time>2018-09-16T08:53:01.05Z</time>
      </trkpt>
      <trkpt lat="43.87944" lon="7.50574">
        <ele>282</ele>
        <time>2018-09-16T08:53:06.05Z</time>
      </trkpt>
      <trkpt lat="43.87945" lon="7.50558">
        <ele>282</ele>
        <time>2018-09-16T08:53:11.05Z</time>
      </trkpt>
      <trkpt lat="43.87944" lon="7.50541">
        <ele>282</ele>
        <time>2018-09-16T08:53:16.05Z</time>
      </trkpt>
      <trkpt lat="43.87941" lon="7.50527">
        <ele>282</ele>
        <time>2018-09-16T08:53:20.05Z</time>
      </trkpt>
      <trkpt lat="43.87939" lon="7.50513">
        <ele>282</ele>
        <time>2018-09-16T08:53:24.05Z</time>
      </trkpt>
      <trkpt lat="43.87938" lon="7.50498">
        <ele>282</ele>
        <time>2018-09-16T08:53:28.05Z</time>
      </trkpt>
      <trkpt lat="43.87939" lon="7.50482">
        <ele>281.86</ele>
        <time>2018-09-16T08:53:32.05Z</time>
      </trkpt>
      <trkpt lat="43.87946" lon="7.5047">
        <ele>281</ele>
        <time>2018-09-16T08:53:35.05Z</time>
      </trkpt>
      <trkpt lat="43.87953" lon="7.50458">
        <ele>281</ele>
        <time>2018-09-16T08:53:38.05Z</time>
      </trkpt>
      <trkpt lat="43.87963" lon="7.5045">
        <ele>282</ele>
        <time>2018-09-16T08:53:42.05Z</time>
      </trkpt>
      <trkpt lat="43.87974" lon="7.50441">
        <ele>282</ele>
        <time>2018-09-16T08:53:47.05Z</time>
      </trkpt>
      <trkpt lat="43.87983" lon="7.50444">
        <ele>282.32</ele>
        <time>2018-09-16T08:53:52.05Z</time>
      </trkpt>
      <trkpt lat="43.87989" lon="7.50454">
        <ele>284.75</ele>
        <time>2018-09-16T08:54:01.05Z</time>
      </trkpt>
      <trkpt lat="43.87991" lon="7.50439">
        <ele>287</ele>
        <time>2018-09-16T08:54:26.05Z</time>
      </trkpt>
      <trkpt lat="43.87997" lon="7.50428">
        <ele>287.23</ele>
        <time>2018-09-16T08:54:32.05Z</time>
      </trkpt>
      <trkpt lat="43.88007" lon="7.50432">
        <ele>286.74</ele>
        <time>2018-09-16T08:54:42.05Z</time>
      </trkpt>
      <trkpt lat="43.88013" lon="7.50446">
        <ele>286</ele>
        <time>2018-09-16T08:54:45.05Z</time>
      </trkpt>
      <trkpt lat="43.8802" lon="7.50461">
        <ele>286</ele>
        <time>2018-09-16T08:54:49.05Z</time>
      </trkpt>
      <trkpt lat="43.88028" lon="7.50473">
        <ele>285</ele>
        <time>2018-09-16T08:54:53.05Z</time>
      </trkpt>
      <trkpt lat="43.88035" lon="7.50483">
        <ele>285</ele>
        <time>2018-09-16T08:54:58.05Z</time>
      </trkpt>
      <trkpt lat="43.88042" lon="7.50494">
        <ele>284</ele>
        <time>2018-09-16T08:55:04.05Z</time>
      </trkpt>
      <trkpt lat="43.88045" lon="7.50506">
        <ele>283</ele>
        <time>2018-09-16T08:55:16.05Z</time>
      </trkpt>
      <trkpt lat="43.88048" lon="7.5052">
        <ele>283</ele>
        <time>2018-09-16T08:55:22.05Z</time>
      </trkpt>
      <trkpt lat="43.88055" lon="7.50531">
        <ele>283</ele>
        <time>2018-09-16T08:55:28.05Z</time>
      </trkpt>
      <trkpt lat="43.88064" lon="7.50533">
        <ele>284</ele>
        <time>2018-09-16T08:55:35.05Z</time>
      </trkpt>
      <trkpt lat="43.88075" lon="7.50525">
        <ele>284</ele>
        <time>2018-09-16T08:55:40.05Z</time>
      </trkpt>
      <trkpt lat="43.88086" lon="7.50524">
        <ele>285</ele>
        <time>2018-09-16T08:55:47.05Z</time>
      </trkpt>
      <trkpt lat="43.88096" lon="7.5052">
        <ele>284.77</ele>
        <time>2018-09-16T08:55:52.05Z</time>
      </trkpt>
      <trkpt lat="43.88106" lon="7.50515">
        <ele>284</ele>
        <time>2018-09-16T08:55:56.05Z</time>
      </trkpt>
      <trkpt lat="43.88115" lon="7.50505">
        <ele>284</ele>
        <time>2018-09-16T08:56:01.05Z</time>
      </trkpt>
      <trkpt lat="43.88126" lon="7.50496">
        <ele>284</ele>
        <time>2018-09-16T08:56:06.05Z</time>
      </trkpt>
      <trkpt lat="43.88134" lon="7.50487">
        <ele>284</ele>
        <time>2018-09-16T08:56:10.05Z</time>
      </trkpt>
      <trkpt lat="43.88145" lon="7.50481">
        <ele>285</ele>
        <time>2018-09-16T08:56:15.05Z</time>
      </trkpt>
      <trkpt lat="43.88151" lon="7.5049">
        <ele>285</ele>
        <time>2018-09-16T08:56:20.05Z</time>
      </trkpt>
      <trkpt lat="43.88155" lon="7.505">
        <ele>287</ele>
        <time>2018-09-16T08:56:27.05Z</time>
      </trkpt>
      <trkpt lat="43.88162" lon="7.50507">
        <ele>289</ele>
        <time>2018-09-16T08:56:35.05Z</time>
      </trkpt>
      <trkpt lat="43.88165" lon="7.50518">
        <ele>291</ele>
        <time>2018-09-16T08:56:43.05Z</time>
      </trkpt>
      <trkpt lat="43.88168" lon="7.50529">
        <ele>293</ele>
        <time>2018-09-16T08:56:54.05Z</time>
      </trkpt>
      <trkpt lat="43.88173" lon="7.5054">
        <ele>297</ele>
        <time>2018-09-16T08:57:03.05Z</time>
      </trkpt>
      <trkpt lat="43.88174" lon="7.50553">
        <ele>297</ele>
        <time>2018-09-16T08:57:08.05Z</time>
      </trkpt>
      <trkpt lat="43.88177" lon="7.50568">
        <ele>296</ele>
        <time>2018-09-16T08:57:18.05Z</time>
      </trkpt>
      <trkpt lat="43.8818" lon="7.50582">
        <ele>298</ele>
        <time>2018-09-16T08:57:29.05Z</time>
      </trkpt>
      <trkpt lat="43.88184" lon="7.50595">
        <ele>302.29</ele>
        <time>2018-09-16T08:57:41.05Z</time>
      </trkpt>
      <trkpt lat="43.88187" lon="7.50608">
        <ele>307</ele>
        <time>2018-09-16T08:57:54.05Z</time>
      </trkpt>
      <trkpt lat="43.88188" lon="7.50622">
        <ele>309</ele>
        <time>2018-09-16T08:58:10.05Z</time>
      </trkpt>
      <trkpt lat="43.88195" lon="7.50633">
        <ele>311</ele>
        <time>2018-09-16T08:58:19.05Z</time>
      </trkpt>
      <trkpt lat="43.88201" lon="7.50646">
        <ele>313</ele>
        <time>2018-09-16T08:58:26.05Z</time>
      </trkpt>
      <trkpt lat="43.88199" lon="7.50659">
        <ele>317</ele>
        <time>2018-09-16T08:58:38.05Z</time>
      </trkpt>
      <trkpt lat="43.88197" lon="7.50673">
        <ele>322.26</ele>
        <time>2018-09-16T08:58:56.05Z</time>
      </trkpt>
      <trkpt lat="43.88191" lon="7.50684">
        <ele>327</ele>
        <time>2018-09-16T08:59:15.05Z</time>
      </trkpt>
      <trkpt lat="43.88181" lon="7.50679">
        <ele>331</ele>
        <time>2018-09-16T08:59:30.05Z</time>
      </trkpt>
      <trkpt lat="43.88176" lon="7.5068">
        <ele>332</ele>
        <time>2018-09-16T08:59:43.05Z</time>
      </trkpt>
      <trkpt lat="43.88176" lon="7.50694">
        <ele>334.76</ele>
        <time>2018-09-16T08:59:56.05Z</time>
      </trkpt>
      <trkpt lat="43.88174" lon="7.50708">
        <ele>339.52</ele>
        <time>2018-09-16T09:00:11.05Z</time>
      </trkpt>
      <trkpt lat="43.8817" lon="7.50718">
        <ele>343</ele>
        <time>2018-09-16T09:00:21.05Z</time>
      </trkpt>
      <trkpt lat="43.8816" lon="7.50721">
        <ele>348.5</ele>
        <time>2018-09-16T09:00:46.05Z</time>
      </trkpt>
      <trkpt lat="43.88157" lon="7.50735">
        <ele>352</ele>
        <time>2018-09-16T09:01:01.05Z</time>
      </trkpt>
      <trkpt lat="43.88154" lon="7.50748">
        <ele>355</ele>
        <time>2018-09-16T09:01:13.05Z</time>
      </trkpt>
      <trkpt lat="43.88152" lon="7.50762">
        <ele>359</ele>
        <time>2018-09-16T09:01:24.05Z</time>
      </trkpt>
      <trkpt lat="43.8815" lon="7.50776">
        <ele>360</ele>
        <time>2018-09-16T09:01:34.05Z</time>
      </trkpt>
      <trkpt lat="43.88148" lon="7.50789">
        <ele>361</ele>
        <time>2018-09-16T09:01:44.05Z</time>
      </trkpt>
      <trkpt lat="43.8815" lon="7.50803">
        <ele>363</ele>
        <time>2018-09-16T09:01:56.05Z</time>
      </trkpt>
      <trkpt lat="43.88154" lon="7.50816">
        <ele>368</ele>
        <time>2018-09-16T09:02:09.05Z</time>
      </trkpt>
      <trkpt lat="43.88155" lon="7.50823">
        <ele>371</ele>
        <time>2018-09-16T09:02:18.05Z</time>
      </trkpt>
      <trkpt lat="43.8816" lon="7.50825">
        <ele>373</ele>
        <time>2018-09-16T09:02:23.05Z</time>
      </trkpt>
      <trkpt lat="43.88161" lon="7.50831">
        <ele>372</ele>
        <time>2018-09-16T09:02:27.05Z</time>
      </trkpt>
      <trkpt lat="43.88165" lon="7.50838">
        <ele>372</ele>
        <time>2018-09-16T09:02:30.05Z</time>
      </trkpt>
      <trkpt lat="43.8817" lon="7.50846">
        <ele>371</ele>
        <time>2018-09-16T09:02:33.05Z</time>
      </trkpt>
      <trkpt lat="43.88176" lon="7.50853">
        <ele>371</ele>
        <time>2018-09-16T09:02:36.05Z</time>
      </trkpt>
      <trkpt lat="43.88181" lon="7.5086">
        <ele>370.75</ele>
        <time>2018-09-16T09:02:39.05Z</time>
      </trkpt>
      <trkpt lat="43.88186" lon="7.50865">
        <ele>370</ele>
        <time>2018-09-16T09:02:41.05Z</time>
      </trkpt>
      <trkpt lat="43.88194" lon="7.50875">
        <ele>369</ele>
        <time>2018-09-16T09:02:45.05Z</time>
      </trkpt>
      <trkpt lat="43.88203" lon="7.50884">
        <ele>369</ele>
        <time>2018-09-16T09:02:49.05Z</time>
      </trkpt>
      <trkpt lat="43.88211" lon="7.50894">
        <ele>366</ele>
        <time>2018-09-16T09:02:53.05Z</time>
      </trkpt>
      <trkpt lat="43.88218" lon="7.50903">
        <ele>366</ele>
        <time>2018-09-16T09:02:57.05Z</time>
      </trkpt>
      <trkpt lat="43.88229" lon="7.50901">
        <ele>365.57</ele>
        <time>2018-09-16T09:03:02.05Z</time>
      </trkpt>
      <trkpt lat="43.88238" lon="7.50892">
        <ele>364</ele>
        <time>2018-09-16T09:03:06.05Z</time>
      </trkpt>
      <trkpt lat="43.88244" lon="7.50881">
        <ele>363</ele>
        <time>2018-09-16T09:03:10.05Z</time>
      </trkpt>
      <trkpt lat="43.88249" lon="7.50868">
        <ele>362</ele>
        <time>2018-09-16T09:03:15.05Z</time>
      </trkpt>
      <trkpt lat="43.88252" lon="7.5086">
        <ele>361</ele>
        <time>2018-09-16T09:03:58.05Z</time>
      </trkpt>
      <trkpt lat="43.8825" lon="7.50858">
        <ele>362</ele>
        <time>2018-09-16T09:05:31.05Z</time>
      </trkpt>
      <trkpt lat="43.88248" lon="7.50855">
        <ele>363</ele>
        <time>2018-09-16T09:05:34.05Z</time>
      </trkpt>
      <trkpt lat="43.88247" lon="7.50852">
        <ele>363</ele>
        <time>2018-09-16T09:05:36.05Z</time>
      </trkpt>
      <trkpt lat="43.88245" lon="7.5085">
        <ele>363</ele>
        <time>2018-09-16T09:05:38.05Z</time>
      </trkpt>
      <trkpt lat="43.88243" lon="7.50847">
        <ele>363</ele>
        <time>2018-09-16T09:05:40.05Z</time>
      </trkpt>
      <trkpt lat="43.88239" lon="7.50844">
        <ele>363.21</ele>
        <time>2018-09-16T09:05:43.05Z</time>
      </trkpt>
      <trkpt lat="43.88237" lon="7.50843">
        <ele>364</ele>
        <time>2018-09-16T09:05:45.05Z</time>
      </trkpt>
      <trkpt lat="43.88233" lon="7.50837">
        <ele>364</ele>
        <time>2018-09-16T09:05:49.05Z</time>
      </trkpt>
      <trkpt lat="43.88231" lon="7.50833">
        <ele>364</ele>
        <time>2018-09-16T09:05:52.05Z</time>
      </trkpt>
      <trkpt lat="43.8823" lon="7.50818">
        <ele>366</ele>
        <time>2018-09-16T09:05:59.05Z</time>
      </trkpt>
      <trkpt lat="43.88232" lon="7.50806">
        <ele>369</ele>
        <time>2018-09-16T09:06:06.05Z</time>
      </trkpt>
      <trkpt lat="43.88233" lon="7.50792">
        <ele>369</ele>
        <time>2018-09-16T09:06:13.05Z</time>
      </trkpt>
      <trkpt lat="43.88236" lon="7.50778">
        <ele>368</ele>
        <time>2018-09-16T09:06:19.05Z</time>
      </trkpt>
      <trkpt lat="43.8824" lon="7.50762">
        <ele>366</ele>
        <time>2018-09-16T09:06:25.05Z</time>
      </trkpt>
      <trkpt lat="43.88242" lon="7.50748">
        <ele>365</ele>
        <time>2018-09-16T09:06:29.05Z</time>
      </trkpt>
      <trkpt lat="43.88247" lon="7.50736">
        <ele>363</ele>
        <time>2018-09-16T09:06:33.05Z</time>
      </trkpt>
      <trkpt lat="43.88252" lon="7.50723">
        <ele>362.79</ele>
        <time>2018-09-16T09:06:37.05Z</time>
      </trkpt>
      <trkpt lat="43.88257" lon="7.50708">
        <ele>361.69</ele>
        <time>2018-09-16T09:06:41.05Z</time>
      </trkpt>
      <trkpt lat="43.88263" lon="7.50695">
        <ele>360</ele>
        <time>2018-09-16T09:06:45.05Z</time>
      </trkpt>
      <trkpt lat="43.88271" lon="7.50686">
        <ele>360</ele>
        <time>2018-09-16T09:06:49.05Z</time>
      </trkpt>
      <trkpt lat="43.88279" lon="7.50677">
        <ele>360</ele>
        <time>2018-09-16T09:06:53.05Z</time>
      </trkpt>
      <trkpt lat="43.88286" lon="7.50668">
        <ele>359</ele>
        <time>2018-09-16T09:06:58.05Z</time>
      </trkpt>
      <trkpt lat="43.88285" lon="7.50655">
        <ele>359.25</ele>
        <time>2018-09-16T09:07:02.05Z</time>
      </trkpt>
      <trkpt lat="43.88285" lon="7.50643">
        <ele>360</ele>
        <time>2018-09-16T09:07:06.05Z</time>
      </trkpt>
      <trkpt lat="43.88277" lon="7.50633">
        <ele>360</ele>
        <time>2018-09-16T09:07:12.05Z</time>
      </trkpt>
      <trkpt lat="43.88268" lon="7.50626">
        <ele>360</ele>
        <time>2018-09-16T09:07:17.05Z</time>
      </trkpt>
      <trkpt lat="43.88262" lon="7.50613">
        <ele>358</ele>
        <time>2018-09-16T09:07:23.05Z</time>
      </trkpt>
      <trkpt lat="43.88259" lon="7.50599">
        <ele>358</ele>
        <time>2018-09-16T09:07:29.05Z</time>
      </trkpt>
      <trkpt lat="43.8826" lon="7.50585">
        <ele>356</ele>
        <time>2018-09-16T09:07:34.05Z</time>
      </trkpt>
      <trkpt lat="43.88261" lon="7.50571">
        <ele>356</ele>
        <time>2018-09-16T09:07:38.05Z</time>
      </trkpt>
      <trkpt lat="43.88266" lon="7.50558">
        <ele>355.48</ele>
        <time>2018-09-16T09:07:42.05Z</time>
      </trkpt>
      <trkpt lat="43.88275" lon="7.50549">
        <ele>354</ele>
        <time>2018-09-16T09:07:46.05Z</time>
      </trkpt>
      <trkpt lat="43.88286" lon="7.50547">
        <ele>353</ele>
        <time>2018-09-16T09:07:51.05Z</time>
      </trkpt>
      <trkpt lat="43.88298" lon="7.50542">
        <ele>352</ele>
        <time>2018-09-16T09:07:56.05Z</time>
      </trkpt>
      <trkpt lat="43.88307" lon="7.50533">
        <ele>352</ele>
        <time>2018-09-16T09:08:00.05Z</time>
      </trkpt>
      <trkpt lat="43.88315" lon="7.50523">
        <ele>346</ele>
        <time>2018-09-16T09:08:04.05Z</time>
      </trkpt>
      <trkpt lat="43.88325" lon="7.50516">
        <ele>346</ele>
        <time>2018-09-16T09:08:09.05Z</time>
      </trkpt>
      <trkpt lat="43.88334" lon="7.50509">
        <ele>346</ele>
        <time>2018-09-16T09:08:13.05Z</time>
      </trkpt>
      <trkpt lat="43.88342" lon="7.50502">
        <ele>345.26</ele>
        <time>2018-09-16T09:08:17.05Z</time>
      </trkpt>
      <trkpt lat="43.88353" lon="7.50498">
        <ele>347</ele>
        <time>2018-09-16T09:08:22.05Z</time>
      </trkpt>
      <trkpt lat="43.88365" lon="7.50495">
        <ele>347</ele>
        <time>2018-09-16T09:08:27.05Z</time>
      </trkpt>
      <trkpt lat="43.88365" lon="7.5048">
        <ele>346</ele>
        <time>2018-09-16T09:08:35.05Z</time>
      </trkpt>
      <trkpt lat="43.88355" lon="7.50473">
        <ele>346</ele>
        <time>2018-09-16T09:08:39.05Z</time>
      </trkpt>
      <trkpt lat="43.88346" lon="7.50466">
        <ele>345</ele>
        <time>2018-09-16T09:08:43.05Z</time>
      </trkpt>
      <trkpt lat="43.88342" lon="7.50463">
        <ele>345</ele>
        <time>2018-09-16T09:08:45.05Z</time>
      </trkpt>
      <trkpt lat="43.88333" lon="7.50456">
        <ele>345</ele>
        <time>2018-09-16T09:08:49.05Z</time>
      </trkpt>
      <trkpt lat="43.88324" lon="7.5045">
        <ele>344</ele>
        <time>2018-09-16T09:08:53.05Z</time>
      </trkpt>
      <trkpt lat="43.88314" lon="7.50445">
        <ele>344</ele>
        <time>2018-09-16T09:08:57.05Z</time>
      </trkpt>
      <trkpt lat="43.88304" lon="7.50438">
        <ele>342</ele>
        <time>2018-09-16T09:09:02.05Z</time>
      </trkpt>
      <trkpt lat="43.88294" lon="7.50429">
        <ele>342</ele>
        <time>2018-09-16T09:09:07.05Z</time>
      </trkpt>
      <trkpt lat="43.88287" lon="7.50418">
        <ele>343</ele>
        <time>2018-09-16T09:09:12.05Z</time>
      </trkpt>
      <trkpt lat="43.88278" lon="7.5041">
        <ele>343</ele>
        <time>2018-09-16T09:09:20.05Z</time>
      </trkpt>
      <trkpt lat="43.88268" lon="7.50408">
        <ele>347.2</ele>
        <time>2018-09-16T09:09:31.05Z</time>
      </trkpt>
      <trkpt lat="43.88257" lon="7.50406">
        <ele>350</ele>
        <time>2018-09-16T09:09:43.05Z</time>
      </trkpt>
      <trkpt lat="43.88264" lon="7.50396">
        <ele>352</ele>
        <time>2018-09-16T09:09:55.05Z</time>
      </trkpt>
      <trkpt lat="43.88255" lon="7.50393">
        <ele>356</ele>
        <time>2018-09-16T09:10:16.05Z</time>
      </trkpt>
      <trkpt lat="43.88248" lon="7.50382">
        <ele>365</ele>
        <time>2018-09-16T09:10:43.05Z</time>
      </trkpt>
      <trkpt lat="43.88237" lon="7.50383">
        <ele>366</ele>
        <time>2018-09-16T09:10:54.05Z</time>
      </trkpt>
      <trkpt lat="43.88228" lon="7.50375">
        <ele>367.44</ele>
        <time>2018-09-16T09:11:01.05Z</time>
      </trkpt>
      <trkpt lat="43.88221" lon="7.50363">
        <ele>369</ele>
        <time>2018-09-16T09:11:07.05Z</time>
      </trkpt>
      <trkpt lat="43.88214" lon="7.50352">
        <ele>368</ele>
        <time>2018-09-16T09:11:14.05Z</time>
      </trkpt>
      <trkpt lat="43.88214" lon="7.50339">
        <ele>368</ele>
        <time>2018-09-16T09:11:21.05Z</time>
      </trkpt>
      <trkpt lat="43.88214" lon="7.50322">
        <ele>366</ele>
        <time>2018-09-16T09:11:27.05Z</time>
      </trkpt>
      <trkpt lat="43.88218" lon="7.5031">
        <ele>365.5</ele>
        <time>2018-09-16T09:11:31.05Z</time>
      </trkpt>
      <trkpt lat="43.8822" lon="7.50294">
        <ele>363</ele>
        <time>2018-09-16T09:11:36.05Z</time>
      </trkpt>
      <trkpt lat="43.88221" lon="7.50279">
        <ele>363</ele>
        <time>2018-09-16T09:11:40.05Z</time>
      </trkpt>
      <trkpt lat="43.88223" lon="7.50264">
        <ele>359</ele>
        <time>2018-09-16T09:11:45.05Z</time>
      </trkpt>
      <trkpt lat="43.88227" lon="7.5025">
        <ele>357</ele>
        <time>2018-09-16T09:11:50.05Z</time>
      </trkpt>
      <trkpt lat="43.88235" lon="7.50239">
        <ele>357</ele>
        <time>2018-09-16T09:11:55.05Z</time>
      </trkpt>
      <trkpt lat="43.88232" lon="7.50224">
        <ele>357</ele>
        <time>2018-09-16T09:12:00.05Z</time>
      </trkpt>
      <trkpt lat="43.88232" lon="7.50208">
        <ele>355</ele>
        <time>2018-09-16T09:12:04.05Z</time>
      </trkpt>
      <trkpt lat="43.8823" lon="7.50194">
        <ele>354</ele>
        <time>2018-09-16T09:12:08.05Z</time>
      </trkpt>
      <trkpt lat="43.88228" lon="7.50177">
        <ele>352</ele>
        <time>2018-09-16T09:12:13.05Z</time>
      </trkpt>
      <trkpt lat="43.88229" lon="7.50163">
        <ele>351.5</ele>
        <time>2018-09-16T09:12:17.05Z</time>
      </trkpt>
      <trkpt lat="43.88231" lon="7.50157">
        <ele>349</ele>
        <time>2018-09-16T09:12:19.05Z</time>
      </trkpt>
      <trkpt lat="43.88232" lon="7.50151">
        <ele>349</ele>
        <time>2018-09-16T09:12:21.05Z</time>
      </trkpt>
      <trkpt lat="43.88234" lon="7.50145">
        <ele>349</ele>
        <time>2018-09-16T09:12:23.05Z</time>
      </trkpt>
      <trkpt lat="43.88236" lon="7.50139">
        <ele>349</ele>
        <time>2018-09-16T09:12:25.05Z</time>
      </trkpt>
      <trkpt lat="43.88242" lon="7.5013">
        <ele>349</ele>
        <time>2018-09-16T09:12:29.05Z</time>
      </trkpt>
      <trkpt lat="43.88249" lon="7.50119">
        <ele>348</ele>
        <time>2018-09-16T09:12:33.05Z</time>
      </trkpt>
      <trkpt lat="43.88256" lon="7.50109">
        <ele>347</ele>
        <time>2018-09-16T09:12:37.05Z</time>
      </trkpt>
      <trkpt lat="43.88263" lon="7.501">
        <ele>346.22</ele>
        <time>2018-09-16T09:12:41.05Z</time>
      </trkpt>
      <trkpt lat="43.8827" lon="7.50096">
        <ele>344</ele>
        <time>2018-09-16T09:12:44.05Z</time>
      </trkpt>
      <trkpt lat="43.88274" lon="7.50095">
        <ele>344</ele>
        <time>2018-09-16T09:12:46.05Z</time>
      </trkpt>
      <trkpt lat="43.88278" lon="7.50093">
        <ele>343</ele>
        <time>2018-09-16T09:12:48.05Z</time>
      </trkpt>
      <trkpt lat="43.88282" lon="7.50091">
        <ele>343</ele>
        <time>2018-09-16T09:12:50.05Z</time>
      </trkpt>
      <trkpt lat="43.88286" lon="7.50088">
        <ele>343.25</ele>
        <time>2018-09-16T09:12:52.05Z</time>
      </trkpt>
      <trkpt lat="43.88293" lon="7.50075">
        <ele>344</ele>
        <time>2018-09-16T09:12:57.05Z</time>
      </trkpt>
      <trkpt lat="43.88298" lon="7.50062">
        <ele>344</ele>
        <time>2018-09-16T09:13:02.05Z</time>
      </trkpt>
      <trkpt lat="43.88304" lon="7.5005">
        <ele>346</ele>
        <time>2018-09-16T09:13:16.05Z</time>
      </trkpt>
      <trkpt lat="43.88306" lon="7.50036">
        <ele>349</ele>
        <time>2018-09-16T09:13:21.05Z</time>
      </trkpt>
      <trkpt lat="43.88308" lon="7.50021">
        <ele>348.85</ele>
        <time>2018-09-16T09:13:27.05Z</time>
      </trkpt>
      <trkpt lat="43.88314" lon="7.50009">
        <ele>348</ele>
        <time>2018-09-16T09:13:32.05Z</time>
      </trkpt>
      <trkpt lat="43.88321" lon="7.49998">
        <ele>349</ele>
        <time>2018-09-16T09:13:38.05Z</time>
      </trkpt>
      <trkpt lat="43.88325" lon="7.49983">
        <ele>349</ele>
        <time>2018-09-16T09:13:43.05Z</time>
      </trkpt>
      <trkpt lat="43.88329" lon="7.49971">
        <ele>349</ele>
        <time>2018-09-16T09:13:47.05Z</time>
      </trkpt>
      <trkpt lat="43.88332" lon="7.49959">
        <ele>349</ele>
        <time>2018-09-16T09:13:51.05Z</time>
      </trkpt>
      <trkpt lat="43.88333" lon="7.49952">
        <ele>349</ele>
        <time>2018-09-16T09:13:54.05Z</time>
      </trkpt>
      <trkpt lat="43.88337" lon="7.49941">
        <ele>348.29</ele>
        <time>2018-09-16T09:13:58.05Z</time>
      </trkpt>
      <trkpt lat="43.8834" lon="7.49932">
        <ele>345</ele>
        <time>2018-09-16T09:14:01.05Z</time>
      </trkpt>
      <trkpt lat="43.88343" lon="7.49921">
        <ele>343</ele>
        <time>2018-09-16T09:14:04.05Z</time>
      </trkpt>
      <trkpt lat="43.88347" lon="7.49913">
        <ele>343</ele>
        <time>2018-09-16T09:14:07.05Z</time>
      </trkpt>
      <trkpt lat="43.8835" lon="7.49904">
        <ele>343</ele>
        <time>2018-09-16T09:14:11.05Z</time>
      </trkpt>
      <trkpt lat="43.88352" lon="7.49893">
        <ele>339</ele>
        <time>2018-09-16T09:14:16.05Z</time>
      </trkpt>
      <trkpt lat="43.88356" lon="7.49884">
        <ele>338</ele>
        <time>2018-09-16T09:14:19.05Z</time>
      </trkpt>
      <trkpt lat="43.88361" lon="7.49876">
        <ele>336</ele>
        <time>2018-09-16T09:14:22.05Z</time>
      </trkpt>
      <trkpt lat="43.88365" lon="7.49869">
        <ele>335</ele>
        <time>2018-09-16T09:14:25.05Z</time>
      </trkpt>
      <trkpt lat="43.88369" lon="7.49859">
        <ele>334</ele>
        <time>2018-09-16T09:14:29.05Z</time>
      </trkpt>
      <trkpt lat="43.88372" lon="7.49851">
        <ele>334</ele>
        <time>2018-09-16T09:14:32.05Z</time>
      </trkpt>
      <trkpt lat="43.88376" lon="7.49844">
        <ele>333</ele>
        <time>2018-09-16T09:14:35.05Z</time>
      </trkpt>
      <trkpt lat="43.88381" lon="7.49837">
        <ele>333</ele>
        <time>2018-09-16T09:14:38.05Z</time>
      </trkpt>
      <trkpt lat="43.88386" lon="7.49832">
        <ele>333</ele>
        <time>2018-09-16T09:14:41.05Z</time>
      </trkpt>
      <trkpt lat="43.88391" lon="7.49826">
        <ele>330</ele>
        <time>2018-09-16T09:14:44.05Z</time>
      </trkpt>
      <trkpt lat="43.88395" lon="7.4982">
        <ele>330</ele>
        <time>2018-09-16T09:14:47.05Z</time>
      </trkpt>
      <trkpt lat="43.88399" lon="7.49817">
        <ele>327</ele>
        <time>2018-09-16T09:14:50.05Z</time>
      </trkpt>
      <trkpt lat="43.88403" lon="7.49813">
        <ele>325.96</ele>
        <time>2018-09-16T09:14:53.05Z</time>
      </trkpt>
      <trkpt lat="43.88407" lon="7.49811">
        <ele>321.26</ele>
        <time>2018-09-16T09:14:56.05Z</time>
      </trkpt>
      <trkpt lat="43.88412" lon="7.49806">
        <ele>320.26</ele>
        <time>2018-09-16T09:14:59.05Z</time>
      </trkpt>
      <trkpt lat="43.88417" lon="7.498">
        <ele>320</ele>
        <time>2018-09-16T09:15:02.05Z</time>
      </trkpt>
      <trkpt lat="43.88421" lon="7.49788">
        <ele>321</ele>
        <time>2018-09-16T09:15:07.05Z</time>
      </trkpt>
      <trkpt lat="43.88427" lon="7.49776">
        <ele>319</ele>
        <time>2018-09-16T09:15:12.05Z</time>
      </trkpt>
      <trkpt lat="43.88437" lon="7.49766">
        <ele>318</ele>
        <time>2018-09-16T09:15:17.05Z</time>
      </trkpt>
      <trkpt lat="43.88445" lon="7.49759">
        <ele>317</ele>
        <time>2018-09-16T09:15:21.05Z</time>
      </trkpt>
      <trkpt lat="43.88454" lon="7.49751">
        <ele>315</ele>
        <time>2018-09-16T09:15:27.05Z</time>
      </trkpt>
      <trkpt lat="43.88461" lon="7.49741">
        <ele>313</ele>
        <time>2018-09-16T09:15:31.05Z</time>
      </trkpt>
      <trkpt lat="43.88469" lon="7.4973">
        <ele>311</ele>
        <time>2018-09-16T09:15:36.05Z</time>
      </trkpt>
      <trkpt lat="43.88478" lon="7.49722">
        <ele>311</ele>
        <time>2018-09-16T09:15:41.05Z</time>
      </trkpt>
      <trkpt lat="43.88488" lon="7.49715">
        <ele>311</ele>
        <time>2018-09-16T09:15:46.05Z</time>
      </trkpt>
      <trkpt lat="43.88495" lon="7.49703">
        <ele>311</ele>
        <time>2018-09-16T09:15:51.05Z</time>
      </trkpt>
      <trkpt lat="43.88501" lon="7.4969">
        <ele>311</ele>
        <time>2018-09-16T09:15:56.05Z</time>
      </trkpt>
      <trkpt lat="43.88505" lon="7.49678">
        <ele>311</ele>
        <time>2018-09-16T09:16:00.05Z</time>
      </trkpt>
      <trkpt lat="43.8851" lon="7.49666">
        <ele>311</ele>
        <time>2018-09-16T09:16:04.05Z</time>
      </trkpt>
      <trkpt lat="43.88515" lon="7.49656">
        <ele>311</ele>
        <time>2018-09-16T09:16:07.05Z</time>
      </trkpt>
      <trkpt lat="43.8852" lon="7.49646">
        <ele>311</ele>
        <time>2018-09-16T09:16:10.05Z</time>
      </trkpt>
      <trkpt lat="43.88524" lon="7.49635">
        <ele>308</ele>
        <time>2018-09-16T09:16:13.05Z</time>
      </trkpt>
      <trkpt lat="43.8853" lon="7.49623">
        <ele>308</ele>
        <time>2018-09-16T09:16:17.05Z</time>
      </trkpt>
      <trkpt lat="43.88534" lon="7.4961">
        <ele>308</ele>
        <time>2018-09-16T09:16:22.05Z</time>
      </trkpt>
      <trkpt lat="43.88538" lon="7.49596">
        <ele>308</ele>
        <time>2018-09-16T09:16:26.05Z</time>
      </trkpt>
      <trkpt lat="43.88543" lon="7.49585">
        <ele>308</ele>
        <time>2018-09-16T09:16:30.05Z</time>
      </trkpt>
      <trkpt lat="43.88548" lon="7.49574">
        <ele>304</ele>
        <time>2018-09-16T09:16:34.05Z</time>
      </trkpt>
      <trkpt lat="43.88553" lon="7.4956">
        <ele>303</ele>
        <time>2018-09-16T09:16:39.05Z</time>
      </trkpt>
      <trkpt lat="43.8856" lon="7.49549">
        <ele>301</ele>
        <time>2018-09-16T09:16:43.05Z</time>
      </trkpt>
      <trkpt lat="43.88569" lon="7.49542">
        <ele>298</ele>
        <time>2018-09-16T09:16:48.05Z</time>
      </trkpt>
      <trkpt lat="43.8858" lon="7.49539">
        <ele>294.74</ele>
        <time>2018-09-16T09:16:53.05Z</time>
      </trkpt>
      <trkpt lat="43.88589" lon="7.49532">
        <ele>294.48</ele>
        <time>2018-09-16T09:16:57.05Z</time>
      </trkpt>
      <trkpt lat="43.88597" lon="7.49523">
        <ele>292</ele>
        <time>2018-09-16T09:17:01.05Z</time>
      </trkpt>
      <trkpt lat="43.88604" lon="7.49514">
        <ele>292</ele>
        <time>2018-09-16T09:17:05.05Z</time>
      </trkpt>
      <trkpt lat="43.8861" lon="7.49501">
        <ele>293.26</ele>
        <time>2018-09-16T09:17:11.05Z</time>
      </trkpt>
      <trkpt lat="43.88614" lon="7.49485">
        <ele>294</ele>
        <time>2018-09-16T09:17:17.05Z</time>
      </trkpt>
      <trkpt lat="43.88616" lon="7.49472">
        <ele>294</ele>
        <time>2018-09-16T09:17:22.05Z</time>
      </trkpt>
      <trkpt lat="43.88619" lon="7.49457">
        <ele>294</ele>
        <time>2018-09-16T09:17:28.05Z</time>
      </trkpt>
      <trkpt lat="43.88621" lon="7.49444">
        <ele>294</ele>
        <time>2018-09-16T09:17:33.05Z</time>
      </trkpt>
      <trkpt lat="43.88625" lon="7.49431">
        <ele>294</ele>
        <time>2018-09-16T09:17:37.05Z</time>
      </trkpt>
      <trkpt lat="43.88633" lon="7.49421">
        <ele>294</ele>
        <time>2018-09-16T09:17:42.05Z</time>
      </trkpt>
      <trkpt lat="43.88641" lon="7.49411">
        <ele>294</ele>
        <time>2018-09-16T09:17:46.05Z</time>
      </trkpt>
      <trkpt lat="43.88647" lon="7.49401">
        <ele>294</ele>
        <time>2018-09-16T09:17:50.05Z</time>
      </trkpt>
      <trkpt lat="43.88654" lon="7.49389">
        <ele>295</ele>
        <time>2018-09-16T09:17:55.05Z</time>
      </trkpt>
      <trkpt lat="43.88662" lon="7.4938">
        <ele>295</ele>
        <time>2018-09-16T09:17:59.05Z</time>
      </trkpt>
      <trkpt lat="43.88669" lon="7.49369">
        <ele>295</ele>
        <time>2018-09-16T09:18:04.05Z</time>
      </trkpt>
      <trkpt lat="43.88677" lon="7.49361">
        <ele>295</ele>
        <time>2018-09-16T09:18:08.05Z</time>
      </trkpt>
      <trkpt lat="43.88686" lon="7.49356">
        <ele>295</ele>
        <time>2018-09-16T09:18:12.05Z</time>
      </trkpt>
      <trkpt lat="43.88696" lon="7.4935">
        <ele>295</ele>
        <time>2018-09-16T09:18:17.05Z</time>
      </trkpt>
      <trkpt lat="43.88705" lon="7.49338">
        <ele>295</ele>
        <time>2018-09-16T09:18:22.05Z</time>
      </trkpt>
      <trkpt lat="43.88711" lon="7.49329">
        <ele>295</ele>
        <time>2018-09-16T09:18:26.05Z</time>
      </trkpt>
      <trkpt lat="43.88715" lon="7.49322">
        <ele>295</ele>
        <time>2018-09-16T09:18:31.05Z</time>
      </trkpt>
      <trkpt lat="43.88717" lon="7.49317">
        <ele>295</ele>
        <time>2018-09-16T09:18:35.05Z</time>
      </trkpt>
      <trkpt lat="43.88719" lon="7.49308">
        <ele>295</ele>
        <time>2018-09-16T09:18:40.05Z</time>
      </trkpt>
      <trkpt lat="43.88721" lon="7.49303">
        <ele>298</ele>
        <time>2018-09-16T09:18:45.05Z</time>
      </trkpt>
      <trkpt lat="43.88726" lon="7.49294">
        <ele>302</ele>
        <time>2018-09-16T09:18:52.05Z</time>
      </trkpt>
      <trkpt lat="43.88729" lon="7.49289">
        <ele>302.26</ele>
        <time>2018-09-16T09:18:56.05Z</time>
      </trkpt>
      <trkpt lat="43.88736" lon="7.49278">
        <ele>306</ele>
        <time>2018-09-16T09:19:05.05Z</time>
      </trkpt>
      <trkpt lat="43.88739" lon="7.49275">
        <ele>306</ele>
        <time>2018-09-16T09:19:09.05Z</time>
      </trkpt>
      <trkpt lat="43.88742" lon="7.4927">
        <ele>306</ele>
        <time>2018-09-16T09:19:12.05Z</time>
      </trkpt>
      <trkpt lat="43.88747" lon="7.49259">
        <ele>305</ele>
        <time>2018-09-16T09:19:18.05Z</time>
      </trkpt>
      <trkpt lat="43.88749" lon="7.49254">
        <ele>307</ele>
        <time>2018-09-16T09:19:22.05Z</time>
      </trkpt>
      <trkpt lat="43.8875" lon="7.49248">
        <ele>307</ele>
        <time>2018-09-16T09:19:24.05Z</time>
      </trkpt>
      <trkpt lat="43.88752" lon="7.49243">
        <ele>307</ele>
        <time>2018-09-16T09:19:26.05Z</time>
      </trkpt>
      <trkpt lat="43.88755" lon="7.49238">
        <ele>307</ele>
        <time>2018-09-16T09:19:28.05Z</time>
      </trkpt>
      <trkpt lat="43.8876" lon="7.49229">
        <ele>306</ele>
        <time>2018-09-16T09:19:32.05Z</time>
      </trkpt>
      <trkpt lat="43.88761" lon="7.49222">
        <ele>306</ele>
        <time>2018-09-16T09:19:35.05Z</time>
      </trkpt>
      <trkpt lat="43.88763" lon="7.49215">
        <ele>306</ele>
        <time>2018-09-16T09:19:38.05Z</time>
      </trkpt>
      <trkpt lat="43.88764" lon="7.49207">
        <ele>306</ele>
        <time>2018-09-16T09:19:41.05Z</time>
      </trkpt>
      <trkpt lat="43.88764" lon="7.49202">
        <ele>306</ele>
        <time>2018-09-16T09:19:43.05Z</time>
      </trkpt>
      <trkpt lat="43.88766" lon="7.49195">
        <ele>306</ele>
        <time>2018-09-16T09:19:46.05Z</time>
      </trkpt>
      <trkpt lat="43.88768" lon="7.49186">
        <ele>307</ele>
        <time>2018-09-16T09:19:55.05Z</time>
      </trkpt>
      <trkpt lat="43.88766" lon="7.49173">
        <ele>307</ele>
        <time>2018-09-16T09:20:03.05Z</time>
      </trkpt>
      <trkpt lat="43.88767" lon="7.49166">
        <ele>307</ele>
        <time>2018-09-16T09:20:07.05Z</time>
      </trkpt>
      <trkpt lat="43.88766" lon="7.49153">
        <ele>311</ele>
        <time>2018-09-16T09:20:15.05Z</time>
      </trkpt>
      <trkpt lat="43.88764" lon="7.4914">
        <ele>312</ele>
        <time>2018-09-16T09:20:25.05Z</time>
      </trkpt>
      <trkpt lat="43.88762" lon="7.49125">
        <ele>316</ele>
        <time>2018-09-16T09:20:32.05Z</time>
      </trkpt>
      <trkpt lat="43.88762" lon="7.4911">
        <ele>317</ele>
        <time>2018-09-16T09:20:38.05Z</time>
      </trkpt>
      <trkpt lat="43.88759" lon="7.49096">
        <ele>317</ele>
        <time>2018-09-16T09:20:43.05Z</time>
      </trkpt>
      <trkpt lat="43.88754" lon="7.4908">
        <ele>317</ele>
        <time>2018-09-16T09:20:48.05Z</time>
      </trkpt>
      <trkpt lat="43.88748" lon="7.49067">
        <ele>315</ele>
        <time>2018-09-16T09:20:53.05Z</time>
      </trkpt>
      <trkpt lat="43.88739" lon="7.49055">
        <ele>315</ele>
        <time>2018-09-16T09:20:58.05Z</time>
      </trkpt>
      <trkpt lat="43.88733" lon="7.49043">
        <ele>313</ele>
        <time>2018-09-16T09:21:02.05Z</time>
      </trkpt>
      <trkpt lat="43.8873" lon="7.49029">
        <ele>313</ele>
        <time>2018-09-16T09:21:06.05Z</time>
      </trkpt>
      <trkpt lat="43.88728" lon="7.49015">
        <ele>313</ele>
        <time>2018-09-16T09:21:11.05Z</time>
      </trkpt>
      <trkpt lat="43.88724" lon="7.49004">
        <ele>313</ele>
        <time>2018-09-16T09:21:15.05Z</time>
      </trkpt>
      <trkpt lat="43.88723" lon="7.4899">
        <ele>313.52</ele>
        <time>2018-09-16T09:21:21.05Z</time>
      </trkpt>
      <trkpt lat="43.88726" lon="7.48976">
        <ele>315</ele>
        <time>2018-09-16T09:21:29.05Z</time>
      </trkpt>
      <trkpt lat="43.88724" lon="7.48963">
        <ele>316</ele>
        <time>2018-09-16T09:21:37.05Z</time>
      </trkpt>
      <trkpt lat="43.88723" lon="7.48949">
        <ele>318</ele>
        <time>2018-09-16T09:21:44.05Z</time>
      </trkpt>
      <trkpt lat="43.88724" lon="7.48935">
        <ele>318.78</ele>
        <time>2018-09-16T09:21:51.05Z</time>
      </trkpt>
      <trkpt lat="43.88725" lon="7.48922">
        <ele>322</ele>
        <time>2018-09-16T09:21:58.05Z</time>
      </trkpt>
      <trkpt lat="43.88726" lon="7.48911">
        <ele>323</ele>
        <time>2018-09-16T09:22:05.05Z</time>
      </trkpt>
      <trkpt lat="43.88726" lon="7.48896">
        <ele>325</ele>
        <time>2018-09-16T09:22:13.05Z</time>
      </trkpt>
      <trkpt lat="43.88728" lon="7.48884">
        <ele>325</ele>
        <time>2018-09-16T09:22:20.05Z</time>
      </trkpt>
      <trkpt lat="43.88729" lon="7.48874">
        <ele>326</ele>
        <time>2018-09-16T09:22:26.05Z</time>
      </trkpt>
      <trkpt lat="43.88732" lon="7.48863">
        <ele>326.52</ele>
        <time>2018-09-16T09:22:31.05Z</time>
      </trkpt>
      <trkpt lat="43.88738" lon="7.48854">
        <ele>328</ele>
        <time>2018-09-16T09:22:35.05Z</time>
      </trkpt>
      <trkpt lat="43.88747" lon="7.4885">
        <ele>328</ele>
        <time>2018-09-16T09:22:39.05Z</time>
      </trkpt>
      <trkpt lat="43.88755" lon="7.48843">
        <ele>327</ele>
        <time>2018-09-16T09:22:44.05Z</time>
      </trkpt>
      <trkpt lat="43.88764" lon="7.48836">
        <ele>327</ele>
        <time>2018-09-16T09:22:49.05Z</time>
      </trkpt>
      <trkpt lat="43.88775" lon="7.4883">
        <ele>325</ele>
        <time>2018-09-16T09:22:54.05Z</time>
      </trkpt>
      <trkpt lat="43.88784" lon="7.48824">
        <ele>323</ele>
        <time>2018-09-16T09:23:00.05Z</time>
      </trkpt>
      <trkpt lat="43.88794" lon="7.48819">
        <ele>319</ele>
        <time>2018-09-16T09:23:06.05Z</time>
      </trkpt>
      <trkpt lat="43.88801" lon="7.48807">
        <ele>318.26</ele>
        <time>2018-09-16T09:23:10.05Z</time>
      </trkpt>
      <trkpt lat="43.88809" lon="7.48795">
        <ele>318</ele>
        <time>2018-09-16T09:23:15.05Z</time>
      </trkpt>
      <trkpt lat="43.88802" lon="7.48785">
        <ele>319</ele>
        <time>2018-09-16T09:23:23.05Z</time>
      </trkpt>
      <trkpt lat="43.88791" lon="7.48784">
        <ele>319</ele>
        <time>2018-09-16T09:23:30.05Z</time>
      </trkpt>
      <trkpt lat="43.88781" lon="7.4878">
        <ele>320</ele>
        <time>2018-09-16T09:23:40.05Z</time>
      </trkpt>
      <trkpt lat="43.88777" lon="7.48777">
        <ele>322</ele>
        <time>2018-09-16T09:23:44.05Z</time>
      </trkpt>
      <trkpt lat="43.88774" lon="7.48774">
        <ele>322</ele>
        <time>2018-09-16T09:23:48.05Z</time>
      </trkpt>
      <trkpt lat="43.88772" lon="7.4877">
        <ele>322.78</ele>
        <time>2018-09-16T09:23:51.05Z</time>
      </trkpt>
      <trkpt lat="43.88771" lon="7.48766">
        <ele>325</ele>
        <time>2018-09-16T09:23:54.05Z</time>
      </trkpt>
      <trkpt lat="43.88769" lon="7.48763">
        <ele>326</ele>
        <time>2018-09-16T09:23:57.05Z</time>
      </trkpt>
      <trkpt lat="43.88765" lon="7.48758">
        <ele>328</ele>
        <time>2018-09-16T09:24:02.05Z</time>
      </trkpt>
      <trkpt lat="43.88763" lon="7.48755">
        <ele>328.26</ele>
        <time>2018-09-16T09:24:06.05Z</time>
      </trkpt>
      <trkpt lat="43.88757" lon="7.48751">
        <ele>330.74</ele>
        <time>2018-09-16T09:24:12.05Z</time>
      </trkpt>
      <trkpt lat="43.88751" lon="7.48746">
        <ele>331</ele>
        <time>2018-09-16T09:24:17.05Z</time>
      </trkpt>
      <trkpt lat="43.88745" lon="7.48742">
        <ele>332</ele>
        <time>2018-09-16T09:24:23.05Z</time>
      </trkpt>
      <trkpt lat="43.88738" lon="7.48737">
        <ele>332</ele>
        <time>2018-09-16T09:24:29.05Z</time>
      </trkpt>
      <trkpt lat="43.88733" lon="7.48735">
        <ele>334</ele>
        <time>2018-09-16T09:24:33.05Z</time>
      </trkpt>
      <trkpt lat="43.88728" lon="7.48733">
        <ele>334</ele>
        <time>2018-09-16T09:24:37.05Z</time>
      </trkpt>
      <trkpt lat="43.88721" lon="7.48729">
        <ele>336</ele>
        <time>2018-09-16T09:24:43.05Z</time>
      </trkpt>
      <trkpt lat="43.88714" lon="7.48727">
        <ele>337</ele>
        <time>2018-09-16T09:24:48.05Z</time>
      </trkpt>
      <trkpt lat="43.88708" lon="7.4872">
        <ele>338</ele>
        <time>2018-09-16T09:24:54.05Z</time>
      </trkpt>
      <trkpt lat="43.88703" lon="7.48709">
        <ele>338.52</ele>
        <time>2018-09-16T09:25:01.05Z</time>
      </trkpt>
      <trkpt lat="43.88699" lon="7.487">
        <ele>340</ele>
        <time>2018-09-16T09:25:07.05Z</time>
      </trkpt>
      <trkpt lat="43.88696" lon="7.48689">
        <ele>341</ele>
        <time>2018-09-16T09:25:14.05Z</time>
      </trkpt>
      <trkpt lat="43.88692" lon="7.48675">
        <ele>342</ele>
        <time>2018-09-16T09:25:22.05Z</time>
      </trkpt>
      <trkpt lat="43.88691" lon="7.48661">
        <ele>342</ele>
        <time>2018-09-16T09:25:30.05Z</time>
      </trkpt>
      <trkpt lat="43.8869" lon="7.48647">
        <ele>344</ele>
        <time>2018-09-16T09:25:38.05Z</time>
      </trkpt>
      <trkpt lat="43.88694" lon="7.48634">
        <ele>345</ele>
        <time>2018-09-16T09:25:46.05Z</time>
      </trkpt>
      <trkpt lat="43.88693" lon="7.48621">
        <ele>347</ele>
        <time>2018-09-16T09:25:57.05Z</time>
      </trkpt>
      <trkpt lat="43.8869" lon="7.48609">
        <ele>350</ele>
        <time>2018-09-16T09:26:03.05Z</time>
      </trkpt>
      <trkpt lat="43.88685" lon="7.48596">
        <ele>351</ele>
        <time>2018-09-16T09:26:10.05Z</time>
      </trkpt>
      <trkpt lat="43.88683" lon="7.48591">
        <ele>352</ele>
        <time>2018-09-16T09:26:13.05Z</time>
      </trkpt>
      <trkpt lat="43.8868" lon="7.48585">
        <ele>354</ele>
        <time>2018-09-16T09:26:17.05Z</time>
      </trkpt>
      <trkpt lat="43.88677" lon="7.48577">
        <ele>354</ele>
        <time>2018-09-16T09:26:22.05Z</time>
      </trkpt>
      <trkpt lat="43.88677" lon="7.48573">
        <ele>354</ele>
        <time>2018-09-16T09:26:24.05Z</time>
      </trkpt>
      <trkpt lat="43.88678" lon="7.48559">
        <ele>356</ele>
        <time>2018-09-16T09:26:32.05Z</time>
      </trkpt>
      <trkpt lat="43.88679" lon="7.48554">
        <ele>356</ele>
        <time>2018-09-16T09:26:36.05Z</time>
      </trkpt>
      <trkpt lat="43.88681" lon="7.48559">
        <ele>359</ele>
        <time>2018-09-16T09:26:42.05Z</time>
      </trkpt>
      <trkpt lat="43.88685" lon="7.48563">
        <ele>360</ele>
        <time>2018-09-16T09:26:48.05Z</time>
      </trkpt>
      <trkpt lat="43.88692" lon="7.48568">
        <ele>361</ele>
        <time>2018-09-16T09:26:54.05Z</time>
      </trkpt>
      <trkpt lat="43.88697" lon="7.48577">
        <ele>361</ele>
        <time>2018-09-16T09:27:00.05Z</time>
      </trkpt>
      <trkpt lat="43.88703" lon="7.48584">
        <ele>362</ele>
        <time>2018-09-16T09:27:06.05Z</time>
      </trkpt>
      <trkpt lat="43.88712" lon="7.48591">
        <ele>363</ele>
        <time>2018-09-16T09:27:17.05Z</time>
      </trkpt>
      <trkpt lat="43.88721" lon="7.486">
        <ele>368</ele>
        <time>2018-09-16T09:27:27.05Z</time>
      </trkpt>
      <trkpt lat="43.88729" lon="7.48608">
        <ele>370</ele>
        <time>2018-09-16T09:27:38.05Z</time>
      </trkpt>
      <trkpt lat="43.88738" lon="7.48615">
        <ele>372</ele>
        <time>2018-09-16T09:27:48.05Z</time>
      </trkpt>
      <trkpt lat="43.88747" lon="7.48623">
        <ele>373</ele>
        <time>2018-09-16T09:27:57.05Z</time>
      </trkpt>
      <trkpt lat="43.88756" lon="7.48628">
        <ele>373</ele>
        <time>2018-09-16T09:28:03.05Z</time>
      </trkpt>
      <trkpt lat="43.88764" lon="7.48638">
        <ele>373</ele>
        <time>2018-09-16T09:28:08.05Z</time>
      </trkpt>
      <trkpt lat="43.88772" lon="7.48645">
        <ele>371</ele>
        <time>2018-09-16T09:28:12.05Z</time>
      </trkpt>
      <trkpt lat="43.88782" lon="7.4865">
        <ele>371</ele>
        <time>2018-09-16T09:28:16.05Z</time>
      </trkpt>
      <trkpt lat="43.88793" lon="7.48646">
        <ele>370.48</ele>
        <time>2018-09-16T09:28:21.05Z</time>
      </trkpt>
      <trkpt lat="43.88804" lon="7.4864">
        <ele>368.48</ele>
        <time>2018-09-16T09:28:26.05Z</time>
      </trkpt>
      <trkpt lat="43.88815" lon="7.48638">
        <ele>366.48</ele>
        <time>2018-09-16T09:28:31.05Z</time>
      </trkpt>
      <trkpt lat="43.88827" lon="7.48639">
        <ele>365</ele>
        <time>2018-09-16T09:28:36.05Z</time>
      </trkpt>
      <trkpt lat="43.88839" lon="7.48641">
        <ele>365</ele>
        <time>2018-09-16T09:28:40.05Z</time>
      </trkpt>
      <trkpt lat="43.8885" lon="7.48644">
        <ele>364</ele>
        <time>2018-09-16T09:28:44.05Z</time>
      </trkpt>
      <trkpt lat="43.8886" lon="7.48647">
        <ele>364</ele>
        <time>2018-09-16T09:28:48.05Z</time>
      </trkpt>
      <trkpt lat="43.88871" lon="7.48651">
        <ele>364</ele>
        <time>2018-09-16T09:28:54.05Z</time>
      </trkpt>
      <trkpt lat="43.88882" lon="7.48653">
        <ele>364</ele>
        <time>2018-09-16T09:29:00.05Z</time>
      </trkpt>
      <trkpt lat="43.88895" lon="7.48651">
        <ele>361</ele>
        <time>2018-09-16T09:29:05.05Z</time>
      </trkpt>
      <trkpt lat="43.88905" lon="7.48647">
        <ele>361</ele>
        <time>2018-09-16T09:29:09.05Z</time>
      </trkpt>
      <trkpt lat="43.88916" lon="7.48639">
        <ele>360</ele>
        <time>2018-09-16T09:29:14.05Z</time>
      </trkpt>
      <trkpt lat="43.88924" lon="7.48629">
        <ele>360</ele>
        <time>2018-09-16T09:29:18.05Z</time>
      </trkpt>
      <trkpt lat="43.88934" lon="7.48619">
        <ele>362</ele>
        <time>2018-09-16T09:29:23.05Z</time>
      </trkpt>
      <trkpt lat="43.88944" lon="7.48612">
        <ele>362</ele>
        <time>2018-09-16T09:29:27.05Z</time>
      </trkpt>
      <trkpt lat="43.88954" lon="7.48605">
        <ele>361.74</ele>
        <time>2018-09-16T09:29:31.05Z</time>
      </trkpt>
      <trkpt lat="43.88963" lon="7.48599">
        <ele>361</ele>
        <time>2018-09-16T09:29:35.05Z</time>
      </trkpt>
      <trkpt lat="43.88971" lon="7.48593">
        <ele>361</ele>
        <time>2018-09-16T09:29:39.05Z</time>
      </trkpt>
      <trkpt lat="43.88974" lon="7.4859">
        <ele>360.74</ele>
        <time>2018-09-16T09:29:41.05Z</time>
      </trkpt>
      <trkpt lat="43.88981" lon="7.4858">
        <ele>360</ele>
        <time>2018-09-16T09:29:46.05Z</time>
      </trkpt>
      <trkpt lat="43.88993" lon="7.48576">
        <ele>358</ele>
        <time>2018-09-16T09:29:52.05Z</time>
      </trkpt>
      <trkpt lat="43.89004" lon="7.48568">
        <ele>354</ele>
        <time>2018-09-16T09:29:57.05Z</time>
      </trkpt>
      <trkpt lat="43.89013" lon="7.48561">
        <ele>354.26</ele>
        <time>2018-09-16T09:30:01.05Z</time>
      </trkpt>
      <trkpt lat="43.89021" lon="7.48553">
        <ele>355</ele>
        <time>2018-09-16T09:30:06.05Z</time>
      </trkpt>
      <trkpt lat="43.89031" lon="7.48544">
        <ele>355</ele>
        <time>2018-09-16T09:30:12.05Z</time>
      </trkpt>
      <trkpt lat="43.89042" lon="7.48541">
        <ele>355</ele>
        <time>2018-09-16T09:30:18.05Z</time>
      </trkpt>
      <trkpt lat="43.89052" lon="7.48537">
        <ele>355</ele>
        <time>2018-09-16T09:30:23.05Z</time>
      </trkpt>
      <trkpt lat="43.89063" lon="7.48532">
        <ele>355</ele>
        <time>2018-09-16T09:30:28.05Z</time>
      </trkpt>
      <trkpt lat="43.89073" lon="7.48529">
        <ele>354</ele>
        <time>2018-09-16T09:30:33.05Z</time>
      </trkpt>
      <trkpt lat="43.89084" lon="7.48526">
        <ele>354</ele>
        <time>2018-09-16T09:30:39.05Z</time>
      </trkpt>
      <trkpt lat="43.89096" lon="7.48523">
        <ele>351</ele>
        <time>2018-09-16T09:30:44.05Z</time>
      </trkpt>
      <trkpt lat="43.89106" lon="7.48521">
        <ele>350</ele>
        <time>2018-09-16T09:30:48.05Z</time>
      </trkpt>
      <trkpt lat="43.89117" lon="7.48514">
        <ele>351</ele>
        <time>2018-09-16T09:30:54.05Z</time>
      </trkpt>
      <trkpt lat="43.89126" lon="7.48506">
        <ele>351</ele>
        <time>2018-09-16T09:31:00.05Z</time>
      </trkpt>
      <trkpt lat="43.89134" lon="7.485">
        <ele>351</ele>
        <time>2018-09-16T09:31:06.05Z</time>
      </trkpt>
      <trkpt lat="43.89142" lon="7.48496">
        <ele>353</ele>
        <time>2018-09-16T09:31:12.05Z</time>
      </trkpt>
      <trkpt lat="43.89149" lon="7.4849">
        <ele>353</ele>
        <time>2018-09-16T09:31:19.05Z</time>
      </trkpt>
      <trkpt lat="43.89157" lon="7.48484">
        <ele>354</ele>
        <time>2018-09-16T09:31:25.05Z</time>
      </trkpt>
      <trkpt lat="43.89167" lon="7.48481">
        <ele>356</ele>
        <time>2018-09-16T09:31:33.05Z</time>
      </trkpt>
      <trkpt lat="43.89177" lon="7.48477">
        <ele>356</ele>
        <time>2018-09-16T09:31:40.05Z</time>
      </trkpt>
      <trkpt lat="43.89185" lon="7.4847">
        <ele>356</ele>
        <time>2018-09-16T09:31:49.05Z</time>
      </trkpt>
      <trkpt lat="43.89195" lon="7.48467">
        <ele>357</ele>
        <time>2018-09-16T09:31:57.05Z</time>
      </trkpt>
      <trkpt lat="43.89206" lon="7.48464">
        <ele>359</ele>
        <time>2018-09-16T09:32:03.05Z</time>
      </trkpt>
      <trkpt lat="43.89216" lon="7.48457">
        <ele>359</ele>
        <time>2018-09-16T09:32:08.05Z</time>
      </trkpt>
      <trkpt lat="43.89225" lon="7.48453">
        <ele>358</ele>
        <time>2018-09-16T09:32:13.05Z</time>
      </trkpt>
      <trkpt lat="43.89235" lon="7.48447">
        <ele>358</ele>
        <time>2018-09-16T09:32:18.05Z</time>
      </trkpt>
      <trkpt lat="43.89245" lon="7.48443">
        <ele>357</ele>
        <time>2018-09-16T09:32:23.05Z</time>
      </trkpt>
      <trkpt lat="43.89256" lon="7.48447">
        <ele>357</ele>
        <time>2018-09-16T09:32:29.05Z</time>
      </trkpt>
      <trkpt lat="43.89267" lon="7.48451">
        <ele>354</ele>
        <time>2018-09-16T09:32:34.05Z</time>
      </trkpt>
      <trkpt lat="43.89275" lon="7.48458">
        <ele>352</ele>
        <time>2018-09-16T09:32:39.05Z</time>
      </trkpt>
      <trkpt lat="43.89283" lon="7.48469">
        <ele>352</ele>
        <time>2018-09-16T09:32:45.05Z</time>
      </trkpt>
      <trkpt lat="43.89293" lon="7.48471">
        <ele>352.26</ele>
        <time>2018-09-16T09:32:51.05Z</time>
      </trkpt>
      <trkpt lat="43.89305" lon="7.48466">
        <ele>353</ele>
        <time>2018-09-16T09:32:56.05Z</time>
      </trkpt>
      <trkpt lat="43.89316" lon="7.48466">
        <ele>353</ele>
        <time>2018-09-16T09:33:02.05Z</time>
      </trkpt>
      <trkpt lat="43.89325" lon="7.48459">
        <ele>353</ele>
        <time>2018-09-16T09:33:07.05Z</time>
      </trkpt>
      <trkpt lat="43.89335" lon="7.48457">
        <ele>355</ele>
        <time>2018-09-16T09:33:16.05Z</time>
      </trkpt>
      <trkpt lat="43.89345" lon="7.48455">
        <ele>357</ele>
        <time>2018-09-16T09:33:22.05Z</time>
      </trkpt>
      <trkpt lat="43.89353" lon="7.48445">
        <ele>357</ele>
        <time>2018-09-16T09:33:27.05Z</time>
      </trkpt>
      <trkpt lat="43.89361" lon="7.48435">
        <ele>358</ele>
        <time>2018-09-16T09:33:36.05Z</time>
      </trkpt>
      <trkpt lat="43.89363" lon="7.4845">
        <ele>359</ele>
        <time>2018-09-16T09:33:50.05Z</time>
      </trkpt>
      <trkpt lat="43.89373" lon="7.48445">
        <ele>367</ele>
        <time>2018-09-16T09:34:14.05Z</time>
      </trkpt>
      <trkpt lat="43.89383" lon="7.4844">
        <ele>370.26</ele>
        <time>2018-09-16T09:34:26.05Z</time>
      </trkpt>
      <trkpt lat="43.89394" lon="7.48438">
        <ele>373</ele>
        <time>2018-09-16T09:34:38.05Z</time>
      </trkpt>
      <trkpt lat="43.89402" lon="7.48434">
        <ele>375</ele>
        <time>2018-09-16T09:34:45.05Z</time>
      </trkpt>
      <trkpt lat="43.89412" lon="7.48426">
        <ele>376</ele>
        <time>2018-09-16T09:34:53.05Z</time>
      </trkpt>
      <trkpt lat="43.89419" lon="7.48421">
        <ele>376</ele>
        <time>2018-09-16T09:35:01.05Z</time>
      </trkpt>
      <trkpt lat="43.89428" lon="7.48416">
        <ele>376</ele>
        <time>2018-09-16T09:35:08.05Z</time>
      </trkpt>
      <trkpt lat="43.89437" lon="7.4841">
        <ele>378</ele>
        <time>2018-09-16T09:35:13.05Z</time>
      </trkpt>
      <trkpt lat="43.89447" lon="7.48406">
        <ele>379</ele>
        <time>2018-09-16T09:35:19.05Z</time>
      </trkpt>
      <trkpt lat="43.89458" lon="7.48401">
        <ele>379</ele>
        <time>2018-09-16T09:35:26.05Z</time>
      </trkpt>
      <trkpt lat="43.89467" lon="7.48395">
        <ele>379</ele>
        <time>2018-09-16T09:35:31.05Z</time>
      </trkpt>
      <trkpt lat="43.89473" lon="7.4839">
        <ele>379</ele>
        <time>2018-09-16T09:35:34.05Z</time>
      </trkpt>
      <trkpt lat="43.89479" lon="7.48388">
        <ele>379</ele>
        <time>2018-09-16T09:35:37.05Z</time>
      </trkpt>
      <trkpt lat="43.89484" lon="7.48383">
        <ele>379</ele>
        <time>2018-09-16T09:35:40.05Z</time>
      </trkpt>
      <trkpt lat="43.89489" lon="7.48379">
        <ele>378</ele>
        <time>2018-09-16T09:35:44.05Z</time>
      </trkpt>
      <trkpt lat="43.89493" lon="7.48374">
        <ele>378</ele>
        <time>2018-09-16T09:35:50.05Z</time>
      </trkpt>
      <trkpt lat="43.89499" lon="7.48371">
        <ele>379</ele>
        <time>2018-09-16T09:35:55.05Z</time>
      </trkpt>
      <trkpt lat="43.89504" lon="7.48369">
        <ele>379</ele>
        <time>2018-09-16T09:36:00.05Z</time>
      </trkpt>
      <trkpt lat="43.89509" lon="7.48365">
        <ele>382</ele>
        <time>2018-09-16T09:36:04.05Z</time>
      </trkpt>
      <trkpt lat="43.89513" lon="7.48362">
        <ele>382</ele>
        <time>2018-09-16T09:36:08.05Z</time>
      </trkpt>
      <trkpt lat="43.89517" lon="7.48359">
        <ele>383</ele>
        <time>2018-09-16T09:36:12.05Z</time>
      </trkpt>
      <trkpt lat="43.89521" lon="7.48355">
        <ele>383</ele>
        <time>2018-09-16T09:36:15.05Z</time>
      </trkpt>
      <trkpt lat="43.89527" lon="7.4835">
        <ele>383</ele>
        <time>2018-09-16T09:36:18.05Z</time>
      </trkpt>
      <trkpt lat="43.89535" lon="7.48339">
        <ele>383</ele>
        <time>2018-09-16T09:36:23.05Z</time>
      </trkpt>
      <trkpt lat="43.89543" lon="7.48329">
        <ele>383</ele>
        <time>2018-09-16T09:36:28.05Z</time>
      </trkpt>
      <trkpt lat="43.89551" lon="7.48319">
        <ele>384</ele>
        <time>2018-09-16T09:36:38.05Z</time>
      </trkpt>
      <trkpt lat="43.89559" lon="7.48311">
        <ele>386</ele>
        <time>2018-09-16T09:36:48.05Z</time>
      </trkpt>
      <trkpt lat="43.89568" lon="7.483">
        <ele>388</ele>
        <time>2018-09-16T09:36:54.05Z</time>
      </trkpt>
      <trkpt lat="43.89576" lon="7.4829">
        <ele>388</ele>
        <time>2018-09-16T09:37:00.05Z</time>
      </trkpt>
      <trkpt lat="43.89581" lon="7.48276">
        <ele>390</ele>
        <time>2018-09-16T09:37:06.05Z</time>
      </trkpt>
      <trkpt lat="43.89587" lon="7.48262">
        <ele>389.74</ele>
        <time>2018-09-16T09:37:11.05Z</time>
      </trkpt>
      <trkpt lat="43.89597" lon="7.48254">
        <ele>389</ele>
        <time>2018-09-16T09:37:16.05Z</time>
      </trkpt>
      <trkpt lat="43.89608" lon="7.48248">
        <ele>389</ele>
        <time>2018-09-16T09:37:21.05Z</time>
      </trkpt>
      <trkpt lat="43.89618" lon="7.48246">
        <ele>389</ele>
        <time>2018-09-16T09:37:26.05Z</time>
      </trkpt>
      <trkpt lat="43.89628" lon="7.48242">
        <ele>389</ele>
        <time>2018-09-16T09:37:35.05Z</time>
      </trkpt>
      <trkpt lat="43.89639" lon="7.4824">
        <ele>390</ele>
        <time>2018-09-16T09:37:42.05Z</time>
      </trkpt>
      <trkpt lat="43.89649" lon="7.48237">
        <ele>390</ele>
        <time>2018-09-16T09:37:47.05Z</time>
      </trkpt>
      <trkpt lat="43.89659" lon="7.48232">
        <ele>391</ele>
        <time>2018-09-16T09:37:52.05Z</time>
      </trkpt>
      <trkpt lat="43.8967" lon="7.48229">
        <ele>391</ele>
        <time>2018-09-16T09:37:57.05Z</time>
      </trkpt>
      <trkpt lat="43.89679" lon="7.48226">
        <ele>392</ele>
        <time>2018-09-16T09:38:02.05Z</time>
      </trkpt>
      <trkpt lat="43.8969" lon="7.48225">
        <ele>392</ele>
        <time>2018-09-16T09:38:08.05Z</time>
      </trkpt>
      <trkpt lat="43.89701" lon="7.48223">
        <ele>394</ele>
        <time>2018-09-16T09:38:14.05Z</time>
      </trkpt>
      <trkpt lat="43.89713" lon="7.48223">
        <ele>394</ele>
        <time>2018-09-16T09:38:19.05Z</time>
      </trkpt>
      <trkpt lat="43.89723" lon="7.4822">
        <ele>395</ele>
        <time>2018-09-16T09:38:25.05Z</time>
      </trkpt>
      <trkpt lat="43.89733" lon="7.48224">
        <ele>396</ele>
        <time>2018-09-16T09:38:32.05Z</time>
      </trkpt>
      <trkpt lat="43.8974" lon="7.48234">
        <ele>396</ele>
        <time>2018-09-16T09:38:40.05Z</time>
      </trkpt>
      <trkpt lat="43.89749" lon="7.4824">
        <ele>401.26</ele>
        <time>2018-09-16T09:38:51.05Z</time>
      </trkpt>
      <trkpt lat="43.8976" lon="7.48241">
        <ele>404</ele>
        <time>2018-09-16T09:38:58.05Z</time>
      </trkpt>
      <trkpt lat="43.8977" lon="7.48242">
        <ele>403</ele>
        <time>2018-09-16T09:39:04.05Z</time>
      </trkpt>
      <trkpt lat="43.89781" lon="7.48243">
        <ele>403</ele>
        <time>2018-09-16T09:39:08.05Z</time>
      </trkpt>
      <trkpt lat="43.89791" lon="7.48238">
        <ele>402</ele>
        <time>2018-09-16T09:39:13.05Z</time>
      </trkpt>
      <trkpt lat="43.89802" lon="7.48237">
        <ele>402</ele>
        <time>2018-09-16T09:39:19.05Z</time>
      </trkpt>
      <trkpt lat="43.89807" lon="7.48222">
        <ele>397</ele>
        <time>2018-09-16T09:39:31.05Z</time>
      </trkpt>
      <trkpt lat="43.89812" lon="7.4821">
        <ele>397</ele>
        <time>2018-09-16T09:39:37.05Z</time>
      </trkpt>
      <trkpt lat="43.89817" lon="7.48198">
        <ele>397.26</ele>
        <time>2018-09-16T09:39:41.05Z</time>
      </trkpt>
      <trkpt lat="43.89822" lon="7.48186">
        <ele>398</ele>
        <time>2018-09-16T09:39:45.05Z</time>
      </trkpt>
      <trkpt lat="43.89825" lon="7.48178">
        <ele>398</ele>
        <time>2018-09-16T09:39:48.05Z</time>
      </trkpt>
      <trkpt lat="43.89831" lon="7.48166">
        <ele>399</ele>
        <time>2018-09-16T09:39:53.05Z</time>
      </trkpt>
      <trkpt lat="43.89838" lon="7.48155">
        <ele>399</ele>
        <time>2018-09-16T09:39:58.05Z</time>
      </trkpt>
      <trkpt lat="43.89842" lon="7.48151">
        <ele>401</ele>
        <time>2018-09-16T09:40:02.05Z</time>
      </trkpt>
      <trkpt lat="43.89845" lon="7.48145">
        <ele>401</ele>
        <time>2018-09-16T09:40:08.05Z</time>
      </trkpt>
      <trkpt lat="43.89852" lon="7.48135">
        <ele>403</ele>
        <time>2018-09-16T09:40:18.05Z</time>
      </trkpt>
      <trkpt lat="43.8986" lon="7.48125">
        <ele>405</ele>
        <time>2018-09-16T09:40:27.05Z</time>
      </trkpt>
      <trkpt lat="43.89871" lon="7.48124">
        <ele>409</ele>
        <time>2018-09-16T09:40:40.05Z</time>
      </trkpt>
      <trkpt lat="43.89882" lon="7.48124">
        <ele>413.26</ele>
        <time>2018-09-16T09:40:51.05Z</time>
      </trkpt>
      <trkpt lat="43.89892" lon="7.4812">
        <ele>414</ele>
        <time>2018-09-16T09:40:56.05Z</time>
      </trkpt>
      <trkpt lat="43.89903" lon="7.48119">
        <ele>414</ele>
        <time>2018-09-16T09:41:00.05Z</time>
      </trkpt>
      <trkpt lat="43.89914" lon="7.48121">
        <ele>414</ele>
        <time>2018-09-16T09:41:06.05Z</time>
      </trkpt>
      <trkpt lat="43.89925" lon="7.48124">
        <ele>415</ele>
        <time>2018-09-16T09:41:13.05Z</time>
      </trkpt>
      <trkpt lat="43.89934" lon="7.48127">
        <ele>415</ele>
        <time>2018-09-16T09:41:18.05Z</time>
      </trkpt>
      <trkpt lat="43.89944" lon="7.4813">
        <ele>416</ele>
        <time>2018-09-16T09:41:22.05Z</time>
      </trkpt>
      <trkpt lat="43.89954" lon="7.48136">
        <ele>416</ele>
        <time>2018-09-16T09:41:27.05Z</time>
      </trkpt>
      <trkpt lat="43.89965" lon="7.4814">
        <ele>417</ele>
        <time>2018-09-16T09:41:33.05Z</time>
      </trkpt>
      <trkpt lat="43.89976" lon="7.48141">
        <ele>417</ele>
        <time>2018-09-16T09:41:38.05Z</time>
      </trkpt>
      <trkpt lat="43.89986" lon="7.48144">
        <ele>416</ele>
        <time>2018-09-16T09:41:43.05Z</time>
      </trkpt>
      <trkpt lat="43.89997" lon="7.48137">
        <ele>416</ele>
        <time>2018-09-16T09:41:49.05Z</time>
      </trkpt>
      <trkpt lat="43.90007" lon="7.4813">
        <ele>416</ele>
        <time>2018-09-16T09:41:55.05Z</time>
      </trkpt>
      <trkpt lat="43.90017" lon="7.48124">
        <ele>416</ele>
        <time>2018-09-16T09:42:00.05Z</time>
      </trkpt>
      <trkpt lat="43.90028" lon="7.48124">
        <ele>416</ele>
        <time>2018-09-16T09:42:05.05Z</time>
      </trkpt>
      <trkpt lat="43.90021" lon="7.48114">
        <ele>416</ele>
        <time>2018-09-16T09:42:27.05Z</time>
      </trkpt>
      <trkpt lat="43.90026" lon="7.48102">
        <ele>423</ele>
        <time>2018-09-16T09:42:44.05Z</time>
      </trkpt>
      <trkpt lat="43.90029" lon="7.48089">
        <ele>426</ele>
        <time>2018-09-16T09:42:55.05Z</time>
      </trkpt>
      <trkpt lat="43.90026" lon="7.48075">
        <ele>429</ele>
        <time>2018-09-16T09:43:02.05Z</time>
      </trkpt>
      <trkpt lat="43.90026" lon="7.48061">
        <ele>429</ele>
        <time>2018-09-16T09:43:07.05Z</time>
      </trkpt>
      <trkpt lat="43.90025" lon="7.48047">
        <ele>428</ele>
        <time>2018-09-16T09:43:13.05Z</time>
      </trkpt>
      <trkpt lat="43.90029" lon="7.48034">
        <ele>430</ele>
        <time>2018-09-16T09:43:22.05Z</time>
      </trkpt>
      <trkpt lat="43.90024" lon="7.48019">
        <ele>431</ele>
        <time>2018-09-16T09:43:32.05Z</time>
      </trkpt>
      <trkpt lat="43.90021" lon="7.48003">
        <ele>431</ele>
        <time>2018-09-16T09:43:38.05Z</time>
      </trkpt>
      <trkpt lat="43.90024" lon="7.47993">
        <ele>431</ele>
        <time>2018-09-16T09:43:43.05Z</time>
      </trkpt>
      <trkpt lat="43.90025" lon="7.47982">
        <ele>431</ele>
        <time>2018-09-16T09:43:50.05Z</time>
      </trkpt>
      <trkpt lat="43.90025" lon="7.47969">
        <ele>433</ele>
        <time>2018-09-16T09:43:57.05Z</time>
      </trkpt>
      <trkpt lat="43.90029" lon="7.47959">
        <ele>435</ele>
        <time>2018-09-16T09:44:02.05Z</time>
      </trkpt>
      <trkpt lat="43.90031" lon="7.47949">
        <ele>435</ele>
        <time>2018-09-16T09:44:08.05Z</time>
      </trkpt>
      <trkpt lat="43.90039" lon="7.47943">
        <ele>437</ele>
        <time>2018-09-16T09:44:18.05Z</time>
      </trkpt>
      <trkpt lat="43.90043" lon="7.4793">
        <ele>440</ele>
        <time>2018-09-16T09:44:28.05Z</time>
      </trkpt>
      <trkpt lat="43.90046" lon="7.4792">
        <ele>442</ele>
        <time>2018-09-16T09:44:33.05Z</time>
      </trkpt>
      <trkpt lat="43.90054" lon="7.47911">
        <ele>444</ele>
        <time>2018-09-16T09:44:43.05Z</time>
      </trkpt>
      <trkpt lat="43.90063" lon="7.47906">
        <ele>448</ele>
        <time>2018-09-16T09:44:53.05Z</time>
      </trkpt>
      <trkpt lat="43.90071" lon="7.47901">
        <ele>448.52</ele>
        <time>2018-09-16T09:45:01.05Z</time>
      </trkpt>
      <trkpt lat="43.90078" lon="7.47896">
        <ele>450</ele>
        <time>2018-09-16T09:45:05.05Z</time>
      </trkpt>
      <trkpt lat="43.90084" lon="7.47893">
        <ele>450</ele>
        <time>2018-09-16T09:45:08.05Z</time>
      </trkpt>
      <trkpt lat="43.90093" lon="7.47886">
        <ele>450</ele>
        <time>2018-09-16T09:45:13.05Z</time>
      </trkpt>
      <trkpt lat="43.90102" lon="7.47881">
        <ele>450</ele>
        <time>2018-09-16T09:45:18.05Z</time>
      </trkpt>
      <trkpt lat="43.9011" lon="7.47872">
        <ele>451</ele>
        <time>2018-09-16T09:45:22.05Z</time>
      </trkpt>
      <trkpt lat="43.90118" lon="7.47861">
        <ele>451</ele>
        <time>2018-09-16T09:45:27.05Z</time>
      </trkpt>
      <trkpt lat="43.90128" lon="7.47857">
        <ele>453</ele>
        <time>2018-09-16T09:45:32.05Z</time>
      </trkpt>
      <trkpt lat="43.90137" lon="7.47864">
        <ele>455</ele>
        <time>2018-09-16T09:45:42.05Z</time>
      </trkpt>
      <trkpt lat="43.90146" lon="7.47873">
        <ele>456</ele>
        <time>2018-09-16T09:45:52.05Z</time>
      </trkpt>
      <trkpt lat="43.90154" lon="7.47883">
        <ele>456</ele>
        <time>2018-09-16T09:46:00.05Z</time>
      </trkpt>
      <trkpt lat="43.90163" lon="7.47891">
        <ele>458</ele>
        <time>2018-09-16T09:46:08.05Z</time>
      </trkpt>
      <trkpt lat="43.90169" lon="7.47902">
        <ele>460</ele>
        <time>2018-09-16T09:46:19.05Z</time>
      </trkpt>
      <trkpt lat="43.90175" lon="7.47914">
        <ele>465</ele>
        <time>2018-09-16T09:46:30.05Z</time>
      </trkpt>
      <trkpt lat="43.90179" lon="7.47922">
        <ele>468</ele>
        <time>2018-09-16T09:46:37.05Z</time>
      </trkpt>
      <trkpt lat="43.90185" lon="7.47925">
        <ele>468</ele>
        <time>2018-09-16T09:46:47.05Z</time>
      </trkpt>
      <trkpt lat="43.90193" lon="7.47933">
        <ele>470</ele>
        <time>2018-09-16T09:46:59.05Z</time>
      </trkpt>
      <trkpt lat="43.90201" lon="7.47943">
        <ele>473</ele>
        <time>2018-09-16T09:47:09.05Z</time>
      </trkpt>
      <trkpt lat="43.90207" lon="7.47948">
        <ele>473</ele>
        <time>2018-09-16T09:47:17.05Z</time>
      </trkpt>
      <trkpt lat="43.90217" lon="7.47957">
        <ele>479</ele>
        <time>2018-09-16T09:47:34.05Z</time>
      </trkpt>
      <trkpt lat="43.90224" lon="7.47967">
        <ele>482</ele>
        <time>2018-09-16T09:47:45.05Z</time>
      </trkpt>
      <trkpt lat="43.90235" lon="7.4797">
        <ele>485</ele>
        <time>2018-09-16T09:47:53.05Z</time>
      </trkpt>
      <trkpt lat="43.90245" lon="7.47975">
        <ele>485</ele>
        <time>2018-09-16T09:47:59.05Z</time>
      </trkpt>
      <trkpt lat="43.90248" lon="7.4798">
        <ele>487</ele>
        <time>2018-09-16T09:48:02.05Z</time>
      </trkpt>
      <trkpt lat="43.90251" lon="7.47989">
        <ele>487</ele>
        <time>2018-09-16T09:48:09.05Z</time>
      </trkpt>
      <trkpt lat="43.90254" lon="7.48003">
        <ele>492</ele>
        <time>2018-09-16T09:48:22.05Z</time>
      </trkpt>
      <trkpt lat="43.90256" lon="7.48017">
        <ele>494</ele>
        <time>2018-09-16T09:48:36.05Z</time>
      </trkpt>
      <trkpt lat="43.90258" lon="7.48031">
        <ele>494</ele>
        <time>2018-09-16T09:48:50.05Z</time>
      </trkpt>
      <trkpt lat="43.90262" lon="7.48046">
        <ele>500</ele>
        <time>2018-09-16T09:48:58.05Z</time>
      </trkpt>
      <trkpt lat="43.90267" lon="7.4806">
        <ele>502</ele>
        <time>2018-09-16T09:49:04.05Z</time>
      </trkpt>
      <trkpt lat="43.90271" lon="7.48073">
        <ele>505</ele>
        <time>2018-09-16T09:49:11.05Z</time>
      </trkpt>
      <trkpt lat="43.90275" lon="7.48088">
        <ele>505</ele>
        <time>2018-09-16T09:49:18.05Z</time>
      </trkpt>
      <trkpt lat="43.90279" lon="7.48102">
        <ele>505</ele>
        <time>2018-09-16T09:49:25.05Z</time>
      </trkpt>
      <trkpt lat="43.90283" lon="7.48116">
        <ele>506</ele>
        <time>2018-09-16T09:49:30.05Z</time>
      </trkpt>
      <trkpt lat="43.90289" lon="7.4813">
        <ele>506</ele>
        <time>2018-09-16T09:49:36.05Z</time>
      </trkpt>
      <trkpt lat="43.90293" lon="7.48144">
        <ele>506</ele>
        <time>2018-09-16T09:49:41.05Z</time>
      </trkpt>
      <trkpt lat="43.90299" lon="7.48158">
        <ele>506</ele>
        <time>2018-09-16T09:49:47.05Z</time>
      </trkpt>
      <trkpt lat="43.90305" lon="7.48169">
        <ele>507</ele>
        <time>2018-09-16T09:49:53.05Z</time>
      </trkpt>
      <trkpt lat="43.90303" lon="7.48183">
        <ele>511</ele>
        <time>2018-09-16T09:50:07.05Z</time>
      </trkpt>
      <trkpt lat="43.90294" lon="7.4819">
        <ele>518</ele>
        <time>2018-09-16T09:50:35.05Z</time>
      </trkpt>
      <trkpt lat="43.90287" lon="7.48187">
        <ele>520</ele>
        <time>2018-09-16T09:50:48.05Z</time>
      </trkpt>
      <trkpt lat="43.90284" lon="7.48195">
        <ele>524</ele>
        <time>2018-09-16T09:51:08.05Z</time>
      </trkpt>
      <trkpt lat="43.90278" lon="7.48198">
        <ele>530</ele>
        <time>2018-09-16T09:51:19.05Z</time>
      </trkpt>
      <trkpt lat="43.90273" lon="7.48194">
        <ele>530</ele>
        <time>2018-09-16T09:51:25.05Z</time>
      </trkpt>
      <trkpt lat="43.90267" lon="7.4819">
        <ele>531.25</ele>
        <time>2018-09-16T09:51:31.05Z</time>
      </trkpt>
      <trkpt lat="43.90261" lon="7.48189">
        <ele>532</ele>
        <time>2018-09-16T09:51:38.05Z</time>
      </trkpt>
      <trkpt lat="43.90259" lon="7.48196">
        <ele>534</ele>
        <time>2018-09-16T09:51:43.05Z</time>
      </trkpt>
      <trkpt lat="43.90263" lon="7.48203">
        <ele>534</ele>
        <time>2018-09-16T09:51:50.05Z</time>
      </trkpt>
      <trkpt lat="43.90268" lon="7.48211">
        <ele>536</ele>
        <time>2018-09-16T09:51:57.05Z</time>
      </trkpt>
      <trkpt lat="43.90271" lon="7.48221">
        <ele>538</ele>
        <time>2018-09-16T09:52:04.05Z</time>
      </trkpt>
      <trkpt lat="43.90274" lon="7.4823">
        <ele>538</ele>
        <time>2018-09-16T09:52:12.05Z</time>
      </trkpt>
      <trkpt lat="43.90276" lon="7.48241">
        <ele>538.52</ele>
        <time>2018-09-16T09:52:21.05Z</time>
      </trkpt>
      <trkpt lat="43.9028" lon="7.4825">
        <ele>540</ele>
        <time>2018-09-16T09:52:29.05Z</time>
      </trkpt>
      <trkpt lat="43.90286" lon="7.48257">
        <ele>544.26</ele>
        <time>2018-09-16T09:52:36.05Z</time>
      </trkpt>
      <trkpt lat="43.90292" lon="7.48265">
        <ele>545</ele>
        <time>2018-09-16T09:52:44.05Z</time>
      </trkpt>
      <trkpt lat="43.90299" lon="7.48269">
        <ele>545</ele>
        <time>2018-09-16T09:52:50.05Z</time>
      </trkpt>
      <trkpt lat="43.90304" lon="7.48277">
        <ele>547</ele>
        <time>2018-09-16T09:52:58.05Z</time>
      </trkpt>
      <trkpt lat="43.90307" lon="7.48283">
        <ele>552</ele>
        <time>2018-09-16T09:53:06.05Z</time>
      </trkpt>
      <trkpt lat="43.90313" lon="7.48288">
        <ele>554</ele>
        <time>2018-09-16T09:53:12.05Z</time>
      </trkpt>
      <trkpt lat="43.9032" lon="7.4829">
        <ele>554.26</ele>
        <time>2018-09-16T09:53:16.05Z</time>
      </trkpt>
      <trkpt lat="43.90327" lon="7.48291">
        <ele>555</ele>
        <time>2018-09-16T09:53:19.05Z</time>
      </trkpt>
      <trkpt lat="43.90335" lon="7.48295">
        <ele>554</ele>
        <time>2018-09-16T09:53:23.05Z</time>
      </trkpt>
      <trkpt lat="43.90343" lon="7.48298">
        <ele>554</ele>
        <time>2018-09-16T09:53:27.05Z</time>
      </trkpt>
      <trkpt lat="43.90352" lon="7.48302">
        <ele>556</ele>
        <time>2018-09-16T09:53:36.05Z</time>
      </trkpt>
      <trkpt lat="43.90359" lon="7.48308">
        <ele>557</ele>
        <time>2018-09-16T09:53:44.05Z</time>
      </trkpt>
      <trkpt lat="43.90369" lon="7.48311">
        <ele>560</ele>
        <time>2018-09-16T09:53:53.05Z</time>
      </trkpt>
      <trkpt lat="43.90379" lon="7.48312">
        <ele>561</ele>
        <time>2018-09-16T09:53:58.05Z</time>
      </trkpt>
      <trkpt lat="43.90391" lon="7.48314">
        <ele>559</ele>
        <time>2018-09-16T09:54:03.05Z</time>
      </trkpt>
      <trkpt lat="43.904" lon="7.48315">
        <ele>559</ele>
        <time>2018-09-16T09:54:07.05Z</time>
      </trkpt>
      <trkpt lat="43.9041" lon="7.48316">
        <ele>559</ele>
        <time>2018-09-16T09:54:11.05Z</time>
      </trkpt>
      <trkpt lat="43.90422" lon="7.48315">
        <ele>559</ele>
        <time>2018-09-16T09:54:16.05Z</time>
      </trkpt>
      <trkpt lat="43.90432" lon="7.48311">
        <ele>559.26</ele>
        <time>2018-09-16T09:54:21.05Z</time>
      </trkpt>
      <trkpt lat="43.90441" lon="7.48307">
        <ele>560</ele>
        <time>2018-09-16T09:54:25.05Z</time>
      </trkpt>
      <trkpt lat="43.90452" lon="7.48303">
        <ele>560</ele>
        <time>2018-09-16T09:54:29.05Z</time>
      </trkpt>
      <trkpt lat="43.90462" lon="7.48299">
        <ele>558</ele>
        <time>2018-09-16T09:54:33.05Z</time>
      </trkpt>
      <trkpt lat="43.90472" lon="7.48294">
        <ele>559</ele>
        <time>2018-09-16T09:54:37.05Z</time>
      </trkpt>
      <trkpt lat="43.90482" lon="7.4829">
        <ele>558.48</ele>
        <time>2018-09-16T09:54:41.05Z</time>
      </trkpt>
      <trkpt lat="43.90491" lon="7.48287">
        <ele>557</ele>
        <time>2018-09-16T09:54:45.05Z</time>
      </trkpt>
      <trkpt lat="43.90501" lon="7.48284">
        <ele>557</ele>
        <time>2018-09-16T09:54:49.05Z</time>
      </trkpt>
      <trkpt lat="43.90508" lon="7.48277">
        <ele>556</ele>
        <time>2018-09-16T09:54:54.05Z</time>
      </trkpt>
      <trkpt lat="43.90514" lon="7.4827">
        <ele>556</ele>
        <time>2018-09-16T09:54:58.05Z</time>
      </trkpt>
      <trkpt lat="43.90522" lon="7.4826">
        <ele>556</ele>
        <time>2018-09-16T09:55:03.05Z</time>
      </trkpt>
      <trkpt lat="43.90533" lon="7.48251">
        <ele>556</ele>
        <time>2018-09-16T09:55:08.05Z</time>
      </trkpt>
      <trkpt lat="43.90543" lon="7.48245">
        <ele>556</ele>
        <time>2018-09-16T09:55:13.05Z</time>
      </trkpt>
      <trkpt lat="43.90554" lon="7.48239">
        <ele>556</ele>
        <time>2018-09-16T09:55:20.05Z</time>
      </trkpt>
      <trkpt lat="43.90562" lon="7.48231">
        <ele>557</ele>
        <time>2018-09-16T09:55:24.05Z</time>
      </trkpt>
      <trkpt lat="43.90568" lon="7.48223">
        <ele>557</ele>
        <time>2018-09-16T09:55:28.05Z</time>
      </trkpt>
      <trkpt lat="43.90576" lon="7.48213">
        <ele>556</ele>
        <time>2018-09-16T09:55:33.05Z</time>
      </trkpt>
      <trkpt lat="43.90587" lon="7.48205">
        <ele>556</ele>
        <time>2018-09-16T09:55:38.05Z</time>
      </trkpt>
      <trkpt lat="43.90596" lon="7.48197">
        <ele>555</ele>
        <time>2018-09-16T09:55:43.05Z</time>
      </trkpt>
      <trkpt lat="43.90607" lon="7.48194">
        <ele>555</ele>
        <time>2018-09-16T09:55:49.05Z</time>
      </trkpt>
      <trkpt lat="43.90617" lon="7.48196">
        <ele>554</ele>
        <time>2018-09-16T09:55:53.05Z</time>
      </trkpt>
      <trkpt lat="43.90627" lon="7.48197">
        <ele>554</ele>
        <time>2018-09-16T09:55:57.05Z</time>
      </trkpt>
      <trkpt lat="43.90638" lon="7.48196">
        <ele>551</ele>
        <time>2018-09-16T09:56:02.05Z</time>
      </trkpt>
      <trkpt lat="43.9065" lon="7.48196">
        <ele>551</ele>
        <time>2018-09-16T09:56:07.05Z</time>
      </trkpt>
      <trkpt lat="43.9066" lon="7.48195">
        <ele>549</ele>
        <time>2018-09-16T09:56:12.05Z</time>
      </trkpt>
      <trkpt lat="43.9067" lon="7.48194">
        <ele>549</ele>
        <time>2018-09-16T09:56:16.05Z</time>
      </trkpt>
      <trkpt lat="43.9068" lon="7.48193">
        <ele>549</ele>
        <time>2018-09-16T09:56:20.05Z</time>
      </trkpt>
      <trkpt lat="43.90691" lon="7.48192">
        <ele>548</ele>
        <time>2018-09-16T09:56:25.05Z</time>
      </trkpt>
      <trkpt lat="43.90702" lon="7.48198">
        <ele>548</ele>
        <time>2018-09-16T09:56:30.05Z</time>
      </trkpt>
      <trkpt lat="43.9071" lon="7.48203">
        <ele>550</ele>
        <time>2018-09-16T09:56:33.05Z</time>
      </trkpt>
      <trkpt lat="43.90717" lon="7.48205">
        <ele>550</ele>
        <time>2018-09-16T09:56:36.05Z</time>
      </trkpt>
      <trkpt lat="43.90727" lon="7.48207">
        <ele>550</ele>
        <time>2018-09-16T09:56:41.05Z</time>
      </trkpt>
      <trkpt lat="43.90737" lon="7.48211">
        <ele>550</ele>
        <time>2018-09-16T09:56:45.05Z</time>
      </trkpt>
      <trkpt lat="43.90746" lon="7.48213">
        <ele>550</ele>
        <time>2018-09-16T09:56:49.05Z</time>
      </trkpt>
      <trkpt lat="43.90755" lon="7.48214">
        <ele>546</ele>
        <time>2018-09-16T09:56:53.05Z</time>
      </trkpt>
      <trkpt lat="43.90761" lon="7.48218">
        <ele>545.48</ele>
        <time>2018-09-16T09:56:56.05Z</time>
      </trkpt>
      <trkpt lat="43.90769" lon="7.48227">
        <ele>544</ele>
        <time>2018-09-16T09:56:59.05Z</time>
      </trkpt>
      <trkpt lat="43.90776" lon="7.48237">
        <ele>543</ele>
        <time>2018-09-16T09:57:02.05Z</time>
      </trkpt>
      <trkpt lat="43.90781" lon="7.48251">
        <ele>543.52</ele>
        <time>2018-09-16T09:57:06.05Z</time>
      </trkpt>
      <trkpt lat="43.90784" lon="7.48266">
        <ele>545</ele>
        <time>2018-09-16T09:57:10.05Z</time>
      </trkpt>
      <trkpt lat="43.90785" lon="7.48279">
        <ele>545</ele>
        <time>2018-09-16T09:57:14.05Z</time>
      </trkpt>
      <trkpt lat="43.90787" lon="7.48295">
        <ele>545</ele>
        <time>2018-09-16T09:57:19.05Z</time>
      </trkpt>
      <trkpt lat="43.9079" lon="7.48308">
        <ele>545</ele>
        <time>2018-09-16T09:57:24.05Z</time>
      </trkpt>
      <trkpt lat="43.90802" lon="7.48313">
        <ele>542</ele>
        <time>2018-09-16T09:57:33.05Z</time>
      </trkpt>
      <trkpt lat="43.90813" lon="7.48314">
        <ele>542</ele>
        <time>2018-09-16T09:57:37.05Z</time>
      </trkpt>
      <trkpt lat="43.90823" lon="7.48314">
        <ele>540</ele>
        <time>2018-09-16T09:57:42.05Z</time>
      </trkpt>
      <trkpt lat="43.90831" lon="7.48325">
        <ele>538</ele>
        <time>2018-09-16T09:57:47.05Z</time>
      </trkpt>
      <trkpt lat="43.90834" lon="7.48311">
        <ele>536</ele>
        <time>2018-09-16T09:58:09.05Z</time>
      </trkpt>
      <trkpt lat="43.90826" lon="7.483">
        <ele>538.26</ele>
        <time>2018-09-16T09:58:21.05Z</time>
      </trkpt>
      <trkpt lat="43.9082" lon="7.48288">
        <ele>539</ele>
        <time>2018-09-16T09:58:27.05Z</time>
      </trkpt>
      <trkpt lat="43.90814" lon="7.48273">
        <ele>539</ele>
        <time>2018-09-16T09:58:32.05Z</time>
      </trkpt>
      <trkpt lat="43.9081" lon="7.48259">
        <ele>539</ele>
        <time>2018-09-16T09:58:36.05Z</time>
      </trkpt>
      <trkpt lat="43.90809" lon="7.48243">
        <ele>539</ele>
        <time>2018-09-16T09:58:40.05Z</time>
      </trkpt>
      <trkpt lat="43.90807" lon="7.48227">
        <ele>536</ele>
        <time>2018-09-16T09:58:44.05Z</time>
      </trkpt>
      <trkpt lat="43.90805" lon="7.48212">
        <ele>536</ele>
        <time>2018-09-16T09:58:49.05Z</time>
      </trkpt>
      <trkpt lat="43.90804" lon="7.48199">
        <ele>536</ele>
        <time>2018-09-16T09:58:54.05Z</time>
      </trkpt>
      <trkpt lat="43.90796" lon="7.48189">
        <ele>535</ele>
        <time>2018-09-16T09:59:02.05Z</time>
      </trkpt>
      <trkpt lat="43.90786" lon="7.48183">
        <ele>535</ele>
        <time>2018-09-16T09:59:09.05Z</time>
      </trkpt>
      <trkpt lat="43.90775" lon="7.48174">
        <ele>536</ele>
        <time>2018-09-16T09:59:14.05Z</time>
      </trkpt>
      <trkpt lat="43.90767" lon="7.48161">
        <ele>536</ele>
        <time>2018-09-16T09:59:19.05Z</time>
      </trkpt>
      <trkpt lat="43.90759" lon="7.48151">
        <ele>538</ele>
        <time>2018-09-16T09:59:24.05Z</time>
      </trkpt>
      <trkpt lat="43.90751" lon="7.48142">
        <ele>538</ele>
        <time>2018-09-16T09:59:29.05Z</time>
      </trkpt>
      <trkpt lat="43.90742" lon="7.48133">
        <ele>538</ele>
        <time>2018-09-16T09:59:34.05Z</time>
      </trkpt>
      <trkpt lat="43.90735" lon="7.48125">
        <ele>538</ele>
        <time>2018-09-16T09:59:38.05Z</time>
      </trkpt>
      <trkpt lat="43.90724" lon="7.48119">
        <ele>537</ele>
        <time>2018-09-16T09:59:43.05Z</time>
      </trkpt>
      <trkpt lat="43.90721" lon="7.48107">
        <ele>537</ele>
        <time>2018-09-16T09:59:48.05Z</time>
      </trkpt>
      <trkpt lat="43.90716" lon="7.48097">
        <ele>538</ele>
        <time>2018-09-16T09:59:55.05Z</time>
      </trkpt>
      <trkpt lat="43.90709" lon="7.48089">
        <ele>538</ele>
        <time>2018-09-16T09:59:59.05Z</time>
      </trkpt>
      <trkpt lat="43.90701" lon="7.48081">
        <ele>539</ele>
        <time>2018-09-16T10:00:03.05Z</time>
      </trkpt>
      <trkpt lat="43.90694" lon="7.48072">
        <ele>539</ele>
        <time>2018-09-16T10:00:07.05Z</time>
      </trkpt>
      <trkpt lat="43.90687" lon="7.48064">
        <ele>539</ele>
        <time>2018-09-16T10:00:11.05Z</time>
      </trkpt>
      <trkpt lat="43.90677" lon="7.48055">
        <ele>539</ele>
        <time>2018-09-16T10:00:16.05Z</time>
      </trkpt>
      <trkpt lat="43.90669" lon="7.48048">
        <ele>539</ele>
        <time>2018-09-16T10:00:20.05Z</time>
      </trkpt>
      <trkpt lat="43.90659" lon="7.48043">
        <ele>538</ele>
        <time>2018-09-16T10:00:24.05Z</time>
      </trkpt>
      <trkpt lat="43.9065" lon="7.48033">
        <ele>538</ele>
        <time>2018-09-16T10:00:29.05Z</time>
      </trkpt>
      <trkpt lat="43.90643" lon="7.48027">
        <ele>538</ele>
        <time>2018-09-16T10:00:33.05Z</time>
      </trkpt>
      <trkpt lat="43.90639" lon="7.48016">
        <ele>539</ele>
        <time>2018-09-16T10:00:43.05Z</time>
      </trkpt>
      <trkpt lat="43.90632" lon="7.48008">
        <ele>541</ele>
        <time>2018-09-16T10:00:52.05Z</time>
      </trkpt>
      <trkpt lat="43.90624" lon="7.47999">
        <ele>541</ele>
        <time>2018-09-16T10:01:00.05Z</time>
      </trkpt>
      <trkpt lat="43.90616" lon="7.47992">
        <ele>544</ele>
        <time>2018-09-16T10:01:08.05Z</time>
      </trkpt>
      <trkpt lat="43.90609" lon="7.47989">
        <ele>544</ele>
        <time>2018-09-16T10:01:13.05Z</time>
      </trkpt>
      <trkpt lat="43.90601" lon="7.47986">
        <ele>544</ele>
        <time>2018-09-16T10:01:17.05Z</time>
      </trkpt>
      <trkpt lat="43.90593" lon="7.47984">
        <ele>544.52</ele>
        <time>2018-09-16T10:01:21.05Z</time>
      </trkpt>
      <trkpt lat="43.90586" lon="7.47982">
        <ele>546</ele>
        <time>2018-09-16T10:01:24.05Z</time>
      </trkpt>
      <trkpt lat="43.9058" lon="7.47981">
        <ele>546</ele>
        <time>2018-09-16T10:01:27.05Z</time>
      </trkpt>
      <trkpt lat="43.90573" lon="7.47976">
        <ele>546</ele>
        <time>2018-09-16T10:01:30.05Z</time>
      </trkpt>
      <trkpt lat="43.90565" lon="7.47969">
        <ele>546</ele>
        <time>2018-09-16T10:01:34.05Z</time>
      </trkpt>
      <trkpt lat="43.90556" lon="7.47962">
        <ele>546</ele>
        <time>2018-09-16T10:01:38.05Z</time>
      </trkpt>
      <trkpt lat="43.90546" lon="7.47954">
        <ele>545</ele>
        <time>2018-09-16T10:01:44.05Z</time>
      </trkpt>
      <trkpt lat="43.90538" lon="7.47945">
        <ele>545</ele>
        <time>2018-09-16T10:01:50.05Z</time>
      </trkpt>
      <trkpt lat="43.90531" lon="7.47935">
        <ele>545</ele>
        <time>2018-09-16T10:01:55.05Z</time>
      </trkpt>
      <trkpt lat="43.90526" lon="7.47925">
        <ele>545</ele>
        <time>2018-09-16T10:01:59.05Z</time>
      </trkpt>
      <trkpt lat="43.90523" lon="7.47913">
        <ele>546</ele>
        <time>2018-09-16T10:02:03.05Z</time>
      </trkpt>
      <trkpt lat="43.90523" lon="7.47902">
        <ele>546</ele>
        <time>2018-09-16T10:02:07.05Z</time>
      </trkpt>
      <trkpt lat="43.90523" lon="7.47891">
        <ele>548</ele>
        <time>2018-09-16T10:02:12.05Z</time>
      </trkpt>
      <trkpt lat="43.90523" lon="7.4788">
        <ele>549</ele>
        <time>2018-09-16T10:02:17.05Z</time>
      </trkpt>
      <trkpt lat="43.90521" lon="7.47868">
        <ele>549</ele>
        <time>2018-09-16T10:02:22.05Z</time>
      </trkpt>
      <trkpt lat="43.9052" lon="7.47856">
        <ele>549</ele>
        <time>2018-09-16T10:02:26.05Z</time>
      </trkpt>
      <trkpt lat="43.90519" lon="7.47844">
        <ele>548.74</ele>
        <time>2018-09-16T10:02:31.05Z</time>
      </trkpt>
      <trkpt lat="43.90524" lon="7.4783">
        <ele>548</ele>
        <time>2018-09-16T10:02:39.05Z</time>
      </trkpt>
      <trkpt lat="43.90514" lon="7.47836">
        <ele>547</ele>
        <time>2018-09-16T10:02:53.05Z</time>
      </trkpt>
      <trkpt lat="43.90505" lon="7.47841">
        <ele>547</ele>
        <time>2018-09-16T10:02:59.05Z</time>
      </trkpt>
      <trkpt lat="43.90496" lon="7.47849">
        <ele>547</ele>
        <time>2018-09-16T10:03:09.05Z</time>
      </trkpt>
      <trkpt lat="43.9049" lon="7.4786">
        <ele>549</ele>
        <time>2018-09-16T10:03:15.05Z</time>
      </trkpt>
      <trkpt lat="43.90482" lon="7.47871">
        <ele>549</ele>
        <time>2018-09-16T10:03:20.05Z</time>
      </trkpt>
      <trkpt lat="43.90474" lon="7.47877">
        <ele>550</ele>
        <time>2018-09-16T10:03:24.05Z</time>
      </trkpt>
      <trkpt lat="43.90465" lon="7.47883">
        <ele>550.52</ele>
        <time>2018-09-16T10:03:31.05Z</time>
      </trkpt>
      <trkpt lat="43.90457" lon="7.47887">
        <ele>552</ele>
        <time>2018-09-16T10:03:36.05Z</time>
      </trkpt>
      <trkpt lat="43.90448" lon="7.47889">
        <ele>553</ele>
        <time>2018-09-16T10:03:42.05Z</time>
      </trkpt>
      <trkpt lat="43.9044" lon="7.47885">
        <ele>555</ele>
        <time>2018-09-16T10:03:52.05Z</time>
      </trkpt>
      <trkpt lat="43.90434" lon="7.47879">
        <ele>555</ele>
        <time>2018-09-16T10:03:58.05Z</time>
      </trkpt>
      <trkpt lat="43.90428" lon="7.4787">
        <ele>558</ele>
        <time>2018-09-16T10:04:05.05Z</time>
      </trkpt>
      <trkpt lat="43.90425" lon="7.47859">
        <ele>559</ele>
        <time>2018-09-16T10:04:13.05Z</time>
      </trkpt>
      <trkpt lat="43.90424" lon="7.47848">
        <ele>559.52</ele>
        <time>2018-09-16T10:04:21.05Z</time>
      </trkpt>
      <trkpt lat="43.90423" lon="7.47836">
        <ele>564</ele>
        <time>2018-09-16T10:04:32.05Z</time>
      </trkpt>
      <trkpt lat="43.9042" lon="7.47824">
        <ele>567</ele>
        <time>2018-09-16T10:04:42.05Z</time>
      </trkpt>
      <trkpt lat="43.90415" lon="7.47816">
        <ele>567</ele>
        <time>2018-09-16T10:04:47.05Z</time>
      </trkpt>
      <trkpt lat="43.90411" lon="7.47808">
        <ele>567</ele>
        <time>2018-09-16T10:04:52.05Z</time>
      </trkpt>
      <trkpt lat="43.90405" lon="7.478">
        <ele>567</ele>
        <time>2018-09-16T10:04:58.05Z</time>
      </trkpt>
      <trkpt lat="43.90401" lon="7.4779">
        <ele>570.26</ele>
        <time>2018-09-16T10:05:06.05Z</time>
      </trkpt>
      <trkpt lat="43.90396" lon="7.4778">
        <ele>572</ele>
        <time>2018-09-16T10:05:16.05Z</time>
      </trkpt>
      <trkpt lat="43.90391" lon="7.47769">
        <ele>574</ele>
        <time>2018-09-16T10:05:27.05Z</time>
      </trkpt>
      <trkpt lat="43.90386" lon="7.47759">
        <ele>576</ele>
        <time>2018-09-16T10:05:39.05Z</time>
      </trkpt>
      <trkpt lat="43.90378" lon="7.4775">
        <ele>578</ele>
        <time>2018-09-16T10:05:47.05Z</time>
      </trkpt>
      <trkpt lat="43.90371" lon="7.47741">
        <ele>580.26</ele>
        <time>2018-09-16T10:05:56.05Z</time>
      </trkpt>
      <trkpt lat="43.90364" lon="7.47732">
        <ele>581</ele>
        <time>2018-09-16T10:06:07.05Z</time>
      </trkpt>
      <trkpt lat="43.90356" lon="7.47724">
        <ele>583</ele>
        <time>2018-09-16T10:06:17.05Z</time>
      </trkpt>
      <trkpt lat="43.90348" lon="7.47715">
        <ele>587.52</ele>
        <time>2018-09-16T10:06:26.05Z</time>
      </trkpt>
      <trkpt lat="43.9034" lon="7.47706">
        <ele>589</ele>
        <time>2018-09-16T10:06:34.05Z</time>
      </trkpt>
      <trkpt lat="43.90333" lon="7.47696">
        <ele>589.26</ele>
        <time>2018-09-16T10:06:41.05Z</time>
      </trkpt>
      <trkpt lat="43.90327" lon="7.47687">
        <ele>590</ele>
        <time>2018-09-16T10:06:47.05Z</time>
      </trkpt>
      <trkpt lat="43.90324" lon="7.47674">
        <ele>592</ele>
        <time>2018-09-16T10:06:56.05Z</time>
      </trkpt>
      <trkpt lat="43.90322" lon="7.47663">
        <ele>593</ele>
        <time>2018-09-16T10:07:05.05Z</time>
      </trkpt>
      <trkpt lat="43.90319" lon="7.47652">
        <ele>595</ele>
        <time>2018-09-16T10:07:14.05Z</time>
      </trkpt>
      <trkpt lat="43.90316" lon="7.47641">
        <ele>595</ele>
        <time>2018-09-16T10:07:20.05Z</time>
      </trkpt>
      <trkpt lat="43.90311" lon="7.47631">
        <ele>600</ele>
        <time>2018-09-16T10:07:27.05Z</time>
      </trkpt>
      <trkpt lat="43.90306" lon="7.4762">
        <ele>600</ele>
        <time>2018-09-16T10:07:33.05Z</time>
      </trkpt>
      <trkpt lat="43.90301" lon="7.47611">
        <ele>600</ele>
        <time>2018-09-16T10:07:39.05Z</time>
      </trkpt>
      <trkpt lat="43.90297" lon="7.47601">
        <ele>601</ele>
        <time>2018-09-16T10:07:47.05Z</time>
      </trkpt>
      <trkpt lat="43.90292" lon="7.47587">
        <ele>602</ele>
        <time>2018-09-16T10:07:57.05Z</time>
      </trkpt>
      <trkpt lat="43.90285" lon="7.47577">
        <ele>605</ele>
        <time>2018-09-16T10:08:03.05Z</time>
      </trkpt>
      <trkpt lat="43.9028" lon="7.47568">
        <ele>607</ele>
        <time>2018-09-16T10:08:09.05Z</time>
      </trkpt>
      <trkpt lat="43.90275" lon="7.47558">
        <ele>607</ele>
        <time>2018-09-16T10:08:15.05Z</time>
      </trkpt>
      <trkpt lat="43.9027" lon="7.47549">
        <ele>607</ele>
        <time>2018-09-16T10:08:19.05Z</time>
      </trkpt>
      <trkpt lat="43.90264" lon="7.47537">
        <ele>607</ele>
        <time>2018-09-16T10:08:24.05Z</time>
      </trkpt>
      <trkpt lat="43.90258" lon="7.47524">
        <ele>607</ele>
        <time>2018-09-16T10:08:30.05Z</time>
      </trkpt>
      <trkpt lat="43.90256" lon="7.47514">
        <ele>608</ele>
        <time>2018-09-16T10:08:34.05Z</time>
      </trkpt>
      <trkpt lat="43.90254" lon="7.47504">
        <ele>608</ele>
        <time>2018-09-16T10:08:38.05Z</time>
      </trkpt>
      <trkpt lat="43.90257" lon="7.47497">
        <ele>609</ele>
        <time>2018-09-16T10:08:43.05Z</time>
      </trkpt>
      <trkpt lat="43.90262" lon="7.4749">
        <ele>611</ele>
        <time>2018-09-16T10:08:53.05Z</time>
      </trkpt>
      <trkpt lat="43.90263" lon="7.4748">
        <ele>613</ele>
        <time>2018-09-16T10:09:02.05Z</time>
      </trkpt>
      <trkpt lat="43.9026" lon="7.4747">
        <ele>613</ele>
        <time>2018-09-16T10:09:07.05Z</time>
      </trkpt>
      <trkpt lat="43.90259" lon="7.47461">
        <ele>614</ele>
        <time>2018-09-16T10:09:13.05Z</time>
      </trkpt>
      <trkpt lat="43.9026" lon="7.4745">
        <ele>617</ele>
        <time>2018-09-16T10:09:23.05Z</time>
      </trkpt>
      <trkpt lat="43.9026" lon="7.47437">
        <ele>624</ele>
        <time>2018-09-16T10:09:42.05Z</time>
      </trkpt>
      <trkpt lat="43.90265" lon="7.47423">
        <ele>628</ele>
        <time>2018-09-16T10:09:57.05Z</time>
      </trkpt>
      <trkpt lat="43.9027" lon="7.47411">
        <ele>629</ele>
        <time>2018-09-16T10:10:09.05Z</time>
      </trkpt>
      <trkpt lat="43.90273" lon="7.474">
        <ele>633.26</ele>
        <time>2018-09-16T10:10:21.05Z</time>
      </trkpt>
      <trkpt lat="43.90267" lon="7.47392">
        <ele>636.26</ele>
        <time>2018-09-16T10:10:31.05Z</time>
      </trkpt>
      <trkpt lat="43.90265" lon="7.47381">
        <ele>641</ele>
        <time>2018-09-16T10:10:45.05Z</time>
      </trkpt>
      <trkpt lat="43.90266" lon="7.47372">
        <ele>643</ele>
        <time>2018-09-16T10:10:56.05Z</time>
      </trkpt>
      <trkpt lat="43.90267" lon="7.47361">
        <ele>646</ele>
        <time>2018-09-16T10:11:07.05Z</time>
      </trkpt>
      <trkpt lat="43.90267" lon="7.47351">
        <ele>648</ele>
        <time>2018-09-16T10:11:17.05Z</time>
      </trkpt>
      <trkpt lat="43.9027" lon="7.47343">
        <ele>650</ele>
        <time>2018-09-16T10:11:24.05Z</time>
      </trkpt>
      <trkpt lat="43.90272" lon="7.47336">
        <ele>652</ele>
        <time>2018-09-16T10:11:30.05Z</time>
      </trkpt>
      <trkpt lat="43.90275" lon="7.47329">
        <ele>652</ele>
        <time>2018-09-16T10:11:35.05Z</time>
      </trkpt>
      <trkpt lat="43.90275" lon="7.47322">
        <ele>652</ele>
        <time>2018-09-16T10:11:40.05Z</time>
      </trkpt>
      <trkpt lat="43.90275" lon="7.47316">
        <ele>655</ele>
        <time>2018-09-16T10:12:22.05Z</time>
      </trkpt>
      <trkpt lat="43.90274" lon="7.4731">
        <ele>656</ele>
        <time>2018-09-16T10:12:39.05Z</time>
      </trkpt>
      <trkpt lat="43.90271" lon="7.47304">
        <ele>657</ele>
        <time>2018-09-16T10:12:44.05Z</time>
      </trkpt>
      <trkpt lat="43.90267" lon="7.47302">
        <ele>657</ele>
        <time>2018-09-16T10:12:48.05Z</time>
      </trkpt>
      <trkpt lat="43.90263" lon="7.473">
        <ele>656.48</ele>
        <time>2018-09-16T10:12:51.05Z</time>
      </trkpt>
      <trkpt lat="43.90258" lon="7.47297">
        <ele>655</ele>
        <time>2018-09-16T10:12:55.05Z</time>
      </trkpt>
      <trkpt lat="43.90254" lon="7.47296">
        <ele>655</ele>
        <time>2018-09-16T10:12:59.05Z</time>
      </trkpt>
      <trkpt lat="43.90249" lon="7.47295">
        <ele>653</ele>
        <time>2018-09-16T10:13:03.05Z</time>
      </trkpt>
      <trkpt lat="43.90245" lon="7.47293">
        <ele>653</ele>
        <time>2018-09-16T10:13:06.05Z</time>
      </trkpt>
      <trkpt lat="43.9024" lon="7.47294">
        <ele>653</ele>
        <time>2018-09-16T10:13:10.05Z</time>
      </trkpt>
      <trkpt lat="43.90239" lon="7.47287">
        <ele>652</ele>
        <time>2018-09-16T10:13:14.05Z</time>
      </trkpt>
      <trkpt lat="43.90241" lon="7.47282">
        <ele>652</ele>
        <time>2018-09-16T10:13:16.05Z</time>
      </trkpt>
      <trkpt lat="43.90247" lon="7.47277">
        <ele>652</ele>
        <time>2018-09-16T10:13:19.05Z</time>
      </trkpt>
      <trkpt lat="43.90255" lon="7.47274">
        <ele>651</ele>
        <time>2018-09-16T10:13:22.05Z</time>
      </trkpt>
      <trkpt lat="43.90265" lon="7.47269">
        <ele>651.26</ele>
        <time>2018-09-16T10:13:31.05Z</time>
      </trkpt>
      <trkpt lat="43.90271" lon="7.47263">
        <ele>652</ele>
        <time>2018-09-16T10:13:36.05Z</time>
      </trkpt>
      <trkpt lat="43.90278" lon="7.47256">
        <ele>652</ele>
        <time>2018-09-16T10:13:42.05Z</time>
      </trkpt>
      <trkpt lat="43.90283" lon="7.47251">
        <ele>652</ele>
        <time>2018-09-16T10:13:46.05Z</time>
      </trkpt>
      <trkpt lat="43.90289" lon="7.47247">
        <ele>655</ele>
        <time>2018-09-16T10:13:53.05Z</time>
      </trkpt>
      <trkpt lat="43.90295" lon="7.4724">
        <ele>656</ele>
        <time>2018-09-16T10:13:59.05Z</time>
      </trkpt>
      <trkpt lat="43.903" lon="7.47234">
        <ele>656</ele>
        <time>2018-09-16T10:14:04.05Z</time>
      </trkpt>
      <trkpt lat="43.90304" lon="7.47228">
        <ele>656</ele>
        <time>2018-09-16T10:14:08.05Z</time>
      </trkpt>
      <trkpt lat="43.90309" lon="7.47224">
        <ele>657</ele>
        <time>2018-09-16T10:14:12.05Z</time>
      </trkpt>
      <trkpt lat="43.90313" lon="7.47217">
        <ele>657</ele>
        <time>2018-09-16T10:14:16.05Z</time>
      </trkpt>
      <trkpt lat="43.90316" lon="7.47213">
        <ele>657</ele>
        <time>2018-09-16T10:14:19.05Z</time>
      </trkpt>
      <trkpt lat="43.90322" lon="7.47208">
        <ele>659</ele>
        <time>2018-09-16T10:14:24.05Z</time>
      </trkpt>
      <trkpt lat="43.90332" lon="7.47203">
        <ele>661</ele>
        <time>2018-09-16T10:14:34.05Z</time>
      </trkpt>
      <trkpt lat="43.9034" lon="7.47194">
        <ele>661.26</ele>
        <time>2018-09-16T10:14:41.05Z</time>
      </trkpt>
      <trkpt lat="43.90348" lon="7.47186">
        <ele>662</ele>
        <time>2018-09-16T10:14:46.05Z</time>
      </trkpt>
      <trkpt lat="43.90357" lon="7.47178">
        <ele>663</ele>
        <time>2018-09-16T10:14:50.05Z</time>
      </trkpt>
      <trkpt lat="43.90365" lon="7.47172">
        <ele>663</ele>
        <time>2018-09-16T10:14:54.05Z</time>
      </trkpt>
      <trkpt lat="43.90373" lon="7.47166">
        <ele>663</ele>
        <time>2018-09-16T10:14:58.05Z</time>
      </trkpt>
      <trkpt lat="43.90382" lon="7.47161">
        <ele>660</ele>
        <time>2018-09-16T10:15:03.05Z</time>
      </trkpt>
      <trkpt lat="43.90391" lon="7.47156">
        <ele>661</ele>
        <time>2018-09-16T10:15:07.05Z</time>
      </trkpt>
      <trkpt lat="43.90397" lon="7.47151">
        <ele>661</ele>
        <time>2018-09-16T10:15:10.05Z</time>
      </trkpt>
      <trkpt lat="43.90401" lon="7.47145">
        <ele>657</ele>
        <time>2018-09-16T10:15:13.05Z</time>
      </trkpt>
      <trkpt lat="43.90404" lon="7.47141">
        <ele>657</ele>
        <time>2018-09-16T10:15:15.05Z</time>
      </trkpt>
      <trkpt lat="43.90407" lon="7.47136">
        <ele>656</ele>
        <time>2018-09-16T10:15:17.05Z</time>
      </trkpt>
      <trkpt lat="43.90409" lon="7.47131">
        <ele>656</ele>
        <time>2018-09-16T10:15:19.05Z</time>
      </trkpt>
      <trkpt lat="43.90418" lon="7.47123">
        <ele>653</ele>
        <time>2018-09-16T10:15:23.05Z</time>
      </trkpt>
      <trkpt lat="43.90427" lon="7.47121">
        <ele>650</ele>
        <time>2018-09-16T10:15:27.05Z</time>
      </trkpt>
      <trkpt lat="43.90427" lon="7.47108">
        <ele>647.26</ele>
        <time>2018-09-16T10:15:33.05Z</time>
      </trkpt>
      <trkpt lat="43.90424" lon="7.47095">
        <ele>647.74</ele>
        <time>2018-09-16T10:15:37.05Z</time>
      </trkpt>
      <trkpt lat="43.90421" lon="7.4708">
        <ele>647</ele>
        <time>2018-09-16T10:15:44.05Z</time>
      </trkpt>
      <trkpt lat="43.9042" lon="7.47066">
        <ele>648</ele>
        <time>2018-09-16T10:15:54.05Z</time>
      </trkpt>
      <trkpt lat="43.90419" lon="7.47054">
        <ele>648.78</ele>
        <time>2018-09-16T10:16:01.05Z</time>
      </trkpt>
      <trkpt lat="43.90419" lon="7.47044">
        <ele>651</ele>
        <time>2018-09-16T10:16:05.05Z</time>
      </trkpt>
      <trkpt lat="43.9042" lon="7.47037">
        <ele>652</ele>
        <time>2018-09-16T10:16:09.05Z</time>
      </trkpt>
      <trkpt lat="43.90417" lon="7.4703">
        <ele>652</ele>
        <time>2018-09-16T10:16:14.05Z</time>
      </trkpt>
      <trkpt lat="43.90414" lon="7.47024">
        <ele>652</ele>
        <time>2018-09-16T10:16:19.05Z</time>
      </trkpt>
      <trkpt lat="43.90409" lon="7.47011">
        <ele>653</ele>
        <time>2018-09-16T10:16:28.05Z</time>
      </trkpt>
      <trkpt lat="43.90404" lon="7.46998">
        <ele>653</ele>
        <time>2018-09-16T10:16:34.05Z</time>
      </trkpt>
      <trkpt lat="43.90402" lon="7.4699">
        <ele>653</ele>
        <time>2018-09-16T10:16:37.05Z</time>
      </trkpt>
      <trkpt lat="43.90401" lon="7.46981">
        <ele>653</ele>
        <time>2018-09-16T10:16:40.05Z</time>
      </trkpt>
      <trkpt lat="43.90405" lon="7.46974">
        <ele>655</ele>
        <time>2018-09-16T10:16:43.05Z</time>
      </trkpt>
      <trkpt lat="43.90406" lon="7.46964">
        <ele>655</ele>
        <time>2018-09-16T10:16:48.05Z</time>
      </trkpt>
      <trkpt lat="43.90406" lon="7.46955">
        <ele>657</ele>
        <time>2018-09-16T10:16:52.05Z</time>
      </trkpt>
      <trkpt lat="43.90404" lon="7.46946">
        <ele>657</ele>
        <time>2018-09-16T10:16:56.05Z</time>
      </trkpt>
      <trkpt lat="43.90404" lon="7.46936">
        <ele>657</ele>
        <time>2018-09-16T10:16:59.05Z</time>
      </trkpt>
      <trkpt lat="43.90403" lon="7.46927">
        <ele>655</ele>
        <time>2018-09-16T10:17:03.05Z</time>
      </trkpt>
      <trkpt lat="43.90401" lon="7.46919">
        <ele>655</ele>
        <time>2018-09-16T10:17:06.05Z</time>
      </trkpt>
      <trkpt lat="43.90398" lon="7.46912">
        <ele>655</ele>
        <time>2018-09-16T10:17:09.05Z</time>
      </trkpt>
      <trkpt lat="43.90395" lon="7.46902">
        <ele>659</ele>
        <time>2018-09-16T10:17:13.05Z</time>
      </trkpt>
      <trkpt lat="43.90393" lon="7.46891">
        <ele>661</ele>
        <time>2018-09-16T10:17:17.05Z</time>
      </trkpt>
      <trkpt lat="43.90393" lon="7.46881">
        <ele>661</ele>
        <time>2018-09-16T10:17:21.05Z</time>
      </trkpt>
      <trkpt lat="43.90395" lon="7.46869">
        <ele>660</ele>
        <time>2018-09-16T10:17:26.05Z</time>
      </trkpt>
      <trkpt lat="43.90398" lon="7.4686">
        <ele>660.26</ele>
        <time>2018-09-16T10:17:31.05Z</time>
      </trkpt>
      <trkpt lat="43.90399" lon="7.46855">
        <ele>661</ele>
        <time>2018-09-16T10:17:34.05Z</time>
      </trkpt>
      <trkpt lat="43.90404" lon="7.46848">
        <ele>661</ele>
        <time>2018-09-16T10:17:40.05Z</time>
      </trkpt>
      <trkpt lat="43.90406" lon="7.46839">
        <ele>663</ele>
        <time>2018-09-16T10:17:46.05Z</time>
      </trkpt>
      <trkpt lat="43.90408" lon="7.4683">
        <ele>665</ele>
        <time>2018-09-16T10:17:52.05Z</time>
      </trkpt>
      <trkpt lat="43.90411" lon="7.46821">
        <ele>665</ele>
        <time>2018-09-16T10:17:57.05Z</time>
      </trkpt>
      <trkpt lat="43.90415" lon="7.46815">
        <ele>665.52</ele>
        <time>2018-09-16T10:18:01.05Z</time>
      </trkpt>
      <trkpt lat="43.90421" lon="7.4681">
        <ele>667</ele>
        <time>2018-09-16T10:18:04.05Z</time>
      </trkpt>
      <trkpt lat="43.90426" lon="7.46805">
        <ele>667</ele>
        <time>2018-09-16T10:18:07.05Z</time>
      </trkpt>
      <trkpt lat="43.9043" lon="7.46798">
        <ele>666.74</ele>
        <time>2018-09-16T10:18:11.05Z</time>
      </trkpt>
      <trkpt lat="43.90433" lon="7.46791">
        <ele>666</ele>
        <time>2018-09-16T10:18:14.05Z</time>
      </trkpt>
      <trkpt lat="43.90438" lon="7.46782">
        <ele>666</ele>
        <time>2018-09-16T10:18:18.05Z</time>
      </trkpt>
      <trkpt lat="43.90444" lon="7.46778">
        <ele>666.51</ele>
        <time>2018-09-16T10:18:21.05Z</time>
      </trkpt>
      <trkpt lat="43.90451" lon="7.46776">
        <ele>668</ele>
        <time>2018-09-16T10:18:24.05Z</time>
      </trkpt>
      <trkpt lat="43.90445" lon="7.46761">
        <ele>669</ele>
        <time>2018-09-16T10:18:34.05Z</time>
      </trkpt>
      <trkpt lat="43.90435" lon="7.46753">
        <ele>668.74</ele>
        <time>2018-09-16T10:18:41.05Z</time>
      </trkpt>
      <trkpt lat="43.90426" lon="7.46745">
        <ele>668</ele>
        <time>2018-09-16T10:18:45.05Z</time>
      </trkpt>
      <trkpt lat="43.9042" lon="7.46736">
        <ele>668</ele>
        <time>2018-09-16T10:18:49.05Z</time>
      </trkpt>
      <trkpt lat="43.90417" lon="7.46727">
        <ele>667</ele>
        <time>2018-09-16T10:18:52.05Z</time>
      </trkpt>
      <trkpt lat="43.90415" lon="7.46718">
        <ele>667</ele>
        <time>2018-09-16T10:18:55.05Z</time>
      </trkpt>
      <trkpt lat="43.90415" lon="7.46706">
        <ele>667</ele>
        <time>2018-09-16T10:18:59.05Z</time>
      </trkpt>
      <trkpt lat="43.90416" lon="7.46697">
        <ele>665</ele>
        <time>2018-09-16T10:19:03.05Z</time>
      </trkpt>
      <trkpt lat="43.9042" lon="7.46689">
        <ele>665</ele>
        <time>2018-09-16T10:19:07.05Z</time>
      </trkpt>
      <trkpt lat="43.90425" lon="7.46682">
        <ele>667</ele>
        <time>2018-09-16T10:19:15.05Z</time>
      </trkpt>
      <trkpt lat="43.90421" lon="7.46673">
        <ele>669</ele>
        <time>2018-09-16T10:19:22.05Z</time>
      </trkpt>
      <trkpt lat="43.90415" lon="7.46672">
        <ele>669</ele>
        <time>2018-09-16T10:19:29.05Z</time>
      </trkpt>
      <trkpt lat="43.90411" lon="7.46677">
        <ele>669</ele>
        <time>2018-09-16T10:19:33.05Z</time>
      </trkpt>
      <trkpt lat="43.90408" lon="7.46681">
        <ele>669</ele>
        <time>2018-09-16T10:19:36.05Z</time>
      </trkpt>
      <trkpt lat="43.90402" lon="7.46686">
        <ele>669</ele>
        <time>2018-09-16T10:19:39.05Z</time>
      </trkpt>
      <trkpt lat="43.90398" lon="7.46692">
        <ele>670</ele>
        <time>2018-09-16T10:19:42.05Z</time>
      </trkpt>
      <trkpt lat="43.90392" lon="7.46696">
        <ele>670</ele>
        <time>2018-09-16T10:19:45.05Z</time>
      </trkpt>
      <trkpt lat="43.90388" lon="7.46699">
        <ele>670</ele>
        <time>2018-09-16T10:19:47.05Z</time>
      </trkpt>
      <trkpt lat="43.90385" lon="7.46703">
        <ele>670</ele>
        <time>2018-09-16T10:19:49.05Z</time>
      </trkpt>
      <trkpt lat="43.90381" lon="7.46708">
        <ele>668</ele>
        <time>2018-09-16T10:19:52.05Z</time>
      </trkpt>
      <trkpt lat="43.90377" lon="7.46713">
        <ele>668</ele>
        <time>2018-09-16T10:19:55.05Z</time>
      </trkpt>
      <trkpt lat="43.90374" lon="7.46717">
        <ele>668</ele>
        <time>2018-09-16T10:19:58.05Z</time>
      </trkpt>
      <trkpt lat="43.9037" lon="7.4672">
        <ele>667.74</ele>
        <time>2018-09-16T10:20:01.05Z</time>
      </trkpt>
      <trkpt lat="43.90363" lon="7.46727">
        <ele>667</ele>
        <time>2018-09-16T10:20:05.05Z</time>
      </trkpt>
      <trkpt lat="43.90357" lon="7.46734">
        <ele>667</ele>
        <time>2018-09-16T10:20:08.05Z</time>
      </trkpt>
      <trkpt lat="43.90352" lon="7.4674">
        <ele>667.52</ele>
        <time>2018-09-16T10:20:11.05Z</time>
      </trkpt>
      <trkpt lat="43.90346" lon="7.46749">
        <ele>669</ele>
        <time>2018-09-16T10:20:15.05Z</time>
      </trkpt>
      <trkpt lat="43.90341" lon="7.46754">
        <ele>669</ele>
        <time>2018-09-16T10:20:19.05Z</time>
      </trkpt>
      <trkpt lat="43.90337" lon="7.46756">
        <ele>669.26</ele>
        <time>2018-09-16T10:20:21.05Z</time>
      </trkpt>
      <trkpt lat="43.90333" lon="7.46759">
        <ele>670</ele>
        <time>2018-09-16T10:20:23.05Z</time>
      </trkpt>
      <trkpt lat="43.90327" lon="7.46764">
        <ele>670</ele>
        <time>2018-09-16T10:20:27.05Z</time>
      </trkpt>
      <trkpt lat="43.90321" lon="7.4677">
        <ele>672</ele>
        <time>2018-09-16T10:20:32.05Z</time>
      </trkpt>
      <trkpt lat="43.90315" lon="7.46778">
        <ele>672</ele>
        <time>2018-09-16T10:20:36.05Z</time>
      </trkpt>
      <trkpt lat="43.90308" lon="7.46786">
        <ele>672</ele>
        <time>2018-09-16T10:20:40.05Z</time>
      </trkpt>
      <trkpt lat="43.90301" lon="7.46794">
        <ele>668</ele>
        <time>2018-09-16T10:20:44.05Z</time>
      </trkpt>
      <trkpt lat="43.90296" lon="7.46806">
        <ele>665</ele>
        <time>2018-09-16T10:20:48.05Z</time>
      </trkpt>
      <trkpt lat="43.90289" lon="7.46818">
        <ele>665</ele>
        <time>2018-09-16T10:20:53.05Z</time>
      </trkpt>
      <trkpt lat="43.90282" lon="7.46828">
        <ele>663</ele>
        <time>2018-09-16T10:20:58.05Z</time>
      </trkpt>
      <trkpt lat="43.9027" lon="7.4683">
        <ele>657.26</ele>
        <time>2018-09-16T10:21:04.05Z</time>
      </trkpt>
      <trkpt lat="43.9026" lon="7.46828">
        <ele>656</ele>
        <time>2018-09-16T10:21:09.05Z</time>
      </trkpt>
      <trkpt lat="43.90251" lon="7.46827">
        <ele>656</ele>
        <time>2018-09-16T10:21:16.05Z</time>
      </trkpt>
      <trkpt lat="43.9024" lon="7.46825">
        <ele>646.48</ele>
        <time>2018-09-16T10:21:23.05Z</time>
      </trkpt>
      <trkpt lat="43.90231" lon="7.46822">
        <ele>641</ele>
        <time>2018-09-16T10:21:29.05Z</time>
      </trkpt>
      <trkpt lat="43.90221" lon="7.46822">
        <ele>637.74</ele>
        <time>2018-09-16T10:21:35.05Z</time>
      </trkpt>
      <trkpt lat="43.90211" lon="7.46819">
        <ele>629.74</ele>
        <time>2018-09-16T10:21:47.05Z</time>
      </trkpt>
      <trkpt lat="43.90209" lon="7.46808">
        <ele>627</ele>
        <time>2018-09-16T10:21:51.05Z</time>
      </trkpt>
      <trkpt lat="43.90211" lon="7.46797">
        <ele>625</ele>
        <time>2018-09-16T10:21:55.05Z</time>
      </trkpt>
      <trkpt lat="43.90207" lon="7.46785">
        <ele>622</ele>
        <time>2018-09-16T10:22:01.05Z</time>
      </trkpt>
      <trkpt lat="43.90206" lon="7.46774">
        <ele>622</ele>
        <time>2018-09-16T10:22:05.05Z</time>
      </trkpt>
      <trkpt lat="43.90195" lon="7.46768">
        <ele>616.96</ele>
        <time>2018-09-16T10:22:16.05Z</time>
      </trkpt>
      <trkpt lat="43.90184" lon="7.46773">
        <ele>611.74</ele>
        <time>2018-09-16T10:22:22.05Z</time>
      </trkpt>
      <trkpt lat="43.90176" lon="7.46778">
        <ele>610.52</ele>
        <time>2018-09-16T10:22:26.05Z</time>
      </trkpt>
      <trkpt lat="43.90168" lon="7.46784">
        <ele>609.74</ele>
        <time>2018-09-16T10:22:31.05Z</time>
      </trkpt>
      <trkpt lat="43.90159" lon="7.46787">
        <ele>608.74</ele>
        <time>2018-09-16T10:22:36.05Z</time>
      </trkpt>
      <trkpt lat="43.9015" lon="7.46784">
        <ele>605</ele>
        <time>2018-09-16T10:22:44.05Z</time>
      </trkpt>
      <trkpt lat="43.90142" lon="7.46792">
        <ele>603</ele>
        <time>2018-09-16T10:22:49.05Z</time>
      </trkpt>
      <trkpt lat="43.90133" lon="7.46798">
        <ele>604</ele>
        <time>2018-09-16T10:22:53.05Z</time>
      </trkpt>
      <trkpt lat="43.90123" lon="7.46802">
        <ele>604</ele>
        <time>2018-09-16T10:22:57.05Z</time>
      </trkpt>
      <trkpt lat="43.90113" lon="7.46807">
        <ele>601</ele>
        <time>2018-09-16T10:23:03.05Z</time>
      </trkpt>
      <trkpt lat="43.90105" lon="7.46816">
        <ele>598</ele>
        <time>2018-09-16T10:23:08.05Z</time>
      </trkpt>
      <trkpt lat="43.90097" lon="7.46823">
        <ele>596</ele>
        <time>2018-09-16T10:23:12.05Z</time>
      </trkpt>
      <trkpt lat="43.9009" lon="7.46831">
        <ele>595.74</ele>
        <time>2018-09-16T10:23:16.05Z</time>
      </trkpt>
      <trkpt lat="43.90083" lon="7.46836">
        <ele>595</ele>
        <time>2018-09-16T10:23:20.05Z</time>
      </trkpt>
      <trkpt lat="43.90072" lon="7.46838">
        <ele>591.97</ele>
        <time>2018-09-16T10:23:26.05Z</time>
      </trkpt>
      <trkpt lat="43.90062" lon="7.46838">
        <ele>589</ele>
        <time>2018-09-16T10:23:30.05Z</time>
      </trkpt>
      <trkpt lat="43.90055" lon="7.46836">
        <ele>588</ele>
        <time>2018-09-16T10:23:33.05Z</time>
      </trkpt>
      <trkpt lat="43.90047" lon="7.46835">
        <ele>586</ele>
        <time>2018-09-16T10:23:37.05Z</time>
      </trkpt>
      <trkpt lat="43.9004" lon="7.46833">
        <ele>585.48</ele>
        <time>2018-09-16T10:23:41.05Z</time>
      </trkpt>
      <trkpt lat="43.90032" lon="7.46832">
        <ele>584</ele>
        <time>2018-09-16T10:23:45.05Z</time>
      </trkpt>
      <trkpt lat="43.90024" lon="7.46827">
        <ele>581</ele>
        <time>2018-09-16T10:23:48.05Z</time>
      </trkpt>
      <trkpt lat="43.90017" lon="7.46824">
        <ele>580.22</ele>
        <time>2018-09-16T10:23:51.05Z</time>
      </trkpt>
      <trkpt lat="43.90011" lon="7.4682">
        <ele>577</ele>
        <time>2018-09-16T10:23:54.05Z</time>
      </trkpt>
      <trkpt lat="43.90003" lon="7.46816">
        <ele>576.74</ele>
        <time>2018-09-16T10:23:58.05Z</time>
      </trkpt>
      <trkpt lat="43.89994" lon="7.46811">
        <ele>574</ele>
        <time>2018-09-16T10:24:04.05Z</time>
      </trkpt>
      <trkpt lat="43.89984" lon="7.46814">
        <ele>574</ele>
        <time>2018-09-16T10:24:13.05Z</time>
      </trkpt>
      <trkpt lat="43.89974" lon="7.46814">
        <ele>574</ele>
        <time>2018-09-16T10:24:19.05Z</time>
      </trkpt>
      <trkpt lat="43.89965" lon="7.46813">
        <ele>577</ele>
        <time>2018-09-16T10:24:24.05Z</time>
      </trkpt>
      <trkpt lat="43.89957" lon="7.46813">
        <ele>578</ele>
        <time>2018-09-16T10:24:28.05Z</time>
      </trkpt>
      <trkpt lat="43.89948" lon="7.46814">
        <ele>579</ele>
        <time>2018-09-16T10:24:32.05Z</time>
      </trkpt>
      <trkpt lat="43.8994" lon="7.46811">
        <ele>579</ele>
        <time>2018-09-16T10:24:36.05Z</time>
      </trkpt>
      <trkpt lat="43.89931" lon="7.46809">
        <ele>579.26</ele>
        <time>2018-09-16T10:24:41.05Z</time>
      </trkpt>
      <trkpt lat="43.89922" lon="7.46807">
        <ele>580</ele>
        <time>2018-09-16T10:24:45.05Z</time>
      </trkpt>
      <trkpt lat="43.89915" lon="7.46804">
        <ele>580</ele>
        <time>2018-09-16T10:24:48.05Z</time>
      </trkpt>
      <trkpt lat="43.89907" lon="7.46802">
        <ele>579.74</ele>
        <time>2018-09-16T10:24:51.05Z</time>
      </trkpt>
      <trkpt lat="43.899" lon="7.468">
        <ele>579</ele>
        <time>2018-09-16T10:24:54.05Z</time>
      </trkpt>
      <trkpt lat="43.89894" lon="7.46796">
        <ele>579</ele>
        <time>2018-09-16T10:24:57.05Z</time>
      </trkpt>
      <trkpt lat="43.89888" lon="7.4679">
        <ele>579</ele>
        <time>2018-09-16T10:25:00.05Z</time>
      </trkpt>
      <trkpt lat="43.89881" lon="7.46783">
        <ele>577</ele>
        <time>2018-09-16T10:25:04.05Z</time>
      </trkpt>
      <trkpt lat="43.89871" lon="7.46777">
        <ele>577</ele>
        <time>2018-09-16T10:25:09.05Z</time>
      </trkpt>
      <trkpt lat="43.89864" lon="7.46772">
        <ele>577</ele>
        <time>2018-09-16T10:25:12.05Z</time>
      </trkpt>
      <trkpt lat="43.89857" lon="7.46765">
        <ele>577</ele>
        <time>2018-09-16T10:25:16.05Z</time>
      </trkpt>
      <trkpt lat="43.89852" lon="7.46758">
        <ele>577</ele>
        <time>2018-09-16T10:25:19.05Z</time>
      </trkpt>
      <trkpt lat="43.89842" lon="7.46759">
        <ele>576</ele>
        <time>2018-09-16T10:25:28.05Z</time>
      </trkpt>
      <trkpt lat="43.89833" lon="7.46765">
        <ele>575</ele>
        <time>2018-09-16T10:25:36.05Z</time>
      </trkpt>
      <trkpt lat="43.89823" lon="7.46763">
        <ele>576</ele>
        <time>2018-09-16T10:25:47.05Z</time>
      </trkpt>
      <trkpt lat="43.89812" lon="7.46759">
        <ele>579</ele>
        <time>2018-09-16T10:25:54.05Z</time>
      </trkpt>
      <trkpt lat="43.89803" lon="7.46755">
        <ele>580</ele>
        <time>2018-09-16T10:26:02.05Z</time>
      </trkpt>
      <trkpt lat="43.89794" lon="7.46748">
        <ele>580</ele>
        <time>2018-09-16T10:26:10.05Z</time>
      </trkpt>
      <trkpt lat="43.89785" lon="7.4674">
        <ele>582</ele>
        <time>2018-09-16T10:26:18.05Z</time>
      </trkpt>
      <trkpt lat="43.89778" lon="7.46735">
        <ele>583</ele>
        <time>2018-09-16T10:26:23.05Z</time>
      </trkpt>
      <trkpt lat="43.89772" lon="7.46729">
        <ele>583</ele>
        <time>2018-09-16T10:26:30.05Z</time>
      </trkpt>
      <trkpt lat="43.89766" lon="7.46719">
        <ele>584</ele>
        <time>2018-09-16T10:26:39.05Z</time>
      </trkpt>
      <trkpt lat="43.89761" lon="7.46712">
        <ele>586</ele>
        <time>2018-09-16T10:26:45.05Z</time>
      </trkpt>
      <trkpt lat="43.89754" lon="7.467">
        <ele>588</ele>
        <time>2018-09-16T10:26:54.05Z</time>
      </trkpt>
      <trkpt lat="43.89745" lon="7.46693">
        <ele>589</ele>
        <time>2018-09-16T10:27:00.05Z</time>
      </trkpt>
      <trkpt lat="43.89736" lon="7.46686">
        <ele>592</ele>
        <time>2018-09-16T10:27:05.05Z</time>
      </trkpt>
      <trkpt lat="43.89729" lon="7.46682">
        <ele>592</ele>
        <time>2018-09-16T10:27:09.05Z</time>
      </trkpt>
      <trkpt lat="43.89721" lon="7.46678">
        <ele>592</ele>
        <time>2018-09-16T10:27:14.05Z</time>
      </trkpt>
      <trkpt lat="43.89713" lon="7.46675">
        <ele>592</ele>
        <time>2018-09-16T10:27:18.05Z</time>
      </trkpt>
      <trkpt lat="43.89708" lon="7.46666">
        <ele>592</ele>
        <time>2018-09-16T10:27:24.05Z</time>
      </trkpt>
      <trkpt lat="43.89702" lon="7.46659">
        <ele>592.26</ele>
        <time>2018-09-16T10:27:31.05Z</time>
      </trkpt>
      <trkpt lat="43.89695" lon="7.4665">
        <ele>593.52</ele>
        <time>2018-09-16T10:27:41.05Z</time>
      </trkpt>
      <trkpt lat="43.89687" lon="7.46644">
        <ele>595</ele>
        <time>2018-09-16T10:27:47.05Z</time>
      </trkpt>
      <trkpt lat="43.89679" lon="7.4664">
        <ele>596</ele>
        <time>2018-09-16T10:27:53.05Z</time>
      </trkpt>
      <trkpt lat="43.89671" lon="7.46633">
        <ele>596</ele>
        <time>2018-09-16T10:27:59.05Z</time>
      </trkpt>
      <trkpt lat="43.89662" lon="7.46623">
        <ele>598</ele>
        <time>2018-09-16T10:28:08.05Z</time>
      </trkpt>
      <trkpt lat="43.89655" lon="7.46616">
        <ele>600</ele>
        <time>2018-09-16T10:28:16.05Z</time>
      </trkpt>
      <trkpt lat="43.8965" lon="7.46603">
        <ele>601</ele>
        <time>2018-09-16T10:28:27.05Z</time>
      </trkpt>
      <trkpt lat="43.89643" lon="7.46591">
        <ele>603</ele>
        <time>2018-09-16T10:28:35.05Z</time>
      </trkpt>
      <trkpt lat="43.89635" lon="7.4658">
        <ele>606</ele>
        <time>2018-09-16T10:28:42.05Z</time>
      </trkpt>
      <trkpt lat="43.89629" lon="7.46568">
        <ele>606</ele>
        <time>2018-09-16T10:28:47.05Z</time>
      </trkpt>
      <trkpt lat="43.89624" lon="7.46554">
        <ele>607</ele>
        <time>2018-09-16T10:28:52.05Z</time>
      </trkpt>
      <trkpt lat="43.89619" lon="7.46541">
        <ele>607</ele>
        <time>2018-09-16T10:28:57.05Z</time>
      </trkpt>
      <trkpt lat="43.89613" lon="7.46528">
        <ele>608</ele>
        <time>2018-09-16T10:29:02.05Z</time>
      </trkpt>
      <trkpt lat="43.89609" lon="7.46515">
        <ele>608</ele>
        <time>2018-09-16T10:29:07.05Z</time>
      </trkpt>
      <trkpt lat="43.89605" lon="7.46501">
        <ele>608</ele>
        <time>2018-09-16T10:29:15.05Z</time>
      </trkpt>
      <trkpt lat="43.89608" lon="7.46489">
        <ele>610</ele>
        <time>2018-09-16T10:29:24.05Z</time>
      </trkpt>
      <trkpt lat="43.89607" lon="7.46477">
        <ele>610.26</ele>
        <time>2018-09-16T10:29:31.05Z</time>
      </trkpt>
      <trkpt lat="43.89602" lon="7.46468">
        <ele>611</ele>
        <time>2018-09-16T10:29:40.05Z</time>
      </trkpt>
      <trkpt lat="43.89595" lon="7.46464">
        <ele>613</ele>
        <time>2018-09-16T10:29:47.05Z</time>
      </trkpt>
      <trkpt lat="43.89588" lon="7.46457">
        <ele>615</ele>
        <time>2018-09-16T10:29:53.05Z</time>
      </trkpt>
      <trkpt lat="43.89584" lon="7.46449">
        <ele>615</ele>
        <time>2018-09-16T10:29:56.05Z</time>
      </trkpt>
      <trkpt lat="43.8958" lon="7.4644">
        <ele>615</ele>
        <time>2018-09-16T10:30:00.05Z</time>
      </trkpt>
      <trkpt lat="43.89575" lon="7.46433">
        <ele>619</ele>
        <time>2018-09-16T10:30:04.05Z</time>
      </trkpt>
      <trkpt lat="43.8957" lon="7.46426">
        <ele>619</ele>
        <time>2018-09-16T10:30:07.05Z</time>
      </trkpt>
      <trkpt lat="43.89566" lon="7.46421">
        <ele>618.85</ele>
        <time>2018-09-16T10:30:10.05Z</time>
      </trkpt>
      <trkpt lat="43.89561" lon="7.46413">
        <ele>620</ele>
        <time>2018-09-16T10:30:14.05Z</time>
      </trkpt>
      <trkpt lat="43.89555" lon="7.46406">
        <ele>620</ele>
        <time>2018-09-16T10:30:19.05Z</time>
      </trkpt>
      <trkpt lat="43.89549" lon="7.46399">
        <ele>620.16</ele>
        <time>2018-09-16T10:30:23.05Z</time>
      </trkpt>
      <trkpt lat="43.89545" lon="7.4639">
        <ele>621</ele>
        <time>2018-09-16T10:30:27.05Z</time>
      </trkpt>
      <trkpt lat="43.8954" lon="7.4638">
        <ele>621</ele>
        <time>2018-09-16T10:30:31.05Z</time>
      </trkpt>
      <trkpt lat="43.89537" lon="7.4637">
        <ele>622</ele>
        <time>2018-09-16T10:30:36.05Z</time>
      </trkpt>
      <trkpt lat="43.89535" lon="7.4636">
        <ele>622</ele>
        <time>2018-09-16T10:30:40.05Z</time>
      </trkpt>
      <trkpt lat="43.89532" lon="7.46351">
        <ele>623</ele>
        <time>2018-09-16T10:30:44.05Z</time>
      </trkpt>
      <trkpt lat="43.89527" lon="7.46343">
        <ele>623</ele>
        <time>2018-09-16T10:30:48.05Z</time>
      </trkpt>
      <trkpt lat="43.8952" lon="7.46343">
        <ele>621</ele>
        <time>2018-09-16T10:30:56.05Z</time>
      </trkpt>
      <trkpt lat="43.89513" lon="7.46338">
        <ele>621</ele>
        <time>2018-09-16T10:31:01.05Z</time>
      </trkpt>
      <trkpt lat="43.89506" lon="7.46334">
        <ele>612</ele>
        <time>2018-09-16T10:31:06.05Z</time>
      </trkpt>
      <trkpt lat="43.895" lon="7.46328">
        <ele>610</ele>
        <time>2018-09-16T10:31:10.05Z</time>
      </trkpt>
      <trkpt lat="43.89494" lon="7.46324">
        <ele>607</ele>
        <time>2018-09-16T10:31:14.05Z</time>
      </trkpt>
      <trkpt lat="43.89491" lon="7.46332">
        <ele>606.84</ele>
        <time>2018-09-16T10:31:18.05Z</time>
      </trkpt>
      <trkpt lat="43.89494" lon="7.46341">
        <ele>603</ele>
        <time>2018-09-16T10:31:21.05Z</time>
      </trkpt>
      <trkpt lat="43.89494" lon="7.4635">
        <ele>602</ele>
        <time>2018-09-16T10:31:24.05Z</time>
      </trkpt>
      <trkpt lat="43.89486" lon="7.46348">
        <ele>599</ele>
        <time>2018-09-16T10:31:30.05Z</time>
      </trkpt>
      <trkpt lat="43.8948" lon="7.46356">
        <ele>593</ele>
        <time>2018-09-16T10:31:38.05Z</time>
      </trkpt>
      <trkpt lat="43.89471" lon="7.46359">
        <ele>589.84</ele>
        <time>2018-09-16T10:31:46.05Z</time>
      </trkpt>
      <trkpt lat="43.89465" lon="7.46349">
        <ele>584.75</ele>
        <time>2018-09-16T10:31:51.05Z</time>
      </trkpt>
      <trkpt lat="43.89463" lon="7.46361">
        <ele>584</ele>
        <time>2018-09-16T10:31:57.05Z</time>
      </trkpt>
      <trkpt lat="43.89464" lon="7.46371">
        <ele>582</ele>
        <time>2018-09-16T10:32:01.05Z</time>
      </trkpt>
      <trkpt lat="43.89459" lon="7.46381">
        <ele>575.54</ele>
        <time>2018-09-16T10:32:11.05Z</time>
      </trkpt>
      <trkpt lat="43.89454" lon="7.4639">
        <ele>572</ele>
        <time>2018-09-16T10:32:18.05Z</time>
      </trkpt>
      <trkpt lat="43.89448" lon="7.46402">
        <ele>567</ele>
        <time>2018-09-16T10:32:26.05Z</time>
      </trkpt>
      <trkpt lat="43.89438" lon="7.46398">
        <ele>562.25</ele>
        <time>2018-09-16T10:32:32.05Z</time>
      </trkpt>
      <trkpt lat="43.89428" lon="7.46391">
        <ele>559.59</ele>
        <time>2018-09-16T10:32:38.05Z</time>
      </trkpt>
      <trkpt lat="43.8942" lon="7.46382">
        <ele>558.75</ele>
        <time>2018-09-16T10:32:43.05Z</time>
      </trkpt>
      <trkpt lat="43.89411" lon="7.46373">
        <ele>556</ele>
        <time>2018-09-16T10:32:48.05Z</time>
      </trkpt>
      <trkpt lat="43.894" lon="7.46375">
        <ele>554</ele>
        <time>2018-09-16T10:32:57.05Z</time>
      </trkpt>
      <trkpt lat="43.89391" lon="7.46369">
        <ele>547</ele>
        <time>2018-09-16T10:33:03.05Z</time>
      </trkpt>
      <trkpt lat="43.89389" lon="7.46357">
        <ele>543</ele>
        <time>2018-09-16T10:33:07.05Z</time>
      </trkpt>
      <trkpt lat="43.89378" lon="7.4636">
        <ele>538</ele>
        <time>2018-09-16T10:33:17.05Z</time>
      </trkpt>
      <trkpt lat="43.89369" lon="7.46371">
        <ele>535.79</ele>
        <time>2018-09-16T10:33:22.05Z</time>
      </trkpt>
      <trkpt lat="43.89362" lon="7.46379">
        <ele>534.5</ele>
        <time>2018-09-16T10:33:25.05Z</time>
      </trkpt>
      <trkpt lat="43.89353" lon="7.46373">
        <ele>530</ele>
        <time>2018-09-16T10:33:30.05Z</time>
      </trkpt>
      <trkpt lat="43.89343" lon="7.46369">
        <ele>524</ele>
        <time>2018-09-16T10:33:41.05Z</time>
      </trkpt>
      <trkpt lat="43.89333" lon="7.46376">
        <ele>519.8</ele>
        <time>2018-09-16T10:33:48.05Z</time>
      </trkpt>
      <trkpt lat="43.89322" lon="7.46379">
        <ele>515.63</ele>
        <time>2018-09-16T10:33:54.05Z</time>
      </trkpt>
      <trkpt lat="43.89313" lon="7.46388">
        <ele>510.84</ele>
        <time>2018-09-16T10:34:00.05Z</time>
      </trkpt>
      <trkpt lat="43.89306" lon="7.46401">
        <ele>507</ele>
        <time>2018-09-16T10:34:06.05Z</time>
      </trkpt>
      <trkpt lat="43.89301" lon="7.46416">
        <ele>503</ele>
        <time>2018-09-16T10:34:12.05Z</time>
      </trkpt>
      <trkpt lat="43.89294" lon="7.46426">
        <ele>497.84</ele>
        <time>2018-09-16T10:34:20.05Z</time>
      </trkpt>
      <trkpt lat="43.89285" lon="7.46416">
        <ele>493.78</ele>
        <time>2018-09-16T10:34:27.05Z</time>
      </trkpt>
      <trkpt lat="43.89276" lon="7.46408">
        <ele>491</ele>
        <time>2018-09-16T10:34:33.05Z</time>
      </trkpt>
      <trkpt lat="43.89266" lon="7.46399">
        <ele>485.79</ele>
        <time>2018-09-16T10:34:40.05Z</time>
      </trkpt>
      <trkpt lat="43.89259" lon="7.46387">
        <ele>481</ele>
        <time>2018-09-16T10:34:46.05Z</time>
      </trkpt>
      <trkpt lat="43.89257" lon="7.46373">
        <ele>480</ele>
        <time>2018-09-16T10:34:52.05Z</time>
      </trkpt>
      <trkpt lat="43.89256" lon="7.46359">
        <ele>474.74</ele>
        <time>2018-09-16T10:35:02.05Z</time>
      </trkpt>
      <trkpt lat="43.89246" lon="7.46353">
        <ele>467.22</ele>
        <time>2018-09-16T10:35:12.05Z</time>
      </trkpt>
      <trkpt lat="43.89239" lon="7.46344">
        <ele>464.25</ele>
        <time>2018-09-16T10:35:20.05Z</time>
      </trkpt>
      <trkpt lat="43.89233" lon="7.46331">
        <ele>462</ele>
        <time>2018-09-16T10:35:26.05Z</time>
      </trkpt>
      <trkpt lat="43.89232" lon="7.46317">
        <ele>458</ele>
        <time>2018-09-16T10:35:31.05Z</time>
      </trkpt>
      <trkpt lat="43.89231" lon="7.46303">
        <ele>459</ele>
        <time>2018-09-16T10:35:39.05Z</time>
      </trkpt>
      <trkpt lat="43.89227" lon="7.4629">
        <ele>460</ele>
        <time>2018-09-16T10:35:45.05Z</time>
      </trkpt>
      <trkpt lat="43.89223" lon="7.46276">
        <ele>460</ele>
        <time>2018-09-16T10:35:50.05Z</time>
      </trkpt>
      <trkpt lat="43.89217" lon="7.46265">
        <ele>458</ele>
        <time>2018-09-16T10:35:57.05Z</time>
      </trkpt>
      <trkpt lat="43.89207" lon="7.46264">
        <ele>455</ele>
        <time>2018-09-16T10:36:07.05Z</time>
      </trkpt>
      <trkpt lat="43.89202" lon="7.46272">
        <ele>448</ele>
        <time>2018-09-16T10:36:16.05Z</time>
      </trkpt>
      <trkpt lat="43.89202" lon="7.46281">
        <ele>447.26</ele>
        <time>2018-09-16T10:36:19.05Z</time>
      </trkpt>
      <trkpt lat="43.89195" lon="7.46292">
        <ele>446</ele>
        <time>2018-09-16T10:36:27.05Z</time>
      </trkpt>
      <trkpt lat="43.89197" lon="7.46307">
        <ele>447</ele>
        <time>2018-09-16T10:36:34.05Z</time>
      </trkpt>
      <trkpt lat="43.89194" lon="7.46318">
        <ele>447</ele>
        <time>2018-09-16T10:36:38.05Z</time>
      </trkpt>
      <trkpt lat="43.89193" lon="7.46326">
        <ele>447</ele>
        <time>2018-09-16T10:36:41.05Z</time>
      </trkpt>
      <trkpt lat="43.89189" lon="7.46338">
        <ele>447</ele>
        <time>2018-09-16T10:36:45.05Z</time>
      </trkpt>
      <trkpt lat="43.89182" lon="7.46349">
        <ele>447</ele>
        <time>2018-09-16T10:36:49.05Z</time>
      </trkpt>
      <trkpt lat="43.89176" lon="7.46359">
        <ele>446</ele>
        <time>2018-09-16T10:36:56.05Z</time>
      </trkpt>
      <trkpt lat="43.89169" lon="7.46367">
        <ele>449</ele>
        <time>2018-09-16T10:37:07.05Z</time>
      </trkpt>
      <trkpt lat="43.89172" lon="7.46353">
        <ele>449.52</ele>
        <time>2018-09-16T10:37:21.05Z</time>
      </trkpt>
      <trkpt lat="43.89173" lon="7.46338">
        <ele>451</ele>
        <time>2018-09-16T10:37:29.05Z</time>
      </trkpt>
      <trkpt lat="43.89173" lon="7.46323">
        <ele>453</ele>
        <time>2018-09-16T10:37:40.05Z</time>
      </trkpt>
      <trkpt lat="43.89173" lon="7.46307">
        <ele>455</ele>
        <time>2018-09-16T10:37:48.05Z</time>
      </trkpt>
      <trkpt lat="43.89169" lon="7.46294">
        <ele>456</ele>
        <time>2018-09-16T10:38:00.05Z</time>
      </trkpt>
      <trkpt lat="43.89158" lon="7.46293">
        <ele>467</ele>
        <time>2018-09-16T10:38:38.05Z</time>
      </trkpt>
      <trkpt lat="43.89157" lon="7.46303">
        <ele>467</ele>
        <time>2018-09-16T10:38:44.05Z</time>
      </trkpt>
      <trkpt lat="43.89156" lon="7.46314">
        <ele>467</ele>
        <time>2018-09-16T10:38:50.05Z</time>
      </trkpt>
      <trkpt lat="43.89155" lon="7.46328">
        <ele>468</ele>
        <time>2018-09-16T10:38:57.05Z</time>
      </trkpt>
      <trkpt lat="43.89153" lon="7.46335">
        <ele>468</ele>
        <time>2018-09-16T10:39:01.05Z</time>
      </trkpt>
      <trkpt lat="43.89151" lon="7.46343">
        <ele>468</ele>
        <time>2018-09-16T10:39:05.05Z</time>
      </trkpt>
      <trkpt lat="43.89145" lon="7.46354">
        <ele>469</ele>
        <time>2018-09-16T10:39:12.05Z</time>
      </trkpt>
      <trkpt lat="43.89138" lon="7.46363">
        <ele>469</ele>
        <time>2018-09-16T10:39:17.05Z</time>
      </trkpt>
      <trkpt lat="43.89131" lon="7.46369">
        <ele>469.26</ele>
        <time>2018-09-16T10:39:21.05Z</time>
      </trkpt>
      <trkpt lat="43.89123" lon="7.46379">
        <ele>470</ele>
        <time>2018-09-16T10:39:26.05Z</time>
      </trkpt>
      <trkpt lat="43.89115" lon="7.46388">
        <ele>470</ele>
        <time>2018-09-16T10:39:31.05Z</time>
      </trkpt>
      <trkpt lat="43.89107" lon="7.46398">
        <ele>470</ele>
        <time>2018-09-16T10:39:37.05Z</time>
      </trkpt>
      <trkpt lat="43.891" lon="7.4641">
        <ele>472</ele>
        <time>2018-09-16T10:39:43.05Z</time>
      </trkpt>
      <trkpt lat="43.89094" lon="7.46422">
        <ele>472</ele>
        <time>2018-09-16T10:39:48.05Z</time>
      </trkpt>
      <trkpt lat="43.89087" lon="7.46434">
        <ele>472</ele>
        <time>2018-09-16T10:39:54.05Z</time>
      </trkpt>
      <trkpt lat="43.89079" lon="7.46443">
        <ele>472</ele>
        <time>2018-09-16T10:39:59.05Z</time>
      </trkpt>
      <trkpt lat="43.8907" lon="7.46451">
        <ele>472</ele>
        <time>2018-09-16T10:40:03.05Z</time>
      </trkpt>
      <trkpt lat="43.89061" lon="7.46456">
        <ele>472</ele>
        <time>2018-09-16T10:40:07.05Z</time>
      </trkpt>
      <trkpt lat="43.89052" lon="7.4646">
        <ele>472</ele>
        <time>2018-09-16T10:40:11.05Z</time>
      </trkpt>
      <trkpt lat="43.89042" lon="7.46469">
        <ele>472</ele>
        <time>2018-09-16T10:40:16.05Z</time>
      </trkpt>
      <trkpt lat="43.89035" lon="7.46478">
        <ele>472</ele>
        <time>2018-09-16T10:40:20.05Z</time>
      </trkpt>
      <trkpt lat="43.89027" lon="7.46489">
        <ele>472</ele>
        <time>2018-09-16T10:40:25.05Z</time>
      </trkpt>
      <trkpt lat="43.89018" lon="7.465">
        <ele>472</ele>
        <time>2018-09-16T10:40:30.05Z</time>
      </trkpt>
      <trkpt lat="43.89009" lon="7.46512">
        <ele>471</ele>
        <time>2018-09-16T10:40:35.05Z</time>
      </trkpt>
      <trkpt lat="43.89" lon="7.46521">
        <ele>471</ele>
        <time>2018-09-16T10:40:40.05Z</time>
      </trkpt>
      <trkpt lat="43.8899" lon="7.4653">
        <ele>470</ele>
        <time>2018-09-16T10:40:45.05Z</time>
      </trkpt>
      <trkpt lat="43.8898" lon="7.46537">
        <ele>470</ele>
        <time>2018-09-16T10:40:50.05Z</time>
      </trkpt>
      <trkpt lat="43.88971" lon="7.46539">
        <ele>472</ele>
        <time>2018-09-16T10:40:54.05Z</time>
      </trkpt>
      <trkpt lat="43.88963" lon="7.46536">
        <ele>472</ele>
        <time>2018-09-16T10:40:58.05Z</time>
      </trkpt>
      <trkpt lat="43.88954" lon="7.4653">
        <ele>472</ele>
        <time>2018-09-16T10:41:02.05Z</time>
      </trkpt>
      <trkpt lat="43.88943" lon="7.46527">
        <ele>472</ele>
        <time>2018-09-16T10:41:07.05Z</time>
      </trkpt>
      <trkpt lat="43.88931" lon="7.46528">
        <ele>472</ele>
        <time>2018-09-16T10:41:11.05Z</time>
      </trkpt>
      <trkpt lat="43.88921" lon="7.46533">
        <ele>472</ele>
        <time>2018-09-16T10:41:15.05Z</time>
      </trkpt>
      <trkpt lat="43.88912" lon="7.4654">
        <ele>472</ele>
        <time>2018-09-16T10:41:19.05Z</time>
      </trkpt>
      <trkpt lat="43.88904" lon="7.46548">
        <ele>472</ele>
        <time>2018-09-16T10:41:23.05Z</time>
      </trkpt>
      <trkpt lat="43.88898" lon="7.46557">
        <ele>472</ele>
        <time>2018-09-16T10:41:27.05Z</time>
      </trkpt>
      <trkpt lat="43.88891" lon="7.4657">
        <ele>471</ele>
        <time>2018-09-16T10:41:32.05Z</time>
      </trkpt>
      <trkpt lat="43.88885" lon="7.4658">
        <ele>471</ele>
        <time>2018-09-16T10:41:36.05Z</time>
      </trkpt>
      <trkpt lat="43.88878" lon="7.46588">
        <ele>471</ele>
        <time>2018-09-16T10:41:40.05Z</time>
      </trkpt>
      <trkpt lat="43.88871" lon="7.46592">
        <ele>472</ele>
        <time>2018-09-16T10:41:43.05Z</time>
      </trkpt>
      <trkpt lat="43.88863" lon="7.46596">
        <ele>472</ele>
        <time>2018-09-16T10:41:46.05Z</time>
      </trkpt>
      <trkpt lat="43.88856" lon="7.466">
        <ele>472</ele>
        <time>2018-09-16T10:41:49.05Z</time>
      </trkpt>
      <trkpt lat="43.88849" lon="7.46603">
        <ele>470</ele>
        <time>2018-09-16T10:41:52.05Z</time>
      </trkpt>
      <trkpt lat="43.88841" lon="7.46603">
        <ele>470</ele>
        <time>2018-09-16T10:41:58.05Z</time>
      </trkpt>
      <trkpt lat="43.88848" lon="7.46594">
        <ele>469</ele>
        <time>2018-09-16T10:42:09.05Z</time>
      </trkpt>
      <trkpt lat="43.88856" lon="7.46589">
        <ele>471</ele>
        <time>2018-09-16T10:42:18.05Z</time>
      </trkpt>
      <trkpt lat="43.88865" lon="7.46585">
        <ele>472</ele>
        <time>2018-09-16T10:42:24.05Z</time>
      </trkpt>
      <trkpt lat="43.88873" lon="7.46579">
        <ele>472</ele>
        <time>2018-09-16T10:42:30.05Z</time>
      </trkpt>
      <trkpt lat="43.88879" lon="7.46571">
        <ele>475</ele>
        <time>2018-09-16T10:42:36.05Z</time>
      </trkpt>
      <trkpt lat="43.88885" lon="7.46563">
        <ele>476</ele>
        <time>2018-09-16T10:42:42.05Z</time>
      </trkpt>
      <trkpt lat="43.88892" lon="7.46553">
        <ele>475.74</ele>
        <time>2018-09-16T10:42:47.05Z</time>
      </trkpt>
      <trkpt lat="43.889" lon="7.46541">
        <ele>475</ele>
        <time>2018-09-16T10:42:52.05Z</time>
      </trkpt>
      <trkpt lat="43.88907" lon="7.46532">
        <ele>475</ele>
        <time>2018-09-16T10:42:57.05Z</time>
      </trkpt>
      <trkpt lat="43.88916" lon="7.46524">
        <ele>476</ele>
        <time>2018-09-16T10:43:03.05Z</time>
      </trkpt>
      <trkpt lat="43.88927" lon="7.46519">
        <ele>476</ele>
        <time>2018-09-16T10:43:09.05Z</time>
      </trkpt>
      <trkpt lat="43.88938" lon="7.46518">
        <ele>477</ele>
        <time>2018-09-16T10:43:15.05Z</time>
      </trkpt>
      <trkpt lat="43.88948" lon="7.46522">
        <ele>478</ele>
        <time>2018-09-16T10:43:22.05Z</time>
      </trkpt>
      <trkpt lat="43.88958" lon="7.46523">
        <ele>478</ele>
        <time>2018-09-16T10:43:29.05Z</time>
      </trkpt>
      <trkpt lat="43.88968" lon="7.46519">
        <ele>479</ele>
        <time>2018-09-16T10:43:40.05Z</time>
      </trkpt>
      <trkpt lat="43.88977" lon="7.46512">
        <ele>480</ele>
        <time>2018-09-16T10:43:46.05Z</time>
      </trkpt>
      <trkpt lat="43.88985" lon="7.46502">
        <ele>480</ele>
        <time>2018-09-16T10:43:53.05Z</time>
      </trkpt>
      <trkpt lat="43.8899" lon="7.4649">
        <ele>483</ele>
        <time>2018-09-16T10:44:02.05Z</time>
      </trkpt>
      <trkpt lat="43.88998" lon="7.46479">
        <ele>483</ele>
        <time>2018-09-16T10:44:10.05Z</time>
      </trkpt>
      <trkpt lat="43.89006" lon="7.46467">
        <ele>484</ele>
        <time>2018-09-16T10:44:19.05Z</time>
      </trkpt>
      <trkpt lat="43.89013" lon="7.46457">
        <ele>485</ele>
        <time>2018-09-16T10:44:26.05Z</time>
      </trkpt>
      <trkpt lat="43.89021" lon="7.46448">
        <ele>487</ele>
        <time>2018-09-16T10:44:36.05Z</time>
      </trkpt>
      <trkpt lat="43.89027" lon="7.46436">
        <ele>490</ele>
        <time>2018-09-16T10:44:48.05Z</time>
      </trkpt>
      <trkpt lat="43.89035" lon="7.46426">
        <ele>493.26</ele>
        <time>2018-09-16T10:45:01.05Z</time>
      </trkpt>
      <trkpt lat="43.89044" lon="7.46418">
        <ele>496</ele>
        <time>2018-09-16T10:45:14.05Z</time>
      </trkpt>
      <trkpt lat="43.89051" lon="7.46407">
        <ele>498</ele>
        <time>2018-09-16T10:45:25.05Z</time>
      </trkpt>
      <trkpt lat="43.89058" lon="7.46396">
        <ele>500</ele>
        <time>2018-09-16T10:45:35.05Z</time>
      </trkpt>
      <trkpt lat="43.89066" lon="7.46388">
        <ele>502</ele>
        <time>2018-09-16T10:45:43.05Z</time>
      </trkpt>
      <trkpt lat="43.89073" lon="7.46377">
        <ele>502.52</ele>
        <time>2018-09-16T10:45:51.05Z</time>
      </trkpt>
      <trkpt lat="43.8908" lon="7.46366">
        <ele>504</ele>
        <time>2018-09-16T10:45:59.05Z</time>
      </trkpt>
      <trkpt lat="43.89085" lon="7.46354">
        <ele>503</ele>
        <time>2018-09-16T10:46:09.05Z</time>
      </trkpt>
      <trkpt lat="43.89093" lon="7.46344">
        <ele>508</ele>
        <time>2018-09-16T10:46:22.05Z</time>
      </trkpt>
      <trkpt lat="43.89099" lon="7.46332">
        <ele>508.26</ele>
        <time>2018-09-16T10:46:31.05Z</time>
      </trkpt>
      <trkpt lat="43.89102" lon="7.46318">
        <ele>511</ele>
        <time>2018-09-16T10:46:42.05Z</time>
      </trkpt>
      <trkpt lat="43.89099" lon="7.46306">
        <ele>512</ele>
        <time>2018-09-16T10:46:53.05Z</time>
      </trkpt>
      <trkpt lat="43.89094" lon="7.46294">
        <ele>516.26</ele>
        <time>2018-09-16T10:47:06.05Z</time>
      </trkpt>
      <trkpt lat="43.89092" lon="7.4628">
        <ele>518</ele>
        <time>2018-09-16T10:47:17.05Z</time>
      </trkpt>
      <trkpt lat="43.89089" lon="7.46266">
        <ele>519</ele>
        <time>2018-09-16T10:47:26.05Z</time>
      </trkpt>
      <trkpt lat="43.89085" lon="7.46252">
        <ele>521</ele>
        <time>2018-09-16T10:47:39.05Z</time>
      </trkpt>
      <trkpt lat="43.89082" lon="7.46239">
        <ele>524</ele>
        <time>2018-09-16T10:47:50.05Z</time>
      </trkpt>
      <trkpt lat="43.89077" lon="7.46226">
        <ele>525</ele>
        <time>2018-09-16T10:47:58.05Z</time>
      </trkpt>
      <trkpt lat="43.89077" lon="7.46211">
        <ele>526</ele>
        <time>2018-09-16T10:48:05.05Z</time>
      </trkpt>
      <trkpt lat="43.89078" lon="7.46196">
        <ele>524.96</ele>
        <time>2018-09-16T10:48:11.05Z</time>
      </trkpt>
      <trkpt lat="43.89078" lon="7.4618">
        <ele>520</ele>
        <time>2018-09-16T10:48:17.05Z</time>
      </trkpt>
      <trkpt lat="43.89075" lon="7.46164">
        <ele>520</ele>
        <time>2018-09-16T10:48:22.05Z</time>
      </trkpt>
      <trkpt lat="43.89072" lon="7.46147">
        <ele>521</ele>
        <time>2018-09-16T10:48:27.05Z</time>
      </trkpt>
      <trkpt lat="43.89068" lon="7.46131">
        <ele>522</ele>
        <time>2018-09-16T10:48:32.05Z</time>
      </trkpt>
      <trkpt lat="43.89068" lon="7.46117">
        <ele>522</ele>
        <time>2018-09-16T10:48:37.05Z</time>
      </trkpt>
      <trkpt lat="43.89068" lon="7.46103">
        <ele>523</ele>
        <time>2018-09-16T10:48:43.05Z</time>
      </trkpt>
      <trkpt lat="43.89068" lon="7.46088">
        <ele>523</ele>
        <time>2018-09-16T10:48:49.05Z</time>
      </trkpt>
      <trkpt lat="43.89069" lon="7.46073">
        <ele>524</ele>
        <time>2018-09-16T10:48:55.05Z</time>
      </trkpt>
      <trkpt lat="43.89071" lon="7.46059">
        <ele>524</ele>
        <time>2018-09-16T10:49:00.05Z</time>
      </trkpt>
      <trkpt lat="43.89075" lon="7.46043">
        <ele>524</ele>
        <time>2018-09-16T10:49:05.05Z</time>
      </trkpt>
      <trkpt lat="43.89075" lon="7.46027">
        <ele>524</ele>
        <time>2018-09-16T10:49:10.05Z</time>
      </trkpt>
      <trkpt lat="43.89076" lon="7.4601">
        <ele>524</ele>
        <time>2018-09-16T10:49:15.05Z</time>
      </trkpt>
      <trkpt lat="43.89075" lon="7.45995">
        <ele>524</ele>
        <time>2018-09-16T10:49:20.05Z</time>
      </trkpt>
      <trkpt lat="43.89073" lon="7.45979">
        <ele>523</ele>
        <time>2018-09-16T10:49:26.05Z</time>
      </trkpt>
      <trkpt lat="43.89075" lon="7.45965">
        <ele>523.52</ele>
        <time>2018-09-16T10:49:31.05Z</time>
      </trkpt>
      <trkpt lat="43.89074" lon="7.4595">
        <ele>525</ele>
        <time>2018-09-16T10:49:36.05Z</time>
      </trkpt>
      <trkpt lat="43.89074" lon="7.45936">
        <ele>525.26</ele>
        <time>2018-09-16T10:49:41.05Z</time>
      </trkpt>
      <trkpt lat="43.89075" lon="7.45922">
        <ele>526</ele>
        <time>2018-09-16T10:49:46.05Z</time>
      </trkpt>
      <trkpt lat="43.89074" lon="7.45908">
        <ele>525</ele>
        <time>2018-09-16T10:49:52.05Z</time>
      </trkpt>
      <trkpt lat="43.8908" lon="7.45895">
        <ele>525</ele>
        <time>2018-09-16T10:50:00.05Z</time>
      </trkpt>
      <trkpt lat="43.89087" lon="7.45884">
        <ele>527</ele>
        <time>2018-09-16T10:50:05.05Z</time>
      </trkpt>
      <trkpt lat="43.89093" lon="7.45874">
        <ele>527.26</ele>
        <time>2018-09-16T10:50:11.05Z</time>
      </trkpt>
      <trkpt lat="43.89099" lon="7.45861">
        <ele>528</ele>
        <time>2018-09-16T10:50:17.05Z</time>
      </trkpt>
      <trkpt lat="43.89104" lon="7.45849">
        <ele>529</ele>
        <time>2018-09-16T10:50:23.05Z</time>
      </trkpt>
      <trkpt lat="43.89107" lon="7.45834">
        <ele>529.26</ele>
        <time>2018-09-16T10:50:31.05Z</time>
      </trkpt>
      <trkpt lat="43.89099" lon="7.45823">
        <ele>530</ele>
        <time>2018-09-16T10:50:36.05Z</time>
      </trkpt>
      <trkpt lat="43.89098" lon="7.45809">
        <ele>530</ele>
        <time>2018-09-16T10:50:47.05Z</time>
      </trkpt>
      <trkpt lat="43.89106" lon="7.45798">
        <ele>529</ele>
        <time>2018-09-16T10:50:56.05Z</time>
      </trkpt>
      <trkpt lat="43.89111" lon="7.45785">
        <ele>533</ele>
        <time>2018-09-16T10:51:03.05Z</time>
      </trkpt>
      <trkpt lat="43.89107" lon="7.45769">
        <ele>532</ele>
        <time>2018-09-16T10:51:09.05Z</time>
      </trkpt>
      <trkpt lat="43.891" lon="7.45759">
        <ele>531</ele>
        <time>2018-09-16T10:51:13.05Z</time>
      </trkpt>
      <trkpt lat="43.89092" lon="7.45748">
        <ele>531</ele>
        <time>2018-09-16T10:51:17.05Z</time>
      </trkpt>
      <trkpt lat="43.89085" lon="7.45738">
        <ele>530.48</ele>
        <time>2018-09-16T10:51:21.05Z</time>
      </trkpt>
      <trkpt lat="43.89074" lon="7.4573">
        <ele>529</ele>
        <time>2018-09-16T10:51:26.05Z</time>
      </trkpt>
      <trkpt lat="43.89066" lon="7.45718">
        <ele>527</ele>
        <time>2018-09-16T10:51:32.05Z</time>
      </trkpt>
      <trkpt lat="43.89069" lon="7.45704">
        <ele>527</ele>
        <time>2018-09-16T10:51:40.05Z</time>
      </trkpt>
      <trkpt lat="43.8907" lon="7.45689">
        <ele>527</ele>
        <time>2018-09-16T10:51:50.05Z</time>
      </trkpt>
      <trkpt lat="43.89071" lon="7.45675">
        <ele>528</ele>
        <time>2018-09-16T10:51:56.05Z</time>
      </trkpt>
      <trkpt lat="43.89072" lon="7.45659">
        <ele>531</ele>
        <time>2018-09-16T10:52:03.05Z</time>
      </trkpt>
      <trkpt lat="43.89068" lon="7.45646">
        <ele>531</ele>
        <time>2018-09-16T10:52:08.05Z</time>
      </trkpt>
      <trkpt lat="43.89063" lon="7.45633">
        <ele>531</ele>
        <time>2018-09-16T10:52:13.05Z</time>
      </trkpt>
      <trkpt lat="43.89056" lon="7.45619">
        <ele>531</ele>
        <time>2018-09-16T10:52:18.05Z</time>
      </trkpt>
      <trkpt lat="43.89054" lon="7.45604">
        <ele>530</ele>
        <time>2018-09-16T10:52:22.05Z</time>
      </trkpt>
      <trkpt lat="43.89053" lon="7.45589">
        <ele>530</ele>
        <time>2018-09-16T10:52:28.05Z</time>
      </trkpt>
      <trkpt lat="43.89051" lon="7.45575">
        <ele>530</ele>
        <time>2018-09-16T10:52:36.05Z</time>
      </trkpt>
      <trkpt lat="43.89046" lon="7.45563">
        <ele>531</ele>
        <time>2018-09-16T10:52:45.05Z</time>
      </trkpt>
      <trkpt lat="43.89051" lon="7.45577">
        <ele>533</ele>
        <time>2018-09-16T10:52:57.05Z</time>
      </trkpt>
      <trkpt lat="43.8905" lon="7.45591">
        <ele>534</ele>
        <time>2018-09-16T10:53:06.05Z</time>
      </trkpt>
      <trkpt lat="43.89046" lon="7.45605">
        <ele>536</ele>
        <time>2018-09-16T10:53:19.05Z</time>
      </trkpt>
      <trkpt lat="43.89041" lon="7.45618">
        <ele>538</ele>
        <time>2018-09-16T10:53:28.05Z</time>
      </trkpt>
      <trkpt lat="43.89047" lon="7.45629">
        <ele>539</ele>
        <time>2018-09-16T10:53:36.05Z</time>
      </trkpt>
      <trkpt lat="43.89049" lon="7.45644">
        <ele>540</ele>
        <time>2018-09-16T10:53:45.05Z</time>
      </trkpt>
      <trkpt lat="43.89046" lon="7.45659">
        <ele>542</ele>
        <time>2018-09-16T10:53:54.05Z</time>
      </trkpt>
      <trkpt lat="43.89043" lon="7.45674">
        <ele>544</ele>
        <time>2018-09-16T10:54:05.05Z</time>
      </trkpt>
      <trkpt lat="43.89043" lon="7.45691">
        <ele>545</ele>
        <time>2018-09-16T10:54:14.05Z</time>
      </trkpt>
      <trkpt lat="43.8904" lon="7.45704">
        <ele>545</ele>
        <time>2018-09-16T10:54:20.05Z</time>
      </trkpt>
      <trkpt lat="43.89041" lon="7.45719">
        <ele>545</ele>
        <time>2018-09-16T10:54:31.05Z</time>
      </trkpt>
      <trkpt lat="43.89044" lon="7.45734">
        <ele>545.52</ele>
        <time>2018-09-16T10:54:41.05Z</time>
      </trkpt>
      <trkpt lat="43.89046" lon="7.45747">
        <ele>547</ele>
        <time>2018-09-16T10:54:50.05Z</time>
      </trkpt>
      <trkpt lat="43.89053" lon="7.45758">
        <ele>551</ele>
        <time>2018-09-16T10:54:58.05Z</time>
      </trkpt>
      <trkpt lat="43.89054" lon="7.45772">
        <ele>552</ele>
        <time>2018-09-16T10:55:10.05Z</time>
      </trkpt>
      <trkpt lat="43.89045" lon="7.4578">
        <ele>553</ele>
        <time>2018-09-16T10:55:19.05Z</time>
      </trkpt>
      <trkpt lat="43.89038" lon="7.45791">
        <ele>557</ele>
        <time>2018-09-16T10:55:32.05Z</time>
      </trkpt>
      <trkpt lat="43.89032" lon="7.45799">
        <ele>560</ele>
        <time>2018-09-16T10:55:43.05Z</time>
      </trkpt>
      <trkpt lat="43.89031" lon="7.45814">
        <ele>561</ele>
        <time>2018-09-16T10:55:54.05Z</time>
      </trkpt>
      <trkpt lat="43.89032" lon="7.45827">
        <ele>563</ele>
        <time>2018-09-16T10:56:03.05Z</time>
      </trkpt>
      <trkpt lat="43.89033" lon="7.45841">
        <ele>564</ele>
        <time>2018-09-16T10:56:13.05Z</time>
      </trkpt>
      <trkpt lat="43.89029" lon="7.45855">
        <ele>564</ele>
        <time>2018-09-16T10:56:20.05Z</time>
      </trkpt>
      <trkpt lat="43.89023" lon="7.45867">
        <ele>564</ele>
        <time>2018-09-16T10:56:30.05Z</time>
      </trkpt>
      <trkpt lat="43.8902" lon="7.4588">
        <ele>566</ele>
        <time>2018-09-16T10:56:38.05Z</time>
      </trkpt>
      <trkpt lat="43.89019" lon="7.45891">
        <ele>567</ele>
        <time>2018-09-16T10:56:43.05Z</time>
      </trkpt>
      <trkpt lat="43.89014" lon="7.45879">
        <ele>570</ele>
        <time>2018-09-16T10:57:06.05Z</time>
      </trkpt>
      <trkpt lat="43.89011" lon="7.45865">
        <ele>571</ele>
        <time>2018-09-16T10:57:15.05Z</time>
      </trkpt>
      <trkpt lat="43.89007" lon="7.45852">
        <ele>573</ele>
        <time>2018-09-16T10:57:30.05Z</time>
      </trkpt>
      <trkpt lat="43.89" lon="7.45842">
        <ele>577</ele>
        <time>2018-09-16T10:57:44.05Z</time>
      </trkpt>
      <trkpt lat="43.88992" lon="7.45833">
        <ele>581</ele>
        <time>2018-09-16T10:58:27.05Z</time>
      </trkpt>
      <trkpt lat="43.88985" lon="7.45822">
        <ele>583.46</ele>
        <time>2018-09-16T10:58:41.05Z</time>
      </trkpt>
      <trkpt lat="43.8898" lon="7.45811">
        <ele>585.2</ele>
        <time>2018-09-16T10:58:52.05Z</time>
      </trkpt>
      <trkpt lat="43.88975" lon="7.45798">
        <ele>589</ele>
        <time>2018-09-16T10:59:03.05Z</time>
      </trkpt>
      <trkpt lat="43.88969" lon="7.45786">
        <ele>591</ele>
        <time>2018-09-16T10:59:12.05Z</time>
      </trkpt>
      <trkpt lat="43.88963" lon="7.45775">
        <ele>593</ele>
        <time>2018-09-16T10:59:29.05Z</time>
      </trkpt>
      <trkpt lat="43.88957" lon="7.45764">
        <ele>598</ele>
        <time>2018-09-16T10:59:44.05Z</time>
      </trkpt>
      <trkpt lat="43.88949" lon="7.45754">
        <ele>600.77</ele>
        <time>2018-09-16T11:00:01.05Z</time>
      </trkpt>
      <trkpt lat="43.88941" lon="7.45746">
        <ele>607</ele>
        <time>2018-09-16T11:00:23.05Z</time>
      </trkpt>
      <trkpt lat="43.88933" lon="7.45735">
        <ele>609</ele>
        <time>2018-09-16T11:00:35.05Z</time>
      </trkpt>
      <trkpt lat="43.8893" lon="7.45721">
        <ele>611</ele>
        <time>2018-09-16T11:00:46.05Z</time>
      </trkpt>
      <trkpt lat="43.88928" lon="7.45707">
        <ele>612</ele>
        <time>2018-09-16T11:00:56.05Z</time>
      </trkpt>
      <trkpt lat="43.88928" lon="7.45693">
        <ele>616</ele>
        <time>2018-09-16T11:01:06.05Z</time>
      </trkpt>
      <trkpt lat="43.88926" lon="7.45678">
        <ele>617</ele>
        <time>2018-09-16T11:01:16.05Z</time>
      </trkpt>
      <trkpt lat="43.88923" lon="7.45664">
        <ele>618</ele>
        <time>2018-09-16T11:01:28.05Z</time>
      </trkpt>
      <trkpt lat="43.88921" lon="7.45651">
        <ele>620</ele>
        <time>2018-09-16T11:01:36.05Z</time>
      </trkpt>
      <trkpt lat="43.88917" lon="7.45638">
        <ele>622</ele>
        <time>2018-09-16T11:01:45.05Z</time>
      </trkpt>
      <trkpt lat="43.88915" lon="7.45624">
        <ele>624</ele>
        <time>2018-09-16T11:01:55.05Z</time>
      </trkpt>
      <trkpt lat="43.88913" lon="7.45611">
        <ele>627</ele>
        <time>2018-09-16T11:02:04.05Z</time>
      </trkpt>
      <trkpt lat="43.88911" lon="7.45595">
        <ele>629</ele>
        <time>2018-09-16T11:02:15.05Z</time>
      </trkpt>
      <trkpt lat="43.88911" lon="7.45581">
        <ele>631</ele>
        <time>2018-09-16T11:02:25.05Z</time>
      </trkpt>
      <trkpt lat="43.88908" lon="7.45567">
        <ele>633</ele>
        <time>2018-09-16T11:02:34.05Z</time>
      </trkpt>
      <trkpt lat="43.88907" lon="7.45553">
        <ele>634</ele>
        <time>2018-09-16T11:02:43.05Z</time>
      </trkpt>
      <trkpt lat="43.88909" lon="7.45538">
        <ele>634</ele>
        <time>2018-09-16T11:02:50.05Z</time>
      </trkpt>
      <trkpt lat="43.88908" lon="7.45524">
        <ele>635</ele>
        <time>2018-09-16T11:02:55.05Z</time>
      </trkpt>
      <trkpt lat="43.88907" lon="7.45508">
        <ele>635.26</ele>
        <time>2018-09-16T11:03:01.05Z</time>
      </trkpt>
      <trkpt lat="43.88907" lon="7.45493">
        <ele>636</ele>
        <time>2018-09-16T11:03:07.05Z</time>
      </trkpt>
      <trkpt lat="43.88908" lon="7.45479">
        <ele>636</ele>
        <time>2018-09-16T11:03:18.05Z</time>
      </trkpt>
      <trkpt lat="43.88911" lon="7.45464">
        <ele>638</ele>
        <time>2018-09-16T11:03:29.05Z</time>
      </trkpt>
      <trkpt lat="43.88913" lon="7.4545">
        <ele>639</ele>
        <time>2018-09-16T11:03:38.05Z</time>
      </trkpt>
      <trkpt lat="43.88916" lon="7.45436">
        <ele>640</ele>
        <time>2018-09-16T11:03:46.05Z</time>
      </trkpt>
      <trkpt lat="43.88917" lon="7.45421">
        <ele>643.52</ele>
        <time>2018-09-16T11:03:56.05Z</time>
      </trkpt>
      <trkpt lat="43.88922" lon="7.45407">
        <ele>644</ele>
        <time>2018-09-16T11:04:07.05Z</time>
      </trkpt>
      <trkpt lat="43.88926" lon="7.45397">
        <ele>646</ele>
        <time>2018-09-16T11:04:15.05Z</time>
      </trkpt>
      <trkpt lat="43.88926" lon="7.45386">
        <ele>649</ele>
        <time>2018-09-16T11:04:22.05Z</time>
      </trkpt>
      <trkpt lat="43.88928" lon="7.45372">
        <ele>649</ele>
        <time>2018-09-16T11:04:28.05Z</time>
      </trkpt>
      <trkpt lat="43.88927" lon="7.4536">
        <ele>649</ele>
        <time>2018-09-16T11:04:34.05Z</time>
      </trkpt>
      <trkpt lat="43.88923" lon="7.45348">
        <ele>649</ele>
        <time>2018-09-16T11:04:40.05Z</time>
      </trkpt>
      <trkpt lat="43.88919" lon="7.45335">
        <ele>650</ele>
        <time>2018-09-16T11:04:45.05Z</time>
      </trkpt>
      <trkpt lat="43.88917" lon="7.45323">
        <ele>650.18</ele>
        <time>2018-09-16T11:04:51.05Z</time>
      </trkpt>
      <trkpt lat="43.88913" lon="7.45309">
        <ele>651</ele>
        <time>2018-09-16T11:05:00.05Z</time>
      </trkpt>
      <trkpt lat="43.88913" lon="7.45296">
        <ele>653</ele>
        <time>2018-09-16T11:05:11.05Z</time>
      </trkpt>
      <trkpt lat="43.88911" lon="7.45283">
        <ele>654</ele>
        <time>2018-09-16T11:05:20.05Z</time>
      </trkpt>
      <trkpt lat="43.8891" lon="7.45271">
        <ele>656</ele>
        <time>2018-09-16T11:05:27.05Z</time>
      </trkpt>
      <trkpt lat="43.88908" lon="7.45258">
        <ele>658.58</ele>
        <time>2018-09-16T11:05:38.05Z</time>
      </trkpt>
      <trkpt lat="43.8891" lon="7.45248">
        <ele>662</ele>
        <time>2018-09-16T11:05:48.05Z</time>
      </trkpt>
      <trkpt lat="43.88908" lon="7.45238">
        <ele>665</ele>
        <time>2018-09-16T11:05:58.05Z</time>
      </trkpt>
      <trkpt lat="43.88905" lon="7.45249">
        <ele>666</ele>
        <time>2018-09-16T11:06:08.05Z</time>
      </trkpt>
      <trkpt lat="43.88901" lon="7.45258">
        <ele>666</ele>
        <time>2018-09-16T11:06:12.05Z</time>
      </trkpt>
      <trkpt lat="43.88898" lon="7.45268">
        <ele>666</ele>
        <time>2018-09-16T11:06:16.05Z</time>
      </trkpt>
      <trkpt lat="43.889" lon="7.4528">
        <ele>666</ele>
        <time>2018-09-16T11:06:20.05Z</time>
      </trkpt>
      <trkpt lat="43.88901" lon="7.45296">
        <ele>665</ele>
        <time>2018-09-16T11:06:25.05Z</time>
      </trkpt>
      <trkpt lat="43.88904" lon="7.4531">
        <ele>665</ele>
        <time>2018-09-16T11:06:30.05Z</time>
      </trkpt>
      <trkpt lat="43.88907" lon="7.45323">
        <ele>662</ele>
        <time>2018-09-16T11:06:34.05Z</time>
      </trkpt>
      <trkpt lat="43.8891" lon="7.45337">
        <ele>662</ele>
        <time>2018-09-16T11:06:39.05Z</time>
      </trkpt>
      <trkpt lat="43.88912" lon="7.45352">
        <ele>662</ele>
        <time>2018-09-16T11:06:44.05Z</time>
      </trkpt>
      <trkpt lat="43.88915" lon="7.45365">
        <ele>662</ele>
        <time>2018-09-16T11:06:49.05Z</time>
      </trkpt>
      <trkpt lat="43.88915" lon="7.4538">
        <ele>661</ele>
        <time>2018-09-16T11:06:54.05Z</time>
      </trkpt>
      <trkpt lat="43.8891" lon="7.45394">
        <ele>661</ele>
        <time>2018-09-16T11:06:59.05Z</time>
      </trkpt>
      <trkpt lat="43.88904" lon="7.45405">
        <ele>661</ele>
        <time>2018-09-16T11:07:04.05Z</time>
      </trkpt>
      <trkpt lat="43.88901" lon="7.45419">
        <ele>661</ele>
        <time>2018-09-16T11:07:09.05Z</time>
      </trkpt>
      <trkpt lat="43.88899" lon="7.45433">
        <ele>660</ele>
        <time>2018-09-16T11:07:14.05Z</time>
      </trkpt>
      <trkpt lat="43.88897" lon="7.4545">
        <ele>660</ele>
        <time>2018-09-16T11:07:19.05Z</time>
      </trkpt>
      <trkpt lat="43.88896" lon="7.45465">
        <ele>659</ele>
        <time>2018-09-16T11:07:24.05Z</time>
      </trkpt>
      <trkpt lat="43.88896" lon="7.4548">
        <ele>659</ele>
        <time>2018-09-16T11:07:29.05Z</time>
      </trkpt>
      <trkpt lat="43.88893" lon="7.45494">
        <ele>657</ele>
        <time>2018-09-16T11:07:34.05Z</time>
      </trkpt>
      <trkpt lat="43.88893" lon="7.45508">
        <ele>656</ele>
        <time>2018-09-16T11:07:39.05Z</time>
      </trkpt>
      <trkpt lat="43.88896" lon="7.45522">
        <ele>655</ele>
        <time>2018-09-16T11:07:44.05Z</time>
      </trkpt>
      <trkpt lat="43.88895" lon="7.45537">
        <ele>655</ele>
        <time>2018-09-16T11:07:49.05Z</time>
      </trkpt>
      <trkpt lat="43.88893" lon="7.45552">
        <ele>656</ele>
        <time>2018-09-16T11:07:54.05Z</time>
      </trkpt>
      <trkpt lat="43.88891" lon="7.45568">
        <ele>656</ele>
        <time>2018-09-16T11:08:00.05Z</time>
      </trkpt>
      <trkpt lat="43.88889" lon="7.45581">
        <ele>655</ele>
        <time>2018-09-16T11:08:04.05Z</time>
      </trkpt>
      <trkpt lat="43.88888" lon="7.45595">
        <ele>655</ele>
        <time>2018-09-16T11:08:09.05Z</time>
      </trkpt>
      <trkpt lat="43.88885" lon="7.45607">
        <ele>656</ele>
        <time>2018-09-16T11:08:14.05Z</time>
      </trkpt>
      <trkpt lat="43.88884" lon="7.4562">
        <ele>656</ele>
        <time>2018-09-16T11:08:19.05Z</time>
      </trkpt>
      <trkpt lat="43.88882" lon="7.45634">
        <ele>656</ele>
        <time>2018-09-16T11:08:25.05Z</time>
      </trkpt>
      <trkpt lat="43.8888" lon="7.45649">
        <ele>656</ele>
        <time>2018-09-16T11:08:30.05Z</time>
      </trkpt>
      <trkpt lat="43.88877" lon="7.45662">
        <ele>658</ele>
        <time>2018-09-16T11:08:34.05Z</time>
      </trkpt>
      <trkpt lat="43.8887" lon="7.45675">
        <ele>658</ele>
        <time>2018-09-16T11:08:40.05Z</time>
      </trkpt>
      <trkpt lat="43.88866" lon="7.45687">
        <ele>658</ele>
        <time>2018-09-16T11:08:47.05Z</time>
      </trkpt>
      <trkpt lat="43.88865" lon="7.45702">
        <ele>657</ele>
        <time>2018-09-16T11:08:53.05Z</time>
      </trkpt>
      <trkpt lat="43.88866" lon="7.45717">
        <ele>657</ele>
        <time>2018-09-16T11:08:58.05Z</time>
      </trkpt>
      <trkpt lat="43.88867" lon="7.45733">
        <ele>655</ele>
        <time>2018-09-16T11:09:03.05Z</time>
      </trkpt>
      <trkpt lat="43.88867" lon="7.4575">
        <ele>655</ele>
        <time>2018-09-16T11:09:08.05Z</time>
      </trkpt>
      <trkpt lat="43.8887" lon="7.45764">
        <ele>655</ele>
        <time>2018-09-16T11:09:12.05Z</time>
      </trkpt>
      <trkpt lat="43.88872" lon="7.4578">
        <ele>655</ele>
        <time>2018-09-16T11:09:17.05Z</time>
      </trkpt>
      <trkpt lat="43.88874" lon="7.45795">
        <ele>655</ele>
        <time>2018-09-16T11:09:22.05Z</time>
      </trkpt>
      <trkpt lat="43.88877" lon="7.45809">
        <ele>655.26</ele>
        <time>2018-09-16T11:09:28.05Z</time>
      </trkpt>
      <trkpt lat="43.88884" lon="7.4582">
        <ele>655</ele>
        <time>2018-09-16T11:09:33.05Z</time>
      </trkpt>
      <trkpt lat="43.88888" lon="7.45835">
        <ele>655</ele>
        <time>2018-09-16T11:09:38.05Z</time>
      </trkpt>
      <trkpt lat="43.88893" lon="7.45847">
        <ele>651</ele>
        <time>2018-09-16T11:09:42.05Z</time>
      </trkpt>
      <trkpt lat="43.88898" lon="7.45859">
        <ele>650.48</ele>
        <time>2018-09-16T11:09:46.05Z</time>
      </trkpt>
      <trkpt lat="43.88902" lon="7.45873">
        <ele>649</ele>
        <time>2018-09-16T11:09:50.05Z</time>
      </trkpt>
      <trkpt lat="43.88905" lon="7.45889">
        <ele>649</ele>
        <time>2018-09-16T11:09:55.05Z</time>
      </trkpt>
      <trkpt lat="43.88906" lon="7.45904">
        <ele>650</ele>
        <time>2018-09-16T11:10:00.05Z</time>
      </trkpt>
      <trkpt lat="43.88906" lon="7.4592">
        <ele>647</ele>
        <time>2018-09-16T11:10:05.05Z</time>
      </trkpt>
      <trkpt lat="43.88907" lon="7.45936">
        <ele>647</ele>
        <time>2018-09-16T11:10:10.05Z</time>
      </trkpt>
      <trkpt lat="43.88907" lon="7.45952">
        <ele>646</ele>
        <time>2018-09-16T11:10:15.05Z</time>
      </trkpt>
      <trkpt lat="43.88908" lon="7.45966">
        <ele>646</ele>
        <time>2018-09-16T11:10:19.05Z</time>
      </trkpt>
      <trkpt lat="43.88909" lon="7.45981">
        <ele>645</ele>
        <time>2018-09-16T11:10:24.05Z</time>
      </trkpt>
      <trkpt lat="43.88909" lon="7.45997">
        <ele>645</ele>
        <time>2018-09-16T11:10:29.05Z</time>
      </trkpt>
      <trkpt lat="43.88908" lon="7.46011">
        <ele>643</ele>
        <time>2018-09-16T11:10:33.05Z</time>
      </trkpt>
      <trkpt lat="43.88911" lon="7.46024">
        <ele>642</ele>
        <time>2018-09-16T11:10:38.05Z</time>
      </trkpt>
      <trkpt lat="43.88915" lon="7.46036">
        <ele>643</ele>
        <time>2018-09-16T11:10:42.05Z</time>
      </trkpt>
      <trkpt lat="43.88914" lon="7.46052">
        <ele>643</ele>
        <time>2018-09-16T11:10:48.05Z</time>
      </trkpt>
      <trkpt lat="43.88915" lon="7.46067">
        <ele>643</ele>
        <time>2018-09-16T11:10:54.05Z</time>
      </trkpt>
      <trkpt lat="43.88914" lon="7.46079">
        <ele>643</ele>
        <time>2018-09-16T11:10:59.05Z</time>
      </trkpt>
      <trkpt lat="43.88913" lon="7.46091">
        <ele>645</ele>
        <time>2018-09-16T11:11:04.05Z</time>
      </trkpt>
      <trkpt lat="43.88912" lon="7.46105">
        <ele>645</ele>
        <time>2018-09-16T11:11:10.05Z</time>
      </trkpt>
      <trkpt lat="43.88911" lon="7.46117">
        <ele>645</ele>
        <time>2018-09-16T11:11:14.05Z</time>
      </trkpt>
      <trkpt lat="43.88912" lon="7.46132">
        <ele>645</ele>
        <time>2018-09-16T11:11:19.05Z</time>
      </trkpt>
      <trkpt lat="43.88911" lon="7.46148">
        <ele>646</ele>
        <time>2018-09-16T11:11:25.05Z</time>
      </trkpt>
      <trkpt lat="43.88907" lon="7.46159">
        <ele>646</ele>
        <time>2018-09-16T11:11:29.05Z</time>
      </trkpt>
      <trkpt lat="43.889" lon="7.46149">
        <ele>649</ele>
        <time>2018-09-16T11:11:54.05Z</time>
      </trkpt>
      <trkpt lat="43.88894" lon="7.46138">
        <ele>653</ele>
        <time>2018-09-16T11:12:08.05Z</time>
      </trkpt>
      <trkpt lat="43.8889" lon="7.46128">
        <ele>655</ele>
        <time>2018-09-16T11:12:23.05Z</time>
      </trkpt>
      <trkpt lat="43.88883" lon="7.46127">
        <ele>658</ele>
        <time>2018-09-16T11:12:35.05Z</time>
      </trkpt>
      <trkpt lat="43.88876" lon="7.46127">
        <ele>662</ele>
        <time>2018-09-16T11:12:49.05Z</time>
      </trkpt>
      <trkpt lat="43.88869" lon="7.4613">
        <ele>665</ele>
        <time>2018-09-16T11:13:02.05Z</time>
      </trkpt>
      <trkpt lat="43.88863" lon="7.46124">
        <ele>668.25</ele>
        <time>2018-09-16T11:13:21.05Z</time>
      </trkpt>
      <trkpt lat="43.88856" lon="7.46126">
        <ele>670</ele>
        <time>2018-09-16T11:13:34.05Z</time>
      </trkpt>
      <trkpt lat="43.88848" lon="7.4613">
        <ele>673</ele>
        <time>2018-09-16T11:13:45.05Z</time>
      </trkpt>
      <trkpt lat="43.88847" lon="7.46117">
        <ele>676</ele>
        <time>2018-09-16T11:13:59.05Z</time>
      </trkpt>
      <trkpt lat="43.8884" lon="7.46113">
        <ele>679</ele>
        <time>2018-09-16T11:14:20.05Z</time>
      </trkpt>
      <trkpt lat="43.88832" lon="7.46116">
        <ele>683.26</ele>
        <time>2018-09-16T11:14:31.05Z</time>
      </trkpt>
      <trkpt lat="43.88825" lon="7.46115">
        <ele>685</ele>
        <time>2018-09-16T11:14:43.05Z</time>
      </trkpt>
      <trkpt lat="43.88823" lon="7.46104">
        <ele>691</ele>
        <time>2018-09-16T11:15:06.05Z</time>
      </trkpt>
      <trkpt lat="43.8882" lon="7.46094">
        <ele>692.52</ele>
        <time>2018-09-16T11:15:21.05Z</time>
      </trkpt>
      <trkpt lat="43.88814" lon="7.46089">
        <ele>698</ele>
        <time>2018-09-16T11:15:37.05Z</time>
      </trkpt>
      <trkpt lat="43.88812" lon="7.46079">
        <ele>697.52</ele>
        <time>2018-09-16T11:15:51.05Z</time>
      </trkpt>
      <trkpt lat="43.88809" lon="7.46068">
        <ele>701.26</ele>
        <time>2018-09-16T11:16:01.05Z</time>
      </trkpt>
      <trkpt lat="43.88805" lon="7.46061">
        <ele>703</ele>
        <time>2018-09-16T11:16:10.05Z</time>
      </trkpt>
      <trkpt lat="43.88799" lon="7.46056">
        <ele>704</ele>
        <time>2018-09-16T11:16:19.05Z</time>
      </trkpt>
      <trkpt lat="43.88793" lon="7.46053">
        <ele>706</ele>
        <time>2018-09-16T11:16:28.05Z</time>
      </trkpt>
      <trkpt lat="43.88789" lon="7.46051">
        <ele>707</ele>
        <time>2018-09-16T11:16:33.05Z</time>
      </trkpt>
      <trkpt lat="43.88785" lon="7.46045">
        <ele>707</ele>
        <time>2018-09-16T11:16:40.05Z</time>
      </trkpt>
      <trkpt lat="43.88781" lon="7.4604">
        <ele>709.52</ele>
        <time>2018-09-16T11:16:46.05Z</time>
      </trkpt>
      <trkpt lat="43.88778" lon="7.46034">
        <ele>712</ele>
        <time>2018-09-16T11:16:53.05Z</time>
      </trkpt>
      <trkpt lat="43.88774" lon="7.46029">
        <ele>712</ele>
        <time>2018-09-16T11:16:58.05Z</time>
      </trkpt>
      <trkpt lat="43.88773" lon="7.4602">
        <ele>713</ele>
        <time>2018-09-16T11:17:05.05Z</time>
      </trkpt>
      <trkpt lat="43.88773" lon="7.46011">
        <ele>713.52</ele>
        <time>2018-09-16T11:17:11.05Z</time>
      </trkpt>
      <trkpt lat="43.88775" lon="7.46003">
        <ele>715</ele>
        <time>2018-09-16T11:17:19.05Z</time>
      </trkpt>
      <trkpt lat="43.88775" lon="7.45996">
        <ele>717</ele>
        <time>2018-09-16T11:17:23.05Z</time>
      </trkpt>
      <trkpt lat="43.88773" lon="7.45989">
        <ele>719</ele>
        <time>2018-09-16T11:17:27.05Z</time>
      </trkpt>
      <trkpt lat="43.88771" lon="7.45982">
        <ele>719</ele>
        <time>2018-09-16T11:17:32.05Z</time>
      </trkpt>
      <trkpt lat="43.88769" lon="7.45975">
        <ele>719</ele>
        <time>2018-09-16T11:17:36.05Z</time>
      </trkpt>
      <trkpt lat="43.88768" lon="7.45966">
        <ele>720</ele>
        <time>2018-09-16T11:17:42.05Z</time>
      </trkpt>
      <trkpt lat="43.88764" lon="7.45961">
        <ele>720</ele>
        <time>2018-09-16T11:17:47.05Z</time>
      </trkpt>
      <trkpt lat="43.88761" lon="7.45953">
        <ele>722</ele>
        <time>2018-09-16T11:17:52.05Z</time>
      </trkpt>
      <trkpt lat="43.8876" lon="7.45944">
        <ele>722</ele>
        <time>2018-09-16T11:17:56.05Z</time>
      </trkpt>
      <trkpt lat="43.88757" lon="7.45934">
        <ele>722</ele>
        <time>2018-09-16T11:18:00.05Z</time>
      </trkpt>
      <trkpt lat="43.88754" lon="7.45928">
        <ele>726</ele>
        <time>2018-09-16T11:18:03.05Z</time>
      </trkpt>
      <trkpt lat="43.88751" lon="7.4592">
        <ele>726</ele>
        <time>2018-09-16T11:18:06.05Z</time>
      </trkpt>
      <trkpt lat="43.8875" lon="7.45912">
        <ele>726</ele>
        <time>2018-09-16T11:18:09.05Z</time>
      </trkpt>
      <trkpt lat="43.8875" lon="7.45904">
        <ele>725</ele>
        <time>2018-09-16T11:18:12.05Z</time>
      </trkpt>
      <trkpt lat="43.88749" lon="7.45898">
        <ele>725</ele>
        <time>2018-09-16T11:18:15.05Z</time>
      </trkpt>
      <trkpt lat="43.88747" lon="7.4589">
        <ele>725</ele>
        <time>2018-09-16T11:18:19.05Z</time>
      </trkpt>
      <trkpt lat="43.88744" lon="7.45884">
        <ele>726</ele>
        <time>2018-09-16T11:18:24.05Z</time>
      </trkpt>
      <trkpt lat="43.88743" lon="7.45877">
        <ele>726</ele>
        <time>2018-09-16T11:18:29.05Z</time>
      </trkpt>
      <trkpt lat="43.88742" lon="7.4587">
        <ele>728</ele>
        <time>2018-09-16T11:18:33.05Z</time>
      </trkpt>
      <trkpt lat="43.88742" lon="7.45862">
        <ele>728</ele>
        <time>2018-09-16T11:18:37.05Z</time>
      </trkpt>
      <trkpt lat="43.88741" lon="7.45855">
        <ele>728</ele>
        <time>2018-09-16T11:18:40.05Z</time>
      </trkpt>
      <trkpt lat="43.88739" lon="7.45848">
        <ele>729</ele>
        <time>2018-09-16T11:18:43.05Z</time>
      </trkpt>
      <trkpt lat="43.88737" lon="7.4584">
        <ele>729</ele>
        <time>2018-09-16T11:18:46.05Z</time>
      </trkpt>
      <trkpt lat="43.88734" lon="7.45833">
        <ele>729</ele>
        <time>2018-09-16T11:18:49.05Z</time>
      </trkpt>
      <trkpt lat="43.88733" lon="7.45826">
        <ele>729</ele>
        <time>2018-09-16T11:18:53.05Z</time>
      </trkpt>
      <trkpt lat="43.88733" lon="7.45817">
        <ele>730</ele>
        <time>2018-09-16T11:18:59.05Z</time>
      </trkpt>
      <trkpt lat="43.88734" lon="7.4581">
        <ele>732</ele>
        <time>2018-09-16T11:19:04.05Z</time>
      </trkpt>
      <trkpt lat="43.88732" lon="7.45803">
        <ele>732</ele>
        <time>2018-09-16T11:19:08.05Z</time>
      </trkpt>
      <trkpt lat="43.8873" lon="7.45796">
        <ele>734</ele>
        <time>2018-09-16T11:19:13.05Z</time>
      </trkpt>
      <trkpt lat="43.88731" lon="7.45789">
        <ele>734</ele>
        <time>2018-09-16T11:19:18.05Z</time>
      </trkpt>
      <trkpt lat="43.88729" lon="7.45783">
        <ele>734</ele>
        <time>2018-09-16T11:19:22.05Z</time>
      </trkpt>
      <trkpt lat="43.88729" lon="7.45774">
        <ele>734</ele>
        <time>2018-09-16T11:19:27.05Z</time>
      </trkpt>
      <trkpt lat="43.88728" lon="7.45767">
        <ele>736</ele>
        <time>2018-09-16T11:19:32.05Z</time>
      </trkpt>
      <trkpt lat="43.88729" lon="7.45759">
        <ele>736</ele>
        <time>2018-09-16T11:19:37.05Z</time>
      </trkpt>
      <trkpt lat="43.8873" lon="7.45752">
        <ele>736.52</ele>
        <time>2018-09-16T11:19:41.05Z</time>
      </trkpt>
      <trkpt lat="43.88731" lon="7.45745">
        <ele>738</ele>
        <time>2018-09-16T11:19:45.05Z</time>
      </trkpt>
      <trkpt lat="43.88732" lon="7.45741">
        <ele>738</ele>
        <time>2018-09-16T11:19:48.05Z</time>
      </trkpt>
      <trkpt lat="43.88732" lon="7.45733">
        <ele>739</ele>
        <time>2018-09-16T11:19:52.05Z</time>
      </trkpt>
      <trkpt lat="43.8873" lon="7.45726">
        <ele>739</ele>
        <time>2018-09-16T11:19:55.05Z</time>
      </trkpt>
      <trkpt lat="43.88728" lon="7.45718">
        <ele>739</ele>
        <time>2018-09-16T11:19:58.05Z</time>
      </trkpt>
      <trkpt lat="43.88726" lon="7.45713">
        <ele>739</ele>
        <time>2018-09-16T11:20:00.05Z</time>
      </trkpt>
      <trkpt lat="43.88725" lon="7.45707">
        <ele>740</ele>
        <time>2018-09-16T11:20:02.05Z</time>
      </trkpt>
      <trkpt lat="43.88724" lon="7.45698">
        <ele>740</ele>
        <time>2018-09-16T11:20:05.05Z</time>
      </trkpt>
      <trkpt lat="43.88722" lon="7.4569">
        <ele>740</ele>
        <time>2018-09-16T11:20:08.05Z</time>
      </trkpt>
      <trkpt lat="43.88721" lon="7.45681">
        <ele>740.26</ele>
        <time>2018-09-16T11:20:11.05Z</time>
      </trkpt>
      <trkpt lat="43.8872" lon="7.45675">
        <ele>741</ele>
        <time>2018-09-16T11:20:13.05Z</time>
      </trkpt>
      <trkpt lat="43.8872" lon="7.45669">
        <ele>741</ele>
        <time>2018-09-16T11:20:15.05Z</time>
      </trkpt>
      <trkpt lat="43.8872" lon="7.45663">
        <ele>741</ele>
        <time>2018-09-16T11:20:17.05Z</time>
      </trkpt>
      <trkpt lat="43.88721" lon="7.45655">
        <ele>741</ele>
        <time>2018-09-16T11:20:20.05Z</time>
      </trkpt>
      <trkpt lat="43.88722" lon="7.45648">
        <ele>741</ele>
        <time>2018-09-16T11:20:23.05Z</time>
      </trkpt>
      <trkpt lat="43.88723" lon="7.4564">
        <ele>741</ele>
        <time>2018-09-16T11:20:26.05Z</time>
      </trkpt>
      <trkpt lat="43.88723" lon="7.45631">
        <ele>741</ele>
        <time>2018-09-16T11:20:30.05Z</time>
      </trkpt>
      <trkpt lat="43.88723" lon="7.45624">
        <ele>743</ele>
        <time>2018-09-16T11:20:33.05Z</time>
      </trkpt>
      <trkpt lat="43.88722" lon="7.45614">
        <ele>743</ele>
        <time>2018-09-16T11:20:37.05Z</time>
      </trkpt>
      <trkpt lat="43.88722" lon="7.45606">
        <ele>743</ele>
        <time>2018-09-16T11:20:40.05Z</time>
      </trkpt>
      <trkpt lat="43.88722" lon="7.45597">
        <ele>744</ele>
        <time>2018-09-16T11:20:43.05Z</time>
      </trkpt>
      <trkpt lat="43.88723" lon="7.45589">
        <ele>744</ele>
        <time>2018-09-16T11:20:46.05Z</time>
      </trkpt>
      <trkpt lat="43.88723" lon="7.45582">
        <ele>744</ele>
        <time>2018-09-16T11:20:49.05Z</time>
      </trkpt>
      <trkpt lat="43.88722" lon="7.45574">
        <ele>744.41</ele>
        <time>2018-09-16T11:20:52.05Z</time>
      </trkpt>
      <trkpt lat="43.88718" lon="7.45565">
        <ele>745</ele>
        <time>2018-09-16T11:20:56.05Z</time>
      </trkpt>
      <trkpt lat="43.88716" lon="7.4556">
        <ele>745</ele>
        <time>2018-09-16T11:20:58.05Z</time>
      </trkpt>
      <trkpt lat="43.88713" lon="7.45553">
        <ele>745.78</ele>
        <time>2018-09-16T11:21:01.05Z</time>
      </trkpt>
      <trkpt lat="43.88712" lon="7.45546">
        <ele>748</ele>
        <time>2018-09-16T11:21:03.05Z</time>
      </trkpt>
      <trkpt lat="43.8871" lon="7.45537">
        <ele>748</ele>
        <time>2018-09-16T11:21:06.05Z</time>
      </trkpt>
      <trkpt lat="43.8871" lon="7.45529">
        <ele>748</ele>
        <time>2018-09-16T11:21:09.05Z</time>
      </trkpt>
      <trkpt lat="43.88711" lon="7.45522">
        <ele>747</ele>
        <time>2018-09-16T11:21:13.05Z</time>
      </trkpt>
      <trkpt lat="43.88711" lon="7.45514">
        <ele>747</ele>
        <time>2018-09-16T11:21:18.05Z</time>
      </trkpt>
      <trkpt lat="43.88713" lon="7.45508">
        <ele>747</ele>
        <time>2018-09-16T11:21:22.05Z</time>
      </trkpt>
      <trkpt lat="43.88713" lon="7.45502">
        <ele>747</ele>
        <time>2018-09-16T11:21:25.05Z</time>
      </trkpt>
      <trkpt lat="43.88714" lon="7.45496">
        <ele>747</ele>
        <time>2018-09-16T11:21:29.05Z</time>
      </trkpt>
      <trkpt lat="43.88714" lon="7.45491">
        <ele>748</ele>
        <time>2018-09-16T11:21:32.05Z</time>
      </trkpt>
      <trkpt lat="43.88714" lon="7.45486">
        <ele>748</ele>
        <time>2018-09-16T11:21:35.05Z</time>
      </trkpt>
      <trkpt lat="43.88714" lon="7.4548">
        <ele>748</ele>
        <time>2018-09-16T11:21:38.05Z</time>
      </trkpt>
      <trkpt lat="43.88713" lon="7.45475">
        <ele>748.26</ele>
        <time>2018-09-16T11:21:41.05Z</time>
      </trkpt>
      <trkpt lat="43.88713" lon="7.45469">
        <ele>749</ele>
        <time>2018-09-16T11:21:44.05Z</time>
      </trkpt>
      <trkpt lat="43.88713" lon="7.45464">
        <ele>749</ele>
        <time>2018-09-16T11:21:47.05Z</time>
      </trkpt>
      <trkpt lat="43.88713" lon="7.45458">
        <ele>749</ele>
        <time>2018-09-16T11:21:50.05Z</time>
      </trkpt>
      <trkpt lat="43.88713" lon="7.45451">
        <ele>749</ele>
        <time>2018-09-16T11:21:54.05Z</time>
      </trkpt>
      <trkpt lat="43.88714" lon="7.45446">
        <ele>749</ele>
        <time>2018-09-16T11:21:56.05Z</time>
      </trkpt>
      <trkpt lat="43.88715" lon="7.4544">
        <ele>749</ele>
        <time>2018-09-16T11:21:58.05Z</time>
      </trkpt>
      <trkpt lat="43.88717" lon="7.45434">
        <ele>749</ele>
        <time>2018-09-16T11:22:00.05Z</time>
      </trkpt>
      <trkpt lat="43.88718" lon="7.45428">
        <ele>751</ele>
        <time>2018-09-16T11:22:02.05Z</time>
      </trkpt>
      <trkpt lat="43.8872" lon="7.45423">
        <ele>751</ele>
        <time>2018-09-16T11:22:04.05Z</time>
      </trkpt>
      <trkpt lat="43.88723" lon="7.45415">
        <ele>751</ele>
        <time>2018-09-16T11:22:07.05Z</time>
      </trkpt>
      <trkpt lat="43.88724" lon="7.4541">
        <ele>751</ele>
        <time>2018-09-16T11:22:09.05Z</time>
      </trkpt>
      <trkpt lat="43.8873" lon="7.45407">
        <ele>752</ele>
        <time>2018-09-16T11:22:13.05Z</time>
      </trkpt>
      <trkpt lat="43.88735" lon="7.45403">
        <ele>752</ele>
        <time>2018-09-16T11:22:16.05Z</time>
      </trkpt>
      <trkpt lat="43.88739" lon="7.45399">
        <ele>752</ele>
        <time>2018-09-16T11:22:19.05Z</time>
      </trkpt>
      <trkpt lat="43.8874" lon="7.45393">
        <ele>750</ele>
        <time>2018-09-16T11:22:22.05Z</time>
      </trkpt>
      <trkpt lat="43.88741" lon="7.45385">
        <ele>750</ele>
        <time>2018-09-16T11:22:25.05Z</time>
      </trkpt>
      <trkpt lat="43.88742" lon="7.45378">
        <ele>750</ele>
        <time>2018-09-16T11:22:28.05Z</time>
      </trkpt>
      <trkpt lat="43.88741" lon="7.4537">
        <ele>748.48</ele>
        <time>2018-09-16T11:22:31.05Z</time>
      </trkpt>
      <trkpt lat="43.8874" lon="7.45364">
        <ele>742</ele>
        <time>2018-09-16T11:22:33.05Z</time>
      </trkpt>
      <trkpt lat="43.88738" lon="7.45356">
        <ele>740.74</ele>
        <time>2018-09-16T11:22:36.05Z</time>
      </trkpt>
      <trkpt lat="43.88737" lon="7.45348">
        <ele>740</ele>
        <time>2018-09-16T11:22:39.05Z</time>
      </trkpt>
      <trkpt lat="43.88737" lon="7.45343">
        <ele>738.26</ele>
        <time>2018-09-16T11:22:41.05Z</time>
      </trkpt>
      <trkpt lat="43.88738" lon="7.45335">
        <ele>736</ele>
        <time>2018-09-16T11:22:44.05Z</time>
      </trkpt>
      <trkpt lat="43.88741" lon="7.45327">
        <ele>735</ele>
        <time>2018-09-16T11:22:47.05Z</time>
      </trkpt>
      <trkpt lat="43.88743" lon="7.4532">
        <ele>732.74</ele>
        <time>2018-09-16T11:22:50.05Z</time>
      </trkpt>
      <trkpt lat="43.88744" lon="7.45313">
        <ele>731</ele>
        <time>2018-09-16T11:22:53.05Z</time>
      </trkpt>
      <trkpt lat="43.88742" lon="7.45305">
        <ele>729</ele>
        <time>2018-09-16T11:22:56.05Z</time>
      </trkpt>
      <trkpt lat="43.88741" lon="7.45298">
        <ele>728</ele>
        <time>2018-09-16T11:22:58.05Z</time>
      </trkpt>
      <trkpt lat="43.88739" lon="7.45292">
        <ele>727.74</ele>
        <time>2018-09-16T11:23:00.05Z</time>
      </trkpt>
      <trkpt lat="43.88738" lon="7.45286">
        <ele>726</ele>
        <time>2018-09-16T11:23:02.05Z</time>
      </trkpt>
      <trkpt lat="43.88737" lon="7.45277">
        <ele>725.74</ele>
        <time>2018-09-16T11:23:05.05Z</time>
      </trkpt>
      <trkpt lat="43.88737" lon="7.45271">
        <ele>723.26</ele>
        <time>2018-09-16T11:23:08.05Z</time>
      </trkpt>
      <trkpt lat="43.88734" lon="7.45264">
        <ele>722</ele>
        <time>2018-09-16T11:23:13.05Z</time>
      </trkpt>
      <trkpt lat="43.88736" lon="7.45256">
        <ele>719</ele>
        <time>2018-09-16T11:23:18.05Z</time>
      </trkpt>
      <trkpt lat="43.88742" lon="7.45253">
        <ele>716.74</ele>
        <time>2018-09-16T11:23:22.05Z</time>
      </trkpt>
      <trkpt lat="43.8875" lon="7.4525">
        <ele>712.74</ele>
        <time>2018-09-16T11:23:27.05Z</time>
      </trkpt>
      <trkpt lat="43.88757" lon="7.45252">
        <ele>711.82</ele>
        <time>2018-09-16T11:23:30.05Z</time>
      </trkpt>
      <trkpt lat="43.88766" lon="7.45256">
        <ele>710</ele>
        <time>2018-09-16T11:23:35.05Z</time>
      </trkpt>
      <trkpt lat="43.88775" lon="7.45259">
        <ele>710</ele>
        <time>2018-09-16T11:23:39.05Z</time>
      </trkpt>
      <trkpt lat="43.88784" lon="7.45263">
        <ele>709</ele>
        <time>2018-09-16T11:23:44.05Z</time>
      </trkpt>
      <trkpt lat="43.88791" lon="7.45267">
        <ele>709</ele>
        <time>2018-09-16T11:23:48.05Z</time>
      </trkpt>
      <trkpt lat="43.88798" lon="7.45269">
        <ele>709</ele>
        <time>2018-09-16T11:23:52.05Z</time>
      </trkpt>
      <trkpt lat="43.88806" lon="7.45271">
        <ele>704</ele>
        <time>2018-09-16T11:23:56.05Z</time>
      </trkpt>
      <trkpt lat="43.88814" lon="7.45275">
        <ele>702</ele>
        <time>2018-09-16T11:24:00.05Z</time>
      </trkpt>
      <trkpt lat="43.88821" lon="7.45278">
        <ele>699</ele>
        <time>2018-09-16T11:24:03.05Z</time>
      </trkpt>
      <trkpt lat="43.8883" lon="7.45281">
        <ele>698.49</ele>
        <time>2018-09-16T11:24:07.05Z</time>
      </trkpt>
      <trkpt lat="43.88839" lon="7.45284">
        <ele>695</ele>
        <time>2018-09-16T11:24:11.05Z</time>
      </trkpt>
      <trkpt lat="43.88846" lon="7.45289">
        <ele>695</ele>
        <time>2018-09-16T11:24:15.05Z</time>
      </trkpt>
      <trkpt lat="43.88853" lon="7.45293">
        <ele>693</ele>
        <time>2018-09-16T11:24:19.05Z</time>
      </trkpt>
      <trkpt lat="43.88854" lon="7.45282">
        <ele>692</ele>
        <time>2018-09-16T11:24:25.05Z</time>
      </trkpt>
      <trkpt lat="43.88852" lon="7.4527">
        <ele>691.47</ele>
        <time>2018-09-16T11:24:28.05Z</time>
      </trkpt>
      <trkpt lat="43.88852" lon="7.45258">
        <ele>689</ele>
        <time>2018-09-16T11:24:32.05Z</time>
      </trkpt>
      <trkpt lat="43.88852" lon="7.45249">
        <ele>686</ele>
        <time>2018-09-16T11:24:35.05Z</time>
      </trkpt>
      <trkpt lat="43.88855" lon="7.45238">
        <ele>683</ele>
        <time>2018-09-16T11:24:39.05Z</time>
      </trkpt>
      <trkpt lat="43.88859" lon="7.45231">
        <ele>680.81</ele>
        <time>2018-09-16T11:24:42.05Z</time>
      </trkpt>
      <trkpt lat="43.88865" lon="7.45222">
        <ele>677.56</ele>
        <time>2018-09-16T11:24:46.05Z</time>
      </trkpt>
      <trkpt lat="43.88871" lon="7.45217">
        <ele>676</ele>
        <time>2018-09-16T11:24:49.05Z</time>
      </trkpt>
      <trkpt lat="43.88879" lon="7.45209">
        <ele>675</ele>
        <time>2018-09-16T11:24:53.05Z</time>
      </trkpt>
      <trkpt lat="43.88884" lon="7.45201">
        <ele>674.76</ele>
        <time>2018-09-16T11:24:56.05Z</time>
      </trkpt>
      <trkpt lat="43.88888" lon="7.45193">
        <ele>673</ele>
        <time>2018-09-16T11:24:59.05Z</time>
      </trkpt>
      <trkpt lat="43.88892" lon="7.45186">
        <ele>672.79</ele>
        <time>2018-09-16T11:25:02.05Z</time>
      </trkpt>
      <trkpt lat="43.88896" lon="7.45179">
        <ele>672</ele>
        <time>2018-09-16T11:25:06.05Z</time>
      </trkpt>
      <trkpt lat="43.88899" lon="7.4518">
        <ele>671</ele>
        <time>2018-09-16T11:25:22.05Z</time>
      </trkpt>
      <trkpt lat="43.88903" lon="7.45176">
        <ele>671</ele>
        <time>2018-09-16T11:26:16.05Z</time>
      </trkpt>
      <trkpt lat="43.88907" lon="7.45175">
        <ele>671</ele>
        <time>2018-09-16T11:26:20.05Z</time>
      </trkpt>
      <trkpt lat="43.88911" lon="7.45177">
        <ele>670</ele>
        <time>2018-09-16T11:26:23.05Z</time>
      </trkpt>
      <trkpt lat="43.88916" lon="7.4518">
        <ele>670</ele>
        <time>2018-09-16T11:26:29.05Z</time>
      </trkpt>
      <trkpt lat="43.88922" lon="7.45183">
        <ele>669</ele>
        <time>2018-09-16T11:26:35.05Z</time>
      </trkpt>
      <trkpt lat="43.88926" lon="7.45187">
        <ele>669</ele>
        <time>2018-09-16T11:26:39.05Z</time>
      </trkpt>
      <trkpt lat="43.88932" lon="7.45192">
        <ele>669</ele>
        <time>2018-09-16T11:26:44.05Z</time>
      </trkpt>
      <trkpt lat="43.88939" lon="7.45198">
        <ele>669</ele>
        <time>2018-09-16T11:26:50.05Z</time>
      </trkpt>
      <trkpt lat="43.88948" lon="7.45198">
        <ele>668</ele>
        <time>2018-09-16T11:26:55.05Z</time>
      </trkpt>
      <trkpt lat="43.88956" lon="7.45199">
        <ele>669.04</ele>
        <time>2018-09-16T11:27:01.05Z</time>
      </trkpt>
      <trkpt lat="43.88967" lon="7.45198">
        <ele>673</ele>
        <time>2018-09-16T11:27:08.05Z</time>
      </trkpt>
      <trkpt lat="43.88977" lon="7.45198">
        <ele>674</ele>
        <time>2018-09-16T11:27:13.05Z</time>
      </trkpt>
      <trkpt lat="43.88986" lon="7.45197">
        <ele>674</ele>
        <time>2018-09-16T11:27:18.05Z</time>
      </trkpt>
      <trkpt lat="43.88994" lon="7.45198">
        <ele>674</ele>
        <time>2018-09-16T11:27:22.05Z</time>
      </trkpt>
      <trkpt lat="43.89004" lon="7.452">
        <ele>674</ele>
        <time>2018-09-16T11:27:27.05Z</time>
      </trkpt>
      <trkpt lat="43.89015" lon="7.45202">
        <ele>674</ele>
        <time>2018-09-16T11:27:32.05Z</time>
      </trkpt>
      <trkpt lat="43.89026" lon="7.45205">
        <ele>674</ele>
        <time>2018-09-16T11:27:37.05Z</time>
      </trkpt>
      <trkpt lat="43.89036" lon="7.45209">
        <ele>674</ele>
        <time>2018-09-16T11:27:42.05Z</time>
      </trkpt>
      <trkpt lat="43.89047" lon="7.45208">
        <ele>674</ele>
        <time>2018-09-16T11:27:47.05Z</time>
      </trkpt>
      <trkpt lat="43.89057" lon="7.4521">
        <ele>677</ele>
        <time>2018-09-16T11:27:52.05Z</time>
      </trkpt>
      <trkpt lat="43.89068" lon="7.45208">
        <ele>678</ele>
        <time>2018-09-16T11:27:58.05Z</time>
      </trkpt>
      <trkpt lat="43.89078" lon="7.45202">
        <ele>680</ele>
        <time>2018-09-16T11:28:04.05Z</time>
      </trkpt>
      <trkpt lat="43.89088" lon="7.45194">
        <ele>680</ele>
        <time>2018-09-16T11:28:09.05Z</time>
      </trkpt>
      <trkpt lat="43.89096" lon="7.45186">
        <ele>681</ele>
        <time>2018-09-16T11:28:13.05Z</time>
      </trkpt>
      <trkpt lat="43.89102" lon="7.45174">
        <ele>681</ele>
        <time>2018-09-16T11:28:18.05Z</time>
      </trkpt>
      <trkpt lat="43.89106" lon="7.45162">
        <ele>679</ele>
        <time>2018-09-16T11:28:23.05Z</time>
      </trkpt>
      <trkpt lat="43.89117" lon="7.45156">
        <ele>679</ele>
        <time>2018-09-16T11:28:29.05Z</time>
      </trkpt>
      <trkpt lat="43.89127" lon="7.45149">
        <ele>678</ele>
        <time>2018-09-16T11:28:36.05Z</time>
      </trkpt>
      <trkpt lat="43.89135" lon="7.45142">
        <ele>678.52</ele>
        <time>2018-09-16T11:28:41.05Z</time>
      </trkpt>
      <trkpt lat="43.89146" lon="7.45144">
        <ele>680</ele>
        <time>2018-09-16T11:28:46.05Z</time>
      </trkpt>
      <trkpt lat="43.89156" lon="7.45148">
        <ele>683</ele>
        <time>2018-09-16T11:28:52.05Z</time>
      </trkpt>
      <trkpt lat="43.89166" lon="7.45143">
        <ele>684</ele>
        <time>2018-09-16T11:29:03.05Z</time>
      </trkpt>
      <trkpt lat="43.89174" lon="7.45135">
        <ele>684</ele>
        <time>2018-09-16T11:29:10.05Z</time>
      </trkpt>
      <trkpt lat="43.8918" lon="7.45127">
        <ele>684</ele>
        <time>2018-09-16T11:29:16.05Z</time>
      </trkpt>
      <trkpt lat="43.89184" lon="7.45116">
        <ele>687</ele>
        <time>2018-09-16T11:29:22.05Z</time>
      </trkpt>
      <trkpt lat="43.89191" lon="7.45107">
        <ele>689</ele>
        <time>2018-09-16T11:29:27.05Z</time>
      </trkpt>
      <trkpt lat="43.89197" lon="7.45098">
        <ele>688.74</ele>
        <time>2018-09-16T11:29:31.05Z</time>
      </trkpt>
      <trkpt lat="43.89203" lon="7.45087">
        <ele>688</ele>
        <time>2018-09-16T11:29:36.05Z</time>
      </trkpt>
      <trkpt lat="43.8921" lon="7.45073">
        <ele>688</ele>
        <time>2018-09-16T11:29:42.05Z</time>
      </trkpt>
      <trkpt lat="43.89214" lon="7.45057">
        <ele>688</ele>
        <time>2018-09-16T11:29:47.05Z</time>
      </trkpt>
      <trkpt lat="43.89222" lon="7.45044">
        <ele>688</ele>
        <time>2018-09-16T11:29:52.05Z</time>
      </trkpt>
      <trkpt lat="43.89232" lon="7.45036">
        <ele>688</ele>
        <time>2018-09-16T11:29:57.05Z</time>
      </trkpt>
      <trkpt lat="43.8924" lon="7.45029">
        <ele>687.48</ele>
        <time>2018-09-16T11:30:01.05Z</time>
      </trkpt>
      <trkpt lat="43.89251" lon="7.45021">
        <ele>686</ele>
        <time>2018-09-16T11:30:06.05Z</time>
      </trkpt>
      <trkpt lat="43.89261" lon="7.45025">
        <ele>686</ele>
        <time>2018-09-16T11:30:11.05Z</time>
      </trkpt>
      <trkpt lat="43.89269" lon="7.45036">
        <ele>686</ele>
        <time>2018-09-16T11:30:15.05Z</time>
      </trkpt>
      <trkpt lat="43.8928" lon="7.45042">
        <ele>686</ele>
        <time>2018-09-16T11:30:20.05Z</time>
      </trkpt>
      <trkpt lat="43.89288" lon="7.45046">
        <ele>684</ele>
        <time>2018-09-16T11:30:24.05Z</time>
      </trkpt>
      <trkpt lat="43.89297" lon="7.45054">
        <ele>684</ele>
        <time>2018-09-16T11:30:29.05Z</time>
      </trkpt>
      <trkpt lat="43.89307" lon="7.45054">
        <ele>683</ele>
        <time>2018-09-16T11:30:34.05Z</time>
      </trkpt>
      <trkpt lat="43.89317" lon="7.45051">
        <ele>683</ele>
        <time>2018-09-16T11:30:39.05Z</time>
      </trkpt>
      <trkpt lat="43.89328" lon="7.45046">
        <ele>682</ele>
        <time>2018-09-16T11:30:45.05Z</time>
      </trkpt>
      <trkpt lat="43.89337" lon="7.45037">
        <ele>682</ele>
        <time>2018-09-16T11:30:49.05Z</time>
      </trkpt>
      <trkpt lat="43.89347" lon="7.45029">
        <ele>680</ele>
        <time>2018-09-16T11:30:53.05Z</time>
      </trkpt>
      <trkpt lat="43.89357" lon="7.45036">
        <ele>680</ele>
        <time>2018-09-16T11:30:58.05Z</time>
      </trkpt>
      <trkpt lat="43.89365" lon="7.45047">
        <ele>682</ele>
        <time>2018-09-16T11:31:02.05Z</time>
      </trkpt>
      <trkpt lat="43.89371" lon="7.45056">
        <ele>682</ele>
        <time>2018-09-16T11:31:06.05Z</time>
      </trkpt>
      <trkpt lat="43.89378" lon="7.45064">
        <ele>682</ele>
        <time>2018-09-16T11:31:10.05Z</time>
      </trkpt>
      <trkpt lat="43.89388" lon="7.45073">
        <ele>681</ele>
        <time>2018-09-16T11:31:15.05Z</time>
      </trkpt>
      <trkpt lat="43.89397" lon="7.45081">
        <ele>681</ele>
        <time>2018-09-16T11:31:19.05Z</time>
      </trkpt>
      <trkpt lat="43.89408" lon="7.45085">
        <ele>680</ele>
        <time>2018-09-16T11:31:24.05Z</time>
      </trkpt>
      <trkpt lat="43.89418" lon="7.45086">
        <ele>680</ele>
        <time>2018-09-16T11:31:29.05Z</time>
      </trkpt>
      <trkpt lat="43.89427" lon="7.45096">
        <ele>679</ele>
        <time>2018-09-16T11:31:34.05Z</time>
      </trkpt>
      <trkpt lat="43.89435" lon="7.45105">
        <ele>679</ele>
        <time>2018-09-16T11:31:39.05Z</time>
      </trkpt>
      <trkpt lat="43.89444" lon="7.45111">
        <ele>677</ele>
        <time>2018-09-16T11:31:48.05Z</time>
      </trkpt>
      <trkpt lat="43.89448" lon="7.45118">
        <ele>678</ele>
        <time>2018-09-16T11:31:57.05Z</time>
      </trkpt>
      <trkpt lat="43.89458" lon="7.45117">
        <ele>680</ele>
        <time>2018-09-16T11:32:05.05Z</time>
      </trkpt>
      <trkpt lat="43.89465" lon="7.45111">
        <ele>680</ele>
        <time>2018-09-16T11:32:09.05Z</time>
      </trkpt>
      <trkpt lat="43.89474" lon="7.451">
        <ele>681</ele>
        <time>2018-09-16T11:32:15.05Z</time>
      </trkpt>
      <trkpt lat="43.89481" lon="7.45091">
        <ele>681.78</ele>
        <time>2018-09-16T11:32:21.05Z</time>
      </trkpt>
      <trkpt lat="43.89491" lon="7.45081">
        <ele>685</ele>
        <time>2018-09-16T11:32:27.05Z</time>
      </trkpt>
      <trkpt lat="43.89497" lon="7.45067">
        <ele>687</ele>
        <time>2018-09-16T11:32:33.05Z</time>
      </trkpt>
      <trkpt lat="43.89503" lon="7.45055">
        <ele>687</ele>
        <time>2018-09-16T11:32:39.05Z</time>
      </trkpt>
      <trkpt lat="43.8951" lon="7.45042">
        <ele>686</ele>
        <time>2018-09-16T11:32:44.05Z</time>
      </trkpt>
      <trkpt lat="43.89518" lon="7.45033">
        <ele>686</ele>
        <time>2018-09-16T11:32:49.05Z</time>
      </trkpt>
      <trkpt lat="43.89526" lon="7.45024">
        <ele>685</ele>
        <time>2018-09-16T11:32:54.05Z</time>
      </trkpt>
      <trkpt lat="43.89535" lon="7.45015">
        <ele>685</ele>
        <time>2018-09-16T11:32:59.05Z</time>
      </trkpt>
      <trkpt lat="43.89545" lon="7.45009">
        <ele>681</ele>
        <time>2018-09-16T11:33:03.05Z</time>
      </trkpt>
      <trkpt lat="43.89554" lon="7.44998">
        <ele>681</ele>
        <time>2018-09-16T11:33:08.05Z</time>
      </trkpt>
      <trkpt lat="43.89561" lon="7.44985">
        <ele>680</ele>
        <time>2018-09-16T11:33:13.05Z</time>
      </trkpt>
      <trkpt lat="43.89569" lon="7.44977">
        <ele>680</ele>
        <time>2018-09-16T11:33:17.05Z</time>
      </trkpt>
      <trkpt lat="43.89576" lon="7.44967">
        <ele>679</ele>
        <time>2018-09-16T11:33:22.05Z</time>
      </trkpt>
      <trkpt lat="43.89585" lon="7.44962">
        <ele>679</ele>
        <time>2018-09-16T11:33:26.05Z</time>
      </trkpt>
      <trkpt lat="43.89595" lon="7.44956">
        <ele>676</ele>
        <time>2018-09-16T11:33:32.05Z</time>
      </trkpt>
      <trkpt lat="43.89605" lon="7.44953">
        <ele>674</ele>
        <time>2018-09-16T11:33:37.05Z</time>
      </trkpt>
      <trkpt lat="43.89616" lon="7.44947">
        <ele>674</ele>
        <time>2018-09-16T11:33:43.05Z</time>
      </trkpt>
      <trkpt lat="43.89627" lon="7.44942">
        <ele>674</ele>
        <time>2018-09-16T11:33:49.05Z</time>
      </trkpt>
      <trkpt lat="43.89637" lon="7.44939">
        <ele>673</ele>
        <time>2018-09-16T11:33:55.05Z</time>
      </trkpt>
      <trkpt lat="43.8965" lon="7.44938">
        <ele>672.22</ele>
        <time>2018-09-16T11:34:01.05Z</time>
      </trkpt>
      <trkpt lat="43.8966" lon="7.44936">
        <ele>669.48</ele>
        <time>2018-09-16T11:34:06.05Z</time>
      </trkpt>
      <trkpt lat="43.8967" lon="7.44933">
        <ele>667.48</ele>
        <time>2018-09-16T11:34:11.05Z</time>
      </trkpt>
      <trkpt lat="43.8968" lon="7.4493">
        <ele>665.74</ele>
        <time>2018-09-16T11:34:16.05Z</time>
      </trkpt>
      <trkpt lat="43.89691" lon="7.44926">
        <ele>664.48</ele>
        <time>2018-09-16T11:34:21.05Z</time>
      </trkpt>
      <trkpt lat="43.89702" lon="7.44921">
        <ele>663</ele>
        <time>2018-09-16T11:34:26.05Z</time>
      </trkpt>
      <trkpt lat="43.89712" lon="7.44914">
        <ele>662.48</ele>
        <time>2018-09-16T11:34:31.05Z</time>
      </trkpt>
      <trkpt lat="43.8972" lon="7.44905">
        <ele>661</ele>
        <time>2018-09-16T11:34:35.05Z</time>
      </trkpt>
      <trkpt lat="43.89728" lon="7.44896">
        <ele>661</ele>
        <time>2018-09-16T11:34:39.05Z</time>
      </trkpt>
      <trkpt lat="43.89734" lon="7.44885">
        <ele>661</ele>
        <time>2018-09-16T11:34:44.05Z</time>
      </trkpt>
      <trkpt lat="43.89734" lon="7.44869">
        <ele>661</ele>
        <time>2018-09-16T11:34:50.05Z</time>
      </trkpt>
      <trkpt lat="43.8974" lon="7.44857">
        <ele>662</ele>
        <time>2018-09-16T11:34:55.05Z</time>
      </trkpt>
      <trkpt lat="43.89748" lon="7.44848">
        <ele>662</ele>
        <time>2018-09-16T11:35:00.05Z</time>
      </trkpt>
      <trkpt lat="43.89756" lon="7.44843">
        <ele>661</ele>
        <time>2018-09-16T11:35:04.05Z</time>
      </trkpt>
      <trkpt lat="43.89764" lon="7.44839">
        <ele>661</ele>
        <time>2018-09-16T11:35:08.05Z</time>
      </trkpt>
      <trkpt lat="43.89775" lon="7.44835">
        <ele>661</ele>
        <time>2018-09-16T11:35:13.05Z</time>
      </trkpt>
      <trkpt lat="43.89783" lon="7.44832">
        <ele>661</ele>
        <time>2018-09-16T11:35:19.05Z</time>
      </trkpt>
      <trkpt lat="43.8979" lon="7.44825">
        <ele>661</ele>
        <time>2018-09-16T11:35:27.05Z</time>
      </trkpt>
      <trkpt lat="43.89801" lon="7.44824">
        <ele>662</ele>
        <time>2018-09-16T11:35:37.05Z</time>
      </trkpt>
      <trkpt lat="43.89812" lon="7.4483">
        <ele>661</ele>
        <time>2018-09-16T11:35:42.05Z</time>
      </trkpt>
      <trkpt lat="43.89822" lon="7.44834">
        <ele>661</ele>
        <time>2018-09-16T11:35:46.05Z</time>
      </trkpt>
      <trkpt lat="43.89831" lon="7.44831">
        <ele>661</ele>
        <time>2018-09-16T11:35:51.05Z</time>
      </trkpt>
      <trkpt lat="43.89841" lon="7.44826">
        <ele>661</ele>
        <time>2018-09-16T11:35:56.05Z</time>
      </trkpt>
      <trkpt lat="43.89853" lon="7.44826">
        <ele>660.22</ele>
        <time>2018-09-16T11:36:01.05Z</time>
      </trkpt>
      <trkpt lat="43.89863" lon="7.44824">
        <ele>658.26</ele>
        <time>2018-09-16T11:36:06.05Z</time>
      </trkpt>
      <trkpt lat="43.89875" lon="7.44822">
        <ele>659</ele>
        <time>2018-09-16T11:36:11.05Z</time>
      </trkpt>
      <trkpt lat="43.89884" lon="7.44815">
        <ele>659</ele>
        <time>2018-09-16T11:36:16.05Z</time>
      </trkpt>
      <trkpt lat="43.89892" lon="7.44805">
        <ele>660</ele>
        <time>2018-09-16T11:36:25.05Z</time>
      </trkpt>
      <trkpt lat="43.89892" lon="7.44795">
        <ele>660</ele>
        <time>2018-09-16T11:36:31.05Z</time>
      </trkpt>
      <trkpt lat="43.89885" lon="7.44788">
        <ele>660</ele>
        <time>2018-09-16T11:36:37.05Z</time>
      </trkpt>
      <trkpt lat="43.89879" lon="7.44778">
        <ele>661</ele>
        <time>2018-09-16T11:36:43.05Z</time>
      </trkpt>
      <trkpt lat="43.8987" lon="7.44779">
        <ele>663</ele>
        <time>2018-09-16T11:36:53.05Z</time>
      </trkpt>
      <trkpt lat="43.89862" lon="7.44788">
        <ele>663</ele>
        <time>2018-09-16T11:37:02.05Z</time>
      </trkpt>
      <trkpt lat="43.89852" lon="7.44792">
        <ele>663.47</ele>
        <time>2018-09-16T11:37:11.05Z</time>
      </trkpt>
      <trkpt lat="43.89842" lon="7.44788">
        <ele>667</ele>
        <time>2018-09-16T11:37:25.05Z</time>
      </trkpt>
      <trkpt lat="43.89838" lon="7.44774">
        <ele>669</ele>
        <time>2018-09-16T11:37:38.05Z</time>
      </trkpt>
      <trkpt lat="43.89837" lon="7.4476">
        <ele>672</ele>
        <time>2018-09-16T11:37:48.05Z</time>
      </trkpt>
      <trkpt lat="43.89832" lon="7.4475">
        <ele>674.52</ele>
        <time>2018-09-16T11:37:56.05Z</time>
      </trkpt>
      <trkpt lat="43.89824" lon="7.44744">
        <ele>678</ele>
        <time>2018-09-16T11:38:07.05Z</time>
      </trkpt>
      <trkpt lat="43.89817" lon="7.44734">
        <ele>679</ele>
        <time>2018-09-16T11:38:20.05Z</time>
      </trkpt>
      <trkpt lat="43.89807" lon="7.44728">
        <ele>684</ele>
        <time>2018-09-16T11:38:38.05Z</time>
      </trkpt>
      <trkpt lat="43.89798" lon="7.44722">
        <ele>687</ele>
        <time>2018-09-16T11:38:55.05Z</time>
      </trkpt>
      <trkpt lat="43.89796" lon="7.44707">
        <ele>692</ele>
        <time>2018-09-16T11:39:14.05Z</time>
      </trkpt>
      <trkpt lat="43.89791" lon="7.44693">
        <ele>694</ele>
        <time>2018-09-16T11:39:26.05Z</time>
      </trkpt>
      <trkpt lat="43.89783" lon="7.44702">
        <ele>694.33</ele>
        <time>2018-09-16T11:39:43.05Z</time>
      </trkpt>
      <trkpt lat="43.89775" lon="7.44704">
        <ele>700</ele>
        <time>2018-09-16T11:39:56.05Z</time>
      </trkpt>
      <trkpt lat="43.89771" lon="7.44691">
        <ele>702</ele>
        <time>2018-09-16T11:40:16.05Z</time>
      </trkpt>
      <trkpt lat="43.89769" lon="7.44677">
        <ele>705</ele>
        <time>2018-09-16T11:40:29.05Z</time>
      </trkpt>
      <trkpt lat="43.89767" lon="7.44663">
        <ele>708</ele>
        <time>2018-09-16T11:40:42.05Z</time>
      </trkpt>
      <trkpt lat="43.89768" lon="7.44648">
        <ele>710</ele>
        <time>2018-09-16T11:40:52.05Z</time>
      </trkpt>
      <trkpt lat="43.89769" lon="7.44634">
        <ele>712</ele>
        <time>2018-09-16T11:41:03.05Z</time>
      </trkpt>
      <trkpt lat="43.8977" lon="7.4462">
        <ele>713</ele>
        <time>2018-09-16T11:41:13.05Z</time>
      </trkpt>
      <trkpt lat="43.89772" lon="7.44604">
        <ele>714</ele>
        <time>2018-09-16T11:41:24.05Z</time>
      </trkpt>
      <trkpt lat="43.89775" lon="7.44591">
        <ele>715</ele>
        <time>2018-09-16T11:41:33.05Z</time>
      </trkpt>
      <trkpt lat="43.89781" lon="7.44579">
        <ele>719.56</ele>
        <time>2018-09-16T11:41:46.05Z</time>
      </trkpt>
      <trkpt lat="43.89781" lon="7.44564">
        <ele>723</ele>
        <time>2018-09-16T11:42:06.05Z</time>
      </trkpt>
      <trkpt lat="43.89771" lon="7.44561">
        <ele>728</ele>
        <time>2018-09-16T11:42:26.05Z</time>
      </trkpt>
      <trkpt lat="43.89762" lon="7.44569">
        <ele>730</ele>
        <time>2018-09-16T11:42:33.05Z</time>
      </trkpt>
      <trkpt lat="43.89759" lon="7.44583">
        <ele>731</ele>
        <time>2018-09-16T11:42:41.05Z</time>
      </trkpt>
      <trkpt lat="43.89754" lon="7.44571">
        <ele>732</ele>
        <time>2018-09-16T11:43:06.05Z</time>
      </trkpt>
      <trkpt lat="43.89755" lon="7.44557">
        <ele>734</ele>
        <time>2018-09-16T11:43:15.05Z</time>
      </trkpt>
      <trkpt lat="43.89756" lon="7.44542">
        <ele>737</ele>
        <time>2018-09-16T11:43:25.05Z</time>
      </trkpt>
      <trkpt lat="43.89756" lon="7.44527">
        <ele>739</ele>
        <time>2018-09-16T11:43:34.05Z</time>
      </trkpt>
      <trkpt lat="43.89758" lon="7.44514">
        <ele>740</ele>
        <time>2018-09-16T11:43:43.05Z</time>
      </trkpt>
      <trkpt lat="43.8976" lon="7.445">
        <ele>741</ele>
        <time>2018-09-16T11:43:53.05Z</time>
      </trkpt>
      <trkpt lat="43.89761" lon="7.44486">
        <ele>743</ele>
        <time>2018-09-16T11:44:02.05Z</time>
      </trkpt>
      <trkpt lat="43.89761" lon="7.44473">
        <ele>745</ele>
        <time>2018-09-16T11:44:13.05Z</time>
      </trkpt>
      <trkpt lat="43.89759" lon="7.4446">
        <ele>747</ele>
        <time>2018-09-16T11:44:23.05Z</time>
      </trkpt>
      <trkpt lat="43.8975" lon="7.44466">
        <ele>751</ele>
        <time>2018-09-16T11:44:37.05Z</time>
      </trkpt>
      <trkpt lat="43.89746" lon="7.44478">
        <ele>751</ele>
        <time>2018-09-16T11:44:46.05Z</time>
      </trkpt>
      <trkpt lat="43.89742" lon="7.4449">
        <ele>752</ele>
        <time>2018-09-16T11:44:53.05Z</time>
      </trkpt>
      <trkpt lat="43.8974" lon="7.44503">
        <ele>752</ele>
        <time>2018-09-16T11:44:59.05Z</time>
      </trkpt>
      <trkpt lat="43.89737" lon="7.44513">
        <ele>753</ele>
        <time>2018-09-16T11:45:07.05Z</time>
      </trkpt>
      <trkpt lat="43.89734" lon="7.44523">
        <ele>755</ele>
        <time>2018-09-16T11:45:14.05Z</time>
      </trkpt>
      <trkpt lat="43.89729" lon="7.44533">
        <ele>757</ele>
        <time>2018-09-16T11:45:22.05Z</time>
      </trkpt>
      <trkpt lat="43.89726" lon="7.44543">
        <ele>757</ele>
        <time>2018-09-16T11:45:29.05Z</time>
      </trkpt>
      <trkpt lat="43.89722" lon="7.44555">
        <ele>759</ele>
        <time>2018-09-16T11:45:37.05Z</time>
      </trkpt>
      <trkpt lat="43.89719" lon="7.44565">
        <ele>759</ele>
        <time>2018-09-16T11:45:43.05Z</time>
      </trkpt>
      <trkpt lat="43.89715" lon="7.44575">
        <ele>759</ele>
        <time>2018-09-16T11:45:50.05Z</time>
      </trkpt>
      <trkpt lat="43.89712" lon="7.44587">
        <ele>760</ele>
        <time>2018-09-16T11:45:57.05Z</time>
      </trkpt>
      <trkpt lat="43.89708" lon="7.44597">
        <ele>761</ele>
        <time>2018-09-16T11:46:05.05Z</time>
      </trkpt>
      <trkpt lat="43.89705" lon="7.44608">
        <ele>763</ele>
        <time>2018-09-16T11:46:12.05Z</time>
      </trkpt>
      <trkpt lat="43.89702" lon="7.44617">
        <ele>763</ele>
        <time>2018-09-16T11:46:18.05Z</time>
      </trkpt>
      <trkpt lat="43.89698" lon="7.44627">
        <ele>765</ele>
        <time>2018-09-16T11:46:22.05Z</time>
      </trkpt>
      <trkpt lat="43.89695" lon="7.44636">
        <ele>765</ele>
        <time>2018-09-16T11:46:25.05Z</time>
      </trkpt>
      <trkpt lat="43.89691" lon="7.44643">
        <ele>765</ele>
        <time>2018-09-16T11:46:28.05Z</time>
      </trkpt>
      <trkpt lat="43.89685" lon="7.44649">
        <ele>767</ele>
        <time>2018-09-16T11:46:32.05Z</time>
      </trkpt>
      <trkpt lat="43.89678" lon="7.44654">
        <ele>767</ele>
        <time>2018-09-16T11:46:39.05Z</time>
      </trkpt>
      <trkpt lat="43.89673" lon="7.44662">
        <ele>767</ele>
        <time>2018-09-16T11:46:46.05Z</time>
      </trkpt>
      <trkpt lat="43.8967" lon="7.4467">
        <ele>767.26</ele>
        <time>2018-09-16T11:46:51.05Z</time>
      </trkpt>
      <trkpt lat="43.89667" lon="7.44677">
        <ele>768</ele>
        <time>2018-09-16T11:46:55.05Z</time>
      </trkpt>
      <trkpt lat="43.8966" lon="7.44682">
        <ele>768</ele>
        <time>2018-09-16T11:47:03.05Z</time>
      </trkpt>
      <trkpt lat="43.89653" lon="7.44684">
        <ele>768</ele>
        <time>2018-09-16T11:47:09.05Z</time>
      </trkpt>
      <trkpt lat="43.89646" lon="7.44686">
        <ele>769</ele>
        <time>2018-09-16T11:47:14.05Z</time>
      </trkpt>
      <trkpt lat="43.89636" lon="7.44687">
        <ele>769</ele>
        <time>2018-09-16T11:47:19.05Z</time>
      </trkpt>
      <trkpt lat="43.89627" lon="7.44696">
        <ele>768</ele>
        <time>2018-09-16T11:47:24.05Z</time>
      </trkpt>
      <trkpt lat="43.8962" lon="7.44704">
        <ele>768</ele>
        <time>2018-09-16T11:47:28.05Z</time>
      </trkpt>
      <trkpt lat="43.89611" lon="7.4471">
        <ele>769</ele>
        <time>2018-09-16T11:47:32.05Z</time>
      </trkpt>
      <trkpt lat="43.89604" lon="7.44716">
        <ele>769</ele>
        <time>2018-09-16T11:47:36.05Z</time>
      </trkpt>
      <trkpt lat="43.89595" lon="7.44723">
        <ele>769.26</ele>
        <time>2018-09-16T11:47:41.05Z</time>
      </trkpt>
      <trkpt lat="43.89587" lon="7.44733">
        <ele>770</ele>
        <time>2018-09-16T11:47:48.05Z</time>
      </trkpt>
      <trkpt lat="43.89576" lon="7.44739">
        <ele>772</ele>
        <time>2018-09-16T11:47:55.05Z</time>
      </trkpt>
      <trkpt lat="43.89566" lon="7.44743">
        <ele>775</ele>
        <time>2018-09-16T11:48:02.05Z</time>
      </trkpt>
      <trkpt lat="43.89555" lon="7.44749">
        <ele>775</ele>
        <time>2018-09-16T11:48:08.05Z</time>
      </trkpt>
      <trkpt lat="43.89546" lon="7.44753">
        <ele>773</ele>
        <time>2018-09-16T11:48:12.05Z</time>
      </trkpt>
      <trkpt lat="43.89537" lon="7.44761">
        <ele>773</ele>
        <time>2018-09-16T11:48:19.05Z</time>
      </trkpt>
      <trkpt lat="43.89527" lon="7.44769">
        <ele>772</ele>
        <time>2018-09-16T11:48:24.05Z</time>
      </trkpt>
      <trkpt lat="43.89519" lon="7.4478">
        <ele>772</ele>
        <time>2018-09-16T11:48:29.05Z</time>
      </trkpt>
      <trkpt lat="43.89512" lon="7.44787">
        <ele>768</ele>
        <time>2018-09-16T11:48:33.05Z</time>
      </trkpt>
      <trkpt lat="43.89505" lon="7.44797">
        <ele>767</ele>
        <time>2018-09-16T11:48:38.05Z</time>
      </trkpt>
      <trkpt lat="43.89497" lon="7.4481">
        <ele>767</ele>
        <time>2018-09-16T11:48:43.05Z</time>
      </trkpt>
      <trkpt lat="43.8949" lon="7.4482">
        <ele>767</ele>
        <time>2018-09-16T11:48:47.05Z</time>
      </trkpt>
      <trkpt lat="43.89483" lon="7.44829">
        <ele>766.74</ele>
        <time>2018-09-16T11:48:51.05Z</time>
      </trkpt>
      <trkpt lat="43.89476" lon="7.44839">
        <ele>766</ele>
        <time>2018-09-16T11:48:55.05Z</time>
      </trkpt>
      <trkpt lat="43.8947" lon="7.44851">
        <ele>766</ele>
        <time>2018-09-16T11:48:59.05Z</time>
      </trkpt>
      <trkpt lat="43.89463" lon="7.44861">
        <ele>763</ele>
        <time>2018-09-16T11:49:03.05Z</time>
      </trkpt>
      <trkpt lat="43.89455" lon="7.44871">
        <ele>763</ele>
        <time>2018-09-16T11:49:07.05Z</time>
      </trkpt>
      <trkpt lat="43.89448" lon="7.44881">
        <ele>762.74</ele>
        <time>2018-09-16T11:49:11.05Z</time>
      </trkpt>
      <trkpt lat="43.89441" lon="7.44892">
        <ele>762</ele>
        <time>2018-09-16T11:49:15.05Z</time>
      </trkpt>
      <trkpt lat="43.89434" lon="7.449">
        <ele>762</ele>
        <time>2018-09-16T11:49:19.05Z</time>
      </trkpt>
      <trkpt lat="43.89426" lon="7.4491">
        <ele>759</ele>
        <time>2018-09-16T11:49:24.05Z</time>
      </trkpt>
      <trkpt lat="43.89419" lon="7.44918">
        <ele>756</ele>
        <time>2018-09-16T11:49:28.05Z</time>
      </trkpt>
      <trkpt lat="43.89409" lon="7.44923">
        <ele>755</ele>
        <time>2018-09-16T11:49:33.05Z</time>
      </trkpt>
      <trkpt lat="43.89399" lon="7.44922">
        <ele>752</ele>
        <time>2018-09-16T11:49:38.05Z</time>
      </trkpt>
      <trkpt lat="43.89391" lon="7.44914">
        <ele>748.74</ele>
        <time>2018-09-16T11:49:43.05Z</time>
      </trkpt>
      <trkpt lat="43.89382" lon="7.44909">
        <ele>745.74</ele>
        <time>2018-09-16T11:49:49.05Z</time>
      </trkpt>
      <trkpt lat="43.89371" lon="7.44911">
        <ele>742.74</ele>
        <time>2018-09-16T11:49:56.05Z</time>
      </trkpt>
      <trkpt lat="43.8936" lon="7.44916">
        <ele>737.74</ele>
        <time>2018-09-16T11:50:01.05Z</time>
      </trkpt>
      <trkpt lat="43.89354" lon="7.44927">
        <ele>738</ele>
        <time>2018-09-16T11:50:06.05Z</time>
      </trkpt>
      <trkpt lat="43.89344" lon="7.44929">
        <ele>735</ele>
        <time>2018-09-16T11:50:12.05Z</time>
      </trkpt>
      <trkpt lat="43.89334" lon="7.44932">
        <ele>735</ele>
        <time>2018-09-16T11:50:17.05Z</time>
      </trkpt>
      <trkpt lat="43.89323" lon="7.44933">
        <ele>732</ele>
        <time>2018-09-16T11:50:23.05Z</time>
      </trkpt>
      <trkpt lat="43.89316" lon="7.44922">
        <ele>727</ele>
        <time>2018-09-16T11:50:29.05Z</time>
      </trkpt>
      <trkpt lat="43.89308" lon="7.44934">
        <ele>727</ele>
        <time>2018-09-16T11:50:35.05Z</time>
      </trkpt>
      <trkpt lat="43.89303" lon="7.44945">
        <ele>726</ele>
        <time>2018-09-16T11:50:40.05Z</time>
      </trkpt>
      <trkpt lat="43.89296" lon="7.44957">
        <ele>723</ele>
        <time>2018-09-16T11:50:45.05Z</time>
      </trkpt>
      <trkpt lat="43.89292" lon="7.44971">
        <ele>720</ele>
        <time>2018-09-16T11:50:50.05Z</time>
      </trkpt>
      <trkpt lat="43.89286" lon="7.4498">
        <ele>716.74</ele>
        <time>2018-09-16T11:50:54.05Z</time>
      </trkpt>
      <trkpt lat="43.89278" lon="7.44982">
        <ele>714.74</ele>
        <time>2018-09-16T11:50:57.05Z</time>
      </trkpt>
      <trkpt lat="43.89271" lon="7.44977">
        <ele>711.48</ele>
        <time>2018-09-16T11:51:01.05Z</time>
      </trkpt>
      <trkpt lat="43.89266" lon="7.44966">
        <ele>710.48</ele>
        <time>2018-09-16T11:51:05.05Z</time>
      </trkpt>
      <trkpt lat="43.89263" lon="7.44955">
        <ele>707.26</ele>
        <time>2018-09-16T11:51:09.05Z</time>
      </trkpt>
      <trkpt lat="43.8926" lon="7.44942">
        <ele>708</ele>
        <time>2018-09-16T11:51:13.05Z</time>
      </trkpt>
      <trkpt lat="43.8925" lon="7.44933">
        <ele>708</ele>
        <time>2018-09-16T11:51:19.05Z</time>
      </trkpt>
      <trkpt lat="43.89252" lon="7.44919">
        <ele>704.74</ele>
        <time>2018-09-16T11:51:26.05Z</time>
      </trkpt>
      <trkpt lat="43.89257" lon="7.44904">
        <ele>702</ele>
        <time>2018-09-16T11:51:32.05Z</time>
      </trkpt>
      <trkpt lat="43.89259" lon="7.44888">
        <ele>700</ele>
        <time>2018-09-16T11:51:37.05Z</time>
      </trkpt>
      <trkpt lat="43.89264" lon="7.44875">
        <ele>699</ele>
        <time>2018-09-16T11:51:42.05Z</time>
      </trkpt>
      <trkpt lat="43.89271" lon="7.44864">
        <ele>698.48</ele>
        <time>2018-09-16T11:51:46.05Z</time>
      </trkpt>
      <trkpt lat="43.89277" lon="7.44853">
        <ele>696.74</ele>
        <time>2018-09-16T11:51:51.05Z</time>
      </trkpt>
      <trkpt lat="43.89283" lon="7.44846">
        <ele>694.96</ele>
        <time>2018-09-16T11:51:56.05Z</time>
      </trkpt>
      <trkpt lat="43.89292" lon="7.44839">
        <ele>690</ele>
        <time>2018-09-16T11:52:03.05Z</time>
      </trkpt>
      <trkpt lat="43.89297" lon="7.44827">
        <ele>693</ele>
        <time>2018-09-16T11:52:14.05Z</time>
      </trkpt>
      <trkpt lat="43.893" lon="7.44821">
        <ele>693</ele>
        <time>2018-09-16T11:52:18.05Z</time>
      </trkpt>
      <trkpt lat="43.89305" lon="7.44816">
        <ele>693.52</ele>
        <time>2018-09-16T11:52:21.05Z</time>
      </trkpt>
      <trkpt lat="43.89306" lon="7.44808">
        <ele>695</ele>
        <time>2018-09-16T11:52:25.05Z</time>
      </trkpt>
      <trkpt lat="43.89304" lon="7.44801">
        <ele>695</ele>
        <time>2018-09-16T11:52:31.05Z</time>
      </trkpt>
      <trkpt lat="43.89302" lon="7.44793">
        <ele>695</ele>
        <time>2018-09-16T11:52:38.05Z</time>
      </trkpt>
      <trkpt lat="43.89308" lon="7.44789">
        <ele>696</ele>
        <time>2018-09-16T11:52:45.05Z</time>
      </trkpt>
      <trkpt lat="43.89311" lon="7.44782">
        <ele>696.52</ele>
        <time>2018-09-16T11:52:51.05Z</time>
      </trkpt>
      <trkpt lat="43.89314" lon="7.44776">
        <ele>700</ele>
        <time>2018-09-16T11:52:57.05Z</time>
      </trkpt>
      <trkpt lat="43.89319" lon="7.4477">
        <ele>697</ele>
        <time>2018-09-16T11:53:03.05Z</time>
      </trkpt>
      <trkpt lat="43.89322" lon="7.44762">
        <ele>697</ele>
        <time>2018-09-16T11:53:07.05Z</time>
      </trkpt>
      <trkpt lat="43.89326" lon="7.44754">
        <ele>696.74</ele>
        <time>2018-09-16T11:53:11.05Z</time>
      </trkpt>
      <trkpt lat="43.8933" lon="7.44745">
        <ele>696</ele>
        <time>2018-09-16T11:53:15.05Z</time>
      </trkpt>
      <trkpt lat="43.89335" lon="7.44735">
        <ele>696</ele>
        <time>2018-09-16T11:53:20.05Z</time>
      </trkpt>
      <trkpt lat="43.89344" lon="7.4473">
        <ele>691.22</ele>
        <time>2018-09-16T11:53:26.05Z</time>
      </trkpt>
      <trkpt lat="43.89353" lon="7.44727">
        <ele>688.48</ele>
        <time>2018-09-16T11:53:31.05Z</time>
      </trkpt>
      <trkpt lat="43.89361" lon="7.44724">
        <ele>687</ele>
        <time>2018-09-16T11:53:36.05Z</time>
      </trkpt>
      <trkpt lat="43.8937" lon="7.44718">
        <ele>686.26</ele>
        <time>2018-09-16T11:53:40.05Z</time>
      </trkpt>
      <trkpt lat="43.89378" lon="7.44712">
        <ele>687</ele>
        <time>2018-09-16T11:53:44.05Z</time>
      </trkpt>
      <trkpt lat="43.89386" lon="7.44706">
        <ele>687</ele>
        <time>2018-09-16T11:53:48.05Z</time>
      </trkpt>
      <trkpt lat="43.89396" lon="7.44705">
        <ele>684</ele>
        <time>2018-09-16T11:53:53.05Z</time>
      </trkpt>
      <trkpt lat="43.89407" lon="7.44709">
        <ele>682</ele>
        <time>2018-09-16T11:53:58.05Z</time>
      </trkpt>
      <trkpt lat="43.89416" lon="7.44704">
        <ele>678</ele>
        <time>2018-09-16T11:54:03.05Z</time>
      </trkpt>
      <trkpt lat="43.89419" lon="7.44697">
        <ele>678</ele>
        <time>2018-09-16T11:54:06.05Z</time>
      </trkpt>
      <trkpt lat="43.89423" lon="7.44691">
        <ele>678</ele>
        <time>2018-09-16T11:54:09.05Z</time>
      </trkpt>
      <trkpt lat="43.89426" lon="7.44687">
        <ele>678</ele>
        <time>2018-09-16T11:54:11.05Z</time>
      </trkpt>
      <trkpt lat="43.89431" lon="7.44676">
        <ele>678</ele>
        <time>2018-09-16T11:54:16.05Z</time>
      </trkpt>
      <trkpt lat="43.8944" lon="7.44668">
        <ele>677</ele>
        <time>2018-09-16T11:54:22.05Z</time>
      </trkpt>
      <trkpt lat="43.89442" lon="7.44657">
        <ele>677</ele>
        <time>2018-09-16T11:54:26.05Z</time>
      </trkpt>
      <trkpt lat="43.89433" lon="7.44669">
        <ele>674</ele>
        <time>2018-09-16T11:54:33.05Z</time>
      </trkpt>
      <trkpt lat="43.89424" lon="7.44679">
        <ele>671</ele>
        <time>2018-09-16T11:54:37.05Z</time>
      </trkpt>
      <trkpt lat="43.89416" lon="7.44687">
        <ele>670.48</ele>
        <time>2018-09-16T11:54:41.05Z</time>
      </trkpt>
      <trkpt lat="43.89405" lon="7.44693">
        <ele>669</ele>
        <time>2018-09-16T11:54:46.05Z</time>
      </trkpt>
      <trkpt lat="43.89393" lon="7.44688">
        <ele>668.75</ele>
        <time>2018-09-16T11:54:51.05Z</time>
      </trkpt>
      <trkpt lat="43.89382" lon="7.44685">
        <ele>668</ele>
        <time>2018-09-16T11:54:56.05Z</time>
      </trkpt>
      <trkpt lat="43.89372" lon="7.44686">
        <ele>668</ele>
        <time>2018-09-16T11:55:00.05Z</time>
      </trkpt>
      <trkpt lat="43.89361" lon="7.4468">
        <ele>666</ele>
        <time>2018-09-16T11:55:05.05Z</time>
      </trkpt>
      <trkpt lat="43.89354" lon="7.44667">
        <ele>666</ele>
        <time>2018-09-16T11:55:10.05Z</time>
      </trkpt>
      <trkpt lat="43.89351" lon="7.4465">
        <ele>664</ele>
        <time>2018-09-16T11:55:15.05Z</time>
      </trkpt>
      <trkpt lat="43.89349" lon="7.44637">
        <ele>664</ele>
        <time>2018-09-16T11:55:19.05Z</time>
      </trkpt>
      <trkpt lat="43.89342" lon="7.44623">
        <ele>662</ele>
        <time>2018-09-16T11:55:24.05Z</time>
      </trkpt>
      <trkpt lat="43.89333" lon="7.44613">
        <ele>662</ele>
        <time>2018-09-16T11:55:28.05Z</time>
      </trkpt>
      <trkpt lat="43.89323" lon="7.44608">
        <ele>659</ele>
        <time>2018-09-16T11:55:32.05Z</time>
      </trkpt>
      <trkpt lat="43.89313" lon="7.44604">
        <ele>658.48</ele>
        <time>2018-09-16T11:55:36.05Z</time>
      </trkpt>
      <trkpt lat="43.89303" lon="7.44599">
        <ele>659</ele>
        <time>2018-09-16T11:55:42.05Z</time>
      </trkpt>
      <trkpt lat="43.89292" lon="7.44603">
        <ele>659</ele>
        <time>2018-09-16T11:55:49.05Z</time>
      </trkpt>
      <trkpt lat="43.8928" lon="7.44601">
        <ele>655</ele>
        <time>2018-09-16T11:55:54.05Z</time>
      </trkpt>
      <trkpt lat="43.89272" lon="7.44591">
        <ele>653</ele>
        <time>2018-09-16T11:55:59.05Z</time>
      </trkpt>
      <trkpt lat="43.89263" lon="7.44581">
        <ele>651</ele>
        <time>2018-09-16T11:56:04.05Z</time>
      </trkpt>
      <trkpt lat="43.89253" lon="7.44572">
        <ele>651</ele>
        <time>2018-09-16T11:56:09.05Z</time>
      </trkpt>
      <trkpt lat="43.89247" lon="7.4456">
        <ele>651</ele>
        <time>2018-09-16T11:56:13.05Z</time>
      </trkpt>
      <trkpt lat="43.8924" lon="7.44551">
        <ele>651</ele>
        <time>2018-09-16T11:56:17.05Z</time>
      </trkpt>
      <trkpt lat="43.89231" lon="7.44539">
        <ele>650</ele>
        <time>2018-09-16T11:56:22.05Z</time>
      </trkpt>
      <trkpt lat="43.89224" lon="7.44527">
        <ele>650</ele>
        <time>2018-09-16T11:56:27.05Z</time>
      </trkpt>
      <trkpt lat="43.89215" lon="7.4452">
        <ele>649</ele>
        <time>2018-09-16T11:56:32.05Z</time>
      </trkpt>
      <trkpt lat="43.89203" lon="7.44519">
        <ele>649</ele>
        <time>2018-09-16T11:56:37.05Z</time>
      </trkpt>
      <trkpt lat="43.89195" lon="7.44528">
        <ele>647</ele>
        <time>2018-09-16T11:56:42.05Z</time>
      </trkpt>
      <trkpt lat="43.89188" lon="7.44542">
        <ele>647</ele>
        <time>2018-09-16T11:56:47.05Z</time>
      </trkpt>
      <trkpt lat="43.89185" lon="7.44557">
        <ele>645</ele>
        <time>2018-09-16T11:56:52.05Z</time>
      </trkpt>
      <trkpt lat="43.89183" lon="7.44573">
        <ele>645</ele>
        <time>2018-09-16T11:56:57.05Z</time>
      </trkpt>
      <trkpt lat="43.89179" lon="7.44588">
        <ele>641</ele>
        <time>2018-09-16T11:57:02.05Z</time>
      </trkpt>
      <trkpt lat="43.89176" lon="7.44601">
        <ele>641</ele>
        <time>2018-09-16T11:57:06.05Z</time>
      </trkpt>
      <trkpt lat="43.89173" lon="7.44587">
        <ele>638</ele>
        <time>2018-09-16T11:57:12.05Z</time>
      </trkpt>
      <trkpt lat="43.89172" lon="7.4457">
        <ele>637</ele>
        <time>2018-09-16T11:57:17.05Z</time>
      </trkpt>
      <trkpt lat="43.89172" lon="7.44555">
        <ele>636.74</ele>
        <time>2018-09-16T11:57:21.05Z</time>
      </trkpt>
      <trkpt lat="43.89173" lon="7.44541">
        <ele>636</ele>
        <time>2018-09-16T11:57:25.05Z</time>
      </trkpt>
      <trkpt lat="43.89168" lon="7.44554">
        <ele>634</ele>
        <time>2018-09-16T11:57:36.05Z</time>
      </trkpt>
      <trkpt lat="43.89167" lon="7.4457">
        <ele>633.48</ele>
        <time>2018-09-16T11:57:41.05Z</time>
      </trkpt>
      <trkpt lat="43.89163" lon="7.44586">
        <ele>631.48</ele>
        <time>2018-09-16T11:57:46.05Z</time>
      </trkpt>
      <trkpt lat="43.89154" lon="7.44598">
        <ele>629.48</ele>
        <time>2018-09-16T11:57:51.05Z</time>
      </trkpt>
      <trkpt lat="43.89144" lon="7.44608">
        <ele>627.22</ele>
        <time>2018-09-16T11:57:56.05Z</time>
      </trkpt>
      <trkpt lat="43.89134" lon="7.44615">
        <ele>624.48</ele>
        <time>2018-09-16T11:58:01.05Z</time>
      </trkpt>
      <trkpt lat="43.89126" lon="7.44623">
        <ele>622.74</ele>
        <time>2018-09-16T11:58:05.05Z</time>
      </trkpt>
      <trkpt lat="43.89119" lon="7.44634">
        <ele>621.74</ele>
        <time>2018-09-16T11:58:10.05Z</time>
      </trkpt>
      <trkpt lat="43.89122" lon="7.44649">
        <ele>621</ele>
        <time>2018-09-16T11:58:16.05Z</time>
      </trkpt>
      <trkpt lat="43.89126" lon="7.44663">
        <ele>621</ele>
        <time>2018-09-16T11:58:20.05Z</time>
      </trkpt>
      <trkpt lat="43.89132" lon="7.44677">
        <ele>619</ele>
        <time>2018-09-16T11:58:25.05Z</time>
      </trkpt>
      <trkpt lat="43.89137" lon="7.44689">
        <ele>619</ele>
        <time>2018-09-16T11:58:29.05Z</time>
      </trkpt>
      <trkpt lat="43.89129" lon="7.44686">
        <ele>612</ele>
        <time>2018-09-16T11:58:37.05Z</time>
      </trkpt>
      <trkpt lat="43.89123" lon="7.44676">
        <ele>611.22</ele>
        <time>2018-09-16T11:58:41.05Z</time>
      </trkpt>
      <trkpt lat="43.89117" lon="7.4467">
        <ele>609</ele>
        <time>2018-09-16T11:58:44.05Z</time>
      </trkpt>
      <trkpt lat="43.89112" lon="7.44663">
        <ele>607.26</ele>
        <time>2018-09-16T11:58:47.05Z</time>
      </trkpt>
      <trkpt lat="43.89107" lon="7.44656">
        <ele>607</ele>
        <time>2018-09-16T11:58:50.05Z</time>
      </trkpt>
      <trkpt lat="43.89101" lon="7.44651">
        <ele>606</ele>
        <time>2018-09-16T11:58:53.05Z</time>
      </trkpt>
      <trkpt lat="43.89094" lon="7.44647">
        <ele>606</ele>
        <time>2018-09-16T11:58:56.05Z</time>
      </trkpt>
      <trkpt lat="43.89087" lon="7.44643">
        <ele>606</ele>
        <time>2018-09-16T11:58:59.05Z</time>
      </trkpt>
      <trkpt lat="43.89079" lon="7.44641">
        <ele>603</ele>
        <time>2018-09-16T11:59:02.05Z</time>
      </trkpt>
      <trkpt lat="43.89071" lon="7.44633">
        <ele>602.48</ele>
        <time>2018-09-16T11:59:06.05Z</time>
      </trkpt>
      <trkpt lat="43.89063" lon="7.44626">
        <ele>601</ele>
        <time>2018-09-16T11:59:10.05Z</time>
      </trkpt>
      <trkpt lat="43.89062" lon="7.44612">
        <ele>599</ele>
        <time>2018-09-16T11:59:14.05Z</time>
      </trkpt>
      <trkpt lat="43.89065" lon="7.44602">
        <ele>598</ele>
        <time>2018-09-16T11:59:17.05Z</time>
      </trkpt>
      <trkpt lat="43.89073" lon="7.44598">
        <ele>598</ele>
        <time>2018-09-16T11:59:20.05Z</time>
      </trkpt>
      <trkpt lat="43.89084" lon="7.44592">
        <ele>597</ele>
        <time>2018-09-16T11:59:25.05Z</time>
      </trkpt>
      <trkpt lat="43.89073" lon="7.44591">
        <ele>595</ele>
        <time>2018-09-16T11:59:32.05Z</time>
      </trkpt>
      <trkpt lat="43.89063" lon="7.44593">
        <ele>594.48</ele>
        <time>2018-09-16T11:59:36.05Z</time>
      </trkpt>
      <trkpt lat="43.89054" lon="7.44599">
        <ele>593</ele>
        <time>2018-09-16T11:59:40.05Z</time>
      </trkpt>
      <trkpt lat="43.89049" lon="7.44611">
        <ele>590</ele>
        <time>2018-09-16T11:59:44.05Z</time>
      </trkpt>
      <trkpt lat="43.89047" lon="7.44625">
        <ele>589</ele>
        <time>2018-09-16T11:59:48.05Z</time>
      </trkpt>
      <trkpt lat="43.89046" lon="7.44635">
        <ele>588.74</ele>
        <time>2018-09-16T11:59:51.05Z</time>
      </trkpt>
      <trkpt lat="43.89048" lon="7.44645">
        <ele>588</ele>
        <time>2018-09-16T11:59:54.05Z</time>
      </trkpt>
      <trkpt lat="43.89041" lon="7.44635">
        <ele>588</ele>
        <time>2018-09-16T12:00:00.05Z</time>
      </trkpt>
      <trkpt lat="43.8904" lon="7.44623">
        <ele>584</ele>
        <time>2018-09-16T12:00:03.05Z</time>
      </trkpt>
      <trkpt lat="43.8904" lon="7.44613">
        <ele>583.74</ele>
        <time>2018-09-16T12:00:06.05Z</time>
      </trkpt>
      <trkpt lat="43.89036" lon="7.44604">
        <ele>583</ele>
        <time>2018-09-16T12:00:09.05Z</time>
      </trkpt>
      <trkpt lat="43.89032" lon="7.44592">
        <ele>580</ele>
        <time>2018-09-16T12:00:13.05Z</time>
      </trkpt>
      <trkpt lat="43.89031" lon="7.44605">
        <ele>579</ele>
        <time>2018-09-16T12:00:24.05Z</time>
      </trkpt>
      <trkpt lat="43.89033" lon="7.44615">
        <ele>579</ele>
        <time>2018-09-16T12:00:27.05Z</time>
      </trkpt>
      <trkpt lat="43.89029" lon="7.44627">
        <ele>578.22</ele>
        <time>2018-09-16T12:00:31.05Z</time>
      </trkpt>
      <trkpt lat="43.89021" lon="7.44636">
        <ele>576</ele>
        <time>2018-09-16T12:00:35.05Z</time>
      </trkpt>
      <trkpt lat="43.89019" lon="7.4462">
        <ele>575</ele>
        <time>2018-09-16T12:00:40.05Z</time>
      </trkpt>
      <trkpt lat="43.8902" lon="7.44605">
        <ele>573</ele>
        <time>2018-09-16T12:00:44.05Z</time>
      </trkpt>
      <trkpt lat="43.89014" lon="7.44593">
        <ele>571</ele>
        <time>2018-09-16T12:00:48.05Z</time>
      </trkpt>
      <trkpt lat="43.89009" lon="7.44581">
        <ele>569</ele>
        <time>2018-09-16T12:00:52.05Z</time>
      </trkpt>
      <trkpt lat="43.89013" lon="7.44568">
        <ele>569</ele>
        <time>2018-09-16T12:00:56.05Z</time>
      </trkpt>
      <trkpt lat="43.89005" lon="7.44577">
        <ele>566</ele>
        <time>2018-09-16T12:01:02.05Z</time>
      </trkpt>
      <trkpt lat="43.89003" lon="7.44591">
        <ele>565.74</ele>
        <time>2018-09-16T12:01:06.05Z</time>
      </trkpt>
      <trkpt lat="43.88997" lon="7.4459">
        <ele>565</ele>
        <time>2018-09-16T12:01:12.05Z</time>
      </trkpt>
      <trkpt lat="43.88994" lon="7.44583">
        <ele>565</ele>
        <time>2018-09-16T12:01:14.05Z</time>
      </trkpt>
      <trkpt lat="43.88991" lon="7.44577">
        <ele>565</ele>
        <time>2018-09-16T12:01:16.05Z</time>
      </trkpt>
      <trkpt lat="43.8899" lon="7.44561">
        <ele>564.22</ele>
        <time>2018-09-16T12:01:21.05Z</time>
      </trkpt>
      <trkpt lat="43.88987" lon="7.44575">
        <ele>560</ele>
        <time>2018-09-16T12:01:27.05Z</time>
      </trkpt>
      <trkpt lat="43.88989" lon="7.44589">
        <ele>559.22</ele>
        <time>2018-09-16T12:01:31.05Z</time>
      </trkpt>
      <trkpt lat="43.88993" lon="7.44598">
        <ele>557</ele>
        <time>2018-09-16T12:01:34.05Z</time>
      </trkpt>
      <trkpt lat="43.88985" lon="7.44592">
        <ele>558</ele>
        <time>2018-09-16T12:01:39.05Z</time>
      </trkpt>
      <trkpt lat="43.88979" lon="7.44583">
        <ele>557</ele>
        <time>2018-09-16T12:01:42.05Z</time>
      </trkpt>
      <trkpt lat="43.88973" lon="7.44571">
        <ele>557</ele>
        <time>2018-09-16T12:01:46.05Z</time>
      </trkpt>
      <trkpt lat="43.8897" lon="7.44558">
        <ele>557</ele>
        <time>2018-09-16T12:01:50.05Z</time>
      </trkpt>
      <trkpt lat="43.88974" lon="7.44544">
        <ele>553</ele>
        <time>2018-09-16T12:01:54.05Z</time>
      </trkpt>
      <trkpt lat="43.88975" lon="7.44535">
        <ele>550</ele>
        <time>2018-09-16T12:01:57.05Z</time>
      </trkpt>
      <trkpt lat="43.88968" lon="7.44547">
        <ele>549</ele>
        <time>2018-09-16T12:02:02.05Z</time>
      </trkpt>
      <trkpt lat="43.88964" lon="7.44562">
        <ele>549</ele>
        <time>2018-09-16T12:02:06.05Z</time>
      </trkpt>
      <trkpt lat="43.88964" lon="7.44576">
        <ele>549</ele>
        <time>2018-09-16T12:02:10.05Z</time>
      </trkpt>
      <trkpt lat="43.88957" lon="7.44565">
        <ele>544</ele>
        <time>2018-09-16T12:02:17.05Z</time>
      </trkpt>
      <trkpt lat="43.88955" lon="7.44552">
        <ele>544</ele>
        <time>2018-09-16T12:02:20.05Z</time>
      </trkpt>
      <trkpt lat="43.88953" lon="7.44541">
        <ele>543</ele>
        <time>2018-09-16T12:02:23.05Z</time>
      </trkpt>
      <trkpt lat="43.88953" lon="7.44529">
        <ele>542.22</ele>
        <time>2018-09-16T12:02:26.05Z</time>
      </trkpt>
      <trkpt lat="43.88956" lon="7.44519">
        <ele>540</ele>
        <time>2018-09-16T12:02:29.05Z</time>
      </trkpt>
      <trkpt lat="43.88952" lon="7.44532">
        <ele>539</ele>
        <time>2018-09-16T12:02:35.05Z</time>
      </trkpt>
      <trkpt lat="43.88949" lon="7.44543">
        <ele>537</ele>
        <time>2018-09-16T12:02:38.05Z</time>
      </trkpt>
      <trkpt lat="43.88947" lon="7.44555">
        <ele>536.74</ele>
        <time>2018-09-16T12:02:41.05Z</time>
      </trkpt>
      <trkpt lat="43.88944" lon="7.44569">
        <ele>536</ele>
        <time>2018-09-16T12:02:45.05Z</time>
      </trkpt>
      <trkpt lat="43.88938" lon="7.44553">
        <ele>535</ele>
        <time>2018-09-16T12:02:57.05Z</time>
      </trkpt>
      <trkpt lat="43.88937" lon="7.44542">
        <ele>535</ele>
        <time>2018-09-16T12:03:00.05Z</time>
      </trkpt>
      <trkpt lat="43.88937" lon="7.44528">
        <ele>530.74</ele>
        <time>2018-09-16T12:03:04.05Z</time>
      </trkpt>
      <trkpt lat="43.88936" lon="7.44517">
        <ele>529.26</ele>
        <time>2018-09-16T12:03:07.05Z</time>
      </trkpt>
      <trkpt lat="43.88933" lon="7.44511">
        <ele>529</ele>
        <time>2018-09-16T12:03:09.05Z</time>
      </trkpt>
      <trkpt lat="43.8893" lon="7.44505">
        <ele>528</ele>
        <time>2018-09-16T12:03:11.05Z</time>
      </trkpt>
      <trkpt lat="43.8893" lon="7.44499">
        <ele>528</ele>
        <time>2018-09-16T12:03:13.05Z</time>
      </trkpt>
      <trkpt lat="43.88931" lon="7.44495">
        <ele>528</ele>
        <time>2018-09-16T12:03:14.05Z</time>
      </trkpt>
      <trkpt lat="43.88926" lon="7.44512">
        <ele>526</ele>
        <time>2018-09-16T12:03:25.05Z</time>
      </trkpt>
      <trkpt lat="43.88919" lon="7.44524">
        <ele>526</ele>
        <time>2018-09-16T12:03:30.05Z</time>
      </trkpt>
      <trkpt lat="43.88908" lon="7.44518">
        <ele>522</ele>
        <time>2018-09-16T12:03:34.05Z</time>
      </trkpt>
      <trkpt lat="43.88899" lon="7.44507">
        <ele>522</ele>
        <time>2018-09-16T12:03:38.05Z</time>
      </trkpt>
      <trkpt lat="43.8889" lon="7.44496">
        <ele>521</ele>
        <time>2018-09-16T12:03:42.05Z</time>
      </trkpt>
      <trkpt lat="43.88883" lon="7.4449">
        <ele>521</ele>
        <time>2018-09-16T12:03:45.05Z</time>
      </trkpt>
      <trkpt lat="43.88879" lon="7.44487">
        <ele>521</ele>
        <time>2018-09-16T12:03:47.05Z</time>
      </trkpt>
      <trkpt lat="43.88874" lon="7.44485">
        <ele>521</ele>
        <time>2018-09-16T12:03:49.05Z</time>
      </trkpt>
      <trkpt lat="43.88863" lon="7.44482">
        <ele>519</ele>
        <time>2018-09-16T12:03:53.05Z</time>
      </trkpt>
      <trkpt lat="43.88853" lon="7.44483">
        <ele>517</ele>
        <time>2018-09-16T12:03:57.05Z</time>
      </trkpt>
      <trkpt lat="43.88843" lon="7.44484">
        <ele>516.22</ele>
        <time>2018-09-16T12:04:01.05Z</time>
      </trkpt>
      <trkpt lat="43.88833" lon="7.4448">
        <ele>514</ele>
        <time>2018-09-16T12:04:05.05Z</time>
      </trkpt>
      <trkpt lat="43.88823" lon="7.44475">
        <ele>514</ele>
        <time>2018-09-16T12:04:09.05Z</time>
      </trkpt>
      <trkpt lat="43.88813" lon="7.44471">
        <ele>515</ele>
        <time>2018-09-16T12:04:13.05Z</time>
      </trkpt>
      <trkpt lat="43.88804" lon="7.44467">
        <ele>515</ele>
        <time>2018-09-16T12:04:17.05Z</time>
      </trkpt>
      <trkpt lat="43.88795" lon="7.44464">
        <ele>514.74</ele>
        <time>2018-09-16T12:04:21.05Z</time>
      </trkpt>
      <trkpt lat="43.88787" lon="7.44463">
        <ele>514</ele>
        <time>2018-09-16T12:04:24.05Z</time>
      </trkpt>
      <trkpt lat="43.88778" lon="7.44463">
        <ele>514</ele>
        <time>2018-09-16T12:04:28.05Z</time>
      </trkpt>
      <trkpt lat="43.88767" lon="7.44462">
        <ele>512</ele>
        <time>2018-09-16T12:04:32.05Z</time>
      </trkpt>
      <trkpt lat="43.88757" lon="7.44455">
        <ele>511.74</ele>
        <time>2018-09-16T12:04:36.05Z</time>
      </trkpt>
      <trkpt lat="43.88748" lon="7.44447">
        <ele>511</ele>
        <time>2018-09-16T12:04:40.05Z</time>
      </trkpt>
      <trkpt lat="43.8874" lon="7.44438">
        <ele>511</ele>
        <time>2018-09-16T12:04:44.05Z</time>
      </trkpt>
      <trkpt lat="43.8873" lon="7.44428">
        <ele>511</ele>
        <time>2018-09-16T12:04:49.05Z</time>
      </trkpt>
      <trkpt lat="43.88718" lon="7.44424">
        <ele>509</ele>
        <time>2018-09-16T12:04:54.05Z</time>
      </trkpt>
      <trkpt lat="43.88707" lon="7.44419">
        <ele>509</ele>
        <time>2018-09-16T12:04:59.05Z</time>
      </trkpt>
      <trkpt lat="43.88695" lon="7.44421">
        <ele>506</ele>
        <time>2018-09-16T12:05:04.05Z</time>
      </trkpt>
      <trkpt lat="43.88704" lon="7.44413">
        <ele>503.48</ele>
        <time>2018-09-16T12:05:11.05Z</time>
      </trkpt>
      <trkpt lat="43.88714" lon="7.44407">
        <ele>502</ele>
        <time>2018-09-16T12:05:15.05Z</time>
      </trkpt>
      <trkpt lat="43.88723" lon="7.44403">
        <ele>501</ele>
        <time>2018-09-16T12:05:19.05Z</time>
      </trkpt>
      <trkpt lat="43.88727" lon="7.44402">
        <ele>496.48</ele>
        <time>2018-09-16T12:05:22.05Z</time>
      </trkpt>
      <trkpt lat="43.88716" lon="7.444">
        <ele>496</ele>
        <time>2018-09-16T12:05:27.05Z</time>
      </trkpt>
      <trkpt lat="43.88708" lon="7.44397">
        <ele>495.74</ele>
        <time>2018-09-16T12:05:30.05Z</time>
      </trkpt>
      <trkpt lat="43.88699" lon="7.44397">
        <ele>495</ele>
        <time>2018-09-16T12:05:34.05Z</time>
      </trkpt>
      <trkpt lat="43.88688" lon="7.44401">
        <ele>495</ele>
        <time>2018-09-16T12:05:39.05Z</time>
      </trkpt>
      <trkpt lat="43.88677" lon="7.44407">
        <ele>495</ele>
        <time>2018-09-16T12:05:44.05Z</time>
      </trkpt>
      <trkpt lat="43.88667" lon="7.44408">
        <ele>495</ele>
        <time>2018-09-16T12:05:48.05Z</time>
      </trkpt>
      <trkpt lat="43.88658" lon="7.44409">
        <ele>491</ele>
        <time>2018-09-16T12:05:52.05Z</time>
      </trkpt>
      <trkpt lat="43.88647" lon="7.44407">
        <ele>488</ele>
        <time>2018-09-16T12:05:57.05Z</time>
      </trkpt>
      <trkpt lat="43.88636" lon="7.44403">
        <ele>487</ele>
        <time>2018-09-16T12:06:02.05Z</time>
      </trkpt>
      <trkpt lat="43.88624" lon="7.444">
        <ele>485</ele>
        <time>2018-09-16T12:06:07.05Z</time>
      </trkpt>
      <trkpt lat="43.88614" lon="7.44396">
        <ele>485</ele>
        <time>2018-09-16T12:06:12.05Z</time>
      </trkpt>
      <trkpt lat="43.88604" lon="7.44391">
        <ele>485</ele>
        <time>2018-09-16T12:06:17.05Z</time>
      </trkpt>
      <trkpt lat="43.88592" lon="7.44386">
        <ele>484</ele>
        <time>2018-09-16T12:06:22.05Z</time>
      </trkpt>
      <trkpt lat="43.88585" lon="7.44384">
        <ele>484</ele>
        <time>2018-09-16T12:06:25.05Z</time>
      </trkpt>
      <trkpt lat="43.88576" lon="7.44385">
        <ele>484</ele>
        <time>2018-09-16T12:06:29.05Z</time>
      </trkpt>
      <trkpt lat="43.88566" lon="7.44382">
        <ele>482</ele>
        <time>2018-09-16T12:06:34.05Z</time>
      </trkpt>
      <trkpt lat="43.88556" lon="7.44376">
        <ele>480</ele>
        <time>2018-09-16T12:06:39.05Z</time>
      </trkpt>
      <trkpt lat="43.88543" lon="7.44376">
        <ele>480</ele>
        <time>2018-09-16T12:06:44.05Z</time>
      </trkpt>
      <trkpt lat="43.88533" lon="7.44377">
        <ele>480</ele>
        <time>2018-09-16T12:06:48.05Z</time>
      </trkpt>
      <trkpt lat="43.88522" lon="7.44375">
        <ele>477</ele>
        <time>2018-09-16T12:06:53.05Z</time>
      </trkpt>
      <trkpt lat="43.88512" lon="7.44374">
        <ele>474</ele>
        <time>2018-09-16T12:06:57.05Z</time>
      </trkpt>
      <trkpt lat="43.885" lon="7.44376">
        <ele>472</ele>
        <time>2018-09-16T12:07:02.05Z</time>
      </trkpt>
      <trkpt lat="43.88489" lon="7.44379">
        <ele>471</ele>
        <time>2018-09-16T12:07:07.05Z</time>
      </trkpt>
      <trkpt lat="43.88477" lon="7.4438">
        <ele>468</ele>
        <time>2018-09-16T12:07:12.05Z</time>
      </trkpt>
      <trkpt lat="43.88466" lon="7.44386">
        <ele>468</ele>
        <time>2018-09-16T12:07:17.05Z</time>
      </trkpt>
      <trkpt lat="43.88456" lon="7.4439">
        <ele>468.26</ele>
        <time>2018-09-16T12:07:21.05Z</time>
      </trkpt>
      <trkpt lat="43.88445" lon="7.44393">
        <ele>469</ele>
        <time>2018-09-16T12:07:25.05Z</time>
      </trkpt>
      <trkpt lat="43.88435" lon="7.44393">
        <ele>469</ele>
        <time>2018-09-16T12:07:29.05Z</time>
      </trkpt>
      <trkpt lat="43.88424" lon="7.44392">
        <ele>464</ele>
        <time>2018-09-16T12:07:33.05Z</time>
      </trkpt>
      <trkpt lat="43.88412" lon="7.4439">
        <ele>463</ele>
        <time>2018-09-16T12:07:37.05Z</time>
      </trkpt>
      <trkpt lat="43.88401" lon="7.44392">
        <ele>462.74</ele>
        <time>2018-09-16T12:07:41.05Z</time>
      </trkpt>
      <trkpt lat="43.88392" lon="7.444">
        <ele>462</ele>
        <time>2018-09-16T12:07:45.05Z</time>
      </trkpt>
      <trkpt lat="43.88385" lon="7.44413">
        <ele>461</ele>
        <time>2018-09-16T12:07:49.05Z</time>
      </trkpt>
      <trkpt lat="43.88385" lon="7.44428">
        <ele>462</ele>
        <time>2018-09-16T12:07:53.05Z</time>
      </trkpt>
      <trkpt lat="43.8839" lon="7.44442">
        <ele>462</ele>
        <time>2018-09-16T12:07:57.05Z</time>
      </trkpt>
      <trkpt lat="43.88396" lon="7.44458">
        <ele>456</ele>
        <time>2018-09-16T12:08:02.05Z</time>
      </trkpt>
      <trkpt lat="43.88399" lon="7.44473">
        <ele>456.74</ele>
        <time>2018-09-16T12:08:06.05Z</time>
      </trkpt>
      <trkpt lat="43.88402" lon="7.44488">
        <ele>453.74</ele>
        <time>2018-09-16T12:08:10.05Z</time>
      </trkpt>
      <trkpt lat="43.88401" lon="7.44496">
        <ele>453</ele>
        <time>2018-09-16T12:08:12.05Z</time>
      </trkpt>
      <trkpt lat="43.88402" lon="7.44502">
        <ele>453</ele>
        <time>2018-09-16T12:08:14.05Z</time>
      </trkpt>
      <trkpt lat="43.88402" lon="7.44515">
        <ele>451</ele>
        <time>2018-09-16T12:08:18.05Z</time>
      </trkpt>
      <trkpt lat="43.88401" lon="7.44529">
        <ele>449</ele>
        <time>2018-09-16T12:08:22.05Z</time>
      </trkpt>
      <trkpt lat="43.88399" lon="7.44542">
        <ele>449</ele>
        <time>2018-09-16T12:08:26.05Z</time>
      </trkpt>
      <trkpt lat="43.88393" lon="7.44555">
        <ele>449</ele>
        <time>2018-09-16T12:08:31.05Z</time>
      </trkpt>
      <trkpt lat="43.88383" lon="7.44555">
        <ele>449</ele>
        <time>2018-09-16T12:08:35.05Z</time>
      </trkpt>
      <trkpt lat="43.88373" lon="7.44551">
        <ele>449</ele>
        <time>2018-09-16T12:08:39.05Z</time>
      </trkpt>
      <trkpt lat="43.88361" lon="7.44544">
        <ele>445</ele>
        <time>2018-09-16T12:08:44.05Z</time>
      </trkpt>
      <trkpt lat="43.88352" lon="7.44538">
        <ele>442</ele>
        <time>2018-09-16T12:08:48.05Z</time>
      </trkpt>
      <trkpt lat="43.88341" lon="7.44534">
        <ele>440.52</ele>
        <time>2018-09-16T12:08:52.05Z</time>
      </trkpt>
      <trkpt lat="43.88329" lon="7.44533">
        <ele>440.48</ele>
        <time>2018-09-16T12:08:57.05Z</time>
      </trkpt>
      <trkpt lat="43.88319" lon="7.44528">
        <ele>437.51</ele>
        <time>2018-09-16T12:09:01.05Z</time>
      </trkpt>
      <trkpt lat="43.88307" lon="7.44525">
        <ele>436.26</ele>
        <time>2018-09-16T12:09:06.05Z</time>
      </trkpt>
      <trkpt lat="43.88297" lon="7.4452">
        <ele>437</ele>
        <time>2018-09-16T12:09:10.05Z</time>
      </trkpt>
      <trkpt lat="43.88288" lon="7.44516">
        <ele>437</ele>
        <time>2018-09-16T12:09:14.05Z</time>
      </trkpt>
      <trkpt lat="43.88277" lon="7.44513">
        <ele>436</ele>
        <time>2018-09-16T12:09:18.05Z</time>
      </trkpt>
      <trkpt lat="43.88266" lon="7.4451">
        <ele>435</ele>
        <time>2018-09-16T12:09:22.05Z</time>
      </trkpt>
      <trkpt lat="43.88255" lon="7.44509">
        <ele>435</ele>
        <time>2018-09-16T12:09:26.05Z</time>
      </trkpt>
      <trkpt lat="43.88244" lon="7.44505">
        <ele>435</ele>
        <time>2018-09-16T12:09:30.05Z</time>
      </trkpt>
      <trkpt lat="43.88234" lon="7.44504">
        <ele>433</ele>
        <time>2018-09-16T12:09:34.05Z</time>
      </trkpt>
      <trkpt lat="43.88223" lon="7.44509">
        <ele>433</ele>
        <time>2018-09-16T12:09:38.05Z</time>
      </trkpt>
      <trkpt lat="43.88213" lon="7.44515">
        <ele>430</ele>
        <time>2018-09-16T12:09:42.05Z</time>
      </trkpt>
      <trkpt lat="43.88202" lon="7.4452">
        <ele>429.48</ele>
        <time>2018-09-16T12:09:46.05Z</time>
      </trkpt>
      <trkpt lat="43.88191" lon="7.44524">
        <ele>428</ele>
        <time>2018-09-16T12:09:50.05Z</time>
      </trkpt>
      <trkpt lat="43.8818" lon="7.44527">
        <ele>428</ele>
        <time>2018-09-16T12:09:54.05Z</time>
      </trkpt>
      <trkpt lat="43.88169" lon="7.44529">
        <ele>423</ele>
        <time>2018-09-16T12:09:58.05Z</time>
      </trkpt>
      <trkpt lat="43.88159" lon="7.4453">
        <ele>420</ele>
        <time>2018-09-16T12:10:02.05Z</time>
      </trkpt>
      <trkpt lat="43.88147" lon="7.44533">
        <ele>419.25</ele>
        <time>2018-09-16T12:10:06.05Z</time>
      </trkpt>
      <trkpt lat="43.88137" lon="7.4454">
        <ele>421</ele>
        <time>2018-09-16T12:10:10.05Z</time>
      </trkpt>
      <trkpt lat="43.88128" lon="7.44551">
        <ele>421</ele>
        <time>2018-09-16T12:10:14.05Z</time>
      </trkpt>
      <trkpt lat="43.8812" lon="7.44564">
        <ele>421</ele>
        <time>2018-09-16T12:10:18.05Z</time>
      </trkpt>
      <trkpt lat="43.88111" lon="7.44574">
        <ele>420.5</ele>
        <time>2018-09-16T12:10:22.05Z</time>
      </trkpt>
      <trkpt lat="43.88102" lon="7.44584">
        <ele>419</ele>
        <time>2018-09-16T12:10:26.05Z</time>
      </trkpt>
      <trkpt lat="43.88094" lon="7.44594">
        <ele>419</ele>
        <time>2018-09-16T12:10:30.05Z</time>
      </trkpt>
      <trkpt lat="43.88087" lon="7.44606">
        <ele>417</ele>
        <time>2018-09-16T12:10:34.05Z</time>
      </trkpt>
      <trkpt lat="43.8808" lon="7.44619">
        <ele>416.33</ele>
        <time>2018-09-16T12:10:38.05Z</time>
      </trkpt>
      <trkpt lat="43.88073" lon="7.44633">
        <ele>413</ele>
        <time>2018-09-16T12:10:42.05Z</time>
      </trkpt>
      <trkpt lat="43.88064" lon="7.44646">
        <ele>410</ele>
        <time>2018-09-16T12:10:46.05Z</time>
      </trkpt>
      <trkpt lat="43.88055" lon="7.44658">
        <ele>409.75</ele>
        <time>2018-09-16T12:10:50.05Z</time>
      </trkpt>
      <trkpt lat="43.88044" lon="7.44668">
        <ele>406.75</ele>
        <time>2018-09-16T12:10:54.05Z</time>
      </trkpt>
      <trkpt lat="43.88033" lon="7.44677">
        <ele>406</ele>
        <time>2018-09-16T12:10:58.05Z</time>
      </trkpt>
      <trkpt lat="43.88024" lon="7.44683">
        <ele>406</ele>
        <time>2018-09-16T12:11:01.05Z</time>
      </trkpt>
      <trkpt lat="43.88015" lon="7.44689">
        <ele>405</ele>
        <time>2018-09-16T12:11:04.05Z</time>
      </trkpt>
      <trkpt lat="43.88005" lon="7.44698">
        <ele>404.51</ele>
        <time>2018-09-16T12:11:08.05Z</time>
      </trkpt>
      <trkpt lat="43.87995" lon="7.4471">
        <ele>402.27</ele>
        <time>2018-09-16T12:11:12.05Z</time>
      </trkpt>
      <trkpt lat="43.87988" lon="7.44718">
        <ele>400</ele>
        <time>2018-09-16T12:11:15.05Z</time>
      </trkpt>
      <trkpt lat="43.87978" lon="7.44728">
        <ele>399</ele>
        <time>2018-09-16T12:11:19.05Z</time>
      </trkpt>
      <trkpt lat="43.8797" lon="7.44735">
        <ele>398.64</ele>
        <time>2018-09-16T12:11:22.05Z</time>
      </trkpt>
      <trkpt lat="43.87962" lon="7.4474">
        <ele>394.77</ele>
        <time>2018-09-16T12:11:25.05Z</time>
      </trkpt>
      <trkpt lat="43.87953" lon="7.4475">
        <ele>394</ele>
        <time>2018-09-16T12:11:29.05Z</time>
      </trkpt>
      <trkpt lat="43.87947" lon="7.44758">
        <ele>392.77</ele>
        <time>2018-09-16T12:11:32.05Z</time>
      </trkpt>
      <trkpt lat="43.87939" lon="7.44767">
        <ele>392</ele>
        <time>2018-09-16T12:11:36.05Z</time>
      </trkpt>
      <trkpt lat="43.87933" lon="7.44782">
        <ele>389</ele>
        <time>2018-09-16T12:11:41.05Z</time>
      </trkpt>
      <trkpt lat="43.87922" lon="7.44789">
        <ele>383</ele>
        <time>2018-09-16T12:11:48.05Z</time>
      </trkpt>
      <trkpt lat="43.87914" lon="7.44787">
        <ele>381</ele>
        <time>2018-09-16T12:11:51.05Z</time>
      </trkpt>
      <trkpt lat="43.87906" lon="7.4478">
        <ele>380.53</ele>
        <time>2018-09-16T12:11:55.05Z</time>
      </trkpt>
      <trkpt lat="43.87905" lon="7.44793">
        <ele>378.87</ele>
        <time>2018-09-16T12:12:00.05Z</time>
      </trkpt>
      <trkpt lat="43.87905" lon="7.44807">
        <ele>377</ele>
        <time>2018-09-16T12:12:04.05Z</time>
      </trkpt>
      <trkpt lat="43.87908" lon="7.44824">
        <ele>377</ele>
        <time>2018-09-16T12:12:08.05Z</time>
      </trkpt>
      <trkpt lat="43.87908" lon="7.44837">
        <ele>373</ele>
        <time>2018-09-16T12:12:11.05Z</time>
      </trkpt>
      <trkpt lat="43.87899" lon="7.44847">
        <ele>372</ele>
        <time>2018-09-16T12:12:15.05Z</time>
      </trkpt>
      <trkpt lat="43.87889" lon="7.44847">
        <ele>371.54</ele>
        <time>2018-09-16T12:12:18.05Z</time>
      </trkpt>
      <trkpt lat="43.8788" lon="7.44848">
        <ele>370</ele>
        <time>2018-09-16T12:12:21.05Z</time>
      </trkpt>
      <trkpt lat="43.87871" lon="7.44846">
        <ele>369</ele>
        <time>2018-09-16T12:12:24.05Z</time>
      </trkpt>
      <trkpt lat="43.87859" lon="7.44844">
        <ele>369</ele>
        <time>2018-09-16T12:12:28.05Z</time>
      </trkpt>
      <trkpt lat="43.87849" lon="7.44848">
        <ele>368</ele>
        <time>2018-09-16T12:12:33.05Z</time>
      </trkpt>
      <trkpt lat="43.8784" lon="7.44857">
        <ele>364</ele>
        <time>2018-09-16T12:12:37.05Z</time>
      </trkpt>
      <trkpt lat="43.87833" lon="7.44871">
        <ele>363</ele>
        <time>2018-09-16T12:12:41.05Z</time>
      </trkpt>
      <trkpt lat="43.87827" lon="7.44884">
        <ele>363</ele>
        <time>2018-09-16T12:12:44.05Z</time>
      </trkpt>
      <trkpt lat="43.87823" lon="7.44898">
        <ele>362</ele>
        <time>2018-09-16T12:12:48.05Z</time>
      </trkpt>
      <trkpt lat="43.87822" lon="7.44914">
        <ele>362</ele>
        <time>2018-09-16T12:12:51.05Z</time>
      </trkpt>
      <trkpt lat="43.87824" lon="7.4493">
        <ele>362</ele>
        <time>2018-09-16T12:12:54.05Z</time>
      </trkpt>
      <trkpt lat="43.87822" lon="7.44943">
        <ele>362</ele>
        <time>2018-09-16T12:12:58.05Z</time>
      </trkpt>
      <trkpt lat="43.87819" lon="7.44959">
        <ele>362</ele>
        <time>2018-09-16T12:13:02.05Z</time>
      </trkpt>
      <trkpt lat="43.87816" lon="7.44975">
        <ele>362</ele>
        <time>2018-09-16T12:13:06.05Z</time>
      </trkpt>
      <trkpt lat="43.87814" lon="7.44991">
        <ele>362</ele>
        <time>2018-09-16T12:13:10.05Z</time>
      </trkpt>
      <trkpt lat="43.87813" lon="7.45008">
        <ele>362</ele>
        <time>2018-09-16T12:13:14.05Z</time>
      </trkpt>
      <trkpt lat="43.87814" lon="7.45022">
        <ele>362</ele>
        <time>2018-09-16T12:13:18.05Z</time>
      </trkpt>
      <trkpt lat="43.87815" lon="7.45036">
        <ele>362</ele>
        <time>2018-09-16T12:13:22.05Z</time>
      </trkpt>
      <trkpt lat="43.87816" lon="7.45051">
        <ele>362</ele>
        <time>2018-09-16T12:13:26.05Z</time>
      </trkpt>
      <trkpt lat="43.87817" lon="7.45066">
        <ele>362</ele>
        <time>2018-09-16T12:13:30.05Z</time>
      </trkpt>
      <trkpt lat="43.87819" lon="7.45082">
        <ele>362</ele>
        <time>2018-09-16T12:13:34.05Z</time>
      </trkpt>
      <trkpt lat="43.87823" lon="7.45099">
        <ele>362</ele>
        <time>2018-09-16T12:13:38.05Z</time>
      </trkpt>
      <trkpt lat="43.87825" lon="7.45115">
        <ele>362</ele>
        <time>2018-09-16T12:13:42.05Z</time>
      </trkpt>
      <trkpt lat="43.87827" lon="7.45129">
        <ele>362</ele>
        <time>2018-09-16T12:13:45.05Z</time>
      </trkpt>
      <trkpt lat="43.87828" lon="7.45143">
        <ele>362</ele>
        <time>2018-09-16T12:13:48.05Z</time>
      </trkpt>
      <trkpt lat="43.87835" lon="7.45157">
        <ele>362</ele>
        <time>2018-09-16T12:13:52.05Z</time>
      </trkpt>
      <trkpt lat="43.87834" lon="7.45172">
        <ele>362</ele>
        <time>2018-09-16T12:13:56.05Z</time>
      </trkpt>
      <trkpt lat="43.87824" lon="7.45177">
        <ele>362</ele>
        <time>2018-09-16T12:14:00.05Z</time>
      </trkpt>
      <trkpt lat="43.87815" lon="7.45174">
        <ele>362</ele>
        <time>2018-09-16T12:14:04.05Z</time>
      </trkpt>
      <trkpt lat="43.87804" lon="7.4517">
        <ele>362</ele>
        <time>2018-09-16T12:14:08.05Z</time>
      </trkpt>
      <trkpt lat="43.87799" lon="7.45159">
        <ele>362</ele>
        <time>2018-09-16T12:14:11.05Z</time>
      </trkpt>
      <trkpt lat="43.87797" lon="7.45148">
        <ele>364</ele>
        <time>2018-09-16T12:14:14.05Z</time>
      </trkpt>
      <trkpt lat="43.87794" lon="7.45138">
        <ele>365</ele>
        <time>2018-09-16T12:14:17.05Z</time>
      </trkpt>
      <trkpt lat="43.8779" lon="7.45131">
        <ele>365</ele>
        <time>2018-09-16T12:14:20.05Z</time>
      </trkpt>
      <trkpt lat="43.87784" lon="7.45125">
        <ele>366</ele>
        <time>2018-09-16T12:14:23.05Z</time>
      </trkpt>
      <trkpt lat="43.87779" lon="7.45118">
        <ele>366</ele>
        <time>2018-09-16T12:14:26.05Z</time>
      </trkpt>
      <trkpt lat="43.87771" lon="7.45111">
        <ele>366</ele>
        <time>2018-09-16T12:14:30.05Z</time>
      </trkpt>
      <trkpt lat="43.87762" lon="7.45103">
        <ele>367</ele>
        <time>2018-09-16T12:14:34.05Z</time>
      </trkpt>
      <trkpt lat="43.87756" lon="7.45097">
        <ele>367</ele>
        <time>2018-09-16T12:14:37.05Z</time>
      </trkpt>
      <trkpt lat="43.87748" lon="7.45092">
        <ele>367</ele>
        <time>2018-09-16T12:14:41.05Z</time>
      </trkpt>
      <trkpt lat="43.8774" lon="7.45091">
        <ele>368</ele>
        <time>2018-09-16T12:14:45.05Z</time>
      </trkpt>
      <trkpt lat="43.8773" lon="7.45096">
        <ele>368</ele>
        <time>2018-09-16T12:14:50.05Z</time>
      </trkpt>
      <trkpt lat="43.8772" lon="7.45104">
        <ele>369</ele>
        <time>2018-09-16T12:14:54.05Z</time>
      </trkpt>
      <trkpt lat="43.87711" lon="7.45111">
        <ele>369</ele>
        <time>2018-09-16T12:14:58.05Z</time>
      </trkpt>
      <trkpt lat="43.877" lon="7.4512">
        <ele>369</ele>
        <time>2018-09-16T12:15:03.05Z</time>
      </trkpt>
      <trkpt lat="43.8769" lon="7.45114">
        <ele>369</ele>
        <time>2018-09-16T12:15:07.05Z</time>
      </trkpt>
      <trkpt lat="43.87686" lon="7.45103">
        <ele>369</ele>
        <time>2018-09-16T12:15:10.05Z</time>
      </trkpt>
      <trkpt lat="43.87681" lon="7.45092">
        <ele>369</ele>
        <time>2018-09-16T12:15:13.05Z</time>
      </trkpt>
      <trkpt lat="43.87677" lon="7.45081">
        <ele>368</ele>
        <time>2018-09-16T12:15:16.05Z</time>
      </trkpt>
      <trkpt lat="43.87676" lon="7.45068">
        <ele>368</ele>
        <time>2018-09-16T12:15:19.05Z</time>
      </trkpt>
      <trkpt lat="43.87679" lon="7.45055">
        <ele>368</ele>
        <time>2018-09-16T12:15:22.05Z</time>
      </trkpt>
      <trkpt lat="43.87687" lon="7.45049">
        <ele>367</ele>
        <time>2018-09-16T12:15:25.05Z</time>
      </trkpt>
      <trkpt lat="43.87696" lon="7.45044">
        <ele>367</ele>
        <time>2018-09-16T12:15:28.05Z</time>
      </trkpt>
      <trkpt lat="43.87703" lon="7.4504">
        <ele>367</ele>
        <time>2018-09-16T12:15:31.05Z</time>
      </trkpt>
      <trkpt lat="43.87705" lon="7.45038">
        <ele>366.92</ele>
        <time>2018-09-16T12:15:32.05Z</time>
      </trkpt>
    </trkseg>
  </trk>
</gpx>